# Wetter Temperatur Luftdruck Luftfeuchtigkeit Sichtweite Windgeschwindigkeit Windrichtung Zeit
1 Clear -9 1024 61 10000 0.45 197 15:23 01.02.2023
2 Clear -8 1023 59 10000 0.45 19 13:20 01.02.2023
3 Clear -8 1021 59 10000 0.45 18 12:59 01.02.2023
4 Clear -9 1022 62 10000 5.14 180 11:56 01.02.2023
5 Clear -9 1023 69 10000 1.86 205 08:56 01.02.2023
6 Clear -7 1023 66 10000 0.89 24 03:18 01.02.2023
7 Clear 0 1022 45 10000 0.89 155 21:38 31.01.2023
8 Clear -3 1024 53 10000 0.89 236 19:57 31.01.2023
9 Snow -5 1025 57 10000 0.89 23 18:50 31.01.2023
10 Clear -15 1027 76 10000 0.89 198 15:37 31.01.2023
11 Clear -15 1027 78 10000 0.89 200 15:18 31.01.2023
12 Clear -15 1027 78 10000 1.15 225 14:52 31.01.2023
13 Clouds -15 1025 81 10000 1.79 179 12:19 31.01.2023
14 Clouds -15 1026 81 10000 0.45 171 11:19 31.01.2023
15 Clouds -14 1028 80 10000 1.34 172 09:52 31.01.2023
16 Clouds -14 1028 79 1422 0.89 160 08:59 31.01.2023
17 Clouds -14 1028 79 1422 0.89 137 08:35 31.01.2023
18 Snow -14 1028 72 10000 2.57 130 05:39 31.01.2023
19 Snow -13 1026 67 664 1.79 352 23:56 30.01.2023
20 Clouds -13 1025 64 7472 2.24 21 22:51 30.01.2023
21 Clouds -13 1024 64 10000 1.79 29 22:30 30.01.2023
22 Clouds -13 1024 64 10000 1.79 29 22:30 30.01.2023
23 Clouds -14 1024 66 10000 3.09 60 20:59 30.01.2023
24 Clouds -14 1026 67 10000 1.34 44 20:27 30.01.2023
25 Clouds -16 1027 73 10000 1.34 61 17:50 30.01.2023
26 Clouds -18 1026 78 10000 0.89 329 16:32 30.01.2023
27 Clouds -19 1025 79 10000 2.57 110 14:27 30.01.2023
28 Clouds -19 1026 79 8046 0.89 344 12:26 30.01.2023
29 Clouds -19 1026 79 8950 0.89 27 10:55 30.01.2023
30 Clouds -19 1026 79 9464 1.34 33 09:54 30.01.2023
31 Clouds -18 1026 79 8039 2.24 27 08:54 30.01.2023
32 Clouds -18 1027 79 6168 1.34 61 06:46 30.01.2023
33 Snow -17 1032 76 307 3.87 54 01:39 30.01.2023
34 Clouds -16 1028 76 2825 4.52 33 23:35 29.01.2023
35 Clouds -15 1026 72 10000 4.24 26 22:37 29.01.2023
36 Mist -14 1014 78 6437 4.12 20 21:35 29.01.2023
37 Clouds -15 1026 77 10000 3.29 26 20:36 29.01.2023
38 Clouds -14 1028 78 10000 3.41 19 19:33 29.01.2023
39 Clouds -14 1020 81 10000 0.89 357 18:42 29.01.2023
40 Clouds -15 1022 83 7636 2.24 15 17:31 29.01.2023
41 Clouds -15 1020 84 2623 2.24 19 16:20 29.01.2023
42 Clouds -14 1019 84 10000 2.57 70 14:43 29.01.2023
43 Clouds -13 1018 83 10000 1.34 27 13:25 29.01.2023
44 Mist -13 1017 83 9656 4.12 110 12:39 29.01.2023
45 Clouds -13 1019 83 10000 1.79 27 12:39 29.01.2023
46 Clouds -13 1018 83 10000 0.89 13 12:21 29.01.2023
47 Clouds -12 1018 83 10000 0.89 13 11:42 29.01.2023
48 Clouds -12 1018 83 10000 1.34 6 11:23 29.01.2023
49 Clouds -12 1019 84 2740 0.89 42 08:56 29.01.2023
50 Snow -11 1020 85 250 1.79 66 07:18 29.01.2023
51 Clouds -3 1012 81 508 2.68 64 00:36 29.01.2023
52 Snow -1 1009 72 4922 1.34 132 21:50 28.01.2023
53 Clouds -1 1010 71 10000 2.24 75 20:24 28.01.2023
54 Clouds -1 1009 69 10000 5.14 100 19:46 28.01.2023
55 Clear -1 1011 67 10000 1.79 6 18:21 28.01.2023
56 Clear -2 1010 70 10000 1.79 0 16:59 28.01.2023
57 Clear -3 1010 71 10000 1.34 359 16:20 28.01.2023
58 Clouds -4 1009 71 10000 5.14 110 15:38 28.01.2023
59 Clear -4 1008 68 10000 1.69 187 14:21 28.01.2023
60 Clear -3 1007 68 10000 0.89 54 12:48 28.01.2023
61 Clear -3 1007 67 10000 0.89 56 11:27 28.01.2023
62 Clear -2 1007 67 10000 0.89 243 10:33 28.01.2023
63 Clear 1 1006 60 10000 2.24 270 06:35 28.01.2023
64 Clear 2 1007 39 10000 1.1 228 01:35 28.01.2023
65 Clouds 5 1007 36 10000 0.93 240 00:23 28.01.2023
66 Clouds 6 1008 34 10000 1.36 191 20:57 27.01.2023
67 Clouds 4 1012 43 10000 1.34 185 17:59 27.01.2023
68 Clouds 3 1012 44 10000 5.14 180 17:39 27.01.2023
69 Clouds 1 1014 51 10000 0.45 194 17:18 27.01.2023
70 Clouds -1 1013 56 10000 4.63 160 16:34 27.01.2023
71 Clouds -3 1014 59 10000 4.63 170 14:53 27.01.2023
72 Clouds -3 1015 59 10000 0.45 184 14:24 27.01.2023
73 Clouds -2 1015 53 10000 3.09 210 12:48 27.01.2023
74 Clouds 0 1016 48 10000 4.63 220 08:39 27.01.2023
75 Clouds 1 1021 45 10000 1.34 282 03:56 27.01.2023
76 Clouds 4 1018 29 10000 5.66 280 22:54 26.01.2023
77 Clear 4 1018 27 10000 5.36 291 21:39 26.01.2023
78 Clear 3 1020 27 10000 2.68 261 20:35 26.01.2023
79 Clear -1 1026 36 10000 1.34 265 18:28 26.01.2023
80 Clear -2 1026 38 10000 2.24 282 17:42 26.01.2023
81 Clear -7 1027 50 10000 0.89 185 16:27 26.01.2023
82 Clear -8 1026 51 10000 0.89 186 15:53 26.01.2023
83 Clear -9 1026 55 10000 0.45 171 15:30 26.01.2023
84 Clear -9 1027 55 10000 0.45 161 14:50 26.01.2023
85 Clouds -8 1026 54 10000 0.89 198 12:48 26.01.2023
86 Clouds -7 1027 53 10000 0.45 194 11:31 26.01.2023
87 Clouds -7 1027 53 10000 2.68 213 10:30 26.01.2023
88 Clouds -7 1026 53 10000 0.45 209 09:44 26.01.2023
89 Clouds -6 1026 61 10000 0.45 284 08:25 26.01.2023
90 Snow -3 1025 66 10000 0.45 188 02:26 26.01.2023
91 Clouds -1 1023 62 10000 1.34 18 23:38 25.01.2023
92 Clouds -1 1023 55 10000 2.68 35 21:59 25.01.2023
93 Clouds 0 1023 51 10000 1.79 320 21:21 25.01.2023
94 Snow -2 1024 72 10000 0.89 128 19:41 25.01.2023
95 Clouds -4 1025 83 10000 1.34 224 18:23 25.01.2023
96 Clouds -6 1023 74 10000 0.45 254 15:51 25.01.2023
97 Clouds -7 1021 75 10000 0.43 152 13:33 25.01.2023
98 Clouds -6 1018 74 10000 0.13 201 11:25 25.01.2023
99 Clouds -7 1017 71 10000 0.62 341 09:49 25.01.2023
100 Clouds -7 1018 72 10000 0.87 246 07:45 25.01.2023
101 Clouds -2 1019 63 10000 0.45 113 01:37 25.01.2023
102 Clouds -1 1019 57 10000 1.34 114 00:25 25.01.2023
103 Clouds 1 1018 51 10000 3.09 20 21:35 24.01.2023
104 Clouds 1 1020 51 10000 1.34 108 20:23 24.01.2023
105 Clouds 0 1020 57 10000 1.34 159 18:47 24.01.2023
106 Clouds -3 1020 76 10000 1.79 175 17:31 24.01.2023
107 Clouds -4 1021 82 10000 0.89 187 16:53 24.01.2023
108 Clouds -6 1021 85 10000 1.34 171 16:26 24.01.2023
109 Clouds -5 1019 88 10000 0.89 103 13:46 24.01.2023
110 Clouds -5 1018 89 10000 0.89 1 11:43 24.01.2023
111 Clouds -5 1016 89 10000 0.89 340 08:43 24.01.2023
112 Clouds -5 1016 89 10000 1.28 7 08:18 24.01.2023
113 Clouds -5 1016 88 10000 1.28 7 07:48 24.01.2023
114 Clouds -4 1018 84 3967 2.68 350 02:43 24.01.2023
115 Clouds -1 1016 71 10000 2.24 11 00:37 24.01.2023
116 Clouds 2 1017 55 10000 1.34 112 22:28 23.01.2023
117 Clouds 1 1020 66 10000 1.34 122 20:26 23.01.2023
118 Clouds 0 1022 72 10000 1.34 164 19:21 23.01.2023
119 Clouds -3 1024 85 1879 0.45 304 17:19 23.01.2023
120 Clouds -4 1022 84 524 0.8 295 15:32 23.01.2023
121 Clouds -4 1022 78 1845 0.45 30 13:56 23.01.2023
122 Clouds -4 1021 77 10000 0.89 311 12:55 23.01.2023
123 Clouds -4 1019 77 10000 3.09 190 11:46 23.01.2023
124 Clouds -4 1020 77 10000 1.34 21 11:28 23.01.2023
125 Clouds -4 1020 77 10000 1.34 21 11:28 23.01.2023
126 Clouds -4 1017 76 10000 0.89 345 08:25 23.01.2023
127 Clouds 2 1012 49 10000 1.34 90 00:22 23.01.2023
128 Clear 4 1012 45 10000 1.79 90 21:51 22.01.2023
129 Clear 4 1012 45 10000 2.24 94 21:19 22.01.2023
130 Clear 3 1012 46 10000 0.89 140 19:56 22.01.2023
131 Clear 3 1013 45 10000 1.34 125 19:37 22.01.2023
132 Rain 1 1014 48 10000 1.34 211 18:37 22.01.2023
133 Clear 0 1014 52 10000 1.34 82 17:55 22.01.2023
134 Clouds -2 1013 58 10000 3.6 190 17:24 22.01.2023
135 Clear -7 1014 72 10000 0.45 166 15:26 22.01.2023
136 Clear -7 1013 73 10000 2.14 200 14:34 22.01.2023
137 Clouds -7 1014 73 10000 2.26 204 13:27 22.01.2023
138 Clouds -6 1015 71 10000 0.45 48 12:30 22.01.2023
139 Clouds -5 1013 67 10000 2.42 207 11:33 22.01.2023
140 Clouds -4 1017 79 10000 2.4 212 09:35 22.01.2023
141 Clouds -4 1019 78 10000 1.34 171 04:22 22.01.2023
142 Clouds -2 1022 73 10000 1.34 121 23:44 21.01.2023
143 Snow -2 1022 73 10000 0.89 121 22:55 21.01.2023
144 Clouds -3 1022 76 10000 1.79 24 21:34 21.01.2023
145 Clouds -1 1023 58 10000 0.89 80 18:55 21.01.2023
146 Clouds -5 1023 78 10000 0.45 241 16:40 21.01.2023
147 Clouds -7 1021 81 940 0.89 316 13:57 21.01.2023
148 Snow -7 1019 81 380 2.65 319 12:57 21.01.2023
149 Clouds -8 1022 82 1174 1.78 301 11:40 21.01.2023
150 Clouds -9 1020 83 10000 2.57 200 10:49 21.01.2023
151 Clouds -9 1021 86 10000 2.06 210 08:47 21.01.2023
152 Clouds -5 1022 81 10000 0.45 63 04:31 21.01.2023
153 Clouds -1 1021 59 10000 0.89 28 22:28 20.01.2023
154 Snow -1 1021 57 10000 1.34 274 21:37 20.01.2023
155 Clouds -1 1022 55 10000 0.89 26 20:54 20.01.2023
156 Clouds -2 1025 57 10000 0.89 340 19:20 20.01.2023
157 Clouds -5 1025 76 10000 0.92 1 16:37 20.01.2023
158 Clouds -7 1023 80 10000 0.88 20 14:46 20.01.2023
159 Clouds -6 1021 79 10000 0.38 19 13:37 20.01.2023
160 Clouds -6 1020 79 10000 0.35 149 10:24 20.01.2023
161 Clouds -6 1021 79 10000 0.73 148 08:22 20.01.2023
162 Clouds -5 1017 72 10000 0.63 281 04:22 20.01.2023
163 Clouds -3 1019 66 2516 1.34 20 02:29 20.01.2023
164 Clouds 3 1015 55 10000 3.6 110 22:32 19.01.2023
165 Clouds 3 1015 52 10000 0.89 134 20:25 19.01.2023
166 Clear 2 1016 52 10000 1.34 184 19:23 19.01.2023
167 Clear -8 1016 77 10000 0.89 223 16:25 19.01.2023
168 Clear -9 1014 83 10000 2.95 216 11:28 19.01.2023
169 Clear -9 1014 88 10000 0.45 48 08:59 19.01.2023
170 Snow -2 1012 90 585 0.45 31 00:45 19.01.2023
171 Snow -3 1008 90 2675 4.02 355 21:19 18.01.2023
172 Snow -3 1008 90 10000 3.58 17 20:19 18.01.2023
173 Clouds -3 1008 89 10000 4.92 360 19:37 18.01.2023
174 Snow -3 1007 90 154 1.79 336 17:35 18.01.2023
175 Snow -4 1005 91 2414 4.63 10 15:24 18.01.2023
176 Snow -4 1005 91 148 2.68 346 13:29 18.01.2023
177 Snow -4 1004 91 122 1.34 353 11:20 18.01.2023
178 Snow -3 1004 91 132 1.79 5 08:23 18.01.2023
179 Clouds 0 1004 76 10000 1.79 13 01:28 18.01.2023
180 Clouds 1 1004 69 10000 2.24 346 23:46 17.01.2023
181 Clouds 3 1003 63 10000 2.24 24 20:37 17.01.2023
182 Clouds 3 1004 65 10000 1.34 333 19:34 17.01.2023
183 Clouds 2 1006 69 10000 1.34 6 18:28 17.01.2023
184 Clouds -1 1004 74 10000 1.11 319 16:33 17.01.2023
185 Clear -3 1007 81 10000 1.07 37 14:56 17.01.2023
186 Clear -3 1002 79 10000 0.65 6 13:52 17.01.2023
187 Clear -3 1002 80 10000 0.45 172 12:27 17.01.2023
188 Clear -3 1004 80 10000 0.45 309 11:38 17.01.2023
189 Clear -1 1003 77 10000 0.45 0 09:34 17.01.2023
190 Clear -1 1003 71 10000 0.45 333 07:53 17.01.2023
191 Clouds 2 1003 56 10000 1.34 264 03:57 17.01.2023
192 Clouds 6 1002 39 10000 0.89 360 00:57 17.01.2023
193 Clouds 9 1001 32 10000 2.24 46 23:32 16.01.2023
194 Clouds 9 1001 29 10000 0.89 319 21:52 16.01.2023
195 Clouds 8 1001 34 10000 1.79 110 20:27 16.01.2023
196 Clouds 7 1002 41 10000 1.34 267 19:35 16.01.2023
197 Clouds 6 1002 46 10000 1.79 194 18:53 16.01.2023
198 Clouds 4 1002 50 10000 1.79 181 18:21 16.01.2023
199 Clouds 2 1002 57 10000 0.89 171 17:34 16.01.2023
200 Clouds -1 1001 69 10000 1.34 236 14:38 16.01.2023
201 Clear -1 1003 70 10000 0.89 9 13:38 16.01.2023
202 Clouds -1 1000 85 10000 3.09 180 10:32 16.01.2023
203 Clouds -1 999 85 10000 1.77 196 09:53 16.01.2023
204 Clouds 6 994 50 10000 1.79 11 23:22 15.01.2023
205 Clouds 7 995 48 10000 1.34 30 21:42 15.01.2023
206 Clouds 7 995 48 10000 1.79 13 20:35 15.01.2023
207 Clouds 6 997 51 10000 2.24 316 19:44 15.01.2023
208 Clouds 4 998 64 10000 0.45 215 17:40 15.01.2023
209 Clouds 2 999 68 10000 1.23 276 15:22 15.01.2023
210 Clouds 2 1000 63 10000 1.79 289 12:31 15.01.2023
211 Clouds 2 1001 64 10000 0.89 257 11:35 15.01.2023
212 Clouds 2 1001 64 10000 0.45 264 10:28 15.01.2023
213 Clouds 3 1003 62 10000 2.57 190 09:35 15.01.2023
214 Clouds 8 1004 44 10000 0.89 331 01:47 15.01.2023
215 Clouds 14 1003 53 10000 0.83 294 22:50 14.01.2023
216 Clouds 14 1003 59 10000 0.91 276 21:55 14.01.2023
217 Clouds 14 1007 30 10000 3.09 70 21:36 14.01.2023
218 Clouds 14 1004 66 10000 1.27 246 21:18 14.01.2023
219 Clouds 14 1004 66 10000 1.27 246 21:18 14.01.2023
220 Clouds 14 1004 66 10000 1.27 246 20:31 14.01.2023
221 Clouds 10 1010 44 10000 0.45 221 18:38 14.01.2023
222 Clouds 3 1011 59 10000 0.45 276 15:48 14.01.2023
223 Clouds 2 1011 60 10000 0.45 158 15:26 14.01.2023
224 Clouds 2 1012 62 10000 0.45 313 14:25 14.01.2023
225 Clouds 2 1013 63 10000 0.45 219 13:33 14.01.2023
226 Clouds 2 1014 62 10000 2.27 214 10:52 14.01.2023
227 Clouds 3 1014 62 10000 0.45 11 09:59 14.01.2023
228 Clouds 3 1018 66 10000 2.09 208 05:37 14.01.2023
229 Clouds 9 1018 72 10000 0.69 248 23:23 13.01.2023
230 Clouds 10 1018 72 10000 0.69 248 22:45 13.01.2023
231 Clouds 10 1020 40 10000 3.6 130 22:20 13.01.2023
232 Clouds 10 1022 43 10000 2.57 110 21:23 13.01.2023
233 Clouds 9 1025 41 10000 2.57 220 19:36 13.01.2023
234 Clouds 5 1026 51 10000 0.89 171 17:59 13.01.2023
235 Clouds 0 1025 66 10000 3.6 150 16:24 13.01.2023
236 Clouds 0 1028 62 10000 1.09 220 12:36 13.01.2023
237 Clouds -1 1028 63 10000 1.84 217 12:18 13.01.2023
238 Clouds -1 1029 67 10000 1.95 212 10:23 13.01.2023
239 Clouds -2 1029 67 10000 1.93 212 09:45 13.01.2023
240 Clouds -2 1027 70 10000 1.72 213 08:52 13.01.2023
241 Clear -2 1027 72 10000 2.06 212 07:49 13.01.2023
242 Clear -1 1027 67 10000 2.21 201 06:52 13.01.2023
243 Clouds 0 1028 63 10000 0.45 33 03:26 13.01.2023
244 Clouds 5 1026 77 10000 0.22 3 23:43 12.01.2023
245 Clouds 7 1025 32 10000 0.5 108 22:31 12.01.2023
246 Clouds 7 1027 35 10000 1.34 128 20:55 12.01.2023
247 Clouds 4 1031 51 10000 0.89 165 18:52 12.01.2023
248 Clouds -1 1030 73 10000 0.89 141 17:33 12.01.2023
249 Clear -4 1029 87 10000 1.34 260 15:53 12.01.2023
250 Clear -4 1028 88 10000 0.45 200 14:44 12.01.2023
251 Clear -4 1028 88 10000 0.45 124 14:21 12.01.2023
252 Clouds -4 1028 91 10000 0.89 229 12:44 12.01.2023
253 Clouds -3 1026 91 10000 1.95 194 10:30 12.01.2023
254 Clouds -2 1024 91 10000 0.45 136 07:44 12.01.2023
255 Clouds 0 1017 91 10000 0.89 30 01:40 12.01.2023
256 Clouds 1 1011 90 10000 3.76 344 23:58 11.01.2023
257 Mist 1 1013 90 2414 2.06 40 23:39 11.01.2023
258 Clouds 1 1013 90 10000 1.79 93 23:20 11.01.2023
259 Clouds 1 1010 90 10000 1.79 27 21:41 11.01.2023
260 Clouds 1 1007 90 10000 1.79 336 19:30 11.01.2023
261 Clouds 1 1006 90 10000 0.45 341 18:19 11.01.2023
262 Clouds 1 1005 83 10000 4.47 340 15:54 11.01.2023
263 Clouds 0 1005 80 10000 2.61 29 13:59 11.01.2023
264 Clouds 1 1005 77 10000 2.82 332 12:34 11.01.2023
265 Clouds 1 1005 73 10000 2.57 300 11:40 11.01.2023
266 Clouds 3 1006 63 10000 2.68 282 09:32 11.01.2023
267 Clouds 4 1006 54 10000 0.45 178 07:31 11.01.2023
268 Clouds 5 1006 50 10000 1.07 154 06:56 11.01.2023
269 Clouds 12 1008 32 10000 7.2 290 23:55 10.01.2023
270 Clear 13 1007 33 10000 4.92 217 22:36 10.01.2023
271 Clear 13 1004 32 10000 1.64 218 21:29 10.01.2023
272 Clear 12 1008 42 10000 1.79 285 19:56 10.01.2023
273 Clouds 11 1008 44 10000 3.58 247 19:29 10.01.2023
274 Clouds 10 1008 46 10000 0.89 216 18:47 10.01.2023
275 Clouds 6 1008 57 10000 0.89 173 17:33 10.01.2023
276 Clear 2 1009 65 10000 2.78 205 15:47 10.01.2023
277 Clear 1 1008 68 10000 0.45 256 15:21 10.01.2023
278 Clear 1 1008 66 10000 0.89 272 13:33 10.01.2023
279 Clouds 1 1008 66 10000 0.45 230 10:38 10.01.2023
280 Clouds 1 1009 66 10000 0.45 208 08:39 10.01.2023
281 Clouds 1 1010 66 10000 0.45 167 07:57 10.01.2023
282 Clouds 2 1009 61 10000 0.89 257 07:24 10.01.2023
283 Clouds 6 1013 45 10000 5.14 150 00:47 10.01.2023
284 Clouds 9 1011 37 10000 1.19 245 22:41 09.01.2023
285 Clouds 9 1014 38 10000 6.17 140 21:20 09.01.2023
286 Clouds 9 1015 37 10000 2.35 188 20:25 09.01.2023
287 Clouds 8 1015 40 10000 0.89 214 18:40 09.01.2023
288 Clouds 7 1016 41 10000 1.34 184 17:50 09.01.2023
289 Clouds 3 1017 49 10000 0.89 228 16:34 09.01.2023
290 Clear 1 1017 54 10000 0.45 144 15:43 09.01.2023
291 Clear 0 1017 55 10000 0.45 104 15:22 09.01.2023
292 Clear 0 1018 54 10000 0.89 108 14:42 09.01.2023
293 Clouds 1 1018 51 10000 4.63 290 12:54 09.01.2023
294 Clear 1 1018 52 10000 1.34 136 11:54 09.01.2023
295 Clear 0 1019 52 10000 0.89 201 11:19 09.01.2023
296 Clear 2 1016 51 10000 1.34 271 06:58 09.01.2023
297 Clouds 3 1017 53 10000 0.45 65 02:55 09.01.2023
298 Clouds 5 1018 48 10000 1.34 246 01:49 09.01.2023
299 Clouds 11 1014 25 10000 0.37 204 22:29 08.01.2023
300 Clouds 10 1015 27 10000 0.96 200 21:22 08.01.2023
301 Clouds 10 1018 27 10000 1.34 200 20:37 08.01.2023
302 Clouds 7 1020 33 10000 1.79 175 18:51 08.01.2023
303 Clouds 1 1021 42 10000 0.89 100 17:22 08.01.2023
304 Clouds 1 1020 39 10000 0.45 170 16:43 08.01.2023
305 Clouds -1 1022 43 10000 2.2 202 15:36 08.01.2023
306 Clouds -1 1023 45 10000 2.17 200 13:58 08.01.2023
307 Clouds -2 1023 49 10000 2.16 205 13:30 08.01.2023
308 Clouds -2 1019 51 10000 6.17 170 12:46 08.01.2023
309 Clear -2 1024 61 10000 2.26 199 10:28 08.01.2023
310 Clear -2 1019 62 10000 0.45 258 09:36 08.01.2023
311 Clear -2 1022 70 10000 0.45 306 07:47 08.01.2023
312 Clear 5 1023 53 10000 0.89 20 23:59 07.01.2023
313 Clouds 7 1023 43 10000 6.69 130 22:47 07.01.2023
314 Clear 7 1023 42 10000 1.34 16 22:24 07.01.2023
315 Clear 7 1023 42 10000 2.24 22 21:47 07.01.2023
316 Clear 7 1024 43 10000 0.89 125 20:32 07.01.2023
317 Clouds 5 1025 48 10000 0.89 147 19:30 07.01.2023
318 Clouds 4 1025 52 10000 0.89 85 18:33 07.01.2023
319 Clouds 3 1025 56 10000 0.89 216 17:44 07.01.2023
320 Clouds 0 1025 63 10000 3.6 170 17:21 07.01.2023
321 Clouds -1 1024 67 10000 2.42 202 16:32 07.01.2023
322 Clouds -2 1024 73 10000 0.45 254 15:46 07.01.2023
323 Clouds -2 1023 74 10000 2.41 205 15:24 07.01.2023
324 Clouds -2 1022 73 10000 0.89 285 14:26 07.01.2023
325 Clouds -2 1023 75 10000 0.45 356 13:44 07.01.2023
326 Clouds -2 1022 75 10000 0.45 0 13:22 07.01.2023
327 Clouds -2 1022 73 10000 0.45 126 12:22 07.01.2023
328 Clouds -1 1021 71 10000 1.79 223 11:18 07.01.2023
329 Clouds -1 1021 71 10000 0.45 109 10:25 07.01.2023
330 Clouds -1 1022 73 10000 0.89 258 08:21 07.01.2023
331 Clouds -1 1022 72 10000 0.45 146 07:43 07.01.2023
332 Clouds -1 1022 71 10000 0.87 154 06:49 07.01.2023
333 Clouds 5 1017 45 10000 0.45 111 23:55 06.01.2023
334 Clouds 6 1016 42 10000 1.34 29 22:22 06.01.2023
335 Clouds 6 1015 43 10000 1.34 311 21:58 06.01.2023
336 Clouds 5 1016 44 10000 1.34 279 20:52 06.01.2023
337 Clouds 5 1015 44 10000 1.34 320 19:56 06.01.2023
338 Clouds 5 1015 45 10000 0.89 310 19:38 06.01.2023
339 Clouds 4 1015 46 10000 0.89 312 19:20 06.01.2023
340 Clouds 2 1015 52 10000 1.21 184 18:24 06.01.2023
341 Clouds 0 1020 55 10000 1.78 215 16:54 06.01.2023
342 Clear -3 1016 64 10000 0.45 145 16:23 06.01.2023
343 Clear -3 1017 64 10000 1.77 220 15:53 06.01.2023
344 Clear -4 1017 63 10000 1.99 218 15:31 06.01.2023
345 Clear -4 1015 64 10000 0.81 284 13:47 06.01.2023
346 Clouds -3 1013 63 10000 0.45 309 12:21 06.01.2023
347 Clouds -3 1012 67 10000 0.45 356 10:57 06.01.2023
348 Clouds -2 1013 62 10000 0.45 257 08:53 06.01.2023
349 Clouds -3 1016 67 10000 0.54 200 05:26 06.01.2023
350 Clouds 3 1016 47 10000 0.89 37 23:39 05.01.2023
351 Clouds 3 1017 47 10000 1.34 28 22:45 05.01.2023
352 Clouds 3 1017 47 10000 1.34 347 21:19 05.01.2023
353 Clouds -1 1018 49 10000 0.45 217 17:39 05.01.2023
354 Clouds -3 1020 55 10000 0.45 71 17:21 05.01.2023
355 Clouds -5 1022 55 10000 0.45 244 15:58 05.01.2023
356 Clouds -5 1022 55 10000 0.45 244 15:58 05.01.2023
357 Clouds -5 1022 54 10000 0.45 294 15:34 05.01.2023
358 Clouds -6 1019 58 10000 0.89 349 14:33 05.01.2023
359 Clouds -7 1019 61 10000 0.89 44 12:41 05.01.2023
360 Clouds -7 1018 61 10000 5.14 180 11:36 05.01.2023
361 Clear -6 1019 62 10000 0.89 182 09:43 05.01.2023
362 Clear -6 1020 60 10000 0.89 197 08:22 05.01.2023
363 Clear -5 1020 56 10000 1.34 165 06:49 05.01.2023
364 Clear -3 1018 49 10000 0.45 18 02:56 05.01.2023
365 Clouds 4 1016 32 10000 2.24 335 22:27 04.01.2023
366 Clouds 3 1016 33 10000 5.36 222 21:31 04.01.2023
367 Clouds 3 1016 35 10000 2.24 323 20:21 04.01.2023
368 Clouds 3 1016 37 10000 1.34 7 19:45 04.01.2023
369 Clouds 2 1017 38 10000 1.79 18 19:27 04.01.2023
370 Rain 1 1016 46 10000 0.89 111 18:18 04.01.2023
371 Clouds -5 1014 68 10000 0.45 192 16:31 04.01.2023
372 Clouds -7 1016 71 10000 0.45 335 14:50 04.01.2023
373 Clouds -7 1008 72 10000 0.45 217 12:36 04.01.2023
374 Clouds -7 1011 74 10000 1.34 35 11:23 04.01.2023
375 Clouds -7 1011 76 10000 0.45 57 10:44 04.01.2023
376 Clouds -7 1011 77 10000 0.45 113 10:25 04.01.2023
377 Clouds -7 1010 79 10000 0.45 0 09:40 04.01.2023
378 Clouds -6 1011 81 10000 1.34 283 05:39 04.01.2023
379 Clouds -4 1011 83 10000 0.89 92 01:40 04.01.2023
380 Clouds -2 1010 79 10000 0.89 102 23:42 03.01.2023
381 Snow -2 1009 78 10000 1.34 58 22:56 03.01.2023
382 Snow -2 1009 78 10000 1.34 123 21:37 03.01.2023
383 Snow -2 1009 79 10000 1.34 0 20:28 03.01.2023
384 Snow -3 1010 79 10000 1.79 23 18:22 03.01.2023
385 Clouds -6 1007 86 10000 2.57 180 16:39 03.01.2023
386 Clouds -8 1008 89 10000 2.2 215 14:23 03.01.2023
387 Clouds -8 1009 90 10000 1.89 236 13:32 03.01.2023
388 Clouds -8 1009 90 10000 2.16 211 13:32 03.01.2023
389 Clouds -8 1008 90 10000 0.45 288 12:59 03.01.2023
390 Clouds -7 1008 90 10000 1.88 265 12:31 03.01.2023
391 Clouds -6 1008 90 10000 1.88 265 11:41 03.01.2023
392 Clouds -4 1009 90 9805 1.34 343 08:23 03.01.2023
393 Snow -4 1008 92 595 1.34 37 04:26 03.01.2023
394 Snow -3 1008 92 595 0.89 17 03:46 03.01.2023
395 Fog -3 1008 92 805 4.12 330 03:26 03.01.2023
396 Clouds -3 1006 91 10000 1.34 341 22:46 02.01.2023
397 Clouds -3 1005 91 9862 1.34 333 22:26 02.01.2023
398 Clouds -2 1006 92 5920 1.79 17 20:51 02.01.2023
399 Clouds -2 1006 92 10000 1.79 17 20:26 02.01.2023
400 Clouds -2 1007 92 10000 1.34 359 18:40 02.01.2023
401 Clouds -2 1007 92 3296 0.45 15 15:43 02.01.2023
402 Clouds -2 1008 92 1025 0.9 9 13:39 02.01.2023
403 Snow -2 1008 92 668 0.45 337 12:18 02.01.2023
404 Snow -2 1009 92 482 1.96 358 10:57 02.01.2023
405 Snow -1 1009 92 246 0.45 122 08:38 02.01.2023
406 Clouds -1 1011 88 10000 0.45 11 03:32 02.01.2023
407 Clouds 3 1008 69 10000 0.89 24 22:43 01.01.2023
408 Clouds 3 1008 67 10000 1.34 32 21:43 01.01.2023
409 Clouds 3 1008 65 10000 2.24 28 20:48 01.01.2023
410 Clouds 3 1009 65 10000 4.12 80 20:18 01.01.2023
411 Clouds 2 1010 68 10000 2.06 130 18:39 01.01.2023
412 Clouds 0 1009 71 10000 0.59 107 17:23 01.01.2023
413 Clouds -1 1012 74 10000 0.59 107 16:34 01.01.2023
414 Clouds -2 1009 78 10000 1.55 171 15:27 01.01.2023
415 Clouds -1 1008 77 10000 1.74 182 13:41 01.01.2023
416 Clouds -1 1009 78 10000 1.85 194 12:41 01.01.2023
417 Clouds 0 1008 76 10000 0.45 165 11:39 01.01.2023
418 Clouds 0 1008 77 10000 0.45 187 10:47 01.01.2023
419 Clouds 0 1007 76 10000 0.89 270 08:59 01.01.2023
420 Clouds 1 1007 75 10000 0.45 233 08:23 01.01.2023
421 Clouds 1 1007 76 10000 2.39 172 07:27 01.01.2023
422 Clouds 2 1007 77 10000 1.9 201 03:47 01.01.2023
423 Clouds 7 1005 59 10000 0.89 49 23:44 31.12.2022
424 Clouds 9 1004 54 10000 1.34 27 22:35 31.12.2022
425 Clouds 10 1003 52 10000 3.09 250 21:41 31.12.2022
426 Clouds 11 1004 50 10000 0.89 56 21:19 31.12.2022
427 Clear 9 1004 56 10000 0.89 258 19:42 31.12.2022
428 Clouds 7 1004 57 10000 1.34 113 18:45 31.12.2022
429 Clouds 5 1005 63 10000 0.89 213 18:19 31.12.2022
430 Clouds 4 1005 64 10000 0.89 234 17:48 31.12.2022
431 Clouds 2 1005 68 10000 0.89 5 16:59 31.12.2022
432 Clouds -1 1004 75 10000 3.09 200 16:29 31.12.2022
433 Clouds -2 1004 76 10000 0.89 0 14:45 31.12.2022
434 Clouds -1 1003 75 10000 0.89 211 13:44 31.12.2022
435 Clouds 1 1003 68 10000 1.37 314 12:40 31.12.2022
436 Clouds 1 1002 68 10000 1.4 255 12:20 31.12.2022
437 Clouds 1 1002 68 10000 1.4 255 12:20 31.12.2022
438 Clouds 0 1002 65 10000 5.14 170 11:50 31.12.2022
439 Clouds 1 1002 65 10000 2.03 227 10:37 31.12.2022
440 Clouds 0 1002 65 10000 1.69 217 09:55 31.12.2022
441 Clouds 0 1003 65 10000 5.66 170 09:35 31.12.2022
442 Clouds 1 1004 64 10000 2.08 199 07:49 31.12.2022
443 Clouds 3 1007 65 10000 2.06 170 00:43 31.12.2022
444 Clouds 5 1007 54 10000 0.89 36 23:47 30.12.2022
445 Clouds 5 1007 52 10000 0.45 44 22:50 30.12.2022
446 Clouds 5 1007 49 10000 3.09 180 21:45 30.12.2022
447 Clouds 5 1008 48 10000 0.45 65 21:26 30.12.2022
448 Clouds 3 1011 50 10000 1.34 213 18:59 30.12.2022
449 Clouds 0 1010 52 10000 0.89 163 17:52 30.12.2022
450 Clouds -1 1013 56 10000 0.45 231 17:33 30.12.2022
451 Clouds -4 1014 60 10000 1.86 172 15:58 30.12.2022
452 Clouds -5 1015 61 10000 0.9 165 14:53 30.12.2022
453 Clouds -4 1014 54 10000 2.34 191 11:58 30.12.2022
454 Clouds -4 1014 58 10000 1.95 210 08:21 30.12.2022
455 Clouds -5 1012 84 10000 0.89 261 03:39 30.12.2022
456 Clouds -4 1012 84 10000 2.19 219 01:53 30.12.2022
457 Clear 2 1009 59 10000 1.34 176 22:58 29.12.2022
458 Clear 2 1008 64 6617 1.34 216 21:31 29.12.2022
459 Clear 2 1008 65 6619 0.45 189 20:54 29.12.2022
460 Rain 2 1008 69 10000 1.34 226 20:25 29.12.2022
461 Clouds 0 1007 81 10000 0.45 143 18:30 29.12.2022
462 Clouds -1 1008 84 10000 1.93 238 17:32 29.12.2022
463 Clouds -3 1007 89 10000 2.14 249 16:55 29.12.2022
464 Clouds -3 1007 91 10000 2.11 243 16:21 29.12.2022
465 Clouds -3 1006 91 10000 2.32 245 15:29 29.12.2022
466 Snow -2 1005 93 10000 2.57 10 13:33 29.12.2022
467 Snow -2 1004 94 5988 0.78 320 11:28 29.12.2022
468 Snow 0 1003 93 114 2.33 70 07:45 29.12.2022
469 Rain 5 998 79 10000 1.79 98 00:18 29.12.2022
470 Rain 7 997 68 10000 0.89 169 23:27 28.12.2022
471 Clouds 9 995 50 10000 2.68 46 21:21 28.12.2022
472 Clouds 11 996 41 10000 0.89 78 20:25 28.12.2022
473 Clouds 11 993 42 10000 0.45 113 19:23 28.12.2022
474 Clouds 6 995 61 10000 0.89 22 16:56 28.12.2022
475 Clouds 4 995 63 10000 3.6 170 14:38 28.12.2022
476 Clouds 4 993 64 10000 0.89 320 12:54 28.12.2022
477 Clouds 4 994 64 10000 0.45 227 11:52 28.12.2022
478 Clouds 4 994 64 10000 0.45 196 10:37 28.12.2022
479 Clouds 5 994 57 10000 0.89 1 07:51 28.12.2022
480 Clouds 5 995 55 10000 2.9 214 06:48 28.12.2022
481 Clouds 9 997 46 10000 3.34 238 03:43 28.12.2022
482 Clouds 16 996 39 10000 1.25 213 23:22 27.12.2022
483 Clouds 16 1001 32 10000 2.89 206 19:53 27.12.2022
484 Clouds 15 1003 35 10000 3.23 213 19:20 27.12.2022
485 Clear 7 1006 52 10000 1.79 149 17:20 27.12.2022
486 Clear 7 1006 52 10000 1.79 149 17:20 27.12.2022
487 Clear 6 1008 47 10000 3.27 209 16:35 27.12.2022
488 Clear 3 1008 54 10000 0.89 252 15:22 27.12.2022
489 Clear 3 1011 57 10000 0.45 148 12:28 27.12.2022
490 Clear 3 1013 59 10000 0.45 84 10:37 27.12.2022
491 Clear 3 1012 58 10000 0.45 212 09:45 27.12.2022
492 Clouds 4 1013 56 10000 5.66 200 09:22 27.12.2022
493 Clouds 5 1015 56 10000 0.89 206 06:48 27.12.2022
494 Clouds 6 1018 55 10000 0.45 215 00:43 27.12.2022
495 Clouds 11 1017 40 10000 1.79 182 22:20 26.12.2022
496 Clear 10 1020 45 10000 1.34 134 20:46 26.12.2022
497 Clouds 9 1020 48 10000 1.34 154 20:18 26.12.2022
498 Clouds 5 1023 60 10000 1.79 189 18:43 26.12.2022
499 Clouds 2 1023 75 10000 2.24 176 17:26 26.12.2022
500 Clouds -1 1024 81 10000 1.79 198 15:42 26.12.2022
501 Clouds 0 1023 78 10000 3.09 110 12:59 26.12.2022
502 Clouds 0 1022 76 10000 0.89 215 11:45 26.12.2022
503 Clouds 2 1022 66 10000 1.67 210 05:49 26.12.2022
504 Clouds 9 1017 82 10000 1.28 224 23:44 25.12.2022
505 Clouds 10 1016 84 10000 1.32 253 22:57 25.12.2022
506 Clouds 10 1015 40 10000 0.85 259 22:26 25.12.2022
507 Clouds 10 1017 43 10000 1.26 193 20:20 25.12.2022
508 Clouds 7 1020 55 10000 0.89 345 17:59 25.12.2022
509 Clouds 3 1020 62 10000 0.45 65 17:41 25.12.2022
510 Clouds 3 1019 59 10000 3.09 210 17:23 25.12.2022
511 Clouds -1 1019 65 10000 1.34 165 14:29 25.12.2022
512 Clear -3 1021 69 10000 0.45 82 11:48 25.12.2022
513 Clear -2 1025 74 10000 0.45 28 06:18 25.12.2022
514 Clouds 8 1022 46 10000 1.71 195 22:56 24.12.2022
515 Clouds 7 1027 51 10000 0.45 219 19:54 24.12.2022
516 Clouds 3 1026 63 10000 0.45 153 17:40 24.12.2022
517 Clear -5 1030 79 10000 0.45 109 15:45 24.12.2022
518 Clear -6 1028 80 10000 0.98 209 14:31 24.12.2022
519 Clouds -6 1028 77 10000 0.49 264 12:24 24.12.2022
520 Clouds -7 1028 74 10000 2.36 172 10:24 24.12.2022
521 Clouds -9 1019 76 10000 5.14 190 09:37 24.12.2022
522 Clouds -11 1019 74 10000 1.04 102 08:46 24.12.2022
523 Clouds -15 1033 69 10000 1.54 172 03:51 24.12.2022
524 Clouds -12 1037 55 10000 0.34 29 00:30 24.12.2022
525 Clouds -10 1033 55 10000 1.48 17 22:45 23.12.2022
526 Clouds -11 1023 54 10000 0.45 321 21:43 23.12.2022
527 Clouds -13 1032 60 10000 0.89 14 19:40 23.12.2022
528 Clouds -13 1033 62 10000 0.89 44 19:22 23.12.2022
529 Clouds -14 1035 62 10000 2.06 310 18:54 23.12.2022
530 Clouds -15 1038 65 10000 0.45 23 18:22 23.12.2022
531 Clouds -16 1031 67 10000 2.06 280 17:48 23.12.2022
532 Clouds -18 1042 64 10000 0.68 308 15:52 23.12.2022
533 Clouds -19 1040 73 10000 0.13 111 14:33 23.12.2022
534 Clouds -20 1033 72 10000 1.35 168 10:21 23.12.2022
535 Clouds -20 1032 72 10000 1.35 168 09:35 23.12.2022
536 Clouds -21 1031 71 10000 1.83 169 07:30 23.12.2022
537 Clear -21 1030 69 10000 2.06 159 06:50 23.12.2022
538 Clouds -19 1030 61 10000 0.89 254 00:39 23.12.2022
539 Clouds -18 1029 58 10000 0.89 79 23:19 22.12.2022
540 Clouds -18 1028 63 10000 0.89 113 21:55 22.12.2022
541 Clouds -20 1029 66 10000 1.34 121 19:48 22.12.2022
542 Clouds -21 1029 67 10000 2.68 125 19:19 22.12.2022
543 Clouds -22 1029 68 10000 0.89 113 17:59 22.12.2022
544 Clouds -23 1029 71 4662 1.34 114 16:52 22.12.2022
545 Mist -24 1026 74 6437 3.09 100 15:38 22.12.2022
546 Clouds -24 1026 75 1183 0.45 123 15:18 22.12.2022
547 Mist -23 1025 75 2414 3.09 80 14:27 22.12.2022
548 Snow -23 1024 75 410 0.89 115 13:20 22.12.2022
549 Snow -22 1022 74 208 1.34 101 11:42 22.12.2022
550 Snow -22 1021 74 190 1.79 65 10:31 22.12.2022
551 Snow -21 1020 76 282 2.24 118 09:22 22.12.2022
552 Snow -21 1020 75 282 1.79 95 08:52 22.12.2022
553 Snow -21 1021 76 267 0.89 30 07:51 22.12.2022
554 Snow -20 1031 73 408 5.34 42 04:19 22.12.2022
555 Clear 6 1006 32 10000 3.58 275 00:40 22.12.2022
556 Clear 10 1005 22 10000 4.92 247 22:29 21.12.2022
557 Clear 10 1005 21 10000 4.47 282 21:35 21.12.2022
558 Clear 10 1006 20 10000 5.36 289 20:59 21.12.2022
559 Clear 10 1006 19 10000 4.92 261 20:31 21.12.2022
560 Clear 10 1007 18 10000 4.92 332 19:47 21.12.2022
561 Clouds 9 1009 19 10000 4.12 250 19:28 21.12.2022
562 Clouds 8 1009 21 10000 1.34 260 18:51 21.12.2022
563 Clouds 8 1010 22 10000 1.34 174 18:33 21.12.2022
564 Clouds -1 1010 51 10000 1.79 206 15:50 21.12.2022
565 Clear -1 1012 51 10000 0.45 0 13:52 21.12.2022
566 Clouds 0 1012 47 10000 0.89 212 11:50 21.12.2022
567 Clouds 0 1011 48 10000 0.45 203 11:20 21.12.2022
568 Clouds 0 1011 47 10000 0.89 260 10:26 21.12.2022
569 Clouds 0 1012 45 10000 3.6 210 08:48 21.12.2022
570 Clouds 0 1013 42 10000 0.45 278 06:30 21.12.2022
571 Clouds 6 1020 26 10000 1.8 1 00:24 21.12.2022
572 Clouds 9 1020 21 10000 0.17 196 21:47 20.12.2022
573 Clouds 9 1021 16 10000 0.54 129 20:51 20.12.2022
574 Clouds 8 1022 19 10000 1.34 107 19:43 20.12.2022
575 Clouds 8 1022 19 10000 1.34 107 19:43 20.12.2022
576 Clouds 6 1024 21 10000 0.89 134 18:47 20.12.2022
577 Clouds 4 1023 24 10000 3.6 180 18:22 20.12.2022
578 Clouds 2 1024 26 10000 3.09 180 17:47 20.12.2022
579 Clouds 0 1024 29 10000 3.09 130 16:57 20.12.2022
580 Clouds -3 1028 34 10000 2.48 191 15:49 20.12.2022
581 Clouds -3 1028 33 10000 1.94 200 14:50 20.12.2022
582 Clouds -3 1027 34 10000 1.56 192 14:29 20.12.2022
583 Clouds -3 1021 33 10000 1.6 188 13:25 20.12.2022
584 Clouds -2 1020 32 10000 0.45 208 12:32 20.12.2022
585 Clouds -2 1021 31 10000 5.14 180 11:42 20.12.2022
586 Clouds -2 1022 31 10000 0.34 176 09:41 20.12.2022
587 Clouds -1 1024 28 10000 0.89 121 04:41 20.12.2022
588 Clouds 7 1021 12 10000 3.13 299 23:46 19.12.2022
589 Clouds 9 1017 14 10000 3.58 246 22:21 19.12.2022
590 Clouds 9 1017 16 10000 3.58 273 20:41 19.12.2022
591 Clear 7 1017 18 10000 2.24 246 19:39 19.12.2022
592 Clouds 4 1016 23 10000 2.24 265 18:42 19.12.2022
593 Clouds 2 1019 27 10000 1.77 206 17:36 19.12.2022
594 Clouds -5 1018 42 10000 1.59 190 13:55 19.12.2022
595 Clouds -6 1017 47 10000 1.08 185 12:34 19.12.2022
596 Clouds -6 1018 51 10000 0.28 126 10:56 19.12.2022
597 Clear -6 1013 51 10000 0.78 14 07:46 19.12.2022
598 Clouds -4 1011 45 10000 1.34 308 05:37 19.12.2022
599 Clouds 5 1011 21 10000 2.06 0 22:43 18.12.2022
600 Clouds 5 1011 24 10000 1.34 0 21:47 18.12.2022
601 Clouds 5 1011 24 10000 1.34 347 21:23 18.12.2022
602 Clouds 4 1011 25 10000 0.89 302 20:33 18.12.2022
603 Clouds 4 1012 25 10000 1.34 36 19:42 18.12.2022
604 Clouds 3 1013 26 10000 1.34 333 18:39 18.12.2022
605 Clouds 3 1012 23 10000 0.89 37 17:49 18.12.2022
606 Clouds -3 1015 28 10000 1.66 209 15:41 18.12.2022
607 Clouds -3 1015 28 10000 1.66 209 15:41 18.12.2022
608 Clouds -3 1015 29 10000 1.86 217 15:20 18.12.2022
609 Clouds -4 1016 33 10000 1.79 217 14:21 18.12.2022
610 Clouds -5 1008 33 10000 0.45 84 12:57 18.12.2022
611 Clouds -5 1010 34 10000 0.45 240 12:30 18.12.2022
612 Clear -5 1017 36 10000 2.09 212 11:20 18.12.2022
613 Clear -5 1017 40 10000 2.24 207 08:47 18.12.2022
614 Clear -5 1018 40 10000 2.26 205 08:20 18.12.2022
615 Clear -6 1016 42 10000 0.45 274 06:23 18.12.2022
616 Clear -4 1015 39 10000 0.45 316 03:41 18.12.2022
617 Clear -2 1015 34 10000 0.45 355 01:48 18.12.2022
618 Clear 3 1015 23 10000 1.34 6 22:24 17.12.2022
619 Clear 1 1016 25 10000 0.89 292 19:46 17.12.2022
620 Clear -4 1017 35 10000 0.89 42 17:19 17.12.2022
621 Clear -9 1015 41 10000 0.45 63 14:44 17.12.2022
622 Clouds -7 1020 33 10000 0.98 352 12:28 17.12.2022
623 Clear -7 1014 31 10000 0.89 238 10:50 17.12.2022
624 Clouds -7 1015 33 10000 3.6 180 09:48 17.12.2022
625 Clouds -7 1013 33 10000 0.45 99 08:34 17.12.2022
626 Clear -6 1015 32 10000 4.12 200 06:46 17.12.2022
627 Clouds -1 1018 21 10000 4.47 292 23:59 16.12.2022
628 Clouds 1 1017 18 10000 4.47 294 21:38 16.12.2022
629 Clouds 0 1018 18 10000 4.02 313 20:24 16.12.2022
630 Clouds -5 1018 31 10000 5.66 260 17:19 16.12.2022
631 Clouds -8 1016 35 10000 3.13 302 14:50 16.12.2022
632 Clouds -8 1015 36 10000 3.13 277 13:50 16.12.2022
633 Clouds -7 1014 37 10000 4.92 298 12:20 16.12.2022
634 Clear -8 1014 40 10000 1.34 306 10:47 16.12.2022
635 Clear -8 1015 38 10000 1.79 286 09:32 16.12.2022
636 Clear -8 1015 40 10000 2.68 300 08:26 16.12.2022
637 Clear -8 1015 41 10000 1.79 270 07:54 16.12.2022
638 Clouds -1 1013 37 10000 2.24 269 23:45 15.12.2022
639 Clouds 0 1013 40 10000 1.34 127 22:31 15.12.2022
640 Clouds -1 1012 41 10000 1.79 116 20:41 15.12.2022
641 Clouds -1 1013 41 10000 2.06 110 19:37 15.12.2022
642 Clouds -2 1014 45 10000 2.68 161 18:29 15.12.2022
643 Clouds -5 1015 53 10000 0.45 157 17:27 15.12.2022
644 Clouds -6 1018 54 10000 1.32 165 15:39 15.12.2022
645 Clear -8 1013 60 10000 0.85 139 13:59 15.12.2022
646 Clouds -6 1010 51 10000 1.1 51 12:41 15.12.2022
647 Clear -5 1013 50 10000 0.89 283 10:29 15.12.2022
648 Clouds -5 1011 51 10000 3.6 180 08:54 15.12.2022
649 Clouds -3 1011 42 10000 1.34 220 06:26 15.12.2022
650 Clouds -2 1011 35 10000 0.89 271 05:18 15.12.2022
651 Clouds 3 1009 34 10000 6.26 281 21:25 14.12.2022
652 Clouds 2 1009 35 10000 7.15 309 20:59 14.12.2022
653 Clouds 2 1009 35 10000 6.26 305 20:31 14.12.2022
654 Clouds 2 1009 35 10000 6.26 305 20:31 14.12.2022
655 Clouds 2 1009 36 10000 5.36 320 18:31 14.12.2022
656 Clouds -2 1005 52 10000 4.02 284 16:58 14.12.2022
657 Clouds -5 1010 63 10000 0.9 286 15:40 14.12.2022
658 Clouds -6 1009 69 10000 0.6 117 14:22 14.12.2022
659 Clouds -6 1003 72 10000 3.09 190 12:21 14.12.2022
660 Clouds -6 1008 72 10000 1.17 145 10:36 14.12.2022
661 Clouds -6 1006 68 10000 0.45 148 08:54 14.12.2022
662 Clouds -4 1004 70 10000 0.89 220 00:51 14.12.2022
663 Clouds -4 1002 70 10000 2.24 5 21:49 13.12.2022
664 Clouds -4 1001 68 10000 2.24 43 21:19 13.12.2022
665 Clouds -4 1002 66 10000 2.24 105 20:46 13.12.2022
666 Clouds -4 1001 68 10000 2.24 28 17:55 13.12.2022
667 Clouds -5 1000 77 10000 0.45 67 15:58 13.12.2022
668 Clouds -5 999 78 10000 0.89 82 14:52 13.12.2022
669 Clouds -5 999 80 10000 0.45 343 12:27 13.12.2022
670 Clouds -4 999 79 10000 1.79 0 10:36 13.12.2022
671 Clouds -4 998 79 9656 4.63 360 09:43 13.12.2022
672 Clouds -3 999 78 814 2.68 355 07:43 13.12.2022
673 Clouds 11 992 24 10000 4.47 336 22:23 12.12.2022
674 Clouds 12 992 22 10000 2.24 197 21:27 12.12.2022
675 Clouds 11 996 24 10000 3.6 210 19:28 12.12.2022
676 Clouds 8 999 29 10000 1.34 126 17:21 12.12.2022
677 Clouds 6 998 31 10000 2.68 164 15:22 12.12.2022
678 Clouds 6 998 31 10000 2.68 164 15:22 12.12.2022
679 Clouds 6 1001 28 10000 2.24 178 12:24 12.12.2022
680 Clouds 6 1003 25 10000 0.45 359 09:19 12.12.2022
681 Clouds 7 1005 22 10000 1.34 182 04:55 12.12.2022
682 Clouds 8 1006 21 10000 0.89 184 03:21 12.12.2022
683 Clear 17 1006 11 10000 3.58 174 22:54 11.12.2022
684 Clear 16 1007 13 10000 3.58 152 20:54 11.12.2022
685 Clouds 15 1009 15 10000 3.58 154 19:48 11.12.2022
686 Clouds 14 1010 17 10000 3.13 203 19:30 11.12.2022
687 Clouds 11 1012 21 10000 7.72 220 18:18 11.12.2022
688 Clouds 9 1012 23 10000 1.79 201 17:31 11.12.2022
689 Clouds 7 1013 25 10000 0.89 208 16:52 11.12.2022
690 Clouds 4 1013 30 10000 1.34 215 15:47 11.12.2022
691 Clouds 3 1013 31 10000 1.79 192 14:50 11.12.2022
692 Clouds 2 1014 34 10000 2.5 205 12:44 11.12.2022
693 Clouds 2 1014 34 10000 2.25 206 12:18 11.12.2022
694 Clear 2 1010 35 10000 0.45 302 08:29 11.12.2022
695 Clouds 7 1017 25 10000 0.89 36 00:34 11.12.2022
696 Clouds 11 1017 21 10000 0.45 19 23:20 10.12.2022
697 Clouds 11 1017 19 10000 1.79 30 22:33 10.12.2022
698 Clear 10 1017 20 10000 0.45 250 21:19 10.12.2022
699 Clear 9 1017 22 10000 1.34 214 20:35 10.12.2022
700 Clear 5 1020 29 10000 1.34 175 18:49 10.12.2022
701 Clear 0 1022 41 10000 2.22 196 16:51 10.12.2022
702 Clear -2 1020 48 10000 0.45 192 16:32 10.12.2022
703 Clear -3 1020 47 10000 2.35 200 15:38 10.12.2022
704 Clear -3 1019 48 10000 1.76 185 14:22 10.12.2022
705 Clear -2 1019 45 10000 0.45 353 12:49 10.12.2022
706 Clear -1 1016 43 10000 0.45 205 11:35 10.12.2022
707 Clear -1 1016 42 10000 0.89 198 10:34 10.12.2022
708 Clear -1 1017 40 10000 0.45 247 08:55 10.12.2022
709 Clear 1 1017 37 10000 0.89 232 07:19 10.12.2022
710 Clear 8 1013 19 10000 0.89 32 00:18 10.12.2022
711 Clear 9 1012 16 10000 1.79 111 22:46 09.12.2022
712 Clear 9 1012 16 10000 2.24 17 21:48 09.12.2022
713 Clear 9 1012 16 10000 2.24 39 21:21 09.12.2022
714 Clear 8 1013 16 10000 1.79 345 20:41 09.12.2022
715 Clear 5 1015 21 10000 0.45 298 18:40 09.12.2022
716 Clear 2 1016 25 10000 0.45 142 17:45 09.12.2022
717 Clear -2 1020 33 10000 1.22 190 16:30 09.12.2022
718 Clouds -4 1017 34 10000 5.14 190 15:33 09.12.2022
719 Clear -4 1021 33 10000 1.72 190 14:25 09.12.2022
720 Clear -3 1021 32 10000 1.28 204 10:52 09.12.2022
721 Clear -2 1022 32 10000 1.6 190 10:29 09.12.2022
722 Clear -2 1019 34 10000 1.79 207 08:23 09.12.2022
723 Clear 2 1021 33 10000 1.79 278 03:18 09.12.2022
724 Clouds 7 1019 22 10000 8.75 320 23:36 08.12.2022
725 Clear 7 1018 25 10000 6.71 345 20:56 08.12.2022
726 Clear 7 1017 25 10000 4.47 305 20:21 08.12.2022
727 Clear 4 1016 37 10000 4.47 263 16:51 08.12.2022
728 Clear 1 1015 57 10000 5.07 235 14:43 08.12.2022
729 Clouds 1 1015 60 10000 4.12 200 14:20 08.12.2022
730 Clouds 0 1015 69 10000 2.06 230 10:49 08.12.2022
731 Clear 0 1011 64 10000 0.45 280 09:34 08.12.2022
732 Clear 0 1012 63 10000 0.27 134 08:28 08.12.2022
733 Clear 11 1016 32 10000 2.68 321 22:44 07.12.2022
734 Clear 11 1016 31 10000 2.24 310 22:18 07.12.2022
735 Clear 11 1016 32 10000 2.24 34 21:47 07.12.2022
736 Clear 10 1017 32 10000 3.13 20 20:36 07.12.2022
737 Clear 8 1020 36 10000 0.89 128 18:41 07.12.2022
738 Clear 0 1021 55 10000 2.01 193 15:53 07.12.2022
739 Clear -1 1020 61 10000 1.11 222 14:30 07.12.2022
740 Clear -1 1019 58 10000 1.48 205 11:36 07.12.2022
741 Clear 0 1018 55 10000 1.05 202 10:30 07.12.2022
742 Clear 0 1016 54 10000 1.37 206 09:32 07.12.2022
743 Clear 0 1016 52 10000 1.37 206 08:36 07.12.2022
744 Clouds 2 1014 45 10000 0.45 267 05:27 07.12.2022
745 Clouds 5 1014 38 10000 4.02 272 02:58 07.12.2022
746 Clouds 12 1010 25 10000 4.47 278 22:18 06.12.2022
747 Clear 9 1010 37 10000 1.79 209 19:38 06.12.2022
748 Clear 4 1011 59 10000 0.89 196 17:20 06.12.2022
749 Clear 0 1011 71 10000 1.34 202 16:30 06.12.2022
750 Clouds -2 1010 78 10000 4.12 190 15:37 06.12.2022
751 Clear -2 1009 77 10000 0.45 184 14:55 06.12.2022
752 Clouds -2 1010 78 10000 4.12 180 14:23 06.12.2022
753 Clear -2 1008 78 10000 0.45 165 12:42 06.12.2022
754 Clear -2 1009 78 10000 0.89 219 11:59 06.12.2022
755 Clear 1 1006 69 10000 1.79 339 07:51 06.12.2022
756 Clear 1 1006 69 10000 1.79 339 07:51 06.12.2022
757 Clouds 4 1007 61 10000 0.45 130 03:26 06.12.2022
758 Clouds 10 1006 45 10000 3.13 105 23:45 05.12.2022
759 Clouds 11 1005 42 10000 2.68 86 22:22 05.12.2022
760 Clouds 12 1005 39 10000 3.13 43 20:55 05.12.2022
761 Clouds 12 1005 38 10000 3.58 46 20:23 05.12.2022
762 Clouds 13 1007 33 10000 4.12 30 19:37 05.12.2022
763 Clouds 8 1007 48 10000 0.89 230 16:56 05.12.2022
764 Clouds 6 1005 48 10000 0.89 254 15:39 05.12.2022
765 Clouds 5 1006 51 10000 0.89 243 14:56 05.12.2022
766 Clear 5 1005 48 10000 0.45 185 12:58 05.12.2022
767 Clear 5 1005 48 10000 0.89 232 12:38 05.12.2022
768 Clouds 5 1007 51 10000 4.63 190 11:46 05.12.2022
769 Clear 6 1007 50 10000 0.45 129 09:36 05.12.2022
770 Clouds 12 1010 35 10000 0.89 47 00:19 05.12.2022
771 Clouds 14 1012 32 10000 0.89 17 22:44 04.12.2022
772 Clouds 14 1012 33 10000 0.45 304 22:20 04.12.2022
773 Clouds 13 1013 35 10000 0.89 175 21:39 04.12.2022
774 Clouds 12 1014 39 10000 0.45 337 20:26 04.12.2022
775 Clouds 10 1017 45 10000 0.89 66 19:25 04.12.2022
776 Clouds 9 1018 47 10000 0.45 306 18:37 04.12.2022
777 Clouds 6 1018 58 10000 0.45 229 17:23 04.12.2022
778 Clouds 4 1019 62 10000 0.56 306 16:37 04.12.2022
779 Clouds 3 1020 63 10000 0.84 238 16:19 04.12.2022
780 Clouds 3 1020 64 10000 0.84 238 15:44 04.12.2022
781 Clouds 2 1020 66 10000 1.4 195 14:43 04.12.2022
782 Clouds 2 1020 65 10000 1.85 199 13:18 04.12.2022
783 Clouds 2 1022 65 10000 3.6 190 12:42 04.12.2022
784 Clouds 1 1021 65 10000 2.02 197 11:46 04.12.2022
785 Clouds 1 1017 60 10000 0.45 58 09:20 04.12.2022
786 Clouds 2 1022 58 10000 0.89 11 06:34 04.12.2022
787 Clouds 10 1021 30 10000 1.34 25 23:44 03.12.2022
788 Clouds 12 1021 27 10000 4.12 290 22:51 03.12.2022
789 Clouds 12 1023 26 10000 1.34 336 21:53 03.12.2022
790 Clouds 11 1022 25 10000 6.17 240 21:19 03.12.2022
791 Clouds 7 1024 31 10000 3.09 170 19:28 03.12.2022
792 Clouds 6 1025 31 10000 0.89 134 18:39 03.12.2022
793 Clouds -3 1028 54 10000 1.12 176 15:53 03.12.2022
794 Clear -4 1029 59 10000 0.52 164 13:54 03.12.2022
795 Clear -5 1029 59 10000 0.69 2 12:53 03.12.2022
796 Clear -5 1024 57 10000 2.06 220 12:22 03.12.2022
797 Clear -5 1028 54 10000 1.44 327 09:47 03.12.2022
798 Clear -4 1022 46 10000 1.34 97 06:27 03.12.2022
799 Clouds 5 1010 33 10000 1.79 338 00:23 03.12.2022
800 Clouds 8 1007 30 10000 7.15 282 22:20 02.12.2022
801 Clouds 8 1006 36 10000 7.72 240 20:53 02.12.2022
802 Clear 12 1001 37 10000 2.68 218 18:18 02.12.2022
803 Clear 10 1000 36 10000 4.02 193 15:58 02.12.2022
804 Clear 10 999 32 10000 5.36 198 14:38 02.12.2022
805 Clear 10 999 31 10000 4.47 225 14:19 02.12.2022
806 Clouds 11 998 31 10000 3.13 219 12:51 02.12.2022
807 Clouds 11 999 28 10000 2.68 220 11:31 02.12.2022
808 Clouds 12 1001 25 10000 4.02 135 08:19 02.12.2022
809 Clouds 12 1002 23 10000 2.9 221 07:23 02.12.2022
810 Clouds 12 1004 44 10000 1.31 269 22:54 01.12.2022
811 Clouds 12 1005 16 10000 7.2 190 22:54 01.12.2022
812 Clouds 13 1006 20 10000 7.2 180 21:44 01.12.2022
813 Clouds 13 1004 48 10000 1.58 322 21:22 01.12.2022
814 Clear 10 1007 35 10000 2.14 210 19:19 01.12.2022
815 Clouds 4 1011 53 10000 5.66 190 17:31 01.12.2022
816 Clouds -1 1010 57 10000 2.06 200 15:38 01.12.2022
817 Clouds -1 1012 58 10000 0.89 210 11:23 01.12.2022
818 Clouds -1 1014 62 10000 1.84 197 09:55 01.12.2022
819 Clouds -1 1014 61 10000 1.84 197 09:37 01.12.2022
820 Clouds -4 1015 69 10000 1.27 188 07:18 01.12.2022
821 Clear -1 1018 57 10000 1.79 66 23:59 30.11.2022
822 Snow 1 1018 52 10000 1.79 3 22:28 30.11.2022
823 Snow 0 1019 52 10000 1.34 25 21:19 30.11.2022
824 Snow 0 1020 53 10000 2.06 360 20:25 30.11.2022
825 Snow -1 1021 54 10000 0.45 309 19:35 30.11.2022
826 Clear -4 1024 58 10000 0.45 186 18:33 30.11.2022
827 Clear -5 1024 65 10000 0.78 58 17:33 30.11.2022
828 Clear -11 1026 77 10000 0.89 201 14:46 30.11.2022
829 Clear -11 1026 77 10000 1.42 194 14:27 30.11.2022
830 Clear -11 1025 73 10000 0.93 183 12:29 30.11.2022
831 Clear -10 1015 69 10000 0.89 199 09:52 30.11.2022
832 Clear -9 1020 68 10000 1.4 162 08:38 30.11.2022
833 Clear -9 1020 74 10000 0.45 191 06:44 30.11.2022
834 Snow -4 1013 66 10000 1.79 161 23:32 29.11.2022
835 Snow -5 1011 66 10000 0.89 179 22:20 29.11.2022
836 Clouds -5 1011 70 10000 0.89 119 20:52 29.11.2022
837 Clouds -5 1010 72 10000 1.34 119 20:32 29.11.2022
838 Snow -6 1010 81 2765 0.89 67 18:56 29.11.2022
839 Snow -8 1008 85 372 1.34 26 16:57 29.11.2022
840 Snow -8 1007 86 6437 3.6 50 16:20 29.11.2022
841 Clouds -8 1005 87 281 1.34 17 14:49 29.11.2022
842 Clouds -7 1003 87 238 2.24 23 12:43 29.11.2022
843 Clouds -6 1003 86 240 2.68 5 11:31 29.11.2022
844 Snow -6 1001 86 350 1.34 24 10:31 29.11.2022
845 Clouds -5 1001 83 10000 5.66 10 09:28 29.11.2022
846 Clouds -3 1000 79 5644 3.13 32 07:46 29.11.2022
847 Clouds 9 995 27 10000 3.13 35 00:33 29.11.2022
848 Clouds 11 995 25 10000 2.68 34 23:27 28.11.2022
849 Clouds 13 995 23 10000 4.47 8 22:22 28.11.2022
850 Clouds 13 995 21 10000 4.02 359 21:43 28.11.2022
851 Clouds 13 994 21 10000 3.58 28 20:30 28.11.2022
852 Clouds 13 998 20 10000 2.24 22 19:37 28.11.2022
853 Clouds 11 999 24 10000 0.89 143 18:28 28.11.2022
854 Clouds 8 1002 33 10000 1.9 188 17:23 28.11.2022
855 Clouds 2 1002 45 10000 0.89 305 14:57 28.11.2022
856 Clouds 2 1002 46 10000 0.89 257 13:56 28.11.2022
857 Clouds 2 1001 45 10000 0.89 223 13:19 28.11.2022
858 Clouds 2 1002 45 10000 0.89 27 11:36 28.11.2022
859 Clouds 3 1003 41 10000 1.79 243 08:26 28.11.2022
860 Clouds 3 1005 46 10000 2.68 300 04:57 28.11.2022
861 Clouds 3 1005 47 10000 0.45 116 04:39 28.11.2022
862 Clouds 4 1004 41 10000 1.79 219 03:22 28.11.2022
863 Clouds 9 1006 30 10000 1.34 123 00:35 28.11.2022
864 Clouds 10 1007 31 10000 3.09 350 22:24 27.11.2022
865 Clear 10 1008 39 10000 0.89 234 20:49 27.11.2022
866 Clouds 6 1011 58 10000 1.34 177 18:39 27.11.2022
867 Clouds 1 1013 82 10000 0.89 219 16:25 27.11.2022
868 Clouds 0 1013 79 10000 0.65 101 13:54 27.11.2022
869 Clouds 1 1013 76 10000 1.41 66 12:24 27.11.2022
870 Clouds 2 1014 74 10000 0.89 29 10:23 27.11.2022
871 Clouds 3 1013 62 10000 3.6 20 07:20 27.11.2022
872 Clear 13 1009 28 10000 4.02 39 23:23 26.11.2022
873 Clear 14 1009 27 10000 2.68 10 21:43 26.11.2022
874 Clear 13 1010 29 10000 1.79 46 19:57 26.11.2022
875 Clouds 12 1011 32 10000 2.06 250 18:41 26.11.2022
876 Clear 6 1011 43 10000 0.45 141 16:38 26.11.2022
877 Clear 3 1009 49 10000 1.34 254 15:22 26.11.2022
878 Clear 4 1011 47 10000 4.63 190 12:51 26.11.2022
879 Clear 4 1011 44 10000 2.39 211 10:53 26.11.2022
880 Clear 4 1016 45 10000 4.12 180 09:43 26.11.2022
881 Clear 5 1016 46 10000 1.98 203 07:48 26.11.2022
882 Clear 14 1019 30 10000 0.81 190 22:43 25.11.2022
883 Clear 14 1025 27 10000 0.89 56 21:34 25.11.2022
884 Clear 13 1026 28 10000 0.89 237 20:20 25.11.2022
885 Clear 5 1029 39 10000 0.45 227 16:51 25.11.2022
886 Clear 1 1030 48 10000 2.04 201 15:26 25.11.2022
887 Clouds 0 1033 56 10000 2.1 198 09:44 25.11.2022
888 Clouds -1 1031 58 10000 0.89 150 08:43 25.11.2022
889 Clear -1 1030 62 10000 0.89 198 06:59 25.11.2022
890 Clear -1 1030 62 10000 0.89 198 06:59 25.11.2022
891 Clear -1 1030 64 10000 0.89 198 06:40 25.11.2022
892 Clear 5 1028 48 10000 0.89 22 00:29 25.11.2022
893 Clear 6 1028 46 10000 1.34 254 22:59 24.11.2022
894 Clear 6 1029 47 10000 1.79 27 22:19 24.11.2022
895 Clouds 5 1029 50 10000 2.24 342 21:26 24.11.2022
896 Clear 3 1030 61 10000 0.89 289 19:34 24.11.2022
897 Clouds 1 1030 70 10000 0.89 36 17:45 24.11.2022
898 Clouds 1 1030 72 10000 1.34 333 17:21 24.11.2022
899 Clouds -1 1029 78 10000 0.89 24 16:19 24.11.2022
900 Clouds -1 1027 77 10000 3.09 10 14:23 24.11.2022
901 Clouds 0 1025 75 10000 0.45 74 12:20 24.11.2022
902 Clouds 0 1024 70 10000 0.45 46 10:37 24.11.2022
903 Clouds 1 1022 64 10000 2.24 17 07:54 24.11.2022
904 Clouds 4 1017 39 10000 1.79 21 03:23 24.11.2022
905 Clouds 9 1012 27 10000 3.13 305 23:46 23.11.2022
906 Clouds 10 1010 21 10000 2.68 328 22:24 23.11.2022
907 Clouds 10 1010 19 10000 3.13 32 21:30 23.11.2022
908 Clouds 10 1010 18 10000 2.68 32 20:45 23.11.2022
909 Clouds 10 1011 18 10000 4.63 360 19:30 23.11.2022
910 Clouds 10 1010 18 10000 2.24 21 18:41 23.11.2022
911 Clouds 5 1011 28 10000 0.45 224 16:56 23.11.2022
912 Clear 0 1013 34 10000 0.89 183 13:41 23.11.2022
913 Clouds 0 1014 36 10000 2.21 217 13:21 23.11.2022
914 Clouds 1 1014 34 10000 2.34 214 12:21 23.11.2022
915 Clouds 1 1015 34 10000 2.34 214 11:41 23.11.2022
916 Clouds 1 1014 36 10000 2.18 211 10:43 23.11.2022
917 Clouds 1 1014 37 10000 2 217 09:44 23.11.2022
918 Clouds 1 1014 38 10000 2 218 09:25 23.11.2022
919 Clouds 1 1014 38 10000 0.45 193 08:37 23.11.2022
920 Clouds 3 1016 37 10000 1.36 244 05:22 23.11.2022
921 Clouds 3 1017 39 10000 0.45 220 04:32 23.11.2022
922 Clouds 11 1019 20 10000 1.34 69 23:23 22.11.2022
923 Clouds 12 1019 20 10000 0.89 99 22:33 22.11.2022
924 Clouds 12 1019 20 10000 1.34 117 21:34 22.11.2022
925 Clouds 11 1020 20 10000 2.24 111 20:49 22.11.2022
926 Clear 10 1021 21 10000 1.79 114 19:54 22.11.2022
927 Clouds 7 1023 30 10000 0.89 176 17:56 22.11.2022
928 Clouds 5 1023 35 10000 0.89 145 17:26 22.11.2022
929 Clouds 5 1023 36 10000 0.89 145 17:26 22.11.2022
930 Clouds 2 1023 41 10000 1.3 198 15:53 22.11.2022
931 Clouds -1 1023 48 10000 2.06 213 13:44 22.11.2022
932 Clouds 0 1019 54 10000 1.44 221 11:40 22.11.2022
933 Clouds 0 1017 50 10000 1.14 226 09:20 22.11.2022
934 Clouds 0 1021 52 10000 1.28 220 07:20 22.11.2022
935 Clouds 4 1022 45 10000 0.89 289 01:46 22.11.2022
936 Clear 9 1019 36 10000 1.56 286 23:40 21.11.2022
937 Clear 10 1019 36 10000 2.38 298 22:42 21.11.2022
938 Clear 10 1019 22 10000 2.52 321 21:58 21.11.2022
939 Clear 11 1019 20 10000 0.89 68 20:52 21.11.2022
940 Clear 10 1023 22 10000 0.89 98 19:41 21.11.2022
941 Clear 8 1024 24 10000 1.34 92 18:54 21.11.2022
942 Clouds 6 1024 29 10000 2.57 210 17:58 21.11.2022
943 Clear 3 1023 35 10000 0.45 221 16:55 21.11.2022
944 Clear 2 1024 37 10000 1.4 199 16:37 21.11.2022
945 Clouds -1 1023 40 10000 3.6 180 15:37 21.11.2022
946 Clear -2 1022 42 10000 4.12 180 14:28 21.11.2022
947 Clear -1 1024 42 10000 1.92 215 13:43 21.11.2022
948 Clear -2 1023 46 10000 1.83 213 10:48 21.11.2022
949 Clear -1 1021 47 10000 4.12 200 08:59 21.11.2022
950 Clear -1 1019 57 10000 0.45 267 06:39 21.11.2022
951 Clear 8 1021 34 10000 0.89 23 22:34 20.11.2022
952 Clear 8 1021 33 10000 1.79 14 21:34 20.11.2022
953 Clear 8 1022 30 10000 2.24 340 20:24 20.11.2022
954 Clear 5 1023 33 10000 0.89 225 18:25 20.11.2022
955 Clear -1 1023 44 10000 0.89 175 16:23 20.11.2022
956 Clear -4 1022 48 10000 0.45 198 15:29 20.11.2022
957 Clear -4 1020 48 10000 0.45 249 14:41 20.11.2022
958 Clear -5 1022 51 10000 0.89 223 13:32 20.11.2022
959 Clear -5 1023 52 10000 0.45 222 12:33 20.11.2022
960 Clear -5 1022 58 10000 0.89 204 10:59 20.11.2022
961 Clear -5 1023 61 10000 0.89 190 10:29 20.11.2022
962 Clear -5 1023 66 10000 1.34 225 09:19 20.11.2022
963 Clear -5 1023 69 10000 5.14 200 08:34 20.11.2022
964 Clear -6 1024 71 10000 0.89 220 07:29 20.11.2022
965 Clear -1 1024 60 10000 0.45 221 02:18 20.11.2022
966 Clear 0 1025 56 10000 1.07 311 01:19 20.11.2022
967 Clear 1 1026 54 10000 1.07 311 00:41 20.11.2022
968 Clouds 2 1022 51 10000 4.63 140 00:22 20.11.2022
969 Clouds 4 1028 41 10000 5.14 130 23:49 19.11.2022
970 Clear 5 1029 37 10000 0.89 34 23:22 19.11.2022
971 Clear 5 1027 40 10000 1.34 120 22:35 19.11.2022
972 Clear 5 1027 37 10000 5.14 130 21:32 19.11.2022
973 Clear 4 1030 36 10000 0.89 97 20:44 19.11.2022
974 Clear 4 1028 39 10000 4.12 140 20:25 19.11.2022
975 Rain 2 1030 45 10000 0.89 193 18:55 19.11.2022
976 Clouds -1 1030 51 10000 3.09 170 17:39 19.11.2022
977 Clouds -2 1030 54 10000 0.89 207 17:19 19.11.2022
978 Clouds -7 1028 63 10000 0.89 221 15:40 19.11.2022
979 Clouds -9 1029 70 10000 0.45 184 14:27 19.11.2022
980 Clear -9 1028 75 10000 0.89 198 11:58 19.11.2022
981 Clear -10 1023 72 10000 4.63 180 10:20 19.11.2022
982 Clear -11 1029 75 10000 1.75 209 08:38 19.11.2022
983 Clear -11 1027 82 10000 1.79 205 04:50 19.11.2022
984 Clear -8 1025 73 10000 0.89 101 01:52 19.11.2022
985 Snow -5 1024 55 10000 0.45 208 23:40 18.11.2022
986 Snow -4 1025 56 10000 0.89 208 22:34 18.11.2022
987 Snow -4 1026 58 10000 0.89 78 21:37 18.11.2022
988 Snow -5 1027 60 10000 1.34 56 20:59 18.11.2022
989 Clouds -5 1027 62 10000 1.34 226 20:26 18.11.2022
990 Snow -6 1028 63 10000 0.89 204 19:46 18.11.2022
991 Clouds -7 1029 72 10000 1.34 179 18:23 18.11.2022
992 Clouds -10 1030 80 10000 0.89 161 16:41 18.11.2022
993 Clouds -11 1029 85 1688 0.45 148 13:40 18.11.2022
994 Snow -10 1029 86 356 0.89 117 11:24 18.11.2022
995 Snow -9 1029 85 192 0.89 109 07:59 18.11.2022
996 Snow -9 1029 86 2414 3.6 100 06:18 18.11.2022
997 Clouds -8 1030 86 436 1.34 49 05:18 18.11.2022
998 Snow -6 1028 80 812 1.34 38 00:40 18.11.2022
999 Snow -5 1028 79 10000 2.24 0 20:59 17.11.2022
1000 Snow -5 1028 80 10000 2.24 39 20:26 17.11.2022
1001 Snow -5 1028 79 10000 2.24 28 19:50 17.11.2022
1002 Snow -5 1029 80 10000 3.13 18 18:34 17.11.2022
1003 Mist -5 1029 83 2012 4.63 20 17:32 17.11.2022
1004 Snow -4 1029 82 2414 5.14 30 16:33 17.11.2022
1005 Clouds -3 1023 57 10000 0.45 223 12:29 17.11.2022
1006 Clouds -3 1024 57 10000 0.89 223 11:20 17.11.2022
1007 Clouds -2 1025 56 10000 0.89 142 07:59 17.11.2022
1008 Clouds 1 1028 45 10000 2.5 212 01:39 17.11.2022
1009 Clouds 4 1028 36 10000 0.45 151 00:19 17.11.2022
1010 Clouds 5 1029 35 10000 1.34 40 22:27 16.11.2022
1011 Clouds 4 1030 34 10000 1.34 117 20:35 16.11.2022
1012 Clouds 3 1031 35 10000 1.34 155 19:29 16.11.2022
1013 Clouds 2 1031 38 10000 1.34 127 18:32 16.11.2022
1014 Clouds -3 1031 48 10000 0.45 203 16:30 16.11.2022
1015 Clear -5 1031 52 10000 1.71 210 12:56 16.11.2022
1016 Clear -6 1032 55 10000 1.72 231 08:27 16.11.2022
1017 Clear -2 1027 56 10000 1.81 187 01:49 16.11.2022
1018 Rain 1 1026 42 10000 1.34 13 23:50 15.11.2022
1019 Rain 2 1026 46 10000 2.24 8 21:54 15.11.2022
1020 Rain 1 1026 56 10000 1.79 205 20:25 15.11.2022
1021 Snow 0 1027 66 10000 2.57 220 19:18 15.11.2022
1022 Snow -2 1028 80 10000 0.89 181 17:38 15.11.2022
1023 Mist -4 1028 87 4023 1.54 110 16:22 15.11.2022
1024 Snow -5 1027 89 10000 0.45 109 15:40 15.11.2022
1025 Clouds -5 1027 89 10000 0.45 118 14:41 15.11.2022
1026 Snow -4 1026 89 10000 0.89 109 12:58 15.11.2022
1027 Snow -4 1025 88 10000 1.34 44 11:22 15.11.2022
1028 Snow -3 1025 84 7381 0.89 144 09:53 15.11.2022
1029 Clouds -1 1022 51 10000 0.89 277 03:48 15.11.2022
1030 Clouds 1 1019 38 10000 2.57 20 00:26 15.11.2022
1031 Clouds 2 1019 35 10000 1.34 40 22:51 14.11.2022
1032 Clouds 2 1019 37 10000 3.09 350 20:44 14.11.2022
1033 Clouds 2 1019 37 10000 1.34 16 20:44 14.11.2022
1034 Clouds 1 1020 41 10000 1.79 99 19:47 14.11.2022
1035 Clouds 0 1020 48 10000 0.89 174 18:27 14.11.2022
1036 Clouds -7 1024 71 10000 2.75 54 13:20 14.11.2022
1037 Clouds -6 1018 69 10000 0.45 304 11:49 14.11.2022
1038 Clouds -6 1018 69 10000 0.45 304 11:49 14.11.2022
1039 Clouds -6 1018 65 10000 0.45 328 10:59 14.11.2022
1040 Clouds -4 1019 52 10000 0.89 11 08:34 14.11.2022
1041 Clouds -4 1019 53 10000 0.89 11 08:34 14.11.2022
1042 Clouds -4 1019 52 10000 0.89 16 08:34 14.11.2022
1043 Clouds -3 1019 50 10000 0.89 26 07:52 14.11.2022
1044 Clouds 0 1018 39 10000 4.63 20 04:24 14.11.2022
1045 Clouds 8 1011 25 10000 2.68 128 23:23 13.11.2022
1046 Clouds 9 1010 21 10000 3.58 85 21:42 13.11.2022
1047 Clouds 10 1010 21 10000 2.68 89 20:48 13.11.2022
1048 Clouds 9 1011 19 10000 0.89 92 18:54 13.11.2022
1049 Clouds 8 1012 24 10000 1.79 71 17:50 13.11.2022
1050 Clear 2 1013 29 10000 0.72 187 15:48 13.11.2022
1051 Clear -1 1012 36 10000 1.18 197 14:31 13.11.2022
1052 Clouds -1 1013 46 10000 1.13 188 12:56 13.11.2022
1053 Clouds -2 1012 46 10000 2.57 190 11:43 13.11.2022
1054 Clouds -1 1013 46 10000 1.25 174 10:36 13.11.2022
1055 Clouds 0 1014 48 10000 0.88 133 05:53 13.11.2022
1056 Clouds 8 1018 29 10000 1.34 336 23:55 12.11.2022
1057 Clouds 8 1018 28 10000 1.34 5 21:40 12.11.2022
1058 Clouds 7 1019 31 10000 1.34 306 20:54 12.11.2022
1059 Clouds 5 1019 37 10000 0.45 284 18:59 12.11.2022
1060 Clear 1 1022 45 10000 1.9 164 16:55 12.11.2022
1061 Clear -3 1019 68 10000 0 0 15:48 12.11.2022
1062 Clear -5 1019 70 10000 1.54 150 13:39 12.11.2022
1063 Clear -5 1022 72 10000 1.5 183 09:41 12.11.2022
1064 Clear -5 1022 70 10000 1.5 183 09:41 12.11.2022
1065 Clear -4 1023 69 10000 2.14 179 07:48 12.11.2022
1066 Clouds 3 1020 41 10000 2.57 100 23:50 11.11.2022
1067 Clear 2 1020 49 10000 1.34 113 20:57 11.11.2022
1068 Clear 2 1020 51 10000 0.89 290 20:34 11.11.2022
1069 Clouds 0 1022 59 10000 0.89 273 19:27 11.11.2022
1070 Clouds -1 1023 62 10000 0.45 176 18:33 11.11.2022
1071 Clouds -3 1021 66 10000 0.45 106 17:40 11.11.2022
1072 Clouds -6 1021 74 10000 1.94 28 14:33 11.11.2022
1073 Clouds -6 1022 72 10000 5.14 110 13:55 11.11.2022
1074 Clouds -5 1020 73 10000 3.6 70 12:26 11.11.2022
1075 Clouds -2 1020 67 10000 1.34 352 08:59 11.11.2022
1076 Clouds -2 1020 68 10000 2.57 120 08:26 11.11.2022
1077 Clouds 7 1013 26 10000 9.26 330 00:39 11.11.2022
1078 Clear 9 1012 23 10000 2.68 317 22:53 10.11.2022
1079 Clear 10 1011 21 10000 1.79 130 21:44 10.11.2022
1080 Clear 10 1011 21 10000 1.79 130 21:26 10.11.2022
1081 Clear 9 1012 22 10000 1.34 167 20:25 10.11.2022
1082 Clear 9 1012 22 10000 1.79 171 19:56 10.11.2022
1083 Clear 7 1013 25 10000 2.24 113 18:45 10.11.2022
1084 Clear 6 1013 31 10000 2.24 152 17:30 10.11.2022
1085 Clear 4 1014 37 10000 0.45 84 16:25 10.11.2022
1086 Clear 1 1013 48 10000 1.34 306 13:34 10.11.2022
1087 Clouds 1 1011 82 4795 6.08 290 09:38 10.11.2022
1088 Clouds 2 1009 87 10000 5.26 338 07:57 10.11.2022
1089 Clouds 14 995 16 10000 8.13 202 01:18 10.11.2022
1090 Clouds 20 995 10 10000 10.29 205 22:58 09.11.2022
1091 Clouds 21 996 9 10000 7.6 196 21:32 09.11.2022
1092 Clouds 20 995 9 10000 7.58 196 20:42 09.11.2022
1093 Clouds 19 999 16 10000 1.97 182 20:22 09.11.2022
1094 Clouds 18 1007 46 10000 3.09 20 19:26 09.11.2022
1095 Clouds 17 1004 27 10000 0.58 340 17:45 09.11.2022
1096 Clouds 2 1008 46 10000 1.74 345 14:58 09.11.2022
1097 Clouds 2 1008 46 10000 1.74 345 14:40 09.11.2022
1098 Clouds 3 1008 42 10000 2.34 358 14:21 09.11.2022
1099 Clouds 6 1007 36 10000 2.74 341 12:55 09.11.2022
1100 Clouds 11 1008 30 10000 1.79 351 09:40 09.11.2022
1101 Clouds 11 1008 27 10000 2.98 172 07:47 09.11.2022
1102 Clear 11 1009 26 10000 0.45 305 06:55 09.11.2022
1103 Clouds 21 1011 20 10000 7.72 190 22:44 08.11.2022
1104 Clouds 21 1008 18 10000 3.13 213 21:43 08.11.2022
1105 Clouds 21 1008 18 10000 3.13 213 21:43 08.11.2022
1106 Clouds 21 1008 17 10000 1.79 145 20:55 08.11.2022
1107 Clouds 20 1007 18 10000 2.68 145 20:30 08.11.2022
1108 Clouds 19 1010 20 10000 1.25 256 19:28 08.11.2022
1109 Clouds 16 1014 30 10000 1.34 253 17:37 08.11.2022
1110 Clouds 10 1011 40 10000 5.14 180 15:38 08.11.2022
1111 Clouds 8 1010 45 10000 3.58 165 14:51 08.11.2022
1112 Clouds 9 1012 44 10000 4.02 178 13:33 08.11.2022
1113 Clouds 9 1011 44 10000 4.47 164 11:54 08.11.2022
1114 Clouds 8 1012 52 10000 8.75 190 07:45 08.11.2022
1115 Clouds 8 1013 54 10000 0.89 178 06:29 08.11.2022
1116 Clear 13 1012 41 10000 0.89 15 23:50 07.11.2022
1117 Clear 14 1012 42 10000 2.24 24 21:56 07.11.2022
1118 Clear 13 1013 45 10000 1.79 13 20:58 07.11.2022
1119 Clear 11 1014 48 10000 1.34 303 19:52 07.11.2022
1120 Clear 5 1018 58 10000 0.89 228 17:43 07.11.2022
1121 Clear 3 1017 72 10000 3.13 250 15:40 07.11.2022
1122 Clear 2 1017 71 10000 2.68 193 14:57 07.11.2022
1123 Clear 2 1017 66 10000 1.34 215 13:51 07.11.2022
1124 Clouds 3 1017 59 10000 2.24 183 12:32 07.11.2022
1125 Clouds 3 1017 51 10000 3.58 167 10:46 07.11.2022
1126 Clouds 4 1017 48 10000 3.58 148 09:18 07.11.2022
1127 Clouds 4 1019 51 10000 0.45 203 06:54 07.11.2022
1128 Clouds 8 1017 38 10000 1.34 100 01:49 07.11.2022
1129 Clouds 9 1015 38 10000 2.68 332 23:47 06.11.2022
1130 Clouds 10 1014 36 10000 2.24 111 21:22 06.11.2022
1131 Clouds 10 1014 36 10000 1.34 124 20:49 06.11.2022
1132 Clouds 9 1014 38 10000 1.79 106 19:57 06.11.2022
1133 Clouds 8 1014 41 10000 1.79 115 19:28 06.11.2022
1134 Clouds 7 1013 43 10000 5.66 120 18:20 06.11.2022
1135 Clouds 7 1013 45 10000 1.34 148 17:42 06.11.2022
1136 Clouds 6 1013 48 10000 1.79 136 17:18 06.11.2022
1137 Clouds 5 1012 58 10000 6.17 130 16:19 06.11.2022
1138 Clouds 3 1010 65 10000 1.34 123 14:53 06.11.2022
1139 Clouds 3 1008 64 10000 0.89 170 12:46 06.11.2022
1140 Clouds 4 1007 63 10000 5.66 110 10:58 06.11.2022
1141 Clouds 5 1006 62 10000 0.45 96 09:52 06.11.2022
1142 Clouds 5 1006 62 10000 0.45 96 09:52 06.11.2022
1143 Clouds 6 1004 53 10000 0.45 282 07:44 06.11.2022
1144 Clouds 15 998 27 10000 2.68 275 23:25 05.11.2022
1145 Clouds 14 999 33 10000 4.02 264 20:46 05.11.2022
1146 Clouds 11 1000 38 10000 2.68 267 18:38 05.11.2022
1147 Clouds 8 1001 50 10000 4.63 150 16:35 05.11.2022
1148 Clouds 4 1002 58 10000 0.89 29 14:43 05.11.2022
1149 Clouds 3 1002 58 10000 1.34 115 13:39 05.11.2022
1150 Clear 1 1004 62 10000 0.89 20 11:49 05.11.2022
1151 Clouds 0 1007 66 10000 2.57 210 08:58 05.11.2022
1152 Clear 1 1007 58 10000 0.45 216 07:23 05.11.2022
1153 Clouds 1 1007 57 10000 3.09 220 06:54 05.11.2022
1154 Clear 6 1010 31 10000 1.79 292 00:37 05.11.2022
1155 Clouds 7 1010 31 10000 2.24 353 23:27 04.11.2022
1156 Clear 6 1012 55 10000 1.34 215 20:44 04.11.2022
1157 Clouds 4 1014 63 10000 0.89 203 19:31 04.11.2022
1158 Rain 1 1014 80 10000 0.45 289 17:39 04.11.2022
1159 Clouds -2 1014 92 10000 1.77 29 14:25 04.11.2022
1160 Clouds -3 1014 92 10000 0.89 21 12:28 04.11.2022
1161 Clouds -2 1014 92 10000 0.89 8 11:45 04.11.2022
1162 Clouds -2 1014 91 10000 1.34 20 09:24 04.11.2022
1163 Clouds -2 1014 91 10000 0.45 40 08:19 04.11.2022
1164 Clouds -2 1015 91 10000 0.45 90 05:51 04.11.2022
1165 Snow 1 1011 78 10000 4.01 29 00:39 04.11.2022
1166 Clouds 4 1008 56 10000 1.34 49 21:18 03.11.2022
1167 Clouds 4 1007 56 10000 2.24 17 20:32 03.11.2022
1168 Clouds 4 1007 57 10000 2.24 17 19:40 03.11.2022
1169 Clouds 4 1008 59 10000 2.68 337 18:18 03.11.2022
1170 Clouds 4 1009 62 10000 2.24 52 16:54 03.11.2022
1171 Clouds 3 1008 60 10000 2.24 20 14:56 03.11.2022
1172 Clear 7 1005 39 10000 2.24 328 13:23 03.11.2022
1173 Clear 8 1000 37 10000 0.45 191 12:30 03.11.2022
1174 Clouds 9 1003 36 10000 2.06 160 11:28 03.11.2022
1175 Clear 10 1003 26 10000 0.45 237 07:45 03.11.2022
1176 Clouds 21 1004 15 10000 3.09 230 21:44 02.11.2022
1177 Clouds 21 1004 16 10000 0.89 73 20:51 02.11.2022
1178 Clouds 20 1005 17 10000 1.34 357 20:19 02.11.2022
1179 Clouds 16 1007 25 10000 1.34 206 17:58 02.11.2022
1180 Clouds 13 1007 31 10000 0.45 227 16:25 02.11.2022
1181 Clouds 10 1007 34 10000 0.45 188 15:25 02.11.2022
1182 Clouds 10 1007 34 10000 0.45 188 15:25 02.11.2022
1183 Clouds 11 1007 31 10000 0.89 219 12:48 02.11.2022
1184 Clouds 11 1006 29 10000 1.34 289 11:58 02.11.2022
1185 Clouds 13 1006 25 10000 0.45 309 09:27 02.11.2022
1186 Clouds 13 1007 29 10000 1.34 117 06:48 02.11.2022
1187 Clouds 18 1008 25 10000 0.89 322 00:55 02.11.2022
1188 Clear 22 1007 19 10000 1.79 93 22:20 01.11.2022
1189 Clear 22 1008 20 10000 1.34 40 21:42 01.11.2022
1190 Clouds 21 1009 22 10000 4.12 240 20:27 01.11.2022
1191 Clear 20 1011 23 10000 0.89 163 19:57 01.11.2022
1192 Clear 19 1011 24 10000 2.24 116 19:39 01.11.2022
1193 Clear 14 1013 33 10000 1.34 105 17:36 01.11.2022
1194 Clear 10 1014 40 10000 0.89 209 16:23 01.11.2022
1195 Clear 6 1013 45 10000 2.16 193 14:33 01.11.2022
1196 Clear 6 1013 45 10000 1.66 218 12:31 01.11.2022
1197 Clear 6 1013 42 10000 1.73 204 11:38 01.11.2022
1198 Clear 7 1013 42 10000 1.54 200 11:19 01.11.2022
1199 Clear 7 1013 42 10000 1 217 08:46 01.11.2022
1200 Clear 8 1012 40 10000 1.45 218 07:46 01.11.2022
1201 Clear 8 1012 39 10000 1.71 225 07:26 01.11.2022
1202 Clear 8 1007 39 10000 1.6 227 06:44 01.11.2022
1203 Clear 10 1012 35 10000 0.89 301 03:55 01.11.2022
1204 Clear 19 1011 14 10000 0.89 75 21:59 31.10.2022
1205 Clear 19 1011 15 10000 1.34 129 21:26 31.10.2022
1206 Clear 17 1013 17 10000 1.34 101 19:55 31.10.2022
1207 Clear 15 1014 23 10000 1.34 216 18:28 31.10.2022
1208 Clear 10 1016 37 10000 0.89 188 16:43 31.10.2022
1209 Clear 5 1015 47 10000 2.16 209 13:49 31.10.2022
1210 Clear 5 1014 50 10000 1.58 213 11:54 31.10.2022
1211 Clear 6 1009 47 10000 1.59 209 09:28 31.10.2022
1212 Clouds 7 1014 44 10000 1.65 256 05:39 31.10.2022
1213 Clouds 9 1014 34 10000 1.34 281 02:30 31.10.2022
1214 Clouds 15 1015 21 10000 0.89 59 23:19 30.10.2022
1215 Clouds 15 1016 20 10000 1.79 138 21:44 30.10.2022
1216 Clouds 15 1017 22 10000 1.34 90 20:37 30.10.2022
1217 Clouds 12 1020 28 10000 0.45 248 18:40 30.10.2022
1218 Clouds 6 1018 41 10000 0.41 208 16:18 30.10.2022
1219 Clouds 3 1022 48 10000 3.09 200 14:22 30.10.2022
1220 Clouds 3 1019 46 10000 0.42 12 13:21 30.10.2022
1221 Clouds 4 1019 43 10000 0.51 24 11:47 30.10.2022
1222 Clouds 4 1019 41 10000 0.72 296 09:38 30.10.2022
1223 Clouds 4 1022 43 10000 4.12 170 08:39 30.10.2022
1224 Clouds 7 1017 37 10000 1.79 268 03:58 30.10.2022
1225 Clouds 15 1019 19 10000 0.89 0 00:28 30.10.2022
1226 Clouds 15 1019 19 10000 1.34 357 23:45 29.10.2022
1227 Clear 15 1021 21 10000 1.79 119 21:27 29.10.2022
1228 Clouds 11 1024 34 10000 2.57 220 18:34 29.10.2022
1229 Clear 7 1025 40 10000 0.41 70 17:20 29.10.2022
1230 Clear 3 1022 49 10000 0.82 209 15:38 29.10.2022
1231 Clear 3 1023 55 10000 4.12 180 14:48 29.10.2022
1232 Clear 3 1020 53 10000 1.06 198 12:35 29.10.2022
1233 Clear 4 1020 50 10000 0.77 215 11:53 29.10.2022
1234 Clear 6 1019 48 10000 1.36 207 07:38 29.10.2022
1235 Clear 7 1018 53 10000 1.06 196 05:56 29.10.2022
1236 Clear 8 1021 48 10000 1.34 274 04:19 29.10.2022
1237 Clear 15 1022 28 10000 1.79 184 23:42 28.10.2022
1238 Clear 12 1025 36 10000 1.34 127 20:56 28.10.2022
1239 Clear 9 1026 45 10000 1.79 174 19:29 28.10.2022
1240 Clear 8 1025 51 10000 1.34 191 18:31 28.10.2022
1241 Clear 1 1027 68 10000 2.22 186 16:20 28.10.2022
1242 Clear 0 1026 74 10000 1.9 186 14:44 28.10.2022
1243 Clear 0 1026 74 10000 1.9 186 14:44 28.10.2022
1244 Clouds 1 1025 74 10000 2.06 183 12:58 28.10.2022
1245 Clouds 1 1024 74 10000 1.8 190 11:53 28.10.2022
1246 Clouds 1 1024 74 10000 1.8 190 11:53 28.10.2022
1247 Clear 1 1024 75 10000 1.76 192 11:25 28.10.2022
1248 Clear 1 1024 75 10000 1.76 199 09:49 28.10.2022
1249 Clear 1 1023 80 10000 1.47 227 08:34 28.10.2022
1250 Clear 4 1021 83 10000 1.79 277 03:51 28.10.2022
1251 Clouds 6 1017 86 10000 0.89 179 23:50 27.10.2022
1252 Clouds 5 1017 90 10000 0.45 69 22:58 27.10.2022
1253 Rain 3 1016 92 10000 4.45 10 21:56 27.10.2022
1254 Snow 2 1016 93 47 1.79 328 20:30 27.10.2022
1255 Snow 1 1015 92 33 1.34 328 18:23 27.10.2022
1256 Rain 4 1010 67 616 2.24 24 14:52 27.10.2022
1257 Clouds 6 1008 60 10000 2.24 10 11:33 27.10.2022
1258 Clouds 6 1007 55 10000 0.45 173 07:31 27.10.2022
1259 Clouds 14 1006 35 10000 1.34 17 00:22 27.10.2022
1260 Clouds 14 1006 34 10000 1.34 23 23:49 26.10.2022
1261 Clouds 13 1007 35 10000 2.06 100 22:38 26.10.2022
1262 Clouds 12 1009 38 10000 2.06 300 20:46 26.10.2022
1263 Clouds 7 1012 48 10000 1.34 333 17:36 26.10.2022
1264 Clouds 6 1013 52 10000 0.89 186 14:53 26.10.2022
1265 Clouds 5 1014 54 10000 0.89 175 12:52 26.10.2022
1266 Clouds 6 1015 54 10000 0.89 179 11:35 26.10.2022
1267 Clouds 6 1017 48 10000 0.89 81 09:18 26.10.2022
1268 Clouds 6 1017 49 10000 4.76 132 08:44 26.10.2022
1269 Clouds 14 1012 30 10000 3.13 306 00:50 26.10.2022
1270 Clouds 14 1012 30 10000 2.68 316 00:29 26.10.2022
1271 Clouds 16 1012 28 10000 3.6 20 21:58 25.10.2022
1272 Clouds 16 1012 28 10000 1.79 97 21:25 25.10.2022
1273 Clouds 15 1013 29 10000 2.24 78 20:26 25.10.2022
1274 Clouds 10 1014 36 10000 0.89 202 18:38 25.10.2022
1275 Clear 4 1012 45 10000 0.45 0 15:28 25.10.2022
1276 Clear 3 1010 41 10000 0.45 181 11:40 25.10.2022
1277 Clear 3 1011 40 10000 0.45 214 10:46 25.10.2022
1278 Clear 3 1011 40 10000 2.41 219 10:28 25.10.2022
1279 Clear 4 1011 36 10000 2.68 271 08:19 25.10.2022
1280 Clear 4 1011 35 10000 4.12 210 07:59 25.10.2022
1281 Clear 4 1011 34 10000 3.13 281 07:41 25.10.2022
1282 Clear 5 1012 32 10000 4.02 296 04:27 25.10.2022
1283 Clear 6 1012 33 10000 3.58 251 03:21 25.10.2022
1284 Clouds 10 1010 26 10000 5.14 300 00:31 25.10.2022
1285 Clouds 10 1009 22 10000 2.68 328 22:25 24.10.2022
1286 Clear 10 1009 21 10000 3.13 263 21:34 24.10.2022
1287 Clear 10 1009 22 10000 3.13 263 21:34 24.10.2022
1288 Clear 9 1010 22 10000 1.79 344 20:44 24.10.2022
1289 Clouds 8 1010 25 10000 2.24 40 19:36 24.10.2022
1290 Clouds 5 1010 38 10000 3.58 282 17:53 24.10.2022
1291 Clouds 3 1011 50 10000 4.47 277 16:54 24.10.2022
1292 Clear 1 1008 61 10000 3.08 305 14:50 24.10.2022
1293 Clouds 1 1007 59 10000 0.45 210 13:53 24.10.2022
1294 Clouds 2 1005 68 10000 0.45 63 12:18 24.10.2022
1295 Clouds 3 1005 82 10000 0.45 232 08:51 24.10.2022
1296 Clouds 13 990 32 10000 3.13 186 00:55 24.10.2022
1297 Clouds 16 989 34 10000 5.36 208 21:24 23.10.2022
1298 Clear 17 988 34 10000 3.58 186 19:53 23.10.2022
1299 Clear 18 988 31 10000 3.13 193 18:25 23.10.2022
1300 Clouds 17 989 32 10000 7.72 230 17:27 23.10.2022
1301 Clear 15 986 33 10000 3.13 192 15:21 23.10.2022
1302 Clouds 14 988 33 10000 3.13 188 13:22 23.10.2022
1303 Clouds 14 988 32 10000 0.89 165 11:18 23.10.2022
1304 Clouds 14 995 28 10000 0.45 215 08:19 23.10.2022
1305 Clear 24 993 14 10000 1.79 92 23:56 22.10.2022
1306 Clear 24 995 15 10000 2.24 40 22:32 22.10.2022
1307 Clear 23 996 15 10000 1.79 61 21:42 22.10.2022
1308 Clear 23 997 16 10000 1.34 63 20:55 22.10.2022
1309 Clear 21 998 19 10000 1.34 111 19:45 22.10.2022
1310 Clear 21 999 20 10000 1.79 205 19:24 22.10.2022
1311 Clear 17 1000 26 10000 1.79 168 17:37 22.10.2022
1312 Clear 12 1001 32 10000 2.89 203 15:57 22.10.2022
1313 Clear 11 1000 32 10000 0.45 214 14:42 22.10.2022
1314 Clear 11 1001 32 10000 3.35 201 13:45 22.10.2022
1315 Clear 14 1001 26 10000 0.89 275 09:59 22.10.2022
1316 Clear 14 1001 26 10000 0.45 123 09:36 22.10.2022
1317 Clear 14 1002 25 10000 1.34 255 07:45 22.10.2022
1318 Clear 19 1003 16 10000 1.79 254 02:55 22.10.2022
1319 Clouds 25 1002 10 10000 3.58 246 23:49 21.10.2022
1320 Clouds 24 1005 12 10000 4.92 302 21:35 21.10.2022
1321 Clear 24 1006 13 10000 2.68 250 20:57 21.10.2022
1322 Clouds 22 1009 17 10000 5.36 281 19:26 21.10.2022
1323 Clouds 15 1009 26 10000 2.29 221 16:51 21.10.2022
1324 Clear 12 1007 28 10000 4.12 200 13:57 21.10.2022
1325 Clouds 12 1000 30 10000 1.79 312 12:57 21.10.2022
1326 Clouds 13 1009 28 10000 2.51 218 10:40 21.10.2022
1327 Clear 13 1009 26 10000 2.34 221 09:49 21.10.2022
1328 Clear 14 1009 24 10000 2.31 223 08:38 21.10.2022
1329 Clear 14 1009 24 10000 1.69 237 06:46 21.10.2022
1330 Clear 26 1010 9 10000 0.89 32 00:24 21.10.2022
1331 Clear 26 1013 10 10000 1.79 184 22:23 20.10.2022
1332 Clear 24 1015 11 10000 1.34 140 20:35 20.10.2022
1333 Clear 22 1017 19 10000 1.34 103 19:33 20.10.2022
1334 Clear 17 1017 27 10000 0.89 200 17:52 20.10.2022
1335 Clear 10 1021 34 10000 0.45 150 16:30 20.10.2022
1336 Clear 9 1018 35 10000 2.44 196 12:36 20.10.2022
1337 Clear 9 1018 30 10000 2.45 210 12:18 20.10.2022
1338 Clear 10 1019 32 10000 1.81 209 10:57 20.10.2022
1339 Clear 10 1019 31 10000 1.33 215 10:24 20.10.2022
1340 Clear 11 1015 29 10000 1.79 281 07:45 20.10.2022
1341 Clear 14 1022 30 10000 0.39 349 04:58 20.10.2022
1342 Clear 24 1020 14 10000 1.34 10 00:57 20.10.2022
1343 Clear 24 1021 16 10000 4.12 10 22:45 19.10.2022
1344 Clear 23 1021 16 10000 2.68 320 21:55 19.10.2022
1345 Clear 23 1022 16 10000 1.34 186 20:52 19.10.2022
1346 Clear 17 1024 27 10000 0.89 154 18:21 19.10.2022
1347 Clear 14 1024 32 10000 1.34 129 17:37 19.10.2022
1348 Clear 9 1022 34 10000 2.35 214 15:23 19.10.2022
1349 Clear 9 1022 37 10000 2.24 211 12:49 19.10.2022
1350 Clear 10 1022 35 10000 1.86 216 09:33 19.10.2022
1351 Clear 10 1022 38 10000 1.6 239 08:26 19.10.2022
1352 Clear 11 1023 42 10000 2.06 20 04:56 19.10.2022
1353 Clear 19 1023 23 10000 1.34 82 00:59 19.10.2022
1354 Clear 20 1023 26 10000 3.09 10 22:53 18.10.2022
1355 Clear 19 1024 29 10000 2.68 25 21:37 18.10.2022
1356 Clear 18 1025 29 10000 1.79 49 20:35 18.10.2022
1357 Clear 16 1025 31 10000 0.89 57 19:28 18.10.2022
1358 Clear 11 1026 46 10000 0.45 200 17:31 18.10.2022
1359 Clear 7 1024 57 10000 0.91 173 16:20 18.10.2022
1360 Clear 5 1023 64 10000 0.21 224 13:57 18.10.2022
1361 Clear 5 1022 61 10000 1.16 14 12:21 18.10.2022
1362 Clear 6 1021 59 10000 1.43 360 11:20 18.10.2022
1363 Clear 6 1021 57 10000 1.06 347 09:27 18.10.2022
1364 Clear 7 1026 55 10000 5.14 160 07:43 18.10.2022
1365 Clouds 15 1021 37 10000 3.09 0 01:57 18.10.2022
1366 Clear 16 1024 38 10000 0.89 114 21:50 17.10.2022
1367 Clear 15 1024 41 10000 1.34 97 20:50 17.10.2022
1368 Clear 14 1025 43 10000 2.06 310 20:30 17.10.2022
1369 Clear 15 1025 42 10000 0.89 34 20:30 17.10.2022
1370 Clear 14 1025 45 10000 0.89 85 19:50 17.10.2022
1371 Clear 11 1026 49 10000 0.89 175 18:42 17.10.2022
1372 Clear 6 1024 68 10000 0.89 168 16:39 17.10.2022
1373 Clear 3 1027 74 10000 3.09 200 15:29 17.10.2022
1374 Clear 3 1023 75 10000 0.95 20 14:34 17.10.2022
1375 Clear 5 1023 65 10000 1.38 40 10:29 17.10.2022
1376 Clear 8 1022 66 10000 2.52 102 03:58 17.10.2022
1377 Clouds 13 1024 51 10000 1.34 89 23:25 16.10.2022
1378 Clouds 12 1025 55 10000 0.89 109 21:47 16.10.2022
1379 Clouds 10 1024 59 10000 1.02 115 20:41 16.10.2022
1380 Clouds 10 1026 61 10000 0.89 355 19:46 16.10.2022
1381 Clouds 9 1026 70 10000 0.89 14 17:51 16.10.2022
1382 Clouds 8 1026 73 10000 0.89 21 16:33 16.10.2022
1383 Clouds 8 1025 73 10000 1.34 16 15:56 16.10.2022
1384 Clouds 8 1024 71 10000 0.45 358 14:26 16.10.2022
1385 Clouds 9 1024 67 10000 2.57 90 12:21 16.10.2022
1386 Clouds 10 1024 64 10000 0.45 10 10:27 16.10.2022
1387 Clouds 10 1024 61 10000 2.58 68 08:36 16.10.2022
1388 Clouds 17 1019 37 10000 1.34 39 00:48 16.10.2022
1389 Clouds 16 1018 38 10000 1.79 48 22:42 15.10.2022
1390 Clouds 16 1018 39 10000 4.12 30 21:25 15.10.2022
1391 Clouds 16 1018 39 10000 0.89 44 20:25 15.10.2022
1392 Clear 15 1019 38 10000 1.34 192 18:43 15.10.2022
1393 Clear 9 1017 41 10000 2.33 350 15:46 15.10.2022
1394 Clear 9 1018 39 10000 2.75 346 14:24 15.10.2022
1395 Clear 10 1012 31 10000 0.52 275 11:54 15.10.2022
1396 Clear 11 1017 30 10000 1.54 190 10:31 15.10.2022
1397 Clear 12 1013 27 10000 1.12 231 08:31 15.10.2022
1398 Clear 20 1011 19 10000 0.89 337 02:35 15.10.2022
1399 Clouds 25 1010 13 10000 2.68 335 23:31 14.10.2022
1400 Clouds 25 1010 13 10000 2.68 335 23:31 14.10.2022
1401 Clouds 24 1011 13 10000 3.13 303 22:23 14.10.2022
1402 Clouds 24 1011 14 10000 3.58 322 21:28 14.10.2022
1403 Clear 22 1013 20 10000 0.89 284 19:44 14.10.2022
1404 Clouds 11 1017 40 10000 4.63 200 16:26 14.10.2022
1405 Clear 9 1012 44 10000 2.23 220 13:27 14.10.2022
1406 Clear 10 1012 44 10000 2.63 217 12:18 14.10.2022
1407 Clear 10 1014 48 10000 2.68 211 09:29 14.10.2022
1408 Clear 11 1019 51 10000 2.01 207 06:55 14.10.2022
1409 Clear 11 1016 49 10000 2.28 192 06:18 14.10.2022
1410 Clear 11 1019 51 10000 2.28 192 05:42 14.10.2022
1411 Clear 12 1016 49 10000 2.14 179 03:44 14.10.2022
1412 Clouds 18 1018 32 10000 0.89 129 23:54 13.10.2022
1413 Clear 17 1019 33 10000 1.34 154 22:22 13.10.2022
1414 Clear 17 1021 34 10000 2.24 98 21:25 13.10.2022
1415 Clear 15 1022 37 10000 0.89 81 19:43 13.10.2022
1416 Clear 15 1022 37 10000 1.79 102 19:25 13.10.2022
1417 Clear 15 1023 41 10000 0.89 156 18:42 13.10.2022
1418 Clear 10 1022 58 10000 0.87 128 16:50 13.10.2022
1419 Clear 8 1022 56 10000 0.49 145 15:45 13.10.2022
1420 Clear 6 1021 60 10000 1.9 190 14:18 13.10.2022
1421 Clear 6 1020 58 10000 2.49 206 12:49 13.10.2022
1422 Clear 6 1021 58 10000 2.18 212 11:35 13.10.2022
1423 Clear 6 1024 65 10000 0.91 54 09:37 13.10.2022
1424 Clear 6 1021 63 10000 2.29 125 07:39 13.10.2022
1425 Clear 7 1021 62 10000 2.31 132 06:40 13.10.2022
1426 Clear 15 1019 40 10000 1.79 0 01:48 13.10.2022
1427 Clouds 17 1019 36 10000 7.2 50 00:53 13.10.2022
1428 Clear 21 1016 27 10000 3.13 35 22:46 12.10.2022
1429 Clear 21 1016 25 10000 2.68 62 21:55 12.10.2022
1430 Clear 21 1016 26 10000 2.68 6 21:21 12.10.2022
1431 Clear 21 1016 27 10000 2.68 54 20:52 12.10.2022
1432 Clouds 20 1017 26 10000 3.09 340 19:29 12.10.2022
1433 Clouds 17 1017 33 10000 3.6 250 18:21 12.10.2022
1434 Clear 16 1016 34 10000 3.58 304 17:47 12.10.2022
1435 Clear 9 1016 52 10000 2.59 205 15:35 12.10.2022
1436 Clear 8 1016 52 10000 1.6 183 13:55 12.10.2022
1437 Clear 7 1015 74 10000 1.04 190 12:34 12.10.2022
1438 Clear 7 1015 75 10000 1.71 126 09:37 12.10.2022
1439 Clouds 8 1016 68 10000 1.83 113 07:42 12.10.2022
1440 Clouds 9 1015 64 10000 0.45 350 06:55 12.10.2022
1441 Clouds 9 1015 63 10000 0.45 80 06:37 12.10.2022
1442 Clouds 22 1007 22 10000 6.71 261 00:58 12.10.2022
1443 Clear 24 1006 16 10000 5.36 311 21:59 11.10.2022
1444 Clear 24 1008 16 10000 2.68 336 20:38 11.10.2022
1445 Clouds 21 1010 21 10000 5.14 250 18:28 11.10.2022
1446 Clear 16 1008 31 10000 1.34 252 16:37 11.10.2022
1447 Clear 12 1010 41 10000 2.76 216 14:34 11.10.2022
1448 Clear 12 1012 44 10000 0.45 232 11:52 11.10.2022
1449 Clear 13 1010 41 10000 2.9 232 10:28 11.10.2022
1450 Clear 13 1009 40 10000 2.72 231 09:26 11.10.2022
1451 Clouds 15 1004 34 10000 2.11 215 05:39 11.10.2022
1452 Clouds 20 1011 27 10000 0.45 157 02:22 11.10.2022
1453 Clear 24 1012 20 10000 1.34 16 00:29 11.10.2022
1454 Clouds 23 1015 21 10000 1.79 191 21:24 10.10.2022
1455 Clouds 22 1017 24 10000 2.57 270 19:46 10.10.2022
1456 Clouds 22 1017 24 10000 2.57 270 19:46 10.10.2022
1457 Clouds 22 1017 24 10000 2.57 270 19:46 10.10.2022
1458 Clear 18 1018 35 10000 0.89 143 18:25 10.10.2022
1459 Clear 14 1021 44 10000 0.45 171 16:48 10.10.2022
1460 Clear 10 1017 46 10000 1.81 224 15:20 10.10.2022
1461 Clear 10 1017 49 10000 1.8 216 12:43 10.10.2022
1462 Clear 11 1017 49 10000 1.79 221 11:26 10.10.2022
1463 Clear 12 1018 44 10000 1.65 229 08:33 10.10.2022
1464 Clear 12 1023 41 10000 1.47 170 05:41 10.10.2022
1465 Clear 17 1020 32 10000 0.45 26 02:53 10.10.2022
1466 Clear 22 1019 22 10000 1.34 126 00:26 10.10.2022
1467 Clear 22 1021 26 10000 1.34 130 22:27 09.10.2022
1468 Clear 21 1021 27 10000 1.34 287 21:58 09.10.2022
1469 Clear 21 1022 31 10000 1.34 145 21:19 09.10.2022
1470 Clear 18 1024 40 10000 1.34 80 19:54 09.10.2022
1471 Clear 18 1024 41 10000 1.34 88 19:32 09.10.2022
1472 Clear 16 1024 44 10000 0.45 115 18:32 09.10.2022
1473 Clear 12 1023 55 10000 0.27 257 16:56 09.10.2022
1474 Clear 11 1023 55 10000 0.27 257 16:32 09.10.2022
1475 Clear 9 1023 52 10000 0.83 216 15:37 09.10.2022
1476 Clear 9 1022 61 10000 0.73 238 14:29 09.10.2022
1477 Clear 9 1026 61 10000 4.12 190 12:58 09.10.2022
1478 Clear 8 1021 58 10000 1.06 236 11:50 09.10.2022
1479 Clear 9 1021 58 10000 1.45 206 10:37 09.10.2022
1480 Clear 10 1022 60 10000 1.54 170 08:25 09.10.2022
1481 Clear 13 1023 57 10000 2.81 100 03:36 09.10.2022
1482 Clouds 16 1024 45 10000 2.06 50 02:24 09.10.2022
1483 Clear 19 1024 40 10000 0.45 261 00:26 09.10.2022
1484 Clear 18 1025 43 10000 0.89 37 22:53 08.10.2022
1485 Clear 17 1026 48 10000 1.79 28 21:44 08.10.2022
1486 Clear 15 1028 55 10000 0.89 142 20:25 08.10.2022
1487 Clear 12 1029 67 10000 0.89 107 18:32 08.10.2022
1488 Clear 7 1029 85 10000 0.45 240 15:59 08.10.2022
1489 Clear 7 1029 88 10000 0.47 120 14:52 08.10.2022
1490 Clear 6 1029 90 10000 1.38 26 13:20 08.10.2022
1491 Clear 5 1030 89 10000 2.01 3 10:37 08.10.2022
1492 Clouds 6 1030 88 10000 2.06 110 09:55 08.10.2022
1493 Clear 6 1029 86 10000 1.55 40 08:47 08.10.2022
1494 Clouds 8 1029 78 10000 1.88 66 03:53 08.10.2022
1495 Clouds 10 1031 71 10000 2.57 20 00:37 08.10.2022
1496 Clouds 10 1025 41 10000 3.28 32 23:21 07.10.2022
1497 Clouds 10 1025 41 10000 3.28 32 22:49 07.10.2022
1498 Clear 11 1027 45 10000 2.84 47 21:29 07.10.2022
1499 Clouds 9 1027 82 10000 2.27 56 19:34 07.10.2022
1500 Clouds 7 1029 88 10000 1.52 72 17:47 07.10.2022
1501 Clouds 6 1030 89 10000 1.53 69 16:41 07.10.2022
1502 Mist 6 1029 91 3219 4.12 60 14:59 07.10.2022
1503 Clear 7 1028 90 10000 1.79 69 13:23 07.10.2022
1504 Clouds 10 1031 81 10000 6.69 330 10:29 07.10.2022
1505 Clouds 11 1024 78 10000 3.93 332 09:24 07.10.2022
1506 Clouds 13 1025 63 10000 1.34 24 08:18 07.10.2022
1507 Clear 20 1022 32 10000 0.89 14 01:54 07.10.2022
1508 Clear 22 1022 30 10000 1.79 195 22:51 06.10.2022
1509 Clear 21 1023 34 10000 1.79 116 21:48 06.10.2022
1510 Clear 21 1024 35 10000 1.79 30 21:25 06.10.2022
1511 Clear 20 1025 38 10000 1.34 134 20:34 06.10.2022
1512 Clear 17 1026 49 10000 0.89 145 18:46 06.10.2022
1513 Clear 16 1026 53 10000 0.89 89 18:19 06.10.2022
1514 Clear 9 1025 60 10000 0.79 210 15:33 06.10.2022
1515 Clear 10 1028 67 10000 2.57 220 12:29 06.10.2022
1516 Clear 11 1027 61 10000 1.67 198 08:20 06.10.2022
1517 Clouds 15 1023 52 10000 3.14 90 03:39 06.10.2022
1518 Clear 20 1022 42 10000 1.34 10 00:39 06.10.2022
1519 Clear 19 1022 47 10000 1.34 75 21:52 05.10.2022
1520 Clouds 16 1024 59 10000 1.34 30 19:31 05.10.2022
1521 Clouds 13 1024 70 10000 0.89 342 17:36 05.10.2022
1522 Clouds 10 1024 84 10000 1.4 6 16:20 05.10.2022
1523 Clouds 9 1023 88 10000 1.34 299 14:48 05.10.2022
1524 Clouds 9 1021 87 10000 0.45 292 14:19 05.10.2022
1525 Clouds 10 1019 86 10000 0.89 296 12:26 05.10.2022
1526 Clouds 11 1022 85 10000 1.65 6 09:51 05.10.2022
1527 Clouds 13 1021 79 10000 1.1 116 07:51 05.10.2022
1528 Clouds 13 1022 75 10000 1.37 88 06:21 05.10.2022
1529 Clouds 14 1020 69 10000 0.89 326 04:35 05.10.2022
1530 Clouds 18 1018 52 10000 1.34 23 01:22 05.10.2022
1531 Clouds 19 1018 51 10000 1.34 65 00:27 05.10.2022
1532 Clear 19 1018 53 10000 2.24 56 22:39 04.10.2022
1533 Clear 17 1021 59 10000 0.89 54 20:40 04.10.2022
1534 Clouds 16 1023 61 10000 0.45 101 19:42 04.10.2022
1535 Clouds 15 1018 70 10000 1.09 43 18:39 04.10.2022
1536 Clouds 14 1019 76 10000 1.09 11 17:50 04.10.2022
1537 Clouds 11 1019 80 10000 1.46 357 16:41 04.10.2022
1538 Clear 10 1022 88 10000 1.41 197 13:19 04.10.2022
1539 Clear 11 1018 91 10000 2.7 174 09:47 04.10.2022
1540 Clouds 12 1021 89 10000 0.54 215 07:34 04.10.2022
1541 Rain 19 1014 50 10000 1.79 37 02:32 04.10.2022
1542 Clouds 23 1016 33 10000 1.34 59 23:41 03.10.2022
1543 Clouds 22 1017 34 10000 2.57 100 21:55 03.10.2022
1544 Clouds 22 1017 36 10000 1.34 94 21:23 03.10.2022
1545 Clouds 21 1017 41 10000 1.79 74 20:28 03.10.2022
1546 Clouds 18 1019 55 10000 0.89 176 18:35 03.10.2022
1547 Clouds 15 1019 68 10000 0.45 182 17:26 03.10.2022
1548 Clouds 11 1018 75 10000 1.47 349 15:47 03.10.2022
1549 Clouds 11 1021 79 10000 0.96 20 14:20 03.10.2022
1550 Clouds 12 1021 76 10000 1.07 355 12:30 03.10.2022
1551 Clouds 12 1022 75 10000 0 0 10:40 03.10.2022
1552 Clouds 13 1018 72 10000 1 201 09:40 03.10.2022
1553 Clouds 15 1016 68 10000 1.74 226 07:27 03.10.2022
1554 Clouds 18 1016 50 10000 1.34 4 03:34 03.10.2022
1555 Clouds 23 1016 40 10000 1.79 196 22:39 02.10.2022
1556 Clouds 19 1018 53 10000 6.69 190 20:52 02.10.2022
1557 Clouds 16 1016 70 10000 1.31 145 18:47 02.10.2022
1558 Rain 15 1017 63 10000 0.88 139 17:53 02.10.2022
1559 Clouds 14 1017 68 10000 1.15 145 16:44 02.10.2022
1560 Clouds 13 1021 77 10000 0.27 180 16:18 02.10.2022
1561 Clouds 11 1020 77 10000 0.24 278 14:53 02.10.2022
1562 Clouds 11 1020 79 10000 0.45 188 13:45 02.10.2022
1563 Clouds 11 1020 79 10000 0.67 264 12:30 02.10.2022
1564 Clouds 11 1020 78 10000 1.03 194 11:41 02.10.2022
1565 Clouds 11 1020 81 10000 1.71 193 11:21 02.10.2022
1566 Clouds 11 1020 84 10000 2 110 09:29 02.10.2022
1567 Clouds 13 1019 81 10000 0.96 45 07:41 02.10.2022
1568 Clouds 15 1017 76 10000 0.45 138 03:52 02.10.2022
1569 Thunderstorm 18 1016 57 10000 4.63 100 00:50 02.10.2022
1570 Rain 19 1015 52 9850 2.24 316 00:31 02.10.2022
1571 Clear 22 1014 44 10000 1.79 73 22:53 01.10.2022
1572 Clouds 21 1015 47 10000 5.14 130 20:54 01.10.2022
1573 Clouds 18 1017 59 10000 0.89 166 18:51 01.10.2022
1574 Clouds 13 1014 80 10000 1.53 121 16:42 01.10.2022
1575 Clouds 11 1018 91 10000 4.12 180 14:42 01.10.2022
1576 Clouds 12 1015 90 10000 0.45 168 13:35 01.10.2022
1577 Rain 12 1015 90 10000 0.45 142 12:33 01.10.2022
1578 Clouds 12 1015 90 10000 1.5 144 11:21 01.10.2022
1579 Clouds 12 1014 89 10000 1.5 144 10:38 01.10.2022
1580 Clouds 12 1015 89 10000 0.45 189 10:20 01.10.2022
1581 Clouds 12 1016 88 10000 3.28 7 08:59 01.10.2022
1582 Clouds 12 1016 86 10000 3.6 280 07:29 01.10.2022
1583 Clouds 14 1013 79 10000 1.34 330 03:36 01.10.2022
1584 Rain 17 1006 23 10000 3.91 106 01:21 01.10.2022
1585 Clouds 25 1010 30 10000 2.68 22 22:55 30.09.2022
1586 Clouds 26 1011 29 10000 0.89 346 21:41 30.09.2022
1587 Clouds 25 1011 28 10000 0.89 281 20:45 30.09.2022
1588 Clouds 25 1012 30 10000 0.89 35 20:19 30.09.2022
1589 Clouds 20 1016 42 10000 0.89 201 17:40 30.09.2022
1590 Clouds 16 1018 52 10000 0.45 198 16:25 30.09.2022
1591 Clouds 14 1013 55 10000 1.95 214 13:40 30.09.2022
1592 Clear 14 1018 54 10000 2.17 212 11:59 30.09.2022
1593 Clear 15 1013 52 10000 2.17 212 11:31 30.09.2022
1594 Clear 16 1013 53 10000 1.91 204 08:38 30.09.2022
1595 Clouds 19 1014 45 10000 0.45 221 06:29 30.09.2022
1596 Clouds 23 1014 34 10000 2.24 304 02:45 30.09.2022
1597 Clouds 26 1010 25 10000 1.79 215 23:47 29.09.2022
1598 Clouds 27 1017 26 10000 1.34 220 21:29 29.09.2022
1599 Clouds 27 1016 25 10000 1.34 187 20:59 29.09.2022
1600 Clouds 25 1019 32 10000 0.89 131 18:45 29.09.2022
1601 Clouds 22 1018 41 10000 0.89 145 17:32 29.09.2022
1602 Clouds 18 1019 48 10000 0.45 214 16:28 29.09.2022
1603 Clouds 16 1019 46 10000 2.01 207 15:36 29.09.2022
1604 Clouds 16 1018 47 10000 1.81 214 14:35 29.09.2022
1605 Clouds 17 1018 44 10000 1.35 230 11:48 29.09.2022
1606 Clouds 19 1021 37 10000 1.94 179 07:26 29.09.2022
1607 Clear 23 1019 31 10000 0.89 201 02:52 29.09.2022
1608 Clouds 28 1019 20 10000 1.54 210 23:56 28.09.2022
1609 Clouds 28 1018 20 10000 1.34 141 22:58 28.09.2022
1610 Clear 28 1020 21 10000 1.34 101 21:30 28.09.2022
1611 Clear 28 1020 21 10000 1.34 101 21:30 28.09.2022
1612 Clouds 28 1020 21 10000 1.34 101 21:30 28.09.2022
1613 Clear 27 1021 28 10000 1.34 182 20:31 28.09.2022
1614 Clear 23 1023 41 10000 0.45 146 18:42 28.09.2022
1615 Clear 13 1025 63 10000 1.57 216 15:34 28.09.2022
1616 Clear 13 1020 60 10000 1.82 210 13:28 28.09.2022
1617 Clear 15 1020 55 10000 0.45 236 11:23 28.09.2022
1618 Clear 15 1022 54 10000 0.89 188 09:18 28.09.2022
1619 Clouds 16 1024 54 10000 1.34 125 07:40 28.09.2022
1620 Clouds 19 1022 48 10000 0.89 159 04:34 28.09.2022
1621 Clouds 22 1021 37 10000 1.34 103 01:38 28.09.2022
1622 Clouds 24 1021 32 10000 3.6 260 23:27 27.09.2022
1623 Clouds 24 1022 33 10000 1.34 169 21:47 27.09.2022
1624 Clouds 24 1021 32 10000 0.45 345 20:44 27.09.2022
1625 Clouds 22 1023 34 10000 0.89 75 19:49 27.09.2022
1626 Clouds 22 1022 34 10000 1.79 49 19:30 27.09.2022
1627 Clear 19 1023 41 10000 0.45 320 17:46 27.09.2022
1628 Clear 15 1021 48 10000 0.59 155 15:59 27.09.2022
1629 Clear 13 1021 51 10000 0.41 172 14:59 27.09.2022
1630 Clear 13 1027 50 10000 3.6 190 13:28 27.09.2022
1631 Clear 13 1020 47 10000 0.72 348 12:22 27.09.2022
1632 Clear 14 1020 46 10000 1.08 10 09:46 27.09.2022
1633 Clear 16 1012 44 10000 0.89 323 07:28 27.09.2022
1634 Clear 23 1019 32 10000 0.45 337 02:51 27.09.2022
1635 Clear 26 1019 24 10000 0.89 15 01:35 27.09.2022
1636 Clear 26 1019 24 10000 0.89 15 01:35 27.09.2022
1637 Clear 27 1019 23 10000 1.79 52 23:35 26.09.2022
1638 Clear 27 1020 23 10000 1.34 86 22:40 26.09.2022
1639 Clear 26 1021 25 10000 2.24 71 20:46 26.09.2022
1640 Clear 25 1022 27 10000 1.34 34 19:34 26.09.2022
1641 Clear 23 1023 35 10000 0.45 126 18:34 26.09.2022
1642 Clear 15 1021 50 10000 1.82 209 16:41 26.09.2022
1643 Clear 11 1021 58 10000 0.28 63 14:41 26.09.2022
1644 Clear 12 1020 56 10000 0.23 230 11:35 26.09.2022
1645 Clear 13 1027 55 10000 4.12 220 10:41 26.09.2022
1646 Clear 13 1021 53 10000 2.09 331 10:21 26.09.2022
1647 Clear 13 1027 56 10000 4.12 220 09:55 26.09.2022
1648 Clear 13 1021 55 10000 2.13 343 09:24 26.09.2022
1649 Clear 13 1014 55 10000 0.89 312 08:57 26.09.2022
1650 Clear 20 1021 35 10000 1.79 335 02:57 26.09.2022
1651 Clear 24 1021 28 10000 1.79 49 23:57 25.09.2022
1652 Clear 23 1022 29 10000 2.24 17 22:45 25.09.2022
1653 Clear 22 1023 32 10000 1.34 350 21:35 25.09.2022
1654 Clear 22 1024 33 10000 1.34 36 20:49 25.09.2022
1655 Clear 20 1024 35 10000 0.89 35 19:43 25.09.2022
1656 Clouds 18 1026 40 10000 0.89 5 18:43 25.09.2022
1657 Clear 17 1025 42 10000 1.34 51 18:20 25.09.2022
1658 Clear 14 1029 49 10000 0.45 146 16:45 25.09.2022
1659 Clear 11 1030 55 10000 1.54 200 15:45 25.09.2022
1660 Clear 10 1025 59 10000 1.28 98 14:29 25.09.2022
1661 Clear 10 1024 58 10000 1.73 84 12:57 25.09.2022
1662 Clear 12 1023 52 10000 1.56 30 10:36 25.09.2022
1663 Clear 15 1026 41 10000 0.89 33 08:25 25.09.2022
1664 Clear 16 1025 34 10000 1.58 74 06:23 25.09.2022
1665 Clear 16 1025 34 10000 1.58 74 06:23 25.09.2022
1666 Clear 23 1018 25 10000 0.45 0 02:57 25.09.2022
1667 Clear 27 1016 17 10000 0.89 49 22:50 24.09.2022
1668 Clear 26 1017 18 10000 1.79 57 21:19 24.09.2022
1669 Clear 23 1019 25 10000 0.89 180 19:23 24.09.2022
1670 Clear 19 1018 35 10000 0.89 108 17:50 24.09.2022
1671 Clear 15 1018 42 10000 0.98 230 16:27 24.09.2022
1672 Clear 13 1018 42 10000 1.94 217 15:21 24.09.2022
1673 Clear 12 1018 41 10000 2.09 203 13:27 24.09.2022
1674 Clear 12 1018 48 10000 2.08 203 12:50 24.09.2022
1675 Clear 13 1017 48 10000 2.27 187 11:21 24.09.2022
1676 Clear 13 1017 45 10000 1.68 198 09:46 24.09.2022
1677 Clear 15 1021 39 10000 0.45 163 08:45 24.09.2022
1678 Clear 16 1014 37 10000 0.45 194 07:24 24.09.2022
1679 Clear 19 1015 30 10000 1.34 296 04:46 24.09.2022
1680 Clear 26 1013 20 10000 2.24 316 02:24 24.09.2022
1681 Clouds 27 1014 19 10000 8.75 300 22:29 23.09.2022
1682 Clear 26 1014 21 10000 4.47 285 21:28 23.09.2022
1683 Clear 26 1015 21 10000 4.47 304 20:56 23.09.2022
1684 Clear 25 1015 24 10000 5.36 244 20:20 23.09.2022
1685 Clear 22 1015 38 10000 0.89 65 18:27 23.09.2022
1686 Clear 13 1013 70 10000 2.25 221 13:45 23.09.2022
1687 Clear 12 1013 87 10000 1.55 197 10:45 23.09.2022
1688 Clear 11 1013 93 10000 0.56 150 09:29 23.09.2022
1689 Clouds 13 1019 94 10000 3.09 330 04:59 23.09.2022
1690 Clouds 17 1011 71 10000 0.98 172 23:31 22.09.2022
1691 Clouds 16 1013 52 10000 1.13 41 22:41 22.09.2022
1692 Clouds 15 1014 50 10000 2.14 2 22:19 22.09.2022
1693 Clouds 12 1022 85 10000 2.06 300 20:45 22.09.2022
1694 Clouds 12 1017 86 10000 2 29 19:27 22.09.2022
1695 Clouds 10 1023 93 10000 0.45 11 16:57 22.09.2022
1696 Drizzle 10 1023 94 10000 2.06 110 11:58 22.09.2022
1697 Rain 10 1022 94 10000 0.45 6 10:20 22.09.2022
1698 Clouds 10 1023 94 10000 0.45 0 08:39 22.09.2022
1699 Clouds 10 1022 93 10000 3.06 69 06:42 22.09.2022
1700 Rain 12 1020 88 10000 3.09 86 02:43 22.09.2022
1701 Clouds 12 1018 46 10000 5.77 86 22:50 21.09.2022
1702 Clouds 14 1028 93 10000 3.09 70 21:40 21.09.2022
1703 Clouds 15 1021 39 10000 3.61 41 19:36 21.09.2022
1704 Clouds 16 1021 66 10000 1.79 10 17:46 21.09.2022
1705 Clouds 16 1019 64 10000 1.34 26 16:22 21.09.2022
1706 Clouds 16 1019 64 10000 1.34 35 16:22 21.09.2022
1707 Clouds 17 1017 57 10000 0.89 339 13:57 21.09.2022
1708 Clouds 18 1016 50 10000 0.89 313 12:19 21.09.2022
1709 Clouds 19 1016 45 10000 1.79 21 11:28 21.09.2022
1710 Clouds 20 1015 41 10000 1.34 20 09:47 21.09.2022
1711 Clouds 21 1015 38 10000 1.34 336 08:53 21.09.2022
1712 Clouds 24 1014 29 10000 2.24 318 06:20 21.09.2022
1713 Clouds 28 1011 21 10000 0.45 95 02:44 21.09.2022
1714 Clouds 29 1012 19 10000 0.89 110 02:23 21.09.2022
1715 Clear 31 1011 16 10000 1.79 93 00:26 21.09.2022
1716 Clear 32 1011 14 10000 2.24 63 22:41 20.09.2022
1717 Clear 31 1013 17 10000 1.79 145 20:45 20.09.2022
1718 Clear 29 1014 21 10000 1.34 185 19:30 20.09.2022
1719 Clear 19 1019 36 10000 2.2 226 16:18 20.09.2022
1720 Clear 17 1014 40 10000 2.46 217 14:35 20.09.2022
1721 Clouds 18 1015 38 10000 3.6 200 12:45 20.09.2022
1722 Clear 19 1009 38 10000 0.45 164 08:51 20.09.2022
1723 Clouds 19 1002 36 10000 1.96 277 08:25 20.09.2022
1724 Clouds 22 1011 35 10000 3.6 110 04:44 20.09.2022
1725 Clouds 28 1011 24 10000 0.45 284 02:37 20.09.2022
1726 Clear 31 1009 18 10000 2.24 45 22:50 19.09.2022
1727 Clouds 31 1011 19 10000 1.79 108 21:39 19.09.2022
1728 Clear 30 1010 20 10000 1.79 41 20:47 19.09.2022
1729 Clear 29 1012 23 10000 1.79 117 19:42 19.09.2022
1730 Clear 23 1018 36 10000 0.45 233 17:39 19.09.2022
1731 Clear 15 1012 56 10000 1.63 207 13:56 19.09.2022
1732 Clear 15 1018 58 10000 3.6 190 12:56 19.09.2022
1733 Clear 16 1016 54 10000 1.66 257 10:47 19.09.2022
1734 Clear 17 1016 52 10000 1.16 255 08:51 19.09.2022
1735 Clear 21 1009 39 10000 2.24 296 05:42 19.09.2022
1736 Clear 29 1008 25 10000 2.24 55 01:53 19.09.2022
1737 Clear 28 1010 28 10000 1.79 307 23:22 18.09.2022
1738 Clear 27 1007 34 10000 3.67 102 21:32 18.09.2022
1739 Clear 25 1009 40 10000 1.89 114 20:23 18.09.2022
1740 Clear 20 1019 55 10000 2.57 280 17:53 18.09.2022
1741 Clear 18 1011 54 10000 1.35 190 17:19 18.09.2022
1742 Clear 12 1011 65 10000 1.09 202 15:34 18.09.2022
1743 Clear 12 1010 71 10000 1.05 190 13:47 18.09.2022
1744 Clear 13 1010 68 10000 1.32 293 12:33 18.09.2022
1745 Clear 14 1011 63 10000 2.32 328 10:44 18.09.2022
1746 Clouds 23 1008 37 10000 1.79 317 03:37 18.09.2022
1747 Clouds 26 1006 29 10000 1.79 299 01:23 18.09.2022
1748 Clouds 28 1007 26 10000 1.79 227 23:59 17.09.2022
1749 Clouds 26 1009 30 10000 1.79 33 21:36 17.09.2022
1750 Clouds 23 1013 38 10000 6.17 120 19:40 17.09.2022
1751 Clear 22 1013 41 10000 1.79 195 18:46 17.09.2022
1752 Clear 15 1012 58 10000 3.22 173 15:51 17.09.2022
1753 Clouds 13 1017 67 10000 3.09 180 13:38 17.09.2022
1754 Clouds 14 1010 65 10000 1.53 149 10:56 17.09.2022
1755 Clouds 16 1010 58 10000 1 55 08:34 17.09.2022
1756 Clouds 17 1011 53 10000 0.45 186 06:24 17.09.2022
1757 Clouds 26 1011 28 10000 3.58 329 23:57 16.09.2022
1758 Clouds 26 1011 26 10000 0.89 36 22:51 16.09.2022
1759 Clouds 26 1012 26 10000 3.6 240 20:59 16.09.2022
1760 Clear 25 1014 32 10000 0.89 178 19:50 16.09.2022
1761 Clear 15 1016 69 10000 0.89 174 16:30 16.09.2022
1762 Clear 12 1014 76 10000 2.13 184 14:53 16.09.2022
1763 Clear 12 1014 77 10000 0.97 172 13:42 16.09.2022
1764 Clear 13 1018 79 10000 1.39 315 10:50 16.09.2022
1765 Clouds 15 1019 73 10000 3.49 13 08:19 16.09.2022
1766 Clouds 16 1017 66 10000 0.45 271 06:48 16.09.2022
1767 Clouds 17 1015 64 10000 0.45 31 06:25 16.09.2022
1768 Clouds 22 1013 47 10000 1.34 200 02:37 16.09.2022
1769 Clouds 24 1013 43 10000 1.79 126 22:20 15.09.2022
1770 Clouds 24 1013 43 10000 1.79 126 22:20 15.09.2022
1771 Clear 22 1014 53 10000 1.34 62 20:47 15.09.2022
1772 Clouds 21 1013 59 10000 0.89 19 19:46 15.09.2022
1773 Clouds 19 1015 66 10000 0.89 65 18:29 15.09.2022
1774 Clouds 17 1015 73 10000 0.88 291 17:31 15.09.2022
1775 Clear 15 1017 75 10000 2.14 229 15:50 15.09.2022
1776 Clouds 13 1016 78 10000 1.91 214 13:19 15.09.2022
1777 Clouds 14 1015 79 10000 1.97 218 11:48 15.09.2022
1778 Clouds 14 1009 77 10000 1.57 223 09:52 15.09.2022
1779 Clouds 15 1010 75 10000 1.43 181 07:45 15.09.2022
1780 Clouds 16 1009 81 10000 4.84 286 03:49 15.09.2022
1781 Clouds 26 1006 35 10000 2.24 190 23:32 14.09.2022
1782 Clouds 25 1007 35 10000 0.45 188 20:48 14.09.2022
1783 Clouds 24 1008 36 10000 0.89 11 19:33 14.09.2022
1784 Clouds 23 1008 38 10000 0.45 22 18:26 14.09.2022
1785 Clouds 19 1011 49 10000 0.32 339 16:38 14.09.2022
1786 Clouds 17 1009 54 10000 0.22 107 15:29 14.09.2022
1787 Clouds 19 1007 45 10000 0.45 326 12:57 14.09.2022
1788 Clouds 19 1007 42 10000 0.89 224 10:40 14.09.2022
1789 Clouds 20 1009 35 10000 0.45 202 08:41 14.09.2022
1790 Clouds 21 1008 30 10000 0.45 188 06:50 14.09.2022
1791 Clouds 21 1010 28 10000 0.89 240 06:31 14.09.2022
1792 Clouds 26 1007 20 10000 1.34 117 03:21 14.09.2022
1793 Clouds 28 1008 20 10000 1.34 132 01:39 14.09.2022
1794 Clouds 28 1008 20 10000 1.79 159 01:19 14.09.2022
1795 Clouds 29 1008 17 10000 7.2 170 23:55 13.09.2022
1796 Clouds 30 1008 17 10000 7.2 170 23:37 13.09.2022
1797 Clouds 30 1008 16 10000 2.68 96 23:19 13.09.2022
1798 Clouds 31 1009 16 10000 1.34 92 22:32 13.09.2022
1799 Clouds 30 1010 20 10000 4.12 100 21:40 13.09.2022
1800 Clouds 25 1013 25 10000 0.45 178 19:26 13.09.2022
1801 Clouds 19 1019 34 10000 3.6 210 16:45 13.09.2022
1802 Clouds 15 1019 34 10000 4.12 200 15:38 13.09.2022
1803 Clear 14 1013 35 10000 1.74 216 13:41 13.09.2022
1804 Clear 15 1012 31 10000 0.97 246 11:23 13.09.2022
1805 Clear 17 1012 32 10000 1.07 301 08:18 13.09.2022
1806 Clear 26 1013 21 10000 0.89 99 02:58 13.09.2022
1807 Clear 30 1013 12 10000 1.79 40 23:23 12.09.2022
1808 Clear 30 1014 12 10000 1.79 122 22:45 12.09.2022
1809 Clear 29 1015 13 10000 1.34 289 21:35 12.09.2022
1810 Clear 28 1017 17 10000 0.89 98 20:23 12.09.2022
1811 Clear 24 1018 30 10000 0.89 140 18:40 12.09.2022
1812 Clear 16 1017 41 10000 1.66 221 15:53 12.09.2022
1813 Clear 14 1023 53 10000 2.06 210 12:35 12.09.2022
1814 Clear 14 1017 57 10000 1.83 214 10:31 12.09.2022
1815 Clear 14 1017 51 10000 1.88 223 08:58 12.09.2022
1816 Clear 17 1023 48 10000 1.19 145 04:39 12.09.2022
1817 Clear 24 1020 29 10000 1.27 83 02:25 12.09.2022
1818 Clear 24 1022 30 10000 2.57 70 22:46 11.09.2022
1819 Clear 22 1023 38 10000 1.34 163 21:30 11.09.2022
1820 Clear 21 1025 44 10000 0.45 5 20:44 11.09.2022
1821 Clear 18 1027 55 10000 0.45 25 19:39 11.09.2022
1822 Clear 17 1026 57 10000 1.34 165 19:19 11.09.2022
1823 Clear 12 1026 78 10000 0.45 184 17:29 11.09.2022
1824 Clear 9 1027 94 10000 0.16 139 15:51 11.09.2022
1825 Clear 8 1026 94 10000 0.16 79 13:26 11.09.2022
1826 Clouds 8 1025 95 10000 2.57 200 11:26 11.09.2022
1827 Clouds 9 1026 94 10000 1.34 165 08:25 11.09.2022
1828 Clouds 10 1026 93 10000 2.22 161 05:49 11.09.2022
1829 Clouds 11 1024 90 10000 0.89 38 00:23 11.09.2022
1830 Mist 10 1024 88 6437 4.12 80 22:23 10.09.2022
1831 Clouds 10 1024 89 10000 0.89 33 20:34 10.09.2022
1832 Clouds 10 1024 92 10000 1.34 343 19:44 10.09.2022
1833 Clouds 10 1024 92 10000 0.89 35 19:25 10.09.2022
1834 Clouds 9 1023 94 10000 0.89 36 17:49 10.09.2022
1835 Clouds 8 1022 95 10000 0.89 59 15:35 10.09.2022
1836 Rain 9 1021 94 10000 1.79 45 13:41 10.09.2022
1837 Rain 9 1019 95 10000 2.24 28 12:51 10.09.2022
1838 Rain 11 1018 94 10000 0.89 82 10:34 10.09.2022
1839 Clouds 11 1018 93 10000 1.34 5 08:42 10.09.2022
1840 Clouds 11 1017 92 10000 0.45 88 08:20 10.09.2022
1841 Clouds 11 1017 92 10000 0.45 88 08:20 10.09.2022
1842 Clouds 13 1016 81 10000 4.84 75 04:30 10.09.2022
1843 Clouds 18 1009 32 10000 4.03 62 23:37 09.09.2022
1844 Clouds 19 1019 53 10000 4.12 320 22:36 09.09.2022
1845 Clouds 18 1006 53 10000 0.45 281 20:57 09.09.2022
1846 Clear 17 1014 58 10000 0.89 17 20:19 09.09.2022
1847 Clear 15 1012 62 10000 0.89 33 19:22 09.09.2022
1848 Clear 13 1013 72 10000 1.79 82 17:29 09.09.2022
1849 Clouds 12 1012 73 10000 1.34 23 15:19 09.09.2022
1850 Clouds 12 1017 66 10000 3.62 15 13:31 09.09.2022
1851 Clouds 15 1009 59 10000 3.27 26 10:42 09.09.2022
1852 Clouds 15 1009 59 10000 3.27 26 10:42 09.09.2022
1853 Clouds 24 1008 33 10000 1.34 182 07:45 09.09.2022
1854 Clouds 29 1006 21 10000 1.34 32 03:34 09.09.2022
1855 Clouds 35 1004 13 10000 2.24 38 22:34 08.09.2022
1856 Clouds 35 1005 13 10000 2.24 4 21:51 08.09.2022
1857 Clouds 35 1007 13 10000 1.54 270 20:49 08.09.2022
1858 Clear 35 1006 14 10000 0.89 144 20:25 08.09.2022
1859 Clear 32 1010 22 10000 1.79 173 18:43 08.09.2022
1860 Clear 27 1010 29 10000 0.89 191 17:23 08.09.2022
1861 Clear 21 1011 32 10000 0.89 259 15:18 08.09.2022
1862 Clear 21 1012 30 10000 2.23 225 13:28 08.09.2022
1863 Clear 22 1013 30 10000 1.34 186 12:40 08.09.2022
1864 Clear 23 1013 27 10000 1.79 179 11:22 08.09.2022
1865 Clear 24 1014 25 10000 0.89 186 09:26 08.09.2022
1866 Clouds 25 1014 24 10000 1.34 176 06:53 08.09.2022
1867 Clear 30 1014 18 10000 0.89 221 03:23 08.09.2022
1868 Clear 32 1015 16 10000 3.13 193 02:36 08.09.2022
1869 Clear 33 1015 16 10000 3.58 192 02:18 08.09.2022
1870 Clear 35 1016 16 10000 1.34 35 22:56 07.09.2022
1871 Clouds 34 1018 19 10000 0.89 171 21:44 07.09.2022
1872 Clear 33 1018 20 10000 1.79 111 21:21 07.09.2022
1873 Clear 32 1018 23 10000 0.89 112 20:22 07.09.2022
1874 Clear 30 1022 25 10000 0.89 24 18:41 07.09.2022
1875 Clear 22 1020 25 10000 2.03 188 15:51 07.09.2022
1876 Clear 21 1018 32 10000 1.03 30 10:51 07.09.2022
1877 Clear 22 1018 31 10000 1.03 30 10:32 07.09.2022
1878 Clouds 24 1020 29 10000 0.45 187 07:46 07.09.2022
1879 Clouds 26 1017 28 10000 0.89 188 04:59 07.09.2022
1880 Clear 36 1014 14 10000 1.34 108 00:26 07.09.2022
1881 Clear 35 1016 18 10000 0.89 95 21:48 06.09.2022
1882 Clouds 34 1017 19 10000 1.34 112 21:27 06.09.2022
1883 Clouds 32 1018 23 10000 0.89 17 19:22 06.09.2022
1884 Clouds 29 1017 30 10000 0.89 161 18:27 06.09.2022
1885 Clouds 26 1018 35 10000 0.89 169 17:23 06.09.2022
1886 Clouds 24 1025 35 10000 3.09 190 16:40 06.09.2022
1887 Clouds 21 1016 40 10000 1.76 206 15:23 06.09.2022
1888 Clouds 20 1023 39 10000 3.09 180 13:46 06.09.2022
1889 Clouds 21 1015 38 10000 1.23 202 13:26 06.09.2022
1890 Clear 21 1014 38 10000 1.32 217 12:37 06.09.2022
1891 Clear 22 1015 35 10000 1.49 224 10:46 06.09.2022
1892 Clear 23 1018 33 10000 9.26 190 08:54 06.09.2022
1893 Clear 24 1016 32 10000 10.8 190 07:51 06.09.2022
1894 Clear 27 1013 28 10000 0.89 160 04:48 06.09.2022
1895 Clear 35 1011 17 10000 1.79 26 23:52 05.09.2022
1896 Clear 34 1012 18 10000 2.24 335 22:40 05.09.2022
1897 Clear 32 1013 20 10000 1.79 42 20:58 05.09.2022
1898 Clouds 31 1013 22 10000 0.89 24 19:50 05.09.2022
1899 Clouds 30 1013 24 10000 0.89 38 18:49 05.09.2022
1900 Clear 29 1013 26 10000 0.45 342 18:22 05.09.2022
1901 Clear 27 1019 33 10000 0.89 76 17:30 05.09.2022
1902 Clear 23 1012 36 10000 2.23 235 15:52 05.09.2022
1903 Clear 20 1011 42 10000 1.99 219 13:27 05.09.2022
1904 Clear 21 1010 41 10000 1.77 238 12:28 05.09.2022
1905 Clear 21 1017 41 10000 2.11 205 10:30 05.09.2022
1906 Clear 23 1017 38 10000 2.33 212 07:36 05.09.2022
1907 Clear 32 1012 21 10000 0.89 184 02:49 05.09.2022
1908 Clouds 34 1014 15 10000 4.63 20 23:28 04.09.2022
1909 Clear 34 1014 18 10000 1.34 85 22:28 04.09.2022
1910 Clear 33 1015 21 10000 1.34 59 21:40 04.09.2022
1911 Clear 29 1017 31 10000 1.34 123 19:39 04.09.2022
1912 Clear 25 1018 40 10000 0.89 181 18:20 04.09.2022
1913 Clear 23 1019 46 10000 0.45 140 17:19 04.09.2022
1914 Clear 17 1018 63 10000 0.54 181 14:36 04.09.2022
1915 Clear 17 1025 59 10000 3.09 210 13:52 04.09.2022
1916 Clear 18 1023 56 10000 1.05 241 12:21 04.09.2022
1917 Clear 19 1019 51 10000 1.2 227 10:47 04.09.2022
1918 Clear 21 1020 48 10000 0.89 187 08:21 04.09.2022
1919 Clear 23 1019 45 10000 6.17 160 05:36 04.09.2022
1920 Clear 32 1018 24 10000 1.79 129 00:53 04.09.2022
1921 Clear 31 1019 27 10000 1.79 81 22:26 03.09.2022
1922 Clear 29 1020 31 10000 1.34 76 21:23 03.09.2022
1923 Clouds 27 1023 37 10000 1.54 220 19:56 03.09.2022
1924 Clouds 21 1023 49 10000 2.06 240 17:29 03.09.2022
1925 Clear 19 1024 55 10000 0.89 16 16:33 03.09.2022
1926 Clear 17 1014 57 10000 0.89 287 14:46 03.09.2022
1927 Clouds 17 1018 56 10000 0.89 270 14:26 03.09.2022
1928 Clouds 18 1022 56 10000 0.45 193 12:32 03.09.2022
1929 Clouds 19 1022 51 10000 0.45 157 10:49 03.09.2022
1930 Clear 20 1022 51 10000 1.79 196 08:30 03.09.2022
1931 Clouds 21 1022 52 10000 1.79 267 06:58 03.09.2022
1932 Clouds 26 1022 36 10000 4.38 59 04:38 03.09.2022
1933 Clouds 33 1014 20 10000 2.68 348 00:32 03.09.2022
1934 Clouds 33 1014 20 10000 2.24 344 23:20 02.09.2022
1935 Clear 32 1015 21 10000 2.68 23 20:59 02.09.2022
1936 Clear 32 1015 22 10000 2.24 48 20:39 02.09.2022
1937 Clear 30 1015 23 10000 1.79 326 19:30 02.09.2022
1938 Clear 29 1014 26 10000 1.34 257 18:43 02.09.2022
1939 Clear 28 1013 28 10000 1.34 19 18:24 02.09.2022
1940 Clear 25 1013 33 10000 1.29 19 16:48 02.09.2022
1941 Clear 19 1013 42 10000 2 221 15:21 02.09.2022
1942 Clear 19 1017 42 10000 1.07 243 12:39 02.09.2022
1943 Clear 21 1012 38 10000 1.52 227 10:22 02.09.2022
1944 Clear 21 1010 38 10000 1.52 227 09:40 02.09.2022
1945 Clouds 22 1014 34 10000 6.69 180 07:36 02.09.2022
1946 Clouds 23 1010 32 10000 2.57 232 06:40 02.09.2022
1947 Clouds 30 1009 22 10000 0.45 182 02:55 02.09.2022
1948 Clear 32 1011 18 10000 2.24 344 22:35 01.09.2022
1949 Clear 32 1011 17 10000 2.24 14 21:44 01.09.2022
1950 Clear 32 1011 17 10000 1.79 320 21:25 01.09.2022
1951 Clear 32 1011 19 10000 0.89 26 20:44 01.09.2022
1952 Clear 28 1013 31 10000 0.89 121 18:54 01.09.2022
1953 Clear 23 1015 41 10000 0.89 198 17:22 01.09.2022
1954 Clear 20 1015 41 10000 1.78 213 15:56 01.09.2022
1955 Clear 17 1015 51 10000 1.82 206 14:22 01.09.2022
1956 Clear 17 1023 53 10000 3.6 190 12:58 01.09.2022
1957 Clear 18 1022 50 10000 3.6 210 11:52 01.09.2022
1958 Clear 18 1015 49 10000 0.3 196 11:31 01.09.2022
1959 Clear 19 1005 47 10000 0.89 281 10:23 01.09.2022
1960 Clouds 20 1022 45 10000 0.45 194 07:51 01.09.2022
1961 Clouds 21 1018 44 10000 4.12 190 06:22 01.09.2022
1962 Clouds 28 1014 26 10000 0.89 138 01:32 01.09.2022
1963 Clear 32 1013 21 10000 0.89 244 23:29 31.08.2022
1964 Clear 31 1015 25 10000 1.79 161 21:30 31.08.2022
1965 Clouds 29 1020 30 10000 7.2 70 19:46 31.08.2022
1966 Clouds 27 1015 35 10000 1.34 141 18:18 31.08.2022
1967 Clouds 21 1018 51 10000 1.11 199 15:45 31.08.2022
1968 Clear 20 1017 52 10000 1.42 224 13:57 31.08.2022
1969 Clear 21 1017 47 10000 1.43 227 12:21 31.08.2022
1970 Clear 22 1017 46 10000 0.45 236 10:52 31.08.2022
1971 Clear 23 1018 46 10000 0.89 157 08:35 31.08.2022
1972 Clear 27 1015 33 10000 1.34 188 04:26 31.08.2022
1973 Clear 32 1017 22 10000 1.79 307 22:58 30.08.2022
1974 Clouds 31 1019 28 10000 2.06 320 21:33 30.08.2022
1975 Clear 30 1019 31 10000 1.34 357 20:47 30.08.2022
1976 Clear 24 1021 46 10000 0.45 219 17:30 30.08.2022
1977 Clear 17 1027 59 10000 1.54 120 14:42 30.08.2022
1978 Clear 18 1025 58 10000 1.83 200 13:24 30.08.2022
1979 Clear 18 1021 54 10000 1.82 201 11:21 30.08.2022
1980 Clear 19 1022 55 10000 1.82 201 10:35 30.08.2022
1981 Clear 21 1021 47 10000 2.77 157 06:49 30.08.2022
1982 Clear 30 1015 25 10000 1.34 35 01:45 30.08.2022
1983 Clear 30 1015 25 10000 1.34 35 01:45 30.08.2022
1984 Clear 30 1015 25 10000 1.34 35 01:45 30.08.2022
1985 Clear 29 1016 27 10000 1.79 0 22:47 29.08.2022
1986 Clouds 29 1017 28 10000 2.06 30 22:18 29.08.2022
1987 Clear 28 1017 31 10000 1.34 2 21:23 29.08.2022
1988 Clear 26 1017 37 10000 2.24 48 19:42 29.08.2022
1989 Clear 22 1016 44 10000 1.34 301 17:42 29.08.2022
1990 Clear 21 1016 46 10000 0.89 339 17:24 29.08.2022
1991 Clear 17 1020 55 10000 0.45 169 15:41 29.08.2022
1992 Clear 16 1013 56 10000 1.36 221 14:18 29.08.2022
1993 Clear 16 1017 53 10000 1.09 207 12:34 29.08.2022
1994 Clouds 18 1012 49 10000 3.09 190 10:49 29.08.2022
1995 Clouds 19 1009 47 10000 2.69 234 09:30 29.08.2022
1996 Clouds 19 1011 50 10000 0.45 237 07:35 29.08.2022
1997 Clouds 24 1011 40 10000 4.63 250 02:34 29.08.2022
1998 Clouds 28 1005 29 10000 1.79 171 23:50 28.08.2022
1999 Clouds 31 1006 20 10000 2.24 340 21:57 28.08.2022
2000 Clouds 31 1006 20 10000 2.68 340 21:31 28.08.2022
2001 Clouds 31 1007 22 10000 2.57 30 20:24 28.08.2022
2002 Clear 29 1007 27 10000 1.34 133 18:37 28.08.2022
2003 Clear 28 1007 27 10000 1.34 143 18:18 28.08.2022
2004 Clouds 24 1009 36 10000 4.63 200 16:52 28.08.2022
2005 Clear 20 1002 41 10000 2.53 208 15:37 28.08.2022
2006 Clear 18 1012 44 10000 0.89 159 13:34 28.08.2022
2007 Clear 18 1011 43 10000 0.45 200 12:19 28.08.2022
2008 Clouds 19 1007 38 10000 6.17 200 10:27 28.08.2022
2009 Clear 20 1011 36 10000 0.45 198 09:34 28.08.2022
2010 Clouds 20 1004 36 10000 1.81 218 08:28 28.08.2022
2011 Clouds 20 1001 37 10000 2.47 246 07:27 28.08.2022
2012 Clouds 30 1006 21 10000 1.34 172 00:45 28.08.2022
2013 Clouds 31 1007 19 10000 2.57 0 23:28 27.08.2022
2014 Clear 31 1007 19 10000 1.34 50 22:27 27.08.2022
2015 Clear 29 1008 24 10000 2.68 337 20:35 27.08.2022
2016 Clear 28 1009 27 10000 0.89 319 19:26 27.08.2022
2017 Clouds 19 1011 59 10000 0.45 195 16:30 27.08.2022
2018 Clouds 17 1009 64 10000 0.45 213 15:31 27.08.2022
2019 Clouds 16 1012 66 10000 3.09 180 13:30 27.08.2022
2020 Clouds 17 1014 67 10000 0.45 190 12:20 27.08.2022
2021 Clouds 17 1007 65 10000 1.65 250 10:30 27.08.2022
2022 Clouds 18 1011 65 10000 0.89 191 09:36 27.08.2022
2023 Clouds 18 1016 66 10000 2.8 222 06:54 27.08.2022
2024 Clouds 26 1010 41 10000 1.79 288 01:21 27.08.2022
2025 Clouds 27 1011 35 10000 1.34 329 23:48 26.08.2022
2026 Clouds 28 1012 33 10000 1.34 317 21:49 26.08.2022
2027 Clouds 26 1013 40 10000 1.34 32 20:20 26.08.2022
2028 Clouds 23 1014 47 10000 0.89 34 18:19 26.08.2022
2029 Clouds 20 1016 59 10000 2.57 200 16:36 26.08.2022
2030 Clouds 18 1015 60 10000 1.5 238 15:24 26.08.2022
2031 Clouds 18 1014 56 10000 0.45 189 13:20 26.08.2022
2032 Clouds 19 1014 56 10000 1.34 167 11:48 26.08.2022
2033 Clouds 19 1015 55 10000 1.34 174 11:22 26.08.2022
2034 Clouds 19 1015 55 10000 5.66 200 09:45 26.08.2022
2035 Clouds 21 1018 51 10000 3.13 274 04:56 26.08.2022
2036 Clouds 25 1016 39 10000 3.58 304 00:44 26.08.2022
2037 Clouds 28 1015 34 10000 2.24 321 22:44 25.08.2022
2038 Clouds 29 1015 31 10000 1.79 227 20:55 25.08.2022
2039 Clouds 26 1015 37 10000 1.34 185 19:35 25.08.2022
2040 Clouds 25 1016 42 10000 0.45 38 18:35 25.08.2022
2041 Clouds 22 1018 49 10000 0.89 123 17:32 25.08.2022
2042 Clear 21 1019 51 10000 0.53 117 16:45 25.08.2022
2043 Clear 17 1017 56 10000 0.89 340 15:30 25.08.2022
2044 Clear 17 1020 56 10000 0.82 148 13:58 25.08.2022
2045 Clear 18 1022 50 10000 5.66 200 11:25 25.08.2022
2046 Clear 18 1020 50 10000 0.37 300 10:44 25.08.2022
2047 Clouds 20 1016 44 10000 0.45 151 07:35 25.08.2022
2048 Clouds 26 1015 33 10000 0.89 17 03:44 25.08.2022
2049 Clear 30 1016 27 10000 1.79 205 23:37 24.08.2022
2050 Clear 30 1015 28 10000 1.79 92 22:56 24.08.2022
2051 Clear 29 1016 31 10000 1.34 168 21:55 24.08.2022
2052 Clouds 28 1016 32 10000 1.34 166 21:28 24.08.2022
2053 Clear 26 1017 36 10000 1.34 60 19:56 24.08.2022
2054 Clouds 22 1017 44 10000 0.45 83 17:28 24.08.2022
2055 Clear 19 1016 50 10000 0.79 192 15:54 24.08.2022
2056 Clouds 17 1016 57 10000 3.09 200 15:28 24.08.2022
2057 Clear 17 1020 54 10000 1.49 206 12:51 24.08.2022
2058 Clear 18 1014 49 10000 1.4 186 11:19 24.08.2022
2059 Clear 19 1016 49 10000 0.89 254 08:45 24.08.2022
2060 Clouds 21 1013 44 10000 1.34 285 06:40 24.08.2022
2061 Clear 30 1012 23 10000 1.79 75 00:55 24.08.2022
2062 Clear 29 1013 24 10000 1.34 128 22:41 23.08.2022
2063 Clear 29 1013 27 10000 1.79 63 21:55 23.08.2022
2064 Clear 28 1014 33 10000 1.34 92 20:47 23.08.2022
2065 Clear 26 1015 42 10000 0.89 61 19:18 23.08.2022
2066 Clear 24 1015 47 10000 0.89 3 18:18 23.08.2022
2067 Clear 22 1015 51 10000 0.89 356 17:28 23.08.2022
2068 Clear 19 1017 60 10000 0.45 151 16:24 23.08.2022
2069 Clear 16 1021 68 10000 0.45 152 14:30 23.08.2022
2070 Clear 17 1014 65 10000 1.61 217 12:46 23.08.2022
2071 Clear 18 1016 64 10000 0.45 198 10:58 23.08.2022
2072 Clear 18 1017 63 10000 2.21 203 10:33 23.08.2022
2073 Clear 19 1017 60 10000 0.89 184 09:32 23.08.2022
2074 Clear 19 1018 61 10000 1.34 166 08:46 23.08.2022
2075 Clouds 19 1018 61 10000 1.34 166 08:18 23.08.2022
2076 Clouds 20 1017 60 10000 0.45 192 07:31 23.08.2022
2077 Clouds 20 1018 58 10000 0.89 174 06:22 23.08.2022
2078 Clouds 27 1017 41 10000 2.24 123 01:45 23.08.2022
2079 Clouds 28 1015 36 10000 3.6 120 00:27 23.08.2022
2080 Clouds 29 1015 33 10000 1.79 52 23:32 22.08.2022
2081 Clouds 29 1015 34 10000 1.79 48 22:24 22.08.2022
2082 Clouds 27 1016 40 10000 1.79 234 20:44 22.08.2022
2083 Clouds 26 1017 43 10000 2.24 345 19:44 22.08.2022
2084 Clouds 24 1018 48 10000 0.89 120 18:37 22.08.2022
2085 Clouds 18 1019 67 10000 0.45 294 15:46 22.08.2022
2086 Clouds 17 1017 71 10000 0.45 219 15:18 22.08.2022
2087 Clouds 17 1017 69 10000 5.14 190 11:45 22.08.2022
2088 Clouds 18 1017 64 10000 0.45 210 09:24 22.08.2022
2089 Clouds 19 1017 63 10000 0.89 188 05:51 22.08.2022
2090 Clouds 21 1015 68 3673 7.22 226 00:57 22.08.2022
2091 Clouds 24 1017 52 3673 2.68 299 00:36 22.08.2022
2092 Clouds 26 1015 40 10000 2.68 325 23:21 21.08.2022
2093 Clouds 27 1016 37 10000 1.54 280 21:55 21.08.2022
2094 Clouds 27 1015 39 10000 1.34 46 21:19 21.08.2022
2095 Clouds 24 1018 49 10000 1.54 310 19:58 21.08.2022
2096 Clouds 22 1018 57 10000 0.89 222 18:36 21.08.2022
2097 Clouds 18 1019 70 10000 0.45 215 16:48 21.08.2022
2098 Clouds 16 1017 76 10000 0.28 288 15:52 21.08.2022
2099 Clouds 15 1018 79 10000 0.35 267 14:51 21.08.2022
2100 Clouds 15 1017 79 10000 1.36 324 13:50 21.08.2022
2101 Clouds 15 1018 77 10000 1.25 336 12:55 21.08.2022
2102 Clouds 16 1019 72 10000 7.2 190 10:36 21.08.2022
2103 Clouds 17 1015 72 10000 0.89 212 08:57 21.08.2022
2104 Clouds 17 1015 73 10000 0.89 188 08:39 21.08.2022
2105 Clouds 17 1015 73 10000 0.89 131 08:18 21.08.2022
2106 Clouds 18 1015 71 10000 0.89 113 06:33 21.08.2022
2107 Clouds 19 1015 74 6038 0.89 274 01:47 21.08.2022
2108 Clouds 26 1016 48 10000 8.23 170 23:32 20.08.2022
2109 Clouds 26 1015 48 10000 1.34 52 21:51 20.08.2022
2110 Clouds 24 1016 53 10000 1.34 196 20:51 20.08.2022
2111 Clouds 22 1018 58 10000 2.24 188 19:42 20.08.2022
2112 Clouds 21 1019 57 10000 2.57 230 18:48 20.08.2022
2113 Clouds 20 1018 58 10000 0.89 217 18:26 20.08.2022
2114 Clouds 18 1018 62 10000 0.45 340 17:20 20.08.2022
2115 Clouds 17 1017 65 10000 1.34 324 15:57 20.08.2022
2116 Clouds 15 1016 70 10000 1.34 317 14:20 20.08.2022
2117 Clouds 17 1016 63 10000 2.68 323 11:56 20.08.2022
2118 Clouds 18 1015 63 10000 1.79 322 11:36 20.08.2022
2119 Clouds 19 1015 61 10000 1.79 0 09:20 20.08.2022
2120 Clouds 20 1014 54 10000 0.45 239 07:18 20.08.2022
2121 Clouds 22 1013 48 10000 2.24 126 04:42 20.08.2022
2122 Clouds 27 1013 37 10000 1.34 241 00:55 20.08.2022
2123 Clouds 27 1013 38 10000 2.06 50 23:26 19.08.2022
2124 Clouds 26 1013 39 10000 1.79 328 22:44 19.08.2022
2125 Clouds 25 1014 41 10000 2.68 28 20:41 19.08.2022
2126 Clouds 22 1015 49 10000 1.34 331 18:55 19.08.2022
2127 Clouds 19 1018 56 10000 0.45 76 15:55 19.08.2022
2128 Clouds 19 1018 56 10000 0.45 76 15:55 19.08.2022
2129 Clouds 19 1018 57 10000 0.45 76 15:55 19.08.2022
2130 Clouds 17 1019 57 10000 1.11 218 13:42 19.08.2022
2131 Clouds 18 1019 56 10000 1.48 229 11:46 19.08.2022
2132 Clouds 18 1012 56 10000 0.45 267 10:31 19.08.2022
2133 Clouds 20 1017 49 10000 0.89 332 07:39 19.08.2022
2134 Clouds 28 1013 30 10000 0.45 337 03:19 19.08.2022
2135 Clouds 30 1015 26 10000 1.79 350 00:38 19.08.2022
2136 Clear 30 1015 26 10000 1.34 27 23:56 18.08.2022
2137 Clear 30 1016 27 10000 1.79 94 22:54 18.08.2022
2138 Clouds 30 1017 28 10000 3.09 350 22:22 18.08.2022
2139 Clear 29 1017 29 10000 2.24 34 21:45 18.08.2022
2140 Clear 28 1017 32 10000 1.79 24 20:42 18.08.2022
2141 Clear 27 1018 32 10000 2.24 11 19:32 18.08.2022
2142 Clear 26 1018 37 10000 1.79 330 18:29 18.08.2022
2143 Clear 23 1018 43 10000 0.89 210 17:29 18.08.2022
2144 Clouds 17 1021 59 10000 3.09 200 15:27 18.08.2022
2145 Clear 16 1017 61 10000 2.06 211 14:20 18.08.2022
2146 Clear 16 1017 63 10000 2.06 211 13:40 18.08.2022
2147 Clear 17 1023 65 10000 1.96 207 12:27 18.08.2022
2148 Clear 18 1023 61 10000 4.63 200 10:25 18.08.2022
2149 Clear 18 1021 61 10000 4.63 200 09:42 18.08.2022
2150 Clear 19 1018 54 10000 4.12 170 07:24 18.08.2022
2151 Clear 21 1017 49 10000 2.54 183 05:30 18.08.2022
2152 Clear 28 1018 28 10000 1.79 91 00:22 18.08.2022
2153 Clear 27 1019 39 10000 2.24 0 22:20 17.08.2022
2154 Clear 25 1020 46 10000 1.79 110 20:21 17.08.2022
2155 Clear 24 1020 52 10000 0.89 209 19:33 17.08.2022
2156 Clouds 24 1021 54 10000 2.57 10 19:33 17.08.2022
2157 Clear 22 1021 59 10000 0.89 208 18:21 17.08.2022
2158 Clouds 19 1022 68 10000 3.09 260 16:50 17.08.2022
2159 Clear 15 1022 77 10000 0.96 260 15:31 17.08.2022
2160 Clouds 14 1025 78 10000 3.09 220 14:18 17.08.2022
2161 Clouds 16 1023 73 10000 1.46 236 11:45 17.08.2022
2162 Clouds 16 1020 71 10000 2.03 209 10:25 17.08.2022
2163 Clouds 17 1020 69 10000 3.6 210 08:25 17.08.2022
2164 Clouds 19 1019 66 10000 0.89 185 04:20 17.08.2022
2165 Clouds 20 1013 77 10000 0.45 302 00:40 17.08.2022
2166 Clouds 20 1017 85 10000 1.54 320 22:50 16.08.2022
2167 Clouds 19 1020 89 9093 1.34 27 20:59 16.08.2022
2168 Rain 18 1025 93 10000 0.45 63 19:55 16.08.2022
2169 Rain 18 1022 95 9091 0.45 348 19:22 16.08.2022
2170 Rain 18 1018 93 8857 2.58 6 17:54 16.08.2022
2171 Rain 18 1024 93 8047 2.06 350 17:54 16.08.2022
2172 Clouds 17 1019 93 10000 1.34 353 16:18 16.08.2022
2173 Clouds 17 1019 93 10000 1.34 323 15:39 16.08.2022
2174 Clouds 17 1017 93 10000 0.45 277 14:43 16.08.2022
2175 Clouds 17 1018 93 10000 1.54 230 14:43 16.08.2022
2176 Clouds 17 1017 93 10000 0.45 272 14:25 16.08.2022
2177 Clouds 17 1016 93 10000 0.45 119 11:39 16.08.2022
2178 Clouds 17 1016 93 10000 0.45 222 09:58 16.08.2022
2179 Clouds 17 1018 93 10000 5.14 190 08:48 16.08.2022
2180 Clouds 17 1018 93 10000 1.34 232 08:19 16.08.2022
2181 Clouds 17 1017 92 10000 2.24 165 05:18 16.08.2022
2182 Clouds 25 1012 56 10000 4.02 342 22:56 15.08.2022
2183 Clouds 28 1013 43 10000 2.24 49 21:56 15.08.2022
2184 Clouds 29 1014 42 10000 2.68 104 21:36 15.08.2022
2185 Clouds 28 1014 44 10000 2.24 93 20:29 15.08.2022
2186 Clouds 28 1014 44 10000 2.24 93 20:29 15.08.2022
2187 Clouds 26 1014 50 10000 1.79 27 18:46 15.08.2022
2188 Clouds 24 1014 55 10000 1.34 350 17:47 15.08.2022
2189 Clouds 21 1014 66 10000 0.45 85 16:22 15.08.2022
2190 Clouds 18 1017 74 10000 2.14 203 14:31 15.08.2022
2191 Clouds 18 1013 74 10000 0.45 191 12:54 15.08.2022
2192 Clouds 20 1014 70 10000 0.45 288 10:23 15.08.2022
2193 Clouds 20 1012 68 10000 0.89 314 08:52 15.08.2022
2194 Clouds 21 1015 64 10000 1.34 360 06:34 15.08.2022
2195 Clouds 24 1013 54 10000 3.58 27 03:34 15.08.2022
2196 Clouds 32 1015 30 10000 0.89 87 23:24 14.08.2022
2197 Clouds 32 1013 33 10000 1.34 97 21:43 14.08.2022
2198 Clear 30 1013 35 10000 1.34 339 20:33 14.08.2022
2199 Clouds 29 1012 38 10000 0.89 199 19:36 14.08.2022
2200 Clouds 26 1015 46 10000 0.89 1 18:21 14.08.2022
2201 Clouds 24 1015 50 10000 0.89 349 17:27 14.08.2022
2202 Clouds 22 1016 58 10000 0.45 283 16:22 14.08.2022
2203 Clouds 19 1017 65 10000 0.89 271 14:39 14.08.2022
2204 Clouds 19 1014 65 10000 1.79 305 13:50 14.08.2022
2205 Clouds 19 1013 65 10000 0.89 312 13:26 14.08.2022
2206 Clouds 20 1014 63 10000 1.47 227 12:34 14.08.2022
2207 Clouds 21 1015 59 10000 0.89 190 11:20 14.08.2022
2208 Clouds 22 1016 58 10000 0.45 238 08:56 14.08.2022
2209 Clouds 23 1017 55 10000 0.45 186 06:27 14.08.2022
2210 Clouds 23 1014 51 10000 2.68 336 04:47 14.08.2022
2211 Clouds 31 1012 32 10000 3.13 234 01:35 14.08.2022
2212 Clear 33 1013 31 10000 1.34 90 22:56 13.08.2022
2213 Clear 31 1014 35 10000 2.24 68 21:59 13.08.2022
2214 Clouds 29 1016 42 10000 2.57 310 20:49 13.08.2022
2215 Clouds 28 1017 45 10000 0.45 83 19:47 13.08.2022
2216 Clouds 26 1014 50 10000 0.89 261 18:47 13.08.2022
2217 Clouds 21 1019 64 10000 2.57 300 16:23 13.08.2022
2218 Clouds 18 1017 74 10000 4.63 340 14:41 13.08.2022
2219 Clouds 19 1020 72 10000 0.45 36 13:48 13.08.2022
2220 Clouds 19 1020 70 10000 1.79 34 13:23 13.08.2022
2221 Clouds 22 1017 52 10000 3.58 350 10:44 13.08.2022
2222 Clouds 23 1016 45 10000 2.25 344 09:22 13.08.2022
2223 Clouds 25 1014 41 10000 0.45 200 06:26 13.08.2022
2224 Clear 34 1014 26 10000 2.24 355 00:44 13.08.2022
2225 Clouds 32 1016 30 10000 2.57 30 22:37 12.08.2022
2226 Clear 31 1016 32 10000 2.24 321 21:35 12.08.2022
2227 Clouds 29 1018 36 10000 2.57 300 19:46 12.08.2022
2228 Clouds 28 1019 39 10000 2.24 28 19:21 12.08.2022
2229 Clouds 27 1018 42 10000 2.24 301 17:58 12.08.2022
2230 Clouds 23 1016 50 10000 0.45 190 16:25 12.08.2022
2231 Clear 20 1017 54 10000 0.2 104 14:50 12.08.2022
2232 Clouds 20 1023 54 10000 2.06 260 13:26 12.08.2022
2233 Clouds 21 1014 50 10000 0.35 203 11:39 12.08.2022
2234 Clouds 24 1015 39 10000 8.23 180 08:48 12.08.2022
2235 Clouds 25 1014 37 10000 9.26 190 07:44 12.08.2022
2236 Clouds 30 1013 28 10000 1.34 167 03:56 12.08.2022
2237 Clear 35 1012 22 10000 1.79 48 00:31 12.08.2022
2238 Clear 35 1013 23 10000 1.79 340 23:42 11.08.2022
2239 Clear 34 1015 26 10000 1.34 22 22:37 11.08.2022
2240 Clear 33 1016 29 10000 1.34 338 21:47 11.08.2022
2241 Clear 33 1015 30 10000 1.79 17 21:22 11.08.2022
2242 Clear 31 1016 34 10000 1.34 126 20:29 11.08.2022
2243 Clear 30 1016 37 10000 1.34 6 19:33 11.08.2022
2244 Clear 29 1017 38 10000 1.34 27 18:39 11.08.2022
2245 Clear 24 1017 49 10000 0.45 31 16:42 11.08.2022
2246 Clear 22 1019 55 10000 0.89 191 15:37 11.08.2022
2247 Clear 20 1019 57 10000 1.45 196 13:51 11.08.2022
2248 Clear 22 1017 51 10000 7.72 180 11:26 11.08.2022
2249 Clear 25 1018 44 10000 4.47 177 07:56 11.08.2022
2250 Clear 28 1016 33 10000 1.79 166 04:44 11.08.2022
2251 Clear 34 1016 23 10000 1.34 131 01:55 11.08.2022
2252 Clear 34 1016 23 10000 1.79 137 22:54 10.08.2022
2253 Clear 33 1018 23 10000 1.79 101 21:44 10.08.2022
2254 Clear 33 1019 24 10000 1.79 141 20:56 10.08.2022
2255 Clear 31 1019 30 10000 2.68 142 19:44 10.08.2022
2256 Clouds 29 1021 36 10000 0.89 111 18:45 10.08.2022
2257 Clear 26 1019 45 10000 0.45 77 17:20 10.08.2022
2258 Clear 19 1019 62 10000 1.76 209 13:36 10.08.2022
2259 Clear 20 1018 59 10000 0.45 152 12:48 10.08.2022
2260 Clear 22 1017 53 10000 1.79 117 09:56 10.08.2022
2261 Clear 23 1017 49 10000 0.45 99 08:35 10.08.2022
2262 Clear 24 1016 43 10000 0.89 235 07:21 10.08.2022
2263 Clear 28 1015 36 10000 0.89 114 04:49 10.08.2022
2264 Clouds 34 1014 23 10000 1.79 355 00:49 10.08.2022
2265 Clear 33 1015 23 10000 1.34 20 23:25 09.08.2022
2266 Clear 33 1016 28 10000 2.24 94 21:37 09.08.2022
2267 Clear 31 1016 34 10000 1.34 102 20:42 09.08.2022
2268 Clear 29 1017 41 10000 1.34 85 18:48 09.08.2022
2269 Clear 25 1017 49 10000 0.89 157 17:31 09.08.2022
2270 Clear 24 1016 53 10000 0.45 165 16:43 09.08.2022
2271 Clear 22 1016 60 10000 0.43 238 15:59 09.08.2022
2272 Clear 19 1022 69 10000 0.85 217 14:30 09.08.2022
2273 Clouds 21 1017 62 10000 4.12 190 10:45 09.08.2022
2274 Clear 22 1016 60 10000 0.45 158 08:51 09.08.2022
2275 Clear 23 1015 57 10000 0.89 194 07:54 09.08.2022
2276 Clear 26 1014 50 10000 1.79 172 04:43 09.08.2022
2277 Clouds 32 1015 28 10000 0.89 101 23:58 08.08.2022
2278 Clouds 31 1016 32 10000 1.34 42 22:58 08.08.2022
2279 Clouds 31 1017 34 10000 1.54 180 22:35 08.08.2022
2280 Clear 29 1017 41 10000 0.89 149 21:30 08.08.2022
2281 Clear 26 1019 50 10000 1.34 218 19:58 08.08.2022
2282 Clear 26 1019 53 10000 1.34 170 19:31 08.08.2022
2283 Clear 22 1020 67 10000 0.89 341 17:47 08.08.2022
2284 Clear 18 1019 77 10000 0.97 355 15:46 08.08.2022
2285 Clouds 17 1024 80 10000 0.71 9 14:45 08.08.2022
2286 Clouds 17 1024 81 10000 1.24 153 12:29 08.08.2022
2287 Clouds 18 1023 80 10000 5.14 120 10:23 08.08.2022
2288 Clouds 18 1021 88 10000 1.34 211 06:56 08.08.2022
2289 Rain 20 1018 74 3909 2.68 47 03:34 08.08.2022
2290 Clouds 29 1016 42 10000 1.79 120 22:52 07.08.2022
2291 Clouds 28 1017 45 10000 2.68 100 21:41 07.08.2022
2292 Clouds 28 1016 46 10000 2.24 62 20:54 07.08.2022
2293 Clouds 27 1017 49 10000 1.34 13 20:18 07.08.2022
2294 Clouds 26 1017 52 10000 2.24 91 19:50 07.08.2022
2295 Clouds 25 1016 60 10000 0.89 90 18:40 07.08.2022
2296 Clouds 22 1016 68 10000 1.34 148 17:18 07.08.2022
2297 Clouds 22 1017 67 10000 1.34 17 16:38 07.08.2022
2298 Clouds 21 1015 68 10000 1.79 326 15:24 07.08.2022
2299 Clouds 21 1013 64 10000 1.34 310 13:44 07.08.2022
2300 Clouds 21 1013 67 10000 3.6 180 12:18 07.08.2022
2301 Clouds 21 1013 68 10000 0.89 184 10:35 07.08.2022
2302 Clouds 21 1012 75 10000 0.89 186 07:59 07.08.2022
2303 Rain 22 1014 71 10000 3.13 118 04:26 07.08.2022
2304 Clouds 26 1010 54 10000 0.89 323 01:50 07.08.2022
2305 Clouds 32 1011 33 10000 1.79 42 22:28 06.08.2022
2306 Clear 31 1012 36 10000 1.79 20 21:28 06.08.2022
2307 Clouds 29 1013 43 10000 1.79 105 19:42 06.08.2022
2308 Clouds 27 1014 50 10000 1.34 117 18:33 06.08.2022
2309 Clouds 25 1014 55 10000 0.89 55 17:37 06.08.2022
2310 Clouds 20 1014 64 10000 0.89 312 14:52 06.08.2022
2311 Clouds 20 1014 64 10000 0.89 307 13:49 06.08.2022
2312 Clouds 21 1012 62 10000 0.45 23 12:19 06.08.2022
2313 Clouds 22 1012 57 10000 0.45 214 10:33 06.08.2022
2314 Clouds 22 1010 56 10000 2.53 55 09:21 06.08.2022
2315 Clouds 29 1009 37 10000 1.79 17 03:54 06.08.2022
2316 Clouds 33 1004 26 10000 1.13 118 23:54 05.08.2022
2317 Clouds 36 1008 23 10000 2.68 325 22:33 05.08.2022
2318 Clouds 34 1010 27 10000 3.6 10 20:20 05.08.2022
2319 Clouds 32 1010 32 10000 1.34 178 18:47 05.08.2022
2320 Clouds 31 1010 35 10000 0.45 126 18:27 05.08.2022
2321 Clouds 27 1011 45 10000 0.89 182 16:50 05.08.2022
2322 Clouds 22 1014 56 10000 4.12 210 15:23 05.08.2022
2323 Clear 21 1017 56 10000 1.76 221 14:33 05.08.2022
2324 Clouds 21 1013 57 10000 4.63 200 13:25 05.08.2022
2325 Clouds 21 1011 57 10000 0.45 224 12:44 05.08.2022
2326 Clouds 22 1010 55 10000 0.89 171 10:55 05.08.2022
2327 Clouds 25 1010 48 10000 1.34 120 08:36 05.08.2022
2328 Clouds 26 1010 43 10000 0.89 171 07:23 05.08.2022
2329 Clouds 35 1010 20 10000 1.34 128 01:46 05.08.2022
2330 Clear 35 1012 21 10000 1.79 325 22:33 04.08.2022
2331 Clear 34 1012 23 10000 1.34 60 21:27 04.08.2022
2332 Clear 33 1013 25 10000 1.34 11 20:45 04.08.2022
2333 Clouds 32 1014 28 10000 1.34 350 19:49 04.08.2022
2334 Clouds 30 1014 35 10000 1.34 205 18:51 04.08.2022
2335 Clouds 30 1014 36 10000 0.89 202 18:32 04.08.2022
2336 Clouds 20 1014 60 10000 5.66 210 14:39 04.08.2022
2337 Clear 20 1013 61 10000 0.45 184 13:22 04.08.2022
2338 Clear 20 1013 59 10000 1.79 189 11:37 04.08.2022
2339 Clouds 22 1014 54 10000 0.89 154 07:56 04.08.2022
2340 Clouds 23 1016 54 10000 0.89 147 07:26 04.08.2022
2341 Clouds 28 1013 39 10000 2.24 195 02:38 04.08.2022
2342 Clouds 31 1012 28 10000 0.89 25 23:49 03.08.2022
2343 Clouds 31 1013 28 10000 4.63 330 23:27 03.08.2022
2344 Clouds 30 1013 32 10000 2.24 81 20:57 03.08.2022
2345 Clouds 29 1014 35 10000 1.79 96 19:56 03.08.2022
2346 Clouds 28 1016 40 10000 1.34 95 18:40 03.08.2022
2347 Clouds 24 1014 54 10000 0.89 313 16:26 03.08.2022
2348 Clouds 23 1014 58 10000 2.06 80 15:47 03.08.2022
2349 Clouds 21 1011 58 10000 0.8 288 13:24 03.08.2022
2350 Clouds 23 1010 52 10000 2.24 258 09:51 03.08.2022
2351 Clouds 25 1010 49 10000 0.45 154 06:29 03.08.2022
2352 Clouds 27 1009 40 10000 2.24 41 04:21 03.08.2022
2353 Clouds 31 1009 28 10000 7.2 340 02:25 03.08.2022
2354 Rain 33 1007 27 10000 2.24 172 23:54 02.08.2022
2355 Clouds 33 1009 24 10000 3.6 70 21:59 02.08.2022
2356 Clouds 33 1009 25 10000 1.34 96 21:40 02.08.2022
2357 Clouds 33 1009 26 10000 2.24 28 20:20 02.08.2022
2358 Clouds 26 1011 42 10000 0.45 57 16:49 02.08.2022
2359 Clouds 20 1010 55 10000 1.47 253 13:40 02.08.2022
2360 Clouds 23 1011 47 10000 0.45 192 10:34 02.08.2022
2361 Clouds 24 1011 41 10000 0.45 182 08:29 02.08.2022
2362 Clouds 25 1011 40 10000 0.89 188 07:50 02.08.2022
2363 Clouds 27 1012 35 10000 1.34 234 04:56 02.08.2022
2364 Clouds 30 1012 26 10000 4.02 299 02:20 02.08.2022
2365 Clouds 35 1012 20 10000 1.79 199 23:23 01.08.2022
2366 Clouds 33 1013 23 10000 1.34 62 21:37 01.08.2022
2367 Clouds 32 1014 27 10000 0.89 184 19:45 01.08.2022
2368 Clouds 31 1014 31 10000 0.89 103 18:55 01.08.2022
2369 Clouds 25 1015 45 10000 0.45 232 16:56 01.08.2022
2370 Clouds 23 1015 50 10000 0.45 153 16:33 01.08.2022
2371 Clouds 22 1020 50 10000 1.52 204 15:44 01.08.2022
2372 Clouds 20 1008 53 10000 1.71 212 14:45 01.08.2022
2373 Clouds 19 1015 56 10000 1.87 219 13:29 01.08.2022
2374 Clouds 20 1015 52 10000 5.66 180 10:48 01.08.2022
2375 Clouds 21 1015 52 10000 1.79 190 08:53 01.08.2022
2376 Clouds 22 1015 50 10000 0.89 196 06:51 01.08.2022
2377 Clouds 25 1015 41 10000 0.45 196 04:31 01.08.2022
2378 Clouds 29 1015 30 10000 9.26 320 00:58 01.08.2022
2379 Clouds 31 1013 31 10000 6.31 311 22:44 31.07.2022
2380 Clouds 32 1015 26 10000 0.89 343 22:25 31.07.2022
2381 Clouds 31 1016 27 10000 1.79 51 20:28 31.07.2022
2382 Clouds 29 1016 34 10000 0.89 226 18:39 31.07.2022
2383 Clouds 24 1016 48 10000 1.34 165 16:26 31.07.2022
2384 Clouds 20 1021 57 10000 0.97 223 14:33 31.07.2022
2385 Clouds 20 1015 59 10000 1.61 228 12:55 31.07.2022
2386 Clouds 21 1015 56 10000 1.68 218 10:53 31.07.2022
2387 Clouds 22 1014 48 10000 2.18 201 08:29 31.07.2022
2388 Clouds 27 1015 34 10000 0.45 302 05:20 31.07.2022
2389 Clouds 33 1014 20 10000 2.57 90 01:20 31.07.2022
2390 Clear 32 1014 19 10000 1.79 103 22:40 30.07.2022
2391 Clear 32 1015 20 10000 1.34 61 21:50 30.07.2022
2392 Clouds 31 1015 21 10000 1.79 110 21:32 30.07.2022
2393 Clear 30 1015 26 10000 1.34 91 20:28 30.07.2022
2394 Clear 29 1016 31 10000 0.89 300 19:42 30.07.2022
2395 Clear 24 1016 46 10000 0.89 149 17:53 30.07.2022
2396 Clouds 21 1020 56 10000 3.6 240 16:38 30.07.2022
2397 Clear 17 1016 67 10000 1.28 208 15:30 30.07.2022
2398 Clear 15 1021 71 10000 0.97 213 13:23 30.07.2022
2399 Clouds 16 1021 73 10000 1.38 227 12:22 30.07.2022
2400 Clouds 17 1017 71 10000 1.54 180 10:45 30.07.2022
2401 Clouds 17 1016 69 10000 0.45 232 09:59 30.07.2022
2402 Clear 18 1017 66 10000 0.45 192 08:49 30.07.2022
2403 Clouds 19 1017 64 10000 0.45 207 06:55 30.07.2022
2404 Clouds 23 1014 56 10000 2.68 135 02:33 30.07.2022
2405 Clouds 28 1016 43 10000 1.34 312 23:30 29.07.2022
2406 Clouds 27 1017 47 10000 1.79 129 21:36 29.07.2022
2407 Clouds 26 1018 50 10000 2.06 340 20:50 29.07.2022
2408 Clouds 25 1018 54 10000 1.79 200 19:45 29.07.2022
2409 Clouds 19 1020 75 10000 0.89 183 16:59 29.07.2022
2410 Clouds 16 1018 84 10000 3.09 220 14:38 29.07.2022
2411 Clouds 16 1017 85 10000 1.44 15 12:41 29.07.2022
2412 Clouds 18 1017 81 10000 0.45 305 08:52 29.07.2022
2413 Clouds 18 1018 79 10000 1.54 270 08:22 29.07.2022
2414 Clouds 21 1016 64 10000 0.45 227 04:39 29.07.2022
2415 Clouds 25 1022 49 10000 2.31 42 23:46 28.07.2022
2416 Clouds 23 1014 58 10000 0.47 68 21:38 28.07.2022
2417 Clouds 22 1024 63 10000 0.45 207 20:52 28.07.2022
2418 Clouds 20 1021 74 10000 0.89 0 20:18 28.07.2022
2419 Clouds 20 1020 73 10000 2.59 31 19:40 28.07.2022
2420 Clouds 18 1020 83 10000 0.89 341 17:46 28.07.2022
2421 Clouds 18 1019 84 9357 0.89 37 17:23 28.07.2022
2422 Clouds 18 1020 85 10000 4.12 350 16:40 28.07.2022
2423 Clouds 17 1017 85 10000 0.89 223 13:56 28.07.2022
2424 Clouds 18 1017 84 10000 0.89 161 12:39 28.07.2022
2425 Clouds 19 1016 77 10000 1.79 205 07:46 28.07.2022
2426 Clouds 25 1015 54 10000 2.57 330 05:41 28.07.2022
2427 Clouds 26 1014 50 10000 2.57 330 05:20 28.07.2022
2428 Clouds 32 1019 39 10000 1.34 28 23:20 27.07.2022
2429 Clouds 30 1020 43 10000 0.89 181 21:30 27.07.2022
2430 Clouds 30 1011 52 10000 2.22 100 19:48 27.07.2022
2431 Clouds 28 1015 52 10000 2.24 345 19:20 27.07.2022
2432 Clouds 22 1014 65 10000 1.39 194 16:31 27.07.2022
2433 Clouds 21 1021 67 10000 4.12 200 15:51 27.07.2022
2434 Clouds 18 1021 73 10000 5.14 200 14:41 27.07.2022
2435 Clouds 18 1013 74 10000 5.14 200 13:34 27.07.2022
2436 Clouds 18 1010 80 10000 0.89 224 09:29 27.07.2022
2437 Clouds 18 1016 87 10000 0.76 162 07:47 27.07.2022
2438 Clouds 23 1014 66 10000 1.79 326 04:53 27.07.2022
2439 Clouds 30 1014 43 10000 1.79 43 23:21 26.07.2022
2440 Clouds 29 1014 42 10000 1.34 303 21:49 26.07.2022
2441 Clouds 29 1015 45 10000 2.24 319 20:49 26.07.2022
2442 Clouds 27 1014 50 10000 2.24 313 19:20 26.07.2022
2443 Clouds 26 1014 51 10000 2.68 339 18:39 26.07.2022
2444 Clouds 25 1014 53 10000 3.58 40 17:46 26.07.2022
2445 Clouds 21 1013 57 10000 1.54 230 15:43 26.07.2022
2446 Clouds 19 1013 57 10000 2.57 180 14:38 26.07.2022
2447 Clouds 20 1011 58 10000 0.89 295 12:25 26.07.2022
2448 Clouds 21 1011 57 10000 0.89 224 09:44 26.07.2022
2449 Clouds 22 1011 56 10000 1.79 138 08:18 26.07.2022
2450 Clouds 32 1010 26 10000 1.79 232 01:52 26.07.2022
2451 Clouds 32 1010 28 10000 1.34 178 23:44 25.07.2022
2452 Clouds 31 1012 29 10000 1.34 102 22:39 25.07.2022
2453 Clouds 30 1012 31 10000 1.79 22 21:43 25.07.2022
2454 Clouds 29 1013 37 10000 1.34 44 20:42 25.07.2022
2455 Clouds 28 1014 42 10000 0.89 0 19:51 25.07.2022
2456 Clouds 25 1014 56 10000 0.89 175 18:23 25.07.2022
2457 Clouds 23 1016 66 10000 0.89 5 17:34 25.07.2022
2458 Clouds 21 1014 70 10000 0.89 155 16:40 25.07.2022
2459 Clouds 16 1015 93 10000 0.89 296 12:47 25.07.2022
2460 Clouds 16 1014 93 10000 0.45 130 10:42 25.07.2022
2461 Clouds 17 1017 92 10000 3.09 140 06:52 25.07.2022
2462 Rain 21 1017 75 10000 0.89 307 23:57 24.07.2022
2463 Clouds 22 1016 69 8558 2.24 326 23:21 24.07.2022
2464 Clouds 22 1017 67 8558 4.02 308 22:41 24.07.2022
2465 Clouds 28 1012 35 10000 0.6 33 21:30 24.07.2022
2466 Clouds 27 1013 47 10000 0.89 76 20:56 24.07.2022
2467 Clouds 26 1015 54 10000 2.24 331 20:29 24.07.2022
2468 Clouds 24 1015 61 10000 2.24 309 18:57 24.07.2022
2469 Clouds 21 1016 76 10000 0.45 275 16:51 24.07.2022
2470 Clouds 19 1012 76 10000 0.45 241 15:53 24.07.2022
2471 Clouds 18 1016 78 10000 0.52 304 14:40 24.07.2022
2472 Clouds 17 1015 81 10000 2.01 183 13:25 24.07.2022
2473 Clouds 17 1017 85 10000 2.65 187 12:19 24.07.2022
2474 Clouds 17 1017 87 10000 0.45 89 11:26 24.07.2022
2475 Clouds 18 1020 89 10000 1.79 183 09:23 24.07.2022
2476 Clouds 18 1016 90 10000 1.34 140 07:53 24.07.2022
2477 Clouds 18 1022 87 10000 0.45 172 06:34 24.07.2022
2478 Clouds 27 1005 42 10000 6.7 359 01:51 24.07.2022
2479 Clouds 33 1009 25 10000 3.58 37 22:31 23.07.2022
2480 Clouds 35 1010 21 10000 1.34 45 20:41 23.07.2022
2481 Clouds 33 1009 24 10000 0.89 118 18:52 23.07.2022
2482 Clouds 31 1004 29 10000 0.45 78 17:48 23.07.2022
2483 Clouds 30 1009 32 10000 0.89 333 17:24 23.07.2022
2484 Clouds 26 1018 36 10000 5.14 200 15:51 23.07.2022
2485 Clouds 23 1011 44 10000 2.31 209 15:20 23.07.2022
2486 Clouds 23 1010 41 10000 0.45 185 14:36 23.07.2022
2487 Clear 22 1011 41 10000 0.45 194 13:53 23.07.2022
2488 Clear 23 1005 40 10000 0.45 186 11:46 23.07.2022
2489 Clear 23 1008 40 10000 2.17 196 10:28 23.07.2022
2490 Clear 23 1011 39 10000 1.85 243 09:26 23.07.2022
2491 Clouds 27 1008 34 10000 4.59 205 04:59 23.07.2022
2492 Clouds 32 1010 24 10000 6.17 190 02:30 23.07.2022
2493 Clouds 35 1009 19 10000 2.68 186 23:57 22.07.2022
2494 Clear 34 1010 20 10000 1.79 56 21:18 22.07.2022
2495 Clear 33 1012 22 10000 1.79 342 19:55 22.07.2022
2496 Clear 31 1011 25 10000 1.34 319 18:36 22.07.2022
2497 Clear 29 1007 29 10000 0.45 134 17:37 22.07.2022
2498 Clouds 22 1022 37 10000 3.09 210 15:26 22.07.2022
2499 Clear 21 1018 40 10000 1.25 250 12:23 22.07.2022
2500 Clouds 23 1015 37 10000 5.14 210 09:43 22.07.2022
2501 Clouds 23 1018 37 10000 5.14 210 09:18 22.07.2022
2502 Clouds 24 1004 38 10000 1.16 255 07:23 22.07.2022
2503 Clear 29 1009 29 10000 2.26 49 04:18 22.07.2022
2504 Clouds 34 1011 18 10000 4.12 210 22:56 21.07.2022
2505 Clear 34 1011 19 10000 1.34 246 21:35 21.07.2022
2506 Clear 32 1013 23 10000 1.34 215 19:31 21.07.2022
2507 Clear 30 1013 29 10000 1.34 198 18:28 21.07.2022
2508 Clear 27 1014 38 10000 0.89 226 17:20 21.07.2022
2509 Clear 22 1021 51 10000 1.26 16 15:39 21.07.2022
2510 Clear 20 1015 53 10000 0.92 353 14:44 21.07.2022
2511 Clear 19 1020 59 10000 1.26 235 12:54 21.07.2022
2512 Clear 20 1014 58 10000 2.24 296 11:23 21.07.2022
2513 Clear 21 1013 56 10000 0.45 195 09:42 21.07.2022
2514 Clear 22 1012 54 10000 0.89 182 08:52 21.07.2022
2515 Clouds 22 1011 55 10000 0.89 175 07:50 21.07.2022
2516 Clouds 23 1015 54 10000 1.34 275 06:25 21.07.2022
2517 Clouds 24 1016 58 10000 2.24 229 01:54 21.07.2022
2518 Clear 33 1013 26 10000 1.34 137 22:22 20.07.2022
2519 Clear 32 1014 29 10000 1.79 162 21:42 20.07.2022
2520 Clear 31 1015 30 10000 0.45 298 20:39 20.07.2022
2521 Clear 30 1017 33 10000 0.89 94 19:43 20.07.2022
2522 Clear 29 1013 36 10000 0.45 173 18:52 20.07.2022
2523 Clear 27 1015 38 10000 0.89 40 18:29 20.07.2022
2524 Clear 24 1018 45 10000 0.45 209 16:46 20.07.2022
2525 Clear 22 1018 49 10000 1.79 20 15:32 20.07.2022
2526 Clouds 19 1016 59 10000 0.89 296 14:26 20.07.2022
2527 Clouds 20 1020 60 10000 1.94 326 12:34 20.07.2022
2528 Clouds 22 1011 51 10000 3.25 173 10:24 20.07.2022
2529 Clouds 27 1009 45 10000 0.89 121 04:50 20.07.2022
2530 Clouds 31 1012 34 10000 1.79 141 00:54 20.07.2022
2531 Clouds 32 1017 31 10000 3.58 152 00:25 20.07.2022
2532 Clouds 33 1011 27 10000 0.89 140 22:34 19.07.2022
2533 Clouds 34 1009 25 10000 2.68 1 21:53 19.07.2022
2534 Clouds 34 1010 24 10000 2.68 333 20:48 19.07.2022
2535 Clouds 34 1010 25 10000 2.68 314 19:21 19.07.2022
2536 Clouds 33 1010 26 10000 2.24 313 18:34 19.07.2022
2537 Clouds 32 1010 29 10000 1.34 353 17:49 19.07.2022
2538 Clouds 24 1010 43 10000 2.23 217 14:58 19.07.2022
2539 Clouds 24 1010 43 10000 5.14 220 11:58 19.07.2022
2540 Clouds 25 1010 41 10000 5.14 220 11:18 19.07.2022
2541 Clouds 25 1012 40 10000 0.45 164 09:26 19.07.2022
2542 Clouds 25 1012 41 10000 0.89 257 08:39 19.07.2022
2543 Clouds 26 1009 37 10000 0.45 192 07:19 19.07.2022
2544 Clouds 28 1007 32 10000 2.68 313 05:48 19.07.2022
2545 Clouds 29 1008 29 10000 4.02 304 04:58 19.07.2022
2546 Clouds 33 1007 27 10000 4.63 190 01:58 19.07.2022
2547 Clouds 34 1008 24 10000 1.34 204 23:50 18.07.2022
2548 Clouds 34 1008 26 10000 1.79 95 23:19 18.07.2022
2549 Clouds 35 1006 21 10000 3.91 173 22:22 18.07.2022
2550 Clouds 36 1009 21 10000 1.79 73 20:57 18.07.2022
2551 Clouds 35 1009 23 10000 1.34 157 19:52 18.07.2022
2552 Clouds 31 1010 32 10000 0.89 219 17:53 18.07.2022
2553 Clouds 26 1011 43 10000 0.89 39 16:28 18.07.2022
2554 Clouds 23 1013 48 10000 6.17 190 15:19 18.07.2022
2555 Clouds 23 1011 44 10000 0.45 182 13:26 18.07.2022
2556 Clouds 24 1012 41 10000 1.79 128 11:31 18.07.2022
2557 Clouds 25 1011 39 10000 1.34 174 09:53 18.07.2022
2558 Clouds 27 1011 36 10000 1.34 117 07:48 18.07.2022
2559 Clouds 34 1012 23 10000 7.72 130 02:34 18.07.2022
2560 Clear 36 1013 18 10000 1.79 23 22:52 17.07.2022
2561 Clear 35 1013 18 10000 1.79 306 22:25 17.07.2022
2562 Clear 34 1014 20 10000 1.79 17 21:26 17.07.2022
2563 Clouds 34 1014 22 10000 2.06 20 20:44 17.07.2022
2564 Clear 32 1015 29 10000 1.79 317 19:49 17.07.2022
2565 Clear 31 1015 32 10000 0.89 94 19:19 17.07.2022
2566 Clear 28 1014 40 10000 0.45 184 17:39 17.07.2022
2567 Clouds 25 1017 46 10000 5.14 200 16:51 17.07.2022
2568 Clear 24 1017 51 10000 1.34 155 16:27 17.07.2022
2569 Clear 21 1018 60 10000 0.89 146 15:27 17.07.2022
2570 Clear 18 1019 65 10000 0.89 251 13:34 17.07.2022
2571 Clear 19 1022 65 10000 1.82 221 12:32 17.07.2022
2572 Clear 21 1015 58 10000 0.89 329 09:31 17.07.2022
2573 Clouds 23 1015 53 10000 3.32 227 06:58 17.07.2022
2574 Clouds 28 1013 42 10000 0.45 199 02:33 17.07.2022
2575 Clouds 29 1016 38 10000 5.81 322 23:22 16.07.2022
2576 Clouds 29 1016 38 10000 5.81 322 23:22 16.07.2022
2577 Clouds 32 1011 33 10000 3.13 21 21:57 16.07.2022
2578 Clouds 33 1013 29 10000 2.24 0 20:28 16.07.2022
2579 Clouds 30 1014 39 10000 1.34 64 18:42 16.07.2022
2580 Clouds 27 1014 49 10000 0.89 147 17:24 16.07.2022
2581 Clouds 22 1018 64 10000 0.89 157 15:41 16.07.2022
2582 Clouds 19 1014 75 10000 0.45 183 11:55 16.07.2022
2583 Clouds 21 1016 68 10000 1.34 337 09:37 16.07.2022
2584 Clouds 22 1017 67 10000 4.12 300 08:58 16.07.2022
2585 Clouds 22 1017 64 10000 4.63 90 08:33 16.07.2022
2586 Clouds 24 1014 51 10000 1.88 40 05:59 16.07.2022
2587 Clouds 26 1023 45 10000 3.3 155 03:31 16.07.2022
2588 Clouds 31 1013 32 10000 1.79 304 23:51 15.07.2022
2589 Clouds 33 1013 27 10000 1.54 220 22:43 15.07.2022
2590 Clouds 33 1014 28 10000 1.79 66 21:31 15.07.2022
2591 Clouds 31 1015 32 10000 1.34 186 20:31 15.07.2022
2592 Clouds 29 1016 37 10000 1.34 168 18:44 15.07.2022
2593 Clouds 28 1018 41 10000 1.54 270 17:48 15.07.2022
2594 Clouds 22 1019 54 10000 0.45 237 14:57 15.07.2022
2595 Clouds 20 1017 56 10000 1.54 180 13:20 15.07.2022
2596 Clouds 21 1015 52 10000 1.3 232 11:45 15.07.2022
2597 Clouds 23 1014 49 10000 0.45 209 10:27 15.07.2022
2598 Clouds 24 1015 45 10000 2.57 180 07:42 15.07.2022
2599 Clouds 29 1015 30 10000 0.89 178 02:24 15.07.2022
2600 Clouds 31 1012 30 10000 3.13 227 00:37 15.07.2022
2601 Clouds 35 1013 21 10000 1.79 244 22:53 14.07.2022
2602 Clouds 35 1011 22 10000 1.34 221 21:54 14.07.2022
2603 Clouds 34 1014 23 10000 1.34 201 21:30 14.07.2022
2604 Clouds 34 1014 23 10000 1.34 103 20:45 14.07.2022
2605 Clouds 34 1014 24 10000 1.34 319 20:26 14.07.2022
2606 Clouds 32 1015 26 10000 1.34 120 19:45 14.07.2022
2607 Clouds 26 1016 39 10000 0.89 28 16:23 14.07.2022
2608 Clouds 25 1014 41 10000 0.89 3 15:50 14.07.2022
2609 Clouds 21 1020 44 10000 1.39 227 14:31 14.07.2022
2610 Clouds 21 1014 42 10000 0.45 57 13:21 14.07.2022
2611 Clouds 21 1010 42 10000 0.89 221 11:56 14.07.2022
2612 Clouds 22 1016 43 10000 1.79 320 11:24 14.07.2022
2613 Clouds 22 1015 43 10000 1.34 222 10:37 14.07.2022
2614 Clouds 22 1016 43 10000 1.06 233 07:55 14.07.2022
2615 Clouds 32 1010 21 10000 2.24 256 01:28 14.07.2022
2616 Clouds 34 1011 18 10000 1.34 227 00:54 14.07.2022
2617 Clouds 35 1011 16 10000 1.34 105 23:35 13.07.2022
2618 Clouds 35 1012 18 10000 1.34 296 22:23 13.07.2022
2619 Clouds 35 1012 17 10000 3.13 20 21:21 13.07.2022
2620 Clouds 34 1013 20 10000 2.24 55 20:23 13.07.2022
2621 Clouds 31 1013 27 10000 0.45 146 17:54 13.07.2022
2622 Clouds 27 1013 34 10000 1.6 215 16:47 13.07.2022
2623 Clouds 24 1014 36 10000 2.02 211 15:43 13.07.2022
2624 Clouds 18 1021 53 10000 1.89 188 13:24 13.07.2022
2625 Clouds 19 1018 46 10000 5.14 190 10:46 13.07.2022
2626 Clear 20 1014 43 10000 1.77 335 10:28 13.07.2022
2627 Clouds 20 1014 43 10000 5.14 190 10:28 13.07.2022
2628 Clear 21 1012 41 10000 1.54 257 09:27 13.07.2022
2629 Clouds 22 1012 40 10000 0.89 192 07:53 13.07.2022
2630 Clouds 28 1014 26 10000 5.13 69 03:26 13.07.2022
2631 Clouds 32 1011 21 10000 3.58 261 00:19 13.07.2022
2632 Clear 34 1013 22 10000 1.34 104 22:19 12.07.2022
2633 Clear 32 1013 25 10000 1.34 130 21:36 12.07.2022
2634 Clear 31 1014 31 10000 1.34 166 20:42 12.07.2022
2635 Clear 29 1015 37 10000 1.34 31 19:42 12.07.2022
2636 Clear 26 1015 46 10000 0.89 321 18:21 12.07.2022
2637 Clear 21 1018 59 10000 0.89 90 16:20 12.07.2022
2638 Clouds 16 1015 74 10000 0.45 256 14:31 12.07.2022
2639 Clouds 17 1023 71 10000 0.3 283 13:24 12.07.2022
2640 Clouds 17 1017 70 10000 0.45 217 11:46 12.07.2022
2641 Clear 18 1017 69 10000 4.12 170 10:25 12.07.2022
2642 Clouds 19 1018 63 10000 4.63 190 08:38 12.07.2022
2643 Clouds 20 1017 61 10000 0.45 249 07:38 12.07.2022
2644 Clouds 22 1018 57 10000 3.19 165 05:44 12.07.2022
2645 Clouds 24 1018 51 10000 3.69 197 03:50 12.07.2022
2646 Clouds 25 1018 48 10000 2.06 60 23:43 11.07.2022
2647 Clouds 24 1018 51 10000 1.34 329 22:36 11.07.2022
2648 Clouds 21 1020 59 10000 0.45 266 20:54 11.07.2022
2649 Clouds 20 1024 65 10000 0.89 30 20:25 11.07.2022
2650 Clouds 17 1020 69 10000 3.15 27 18:38 11.07.2022
2651 Clouds 16 1021 49 10000 3.6 15 17:55 11.07.2022
2652 Clouds 17 1023 72 10000 2.24 0 16:22 11.07.2022
2653 Clouds 19 1018 61 10000 6.78 23 14:49 11.07.2022
2654 Clouds 20 1015 48 10000 0.45 162 12:28 11.07.2022
2655 Clouds 21 1013 47 10000 5.14 210 10:42 11.07.2022
2656 Clouds 21 1012 47 10000 0.89 254 09:54 11.07.2022
2657 Clouds 23 1013 45 10000 1.34 229 08:35 11.07.2022
2658 Clouds 24 1014 40 10000 1.79 174 07:32 11.07.2022
2659 Clouds 32 1009 21 10000 0.45 220 00:47 11.07.2022
2660 Clouds 35 1012 16 10000 2.68 355 23:48 10.07.2022
2661 Clouds 36 1014 16 10000 4.63 30 22:26 10.07.2022
2662 Clouds 36 1013 15 10000 2.68 327 20:55 10.07.2022
2663 Clouds 36 1012 15 10000 2.24 302 19:55 10.07.2022
2664 Clouds 35 1012 17 10000 2.24 299 19:20 10.07.2022
2665 Clouds 33 1014 23 10000 4.12 230 17:50 10.07.2022
2666 Clear 30 1016 30 10000 0.89 165 16:59 10.07.2022
2667 Clear 27 1015 36 10000 0.45 181 16:20 10.07.2022
2668 Clouds 23 1023 42 10000 4.63 200 14:35 10.07.2022
2669 Clear 22 1015 42 10000 0.45 164 12:38 10.07.2022
2670 Clear 23 1016 40 10000 0.45 195 11:34 10.07.2022
2671 Clouds 25 1016 36 10000 0.45 223 09:30 10.07.2022
2672 Clouds 25 1015 36 10000 0.45 268 08:42 10.07.2022
2673 Clouds 28 1015 30 10000 1.34 190 06:32 10.07.2022
2674 Clear 37 1015 14 10000 1.79 352 23:35 09.07.2022
2675 Clouds 37 1016 13 10000 2.57 310 22:26 09.07.2022
2676 Clouds 36 1017 14 10000 2.57 280 21:40 09.07.2022
2677 Clouds 33 1017 24 10000 1.34 14 19:19 09.07.2022
2678 Clouds 32 1019 30 10000 0.89 18 18:25 09.07.2022
2679 Clouds 29 1018 38 10000 3.6 240 17:18 09.07.2022
2680 Clouds 24 1020 48 10000 3.6 200 15:56 09.07.2022
2681 Clouds 24 1018 49 10000 0.45 178 15:36 09.07.2022
2682 Clear 20 1018 55 10000 1.79 176 13:54 09.07.2022
2683 Clear 20 1018 54 10000 0.89 166 13:28 09.07.2022
2684 Clear 21 1018 50 10000 7.2 190 11:34 09.07.2022
2685 Clear 21 1017 47 10000 0.45 194 10:24 09.07.2022
2686 Clouds 22 1019 46 10000 1.34 231 08:27 09.07.2022
2687 Clouds 24 1018 44 10000 0.45 120 06:59 09.07.2022
2688 Clouds 28 1017 37 10000 7.2 180 04:35 09.07.2022
2689 Clear 34 1016 20 10000 1.79 5 23:27 08.07.2022
2690 Clear 33 1016 26 10000 1.34 153 21:59 08.07.2022
2691 Clear 32 1017 30 10000 1.34 127 21:20 08.07.2022
2692 Clear 31 1016 33 10000 1.34 21 20:33 08.07.2022
2693 Clear 27 1018 44 10000 0.89 50 18:36 08.07.2022
2694 Clear 25 1018 49 10000 0.89 158 17:45 08.07.2022
2695 Clear 18 1020 73 10000 0.89 150 15:30 08.07.2022
2696 Clear 17 1022 75 10000 1.99 211 14:49 08.07.2022
2697 Clear 16 1019 77 10000 1.77 220 12:28 08.07.2022
2698 Clear 18 1019 71 10000 1.79 296 10:46 08.07.2022
2699 Clear 18 1017 70 10000 0.89 314 09:24 08.07.2022
2700 Clouds 19 1017 67 10000 0.89 156 06:55 08.07.2022
2701 Clouds 22 1015 55 10000 0.45 273 04:31 08.07.2022
2702 Clouds 28 1015 37 10000 4.47 17 23:56 07.07.2022
2703 Clouds 29 1022 28 10000 4.12 50 22:45 07.07.2022
2704 Clouds 29 1015 29 10000 1.34 280 21:39 07.07.2022
2705 Clear 28 1014 37 10000 0.89 182 18:43 07.07.2022
2706 Clear 25 1014 47 10000 0.45 132 17:41 07.07.2022
2707 Clear 18 1015 72 10000 0.45 191 15:34 07.07.2022
2708 Clouds 16 1015 83 10000 2.03 217 13:30 07.07.2022
2709 Clouds 16 1013 82 10000 0.89 336 12:40 07.07.2022
2710 Clouds 16 1013 81 10000 0.89 336 12:20 07.07.2022
2711 Clouds 17 1013 80 10000 1.85 208 11:31 07.07.2022
2712 Clouds 17 1014 79 10000 1.85 208 10:44 07.07.2022
2713 Clouds 17 1014 79 10000 3.6 180 10:25 07.07.2022
2714 Clouds 17 1013 80 10000 0.89 212 07:58 07.07.2022
2715 Clouds 19 1014 74 10000 4.12 100 04:44 07.07.2022
2716 Clouds 25 1015 77 10000 2.88 91 23:37 06.07.2022
2717 Clouds 26 1012 83 1357 4.12 221 23:19 06.07.2022
2718 Clouds 26 1012 83 1357 4.12 221 23:19 06.07.2022
2719 Clouds 27 1012 83 1357 4.12 221 22:57 06.07.2022
2720 Clouds 28 1012 33 1357 4.12 221 22:38 06.07.2022
2721 Clouds 28 1012 44 10000 1.34 319 21:30 06.07.2022
2722 Clouds 26 1014 52 10000 3.09 340 19:39 06.07.2022
2723 Clouds 24 1014 61 10000 1.79 82 18:29 06.07.2022
2724 Clouds 19 1015 81 10000 3.09 330 16:19 06.07.2022
2725 Clouds 19 1014 83 10000 0.89 344 14:55 06.07.2022
2726 Clouds 19 1012 69 10000 2.24 322 12:40 06.07.2022
2727 Clouds 20 1011 62 10000 0.45 185 11:49 06.07.2022
2728 Clouds 21 1010 57 10000 0.45 351 10:18 06.07.2022
2729 Clouds 22 1011 52 10000 1.34 258 07:47 06.07.2022
2730 Clouds 22 1010 51 10000 0.89 207 07:23 06.07.2022
2731 Clouds 24 1010 48 10000 1.79 237 03:24 06.07.2022
2732 Clouds 31 1016 27 10000 0.89 350 22:45 05.07.2022
2733 Clouds 31 1016 27 10000 0.89 350 22:45 05.07.2022
2734 Clouds 33 1008 23 10000 3.58 320 21:39 05.07.2022
2735 Clouds 33 1008 24 10000 2.24 130 20:38 05.07.2022
2736 Clouds 32 1009 27 10000 1.34 90 19:41 05.07.2022
2737 Clouds 32 1009 27 10000 1.34 109 19:22 05.07.2022
2738 Clouds 28 1010 36 10000 0.45 198 17:47 05.07.2022
2739 Clouds 25 1010 41 10000 0.89 223 16:44 05.07.2022
2740 Clouds 21 1012 56 10000 3.09 200 15:25 05.07.2022
2741 Clouds 18 1018 59 10000 0.75 230 13:53 05.07.2022
2742 Clouds 18 1013 61 10000 1.77 224 12:42 05.07.2022
2743 Clouds 19 1011 61 10000 0.45 167 11:32 05.07.2022
2744 Clouds 19 1011 60 10000 0.45 179 10:34 05.07.2022
2745 Clouds 21 1011 55 10000 0.45 217 08:26 05.07.2022
2746 Clouds 22 1011 51 10000 0.89 175 07:31 05.07.2022
2747 Clouds 25 1010 43 10000 2.68 259 04:47 05.07.2022
2748 Clouds 25 1010 46 10000 7.4 223 04:20 05.07.2022
2749 Clouds 32 1008 14 10000 8.79 306 23:45 04.07.2022
2750 Clouds 33 1010 20 10000 0.89 136 23:25 04.07.2022
2751 Clouds 34 1009 19 10000 4.63 80 22:21 04.07.2022
2752 Clear 33 1009 21 10000 1.79 149 21:20 04.07.2022
2753 Clear 33 1009 21 10000 1.79 339 20:51 04.07.2022
2754 Clear 32 1009 23 10000 1.34 148 20:33 04.07.2022
2755 Clouds 32 1010 26 10000 1.79 129 19:51 04.07.2022
2756 Clouds 31 1010 27 10000 0.89 190 19:33 04.07.2022
2757 Clouds 28 1009 35 10000 0.89 226 17:42 04.07.2022
2758 Clouds 22 1010 50 10000 0.45 254 15:44 04.07.2022
2759 Clouds 19 1013 56 10000 1.79 277 14:42 04.07.2022
2760 Clouds 18 1008 59 10000 2.71 212 13:27 04.07.2022
2761 Clouds 19 1007 53 10000 0.45 181 11:43 04.07.2022
2762 Clouds 19 1008 54 10000 2.76 207 10:33 04.07.2022
2763 Clouds 20 1008 53 10000 2.77 210 09:36 04.07.2022
2764 Clouds 20 1010 57 10000 1.34 221 06:53 04.07.2022
2765 Clouds 23 1011 48 10000 0.45 86 03:30 04.07.2022
2766 Clouds 25 1010 65 10000 12.41 237 00:27 04.07.2022
2767 Clouds 32 1007 26 10000 0.89 200 22:55 03.07.2022
2768 Clouds 31 1005 29 10000 0.89 17 20:47 03.07.2022
2769 Clouds 31 1008 30 10000 1.34 11 20:20 03.07.2022
2770 Clouds 29 1008 33 10000 1.34 104 19:25 03.07.2022
2771 Clouds 27 1009 38 10000 1.54 350 18:32 03.07.2022
2772 Clouds 26 1008 39 10000 0.89 30 17:42 03.07.2022
2773 Clouds 20 1010 55 10000 0.89 227 15:28 03.07.2022
2774 Clouds 20 1009 56 10000 0.45 271 14:57 03.07.2022
2775 Clouds 18 1011 57 10000 0.89 244 13:50 03.07.2022
2776 Clouds 19 1008 55 10000 0.89 214 12:51 03.07.2022
2777 Clouds 19 1009 57 10000 2.04 206 12:21 03.07.2022
2778 Clouds 20 1009 55 10000 4.63 180 10:55 03.07.2022
2779 Clouds 20 1008 55 10000 0.45 158 10:36 03.07.2022
2780 Clouds 21 1011 53 10000 0.89 193 08:21 03.07.2022
2781 Clouds 21 1013 52 10000 4.12 210 07:34 03.07.2022
2782 Clouds 30 1011 26 10000 1.34 312 00:41 03.07.2022
2783 Clear 31 1012 25 10000 1.79 35 23:38 02.07.2022
2784 Clouds 31 1013 26 10000 6.17 60 22:31 02.07.2022
2785 Clouds 28 1014 33 10000 2.06 90 20:31 02.07.2022
2786 Clear 28 1014 35 10000 1.34 154 19:49 02.07.2022
2787 Clear 26 1013 42 10000 0.89 223 18:36 02.07.2022
2788 Clear 24 1011 47 10000 1.34 159 17:39 02.07.2022
2789 Clear 21 1015 55 10000 0.45 207 16:32 02.07.2022
2790 Clouds 15 1020 76 10000 0.36 31 13:51 02.07.2022
2791 Clouds 15 1020 75 10000 1.7 210 11:51 02.07.2022
2792 Clouds 16 1020 73 10000 1.82 207 10:52 02.07.2022
2793 Clouds 16 1013 73 10000 1.21 205 10:25 02.07.2022
2794 Clouds 17 1013 67 10000 0.9 314 08:38 02.07.2022
2795 Clouds 17 1014 66 10000 1.34 339 08:19 02.07.2022
2796 Clouds 24 1012 42 10000 1.79 178 04:19 02.07.2022
2797 Clouds 28 1013 40 10000 6.64 191 00:34 02.07.2022
2798 Clouds 28 1015 35 10000 1.79 34 23:30 01.07.2022
2799 Clouds 27 1015 37 10000 4.12 60 22:35 01.07.2022
2800 Clear 26 1016 41 10000 1.34 357 21:38 01.07.2022
2801 Clear 26 1016 44 10000 1.79 85 20:59 01.07.2022
2802 Clear 25 1017 45 10000 0.89 103 20:34 01.07.2022
2803 Clouds 24 1010 49 10000 1.34 27 19:38 01.07.2022
2804 Clouds 19 1017 65 10000 0.89 8 17:18 01.07.2022
2805 Clouds 15 1019 78 10000 0.53 64 14:59 01.07.2022
2806 Clouds 13 1016 79 10000 0.45 301 13:54 01.07.2022
2807 Clouds 15 1016 73 10000 0.89 302 11:22 01.07.2022
2808 Clouds 16 1017 70 10000 0.45 40 10:19 01.07.2022
2809 Clouds 16 1018 65 10000 0.45 181 07:38 01.07.2022
2810 Clouds 20 1013 62 10000 7.52 175 02:43 01.07.2022
2811 Clouds 22 1016 59 10000 3.6 240 00:21 01.07.2022
2812 Clouds 25 1015 48 10000 0.89 322 22:52 30.06.2022
2813 Clouds 25 1015 46 10000 0.89 179 22:32 30.06.2022
2814 Clouds 25 1016 49 10000 1.79 144 21:54 30.06.2022
2815 Clouds 23 1017 54 10000 1.34 169 20:53 30.06.2022
2816 Clouds 27 1011 35 10000 5.71 351 20:21 30.06.2022
2817 Clouds 27 1018 36 10000 1.34 25 19:48 30.06.2022
2818 Clouds 27 1014 37 10000 2.24 56 19:18 30.06.2022
2819 Clouds 27 1015 38 10000 1.34 19 18:34 30.06.2022
2820 Clouds 26 1013 39 10000 1.79 23 17:37 30.06.2022
2821 Clouds 22 1014 55 10000 0.45 5 16:22 30.06.2022
2822 Clouds 20 1012 55 10000 2.4 207 14:20 30.06.2022
2823 Clouds 19 1014 56 10000 0 0 13:29 30.06.2022
2824 Clouds 20 1012 55 10000 1.93 220 12:34 30.06.2022
2825 Clouds 20 1012 56 10000 0.89 108 11:21 30.06.2022
2826 Clouds 19 1013 65 10000 1.79 222 09:52 30.06.2022
2827 Clouds 19 1014 67 10000 5.66 230 09:26 30.06.2022
2828 Clouds 18 1016 72 10000 0.45 191 07:41 30.06.2022
2829 Clouds 21 1016 61 10000 1.79 16 05:46 30.06.2022
2830 Clouds 31 1020 27 10000 1.79 105 00:26 30.06.2022
2831 Clouds 31 1021 22 10000 8.23 340 22:53 29.06.2022
2832 Clouds 32 1008 21 10000 0.89 5 22:33 29.06.2022
2833 Clouds 33 1011 19 10000 1.79 336 20:56 29.06.2022
2834 Clouds 33 1012 19 10000 0.89 30 20:32 29.06.2022
2835 Clouds 33 1013 21 10000 1.34 41 19:33 29.06.2022
2836 Clouds 29 1014 26 10000 0.89 230 17:40 29.06.2022
2837 Clouds 24 1016 35 10000 5.14 210 16:33 29.06.2022
2838 Clouds 19 1016 42 10000 5.14 200 14:19 29.06.2022
2839 Clouds 19 1013 38 10000 0.45 253 12:38 29.06.2022
2840 Clear 21 1013 34 10000 1.34 209 10:20 29.06.2022
2841 Clear 22 1014 32 10000 1.34 192 09:31 29.06.2022
2842 Clouds 23 1015 30 10000 1.34 115 07:23 29.06.2022
2843 Clouds 27 1006 26 10000 0.45 197 04:48 29.06.2022
2844 Clouds 33 1015 16 10000 1.34 61 00:55 29.06.2022
2845 Clouds 33 1014 16 10000 1.34 97 00:35 29.06.2022
2846 Clear 33 1016 15 10000 0.89 151 22:53 28.06.2022
2847 Clear 33 1017 15 10000 2.24 24 22:21 28.06.2022
2848 Clear 33 1017 15 10000 2.24 23 21:50 28.06.2022
2849 Clear 33 1017 15 10000 2.68 14 21:30 28.06.2022
2850 Clear 32 1018 18 10000 1.79 32 20:18 28.06.2022
2851 Clear 31 1018 22 10000 1.34 95 19:32 28.06.2022
2852 Clouds 29 1019 25 10000 2.06 160 18:42 28.06.2022
2853 Clear 27 1019 31 10000 0.89 126 17:37 28.06.2022
2854 Clear 21 1021 41 10000 0.89 112 15:56 28.06.2022
2855 Clear 18 1020 49 10000 1.86 209 14:59 28.06.2022
2856 Clear 16 1023 54 10000 1.95 196 14:19 28.06.2022
2857 Clear 16 1021 54 10000 0.45 192 13:47 28.06.2022
2858 Clear 15 1021 56 10000 0.45 211 12:47 28.06.2022
2859 Clear 16 1026 55 10000 2.02 199 10:44 28.06.2022
2860 Clouds 17 1022 56 10000 2.57 220 08:56 28.06.2022
2861 Clear 17 1022 56 10000 1.5 242 08:38 28.06.2022
2862 Clouds 19 1022 50 10000 0.89 295 07:20 28.06.2022
2863 Clouds 23 1020 33 10000 5.14 330 04:54 28.06.2022
2864 Clear 30 1018 20 10000 1.79 22 23:53 27.06.2022
2865 Clear 30 1019 20 10000 2.68 32 23:28 27.06.2022
2866 Clouds 29 1019 20 10000 5.66 50 22:42 27.06.2022
2867 Clear 28 1020 23 10000 2.24 3 21:30 27.06.2022
2868 Clouds 27 1021 34 10000 1.34 151 20:34 27.06.2022
2869 Clouds 24 1022 42 10000 1.34 169 18:52 27.06.2022
2870 Clouds 22 1021 50 10000 1.34 290 17:45 27.06.2022
2871 Clouds 17 1024 65 10000 0.89 215 15:51 27.06.2022
2872 Clouds 13 1028 79 10000 3.09 190 14:26 27.06.2022
2873 Clouds 13 1028 76 10000 0.87 317 12:59 27.06.2022
2874 Clouds 13 1028 76 10000 0.87 317 12:36 27.06.2022
2875 Clouds 14 1025 72 10000 0.45 298 09:53 27.06.2022
2876 Clouds 15 1024 71 10000 0.89 319 08:43 27.06.2022
2877 Clouds 15 1024 68 10000 6.69 150 07:53 27.06.2022
2878 Clouds 16 1023 65 10000 0.89 306 06:37 27.06.2022
2879 Clouds 18 1024 59 10000 0.45 135 01:26 27.06.2022
2880 Clouds 20 1020 56 10000 5.84 147 23:27 26.06.2022
2881 Clouds 20 1031 56 10000 6.17 170 21:40 26.06.2022
2882 Clouds 19 1022 46 10000 1.32 141 20:34 26.06.2022
2883 Clouds 17 1026 51 10000 0.45 276 19:19 26.06.2022
2884 Clouds 16 1029 55 10000 0.89 5 18:23 26.06.2022
2885 Clouds 14 1028 60 10000 0.89 346 15:38 26.06.2022
2886 Clouds 14 1027 62 10000 1.79 360 14:33 26.06.2022
2887 Clouds 14 1027 67 10000 4.12 320 13:27 26.06.2022
2888 Clouds 14 1026 70 10000 4.12 320 12:37 26.06.2022
2889 Clouds 15 1026 72 10000 1.79 29 10:53 26.06.2022
2890 Clouds 16 1025 72 10000 2.24 8 10:22 26.06.2022
2891 Clouds 16 1025 71 10000 2.68 14 08:45 26.06.2022
2892 Clouds 17 1025 65 10000 1.34 184 06:50 26.06.2022
2893 Clouds 20 1022 51 10000 1.54 350 00:38 26.06.2022
2894 Clouds 21 1022 50 10000 1.34 194 00:19 26.06.2022
2895 Clouds 21 1016 48 10000 0.89 210 23:31 25.06.2022
2896 Clouds 21 1019 46 10000 2.09 140 22:48 25.06.2022
2897 Clouds 20 1028 48 10000 0.89 137 22:25 25.06.2022
2898 Clouds 19 1017 53 10000 0.45 246 21:21 25.06.2022
2899 Clouds 19 1022 51 10000 1.94 127 20:48 25.06.2022
2900 Clouds 17 1022 58 10000 0.89 142 20:25 25.06.2022
2901 Clouds 14 1023 68 10000 0.89 305 18:26 25.06.2022
2902 Clouds 13 1024 74 10000 1.79 347 17:27 25.06.2022
2903 Clouds 13 1023 79 10000 2.24 318 16:29 25.06.2022
2904 Clouds 15 1020 79 10000 2.68 26 14:43 25.06.2022
2905 Clouds 16 1022 59 10000 0.45 9 12:51 25.06.2022
2906 Clouds 16 1015 59 10000 1.51 233 12:31 25.06.2022
2907 Clouds 16 1020 59 10000 1.8 217 09:35 25.06.2022
2908 Clouds 17 1019 59 10000 2.07 227 08:55 25.06.2022
2909 Clouds 17 1019 59 10000 0.45 179 08:20 25.06.2022
2910 Clouds 18 1013 65 10000 2.5 196 06:36 25.06.2022
2911 Clouds 25 1010 40 6560 0.89 130 00:50 25.06.2022
2912 Clouds 25 1005 45 10000 5.64 318 23:57 24.06.2022
2913 Clouds 30 1009 23 10000 3.13 304 22:29 24.06.2022
2914 Clouds 30 1009 24 10000 1.34 80 21:28 24.06.2022
2915 Clouds 30 1010 24 10000 1.34 351 20:23 24.06.2022
2916 Clouds 29 1009 24 10000 1.34 112 19:37 24.06.2022
2917 Clouds 29 1010 25 10000 1.34 56 19:18 24.06.2022
2918 Clouds 28 1009 26 10000 0.89 121 18:31 24.06.2022
2919 Clouds 27 1008 29 10000 2.24 18 17:57 24.06.2022
2920 Clouds 26 1009 32 10000 1.79 305 16:46 24.06.2022
2921 Clouds 18 1017 44 10000 1.93 228 14:32 24.06.2022
2922 Clouds 18 1010 43 10000 2.19 233 13:59 24.06.2022
2923 Clouds 18 1010 45 10000 2.19 233 13:35 24.06.2022
2924 Clouds 18 1010 45 10000 0.45 267 11:41 24.06.2022
2925 Clouds 18 1008 44 10000 0.89 277 10:36 24.06.2022
2926 Clouds 19 1010 42 10000 2.22 213 09:41 24.06.2022
2927 Clouds 20 1009 39 10000 0.89 76 08:53 24.06.2022
2928 Clouds 22 1009 35 10000 2.24 257 07:56 24.06.2022
2929 Clouds 23 1008 31 10000 4.02 309 06:43 24.06.2022
2930 Clouds 24 1008 30 10000 3.13 301 06:20 24.06.2022
2931 Clouds 26 1008 25 10000 5.36 315 04:41 24.06.2022
2932 Clouds 33 1009 12 10000 1.34 97 23:19 23.06.2022
2933 Clouds 32 1009 13 10000 2.24 13 22:40 23.06.2022
2934 Clouds 31 1010 16 10000 3.13 34 20:59 23.06.2022
2935 Clouds 31 1010 17 10000 1.79 327 20:35 23.06.2022
2936 Clouds 29 1011 20 10000 1.79 331 19:40 23.06.2022
2937 Clouds 26 1010 28 10000 0.89 31 17:53 23.06.2022
2938 Clouds 26 1009 29 10000 0.89 355 17:33 23.06.2022
2939 Clouds 22 1011 36 10000 0.89 182 15:57 23.06.2022
2940 Clouds 19 1012 42 10000 1.4 225 15:24 23.06.2022
2941 Clouds 17 1012 41 10000 1.7 212 13:45 23.06.2022
2942 Clear 18 1012 38 10000 2.13 209 11:27 23.06.2022
2943 Clear 18 1013 37 10000 2.13 209 10:37 23.06.2022
2944 Clear 20 1014 34 10000 2.37 206 09:18 23.06.2022
2945 Clouds 27 1014 24 10000 0.89 201 03:39 23.06.2022
2946 Clouds 28 1016 22 10000 0.89 250 00:26 23.06.2022
2947 Clouds 28 1019 23 10000 3.09 90 23:41 22.06.2022
2948 Clouds 28 1016 23 10000 0.89 123 22:41 22.06.2022
2949 Clouds 28 1018 23 10000 1.34 342 21:22 22.06.2022
2950 Clouds 27 1019 24 10000 3.09 60 20:43 22.06.2022
2951 Clouds 26 1019 27 10000 0.89 28 19:56 22.06.2022
2952 Clouds 25 1020 28 10000 0.89 337 18:47 22.06.2022
2953 Clouds 22 1021 33 10000 0.89 36 17:28 22.06.2022
2954 Clouds 19 1021 39 10000 0.89 144 16:29 22.06.2022
2955 Clouds 16 1023 45 10000 0.52 50 15:26 22.06.2022
2956 Clouds 13 1027 49 10000 0.21 0 14:20 22.06.2022
2957 Clouds 13 1026 52 10000 0.36 344 13:39 22.06.2022
2958 Clouds 13 1021 52 10000 0.2 96 13:21 22.06.2022
2959 Clouds 13 1026 49 10000 2.57 180 11:49 22.06.2022
2960 Clouds 14 1026 51 10000 1.07 220 10:57 22.06.2022
2961 Clouds 14 1026 46 10000 1.16 234 10:19 22.06.2022
2962 Clouds 15 1023 42 10000 1.49 195 08:28 22.06.2022
2963 Clouds 20 1021 28 10000 1.79 215 04:50 22.06.2022
2964 Clouds 25 1020 21 10000 3.13 105 01:24 22.06.2022
2965 Clouds 26 1019 22 10000 2.68 176 00:29 22.06.2022
2966 Clouds 25 1020 23 10000 4.02 193 22:19 21.06.2022
2967 Clouds 23 1022 25 10000 3.13 150 19:56 21.06.2022
2968 Clear 22 1020 27 10000 3.13 104 18:35 21.06.2022
2969 Clouds 20 1021 30 10000 3.58 193 17:39 21.06.2022
2970 Clouds 13 1019 43 10000 1.79 181 14:22 21.06.2022
2971 Clouds 15 1018 41 10000 0.89 112 11:49 21.06.2022
2972 Clouds 16 1017 38 10000 0.45 131 10:18 21.06.2022
2973 Clouds 17 1017 34 10000 1.79 164 08:48 21.06.2022
2974 Clouds 20 1014 21 10000 1.79 42 07:23 21.06.2022
2975 Clouds 31 1008 15 10000 7.72 350 01:43 21.06.2022
2976 Clouds 31 1006 17 10000 2.68 294 23:25 20.06.2022
2977 Clouds 30 1007 17 10000 2.68 188 21:55 20.06.2022
2978 Clouds 29 1009 18 10000 2.68 161 20:53 20.06.2022
2979 Clouds 28 1008 21 10000 3.58 210 19:44 20.06.2022
2980 Clouds 26 1008 26 10000 2.68 192 18:48 20.06.2022
2981 Clouds 25 1009 30 10000 2.24 155 18:20 20.06.2022
2982 Clouds 24 1009 36 10000 1.79 175 17:35 20.06.2022
2983 Clouds 20 1009 45 10000 0.45 220 15:57 20.06.2022
2984 Clouds 18 1007 49 10000 0.45 173 13:34 20.06.2022
2985 Clouds 19 1006 42 10000 0.89 231 11:25 20.06.2022
2986 Clouds 21 1006 38 10000 9.77 200 09:47 20.06.2022
2987 Clouds 21 1007 37 10000 2.68 182 08:44 20.06.2022
2988 Clouds 23 1006 36 10000 1.34 170 06:49 20.06.2022
2989 Clouds 27 1004 31 10000 0.89 175 03:20 20.06.2022
2990 Clouds 28 1004 32 10000 1.79 189 00:37 20.06.2022
2991 Clouds 28 995 31 10000 0.45 103 23:24 19.06.2022
2992 Clouds 30 1005 26 10000 1.79 244 22:18 19.06.2022
2993 Clouds 30 1006 29 10000 7.72 190 21:41 19.06.2022
2994 Clouds 29 1004 31 10000 4.25 168 20:46 19.06.2022
2995 Clouds 28 1006 33 10000 0.89 321 19:48 19.06.2022
2996 Clouds 26 1007 38 10000 1.79 179 19:23 19.06.2022
2997 Clouds 26 1007 38 10000 3.13 186 18:31 19.06.2022
2998 Clouds 25 1007 40 10000 1.79 181 17:34 19.06.2022
2999 Clouds 24 1007 42 10000 2.68 221 16:38 19.06.2022
3000 Clouds 22 1008 45 10000 7.2 190 15:44 19.06.2022
3001 Clouds 22 1007 45 10000 1.34 188 15:25 19.06.2022
3002 Clouds 21 1007 45 10000 1.34 185 14:30 19.06.2022
3003 Clouds 21 1007 44 10000 2.24 177 13:43 19.06.2022
3004 Clouds 22 1006 43 10000 2.68 185 11:53 19.06.2022
3005 Clouds 22 1006 43 10000 3.13 178 10:51 19.06.2022
3006 Clouds 23 1008 40 10000 2.24 175 08:55 19.06.2022
3007 Clouds 23 1008 39 10000 2.68 171 08:30 19.06.2022
3008 Clouds 24 1008 38 10000 2.68 171 06:41 19.06.2022
3009 Clouds 27 1006 35 10000 3.13 189 03:19 19.06.2022
3010 Clouds 30 1006 29 10000 1.34 318 00:27 19.06.2022
3011 Clouds 30 1006 27 10000 1.34 263 23:37 18.06.2022
3012 Clouds 31 1006 26 10000 1.79 210 23:19 18.06.2022
3013 Clouds 32 1007 23 10000 1.79 323 21:54 18.06.2022
3014 Clouds 31 1007 25 10000 1.34 24 20:50 18.06.2022
3015 Clouds 30 1007 28 10000 2.68 311 19:50 18.06.2022
3016 Clouds 28 1005 35 10000 1.34 197 18:54 18.06.2022
3017 Clouds 27 1007 38 10000 1.79 209 18:30 18.06.2022
3018 Clouds 26 1007 39 10000 2.68 161 17:28 18.06.2022
3019 Clouds 24 1007 43 10000 2.24 148 15:39 18.06.2022
3020 Clouds 22 1007 47 10000 0.89 214 14:50 18.06.2022
3021 Clouds 20 1007 46 10000 0.89 192 13:54 18.06.2022
3022 Clouds 21 1007 45 10000 5.66 190 12:25 18.06.2022
3023 Clouds 21 1006 42 10000 1.34 192 10:59 18.06.2022
3024 Clouds 22 1005 40 10000 1.79 174 09:29 18.06.2022
3025 Clouds 22 1005 42 10000 0.45 236 08:37 18.06.2022
3026 Clouds 23 1007 43 10000 0.45 215 07:33 18.06.2022
3027 Clouds 26 1006 37 10000 0.89 120 04:43 18.06.2022
3028 Clouds 34 1004 14 10000 1.79 186 01:27 18.06.2022
3029 Clouds 35 1003 15 10000 2.24 0 00:55 18.06.2022
3030 Clouds 35 1005 15 10000 3.58 115 00:22 18.06.2022
3031 Clouds 35 1005 16 10000 2.24 68 23:33 17.06.2022
3032 Clouds 34 1008 20 10000 7.72 130 21:57 17.06.2022
3033 Clouds 32 1010 31 10000 10.29 120 20:29 17.06.2022
3034 Clear 29 1010 40 10000 1.34 101 19:19 17.06.2022
3035 Clear 26 1008 51 10000 0.89 106 17:47 17.06.2022
3036 Clouds 23 1011 59 10000 3.6 220 16:44 17.06.2022
3037 Clear 22 1013 61 10000 0.89 85 16:21 17.06.2022
3038 Clear 20 1010 70 10000 0.45 229 15:37 17.06.2022
3039 Clear 17 1012 80 10000 0.45 217 14:23 17.06.2022
3040 Clear 17 1012 81 10000 1.48 331 13:57 17.06.2022
3041 Clear 17 1012 80 10000 1.14 337 13:37 17.06.2022
3042 Clear 19 1012 76 10000 0.89 294 12:20 17.06.2022
3043 Clear 19 1013 73 10000 0.89 325 11:49 17.06.2022
3044 Clear 20 1013 72 10000 0.89 32 11:30 17.06.2022
3045 Clear 23 1012 48 10000 2.68 58 08:45 17.06.2022
3046 Clouds 23 1013 47 10000 2.24 292 08:24 17.06.2022
3047 Clouds 25 1011 40 10000 1.34 284 06:35 17.06.2022
3048 Clouds 31 1009 23 10000 2.68 320 03:25 17.06.2022
3049 Clouds 34 1010 20 10000 5.14 150 01:27 17.06.2022
3050 Clear 33 1011 20 10000 1.79 26 23:30 16.06.2022
3051 Clear 32 1012 21 10000 1.34 28 22:38 16.06.2022
3052 Clear 32 1012 21 10000 1.34 342 22:38 16.06.2022
3053 Clear 30 1014 24 10000 1.34 68 21:19 16.06.2022
3054 Clear 29 1015 25 10000 0.89 34 20:50 16.06.2022
3055 Clear 28 1015 26 10000 1.34 75 19:59 16.06.2022
3056 Clear 26 1015 28 10000 1.34 320 18:48 16.06.2022
3057 Clear 24 1015 28 10000 0.89 41 17:49 16.06.2022
3058 Clear 24 1015 29 10000 0.89 41 17:49 16.06.2022
3059 Clear 23 1016 29 10000 2.06 300 17:27 16.06.2022
3060 Clear 21 1017 32 10000 0.89 100 16:19 16.06.2022
3061 Clear 17 1016 39 10000 3.09 220 15:21 16.06.2022
3062 Clear 15 1012 41 10000 1.34 282 14:22 16.06.2022
3063 Clear 15 1017 42 10000 3.6 210 12:53 16.06.2022
3064 Clear 15 1020 39 10000 0.45 204 12:34 16.06.2022
3065 Clear 16 1012 39 10000 1.43 331 11:48 16.06.2022
3066 Clear 17 1014 37 10000 1.34 316 10:41 16.06.2022
3067 Clear 18 1012 37 10000 0.89 298 09:43 16.06.2022
3068 Clear 18 1013 36 10000 1.45 333 08:56 16.06.2022
3069 Clear 20 1013 33 10000 0.48 44 07:41 16.06.2022
3070 Clear 22 1010 25 10000 0.89 157 05:51 16.06.2022
3071 Clear 28 1010 12 10000 0.89 96 03:56 16.06.2022
3072 Clear 31 1009 12 10000 1.34 85 01:52 16.06.2022
3073 Clear 31 1009 12 10000 1.79 110 01:22 16.06.2022
3074 Clear 31 1009 13 10000 1.79 128 00:22 16.06.2022
3075 Clear 30 1009 12 10000 3.09 340 22:53 15.06.2022
3076 Clear 29 1009 15 10000 1.79 300 21:37 15.06.2022
3077 Clear 28 1009 16 10000 1.79 356 20:59 15.06.2022
3078 Clear 27 1010 17 10000 2.24 65 20:36 15.06.2022
3079 Clear 26 1009 19 10000 1.79 32 19:57 15.06.2022
3080 Clear 24 1009 25 10000 1.79 32 18:37 15.06.2022
3081 Clear 22 1009 32 10000 2.24 219 17:46 15.06.2022
3082 Clear 17 1010 47 10000 2.24 182 16:23 15.06.2022
3083 Clear 14 1010 57 10000 0.89 172 15:19 15.06.2022
3084 Clear 11 1011 64 10000 0.45 206 13:29 15.06.2022
3085 Clouds 11 1011 65 10000 2.06 240 12:47 15.06.2022
3086 Clear 11 1008 63 10000 0.45 287 11:25 15.06.2022
3087 Clear 12 1007 60 10000 1.54 230 10:22 15.06.2022
3088 Clear 13 1008 53 10000 1.34 40 08:59 15.06.2022
3089 Clear 15 1008 50 10000 0.89 334 07:43 15.06.2022
3090 Clear 18 1006 39 10000 4.02 42 05:57 15.06.2022
3091 Clouds 27 1002 24 10000 5.14 10 02:54 15.06.2022
3092 Clouds 28 1001 23 10000 3.13 7 01:36 15.06.2022
3093 Clouds 28 1001 22 10000 3.13 31 00:36 15.06.2022
3094 Clouds 28 1001 23 10000 3.58 20 23:38 14.06.2022
3095 Clouds 28 1001 23 10000 2.68 35 22:47 14.06.2022
3096 Clouds 27 1001 26 10000 2.68 7 21:43 14.06.2022
3097 Clouds 27 1002 28 10000 1.79 298 21:20 14.06.2022
3098 Clouds 26 1002 30 10000 2.24 32 20:40 14.06.2022
3099 Clouds 24 1004 31 10000 1.34 125 19:58 14.06.2022
3100 Clouds 22 1003 29 10000 2.2 41 18:40 14.06.2022
3101 Clear 19 1004 40 10000 2.24 79 17:19 14.06.2022
3102 Clear 19 1004 42 10000 1.34 28 16:42 14.06.2022
3103 Clear 16 1005 47 10000 0.89 186 15:43 14.06.2022
3104 Clear 14 1002 52 10000 0.89 326 14:56 14.06.2022
3105 Clear 13 1002 54 10000 1.79 188 14:18 14.06.2022
3106 Clear 14 1004 49 10000 0.45 165 13:24 14.06.2022
3107 Clouds 15 1002 46 10000 6.17 130 11:58 14.06.2022
3108 Clear 15 1000 44 10000 1.34 192 10:55 14.06.2022
3109 Clear 15 1001 42 10000 1.79 175 10:29 14.06.2022
3110 Clear 17 1001 40 10000 0.89 124 09:22 14.06.2022
3111 Clear 18 1000 36 10000 1.79 144 08:40 14.06.2022
3112 Clouds 26 997 23 10000 3.13 65 06:32 14.06.2022
3113 Clouds 30 992 17 10000 0.89 267 04:23 14.06.2022
3114 Clouds 36 992 9 10000 2.68 306 01:38 14.06.2022
3115 Clear 36 993 10 10000 3.13 186 00:24 14.06.2022
3116 Clear 36 995 9 10000 4.12 190 22:58 13.06.2022
3117 Clear 36 994 10 10000 2.68 256 22:23 13.06.2022
3118 Clear 35 995 11 10000 2.68 243 21:39 13.06.2022
3119 Clear 33 997 12 10000 1.79 74 19:59 13.06.2022
3120 Clear 32 998 15 10000 1.34 90 18:54 13.06.2022
3121 Clear 30 998 18 10000 0.89 112 17:56 13.06.2022
3122 Clouds 28 1000 22 10000 7.2 200 17:24 13.06.2022
3123 Clear 27 996 25 10000 0.45 259 16:30 13.06.2022
3124 Clear 21 993 29 10000 3.25 200 14:51 13.06.2022
3125 Clouds 20 1003 29 10000 6.69 200 14:31 13.06.2022
3126 Clear 20 1006 27 10000 0.45 249 13:33 13.06.2022
3127 Clear 21 1000 26 10000 3.35 208 12:22 13.06.2022
3128 Clear 21 1000 28 10000 0.89 210 10:37 13.06.2022
3129 Clear 21 1000 28 10000 0.45 123 09:54 13.06.2022
3130 Clear 22 1002 30 10000 0.45 179 08:40 13.06.2022
3131 Clouds 23 1002 36 10000 0.45 282 06:36 13.06.2022
3132 Clouds 26 998 32 10000 0.45 191 04:43 13.06.2022
3133 Clouds 30 1002 26 10000 0.89 36 01:55 13.06.2022
3134 Clouds 30 1002 23 10000 1.34 41 01:34 13.06.2022
3135 Clouds 33 1000 19 10000 2.24 0 23:48 12.06.2022
3136 Clouds 31 1003 23 10000 1.34 267 22:39 12.06.2022
3137 Clouds 31 1003 24 10000 0.89 301 21:46 12.06.2022
3138 Clouds 32 1002 25 10000 2.06 110 20:53 12.06.2022
3139 Clear 32 999 26 10000 0.45 103 19:58 12.06.2022
3140 Clear 30 1005 30 10000 1.34 274 19:25 12.06.2022
3141 Clear 28 1003 33 10000 2.26 120 17:36 12.06.2022
3142 Clear 24 1008 38 10000 0.89 28 15:52 12.06.2022
3143 Clear 21 1013 40 10000 0.45 341 14:50 12.06.2022
3144 Clouds 20 997 42 10000 2.33 199 14:18 12.06.2022
3145 Clouds 19 1013 41 10000 2.33 199 13:45 12.06.2022
3146 Clouds 20 1006 39 10000 0.8 245 12:28 12.06.2022
3147 Clouds 21 1004 35 10000 0.89 274 10:46 12.06.2022
3148 Clouds 22 1003 34 10000 2.67 297 09:42 12.06.2022
3149 Clouds 23 1003 32 10000 0.45 265 08:50 12.06.2022
3150 Clouds 25 1003 30 10000 2.4 213 07:52 12.06.2022
3151 Clouds 27 994 23 10000 0.89 139 06:27 12.06.2022
3152 Clouds 30 1003 24 10000 0.45 28 04:26 12.06.2022
3153 Clouds 34 1003 17 10000 7.56 180 02:27 12.06.2022
3154 Clouds 36 1003 15 10000 0.45 106 01:35 12.06.2022
3155 Clouds 36 1003 13 10000 1.79 182 00:48 12.06.2022
3156 Clouds 37 1003 13 10000 1.79 241 00:19 12.06.2022
3157 Clouds 37 1004 13 10000 1.79 229 23:21 11.06.2022
3158 Clouds 36 1004 14 10000 1.34 268 22:37 11.06.2022
3159 Clear 35 1005 16 10000 0.89 155 21:18 11.06.2022
3160 Clear 35 1006 17 10000 0.89 101 20:27 11.06.2022
3161 Clear 34 1007 18 10000 0.89 196 19:36 11.06.2022
3162 Clear 32 1007 24 10000 1.79 151 18:45 11.06.2022
3163 Clear 31 1008 26 10000 1.79 186 18:26 11.06.2022
3164 Clear 30 1008 30 10000 2.24 175 17:48 11.06.2022
3165 Clear 28 1008 33 10000 2.24 171 17:26 11.06.2022
3166 Clear 27 1007 36 10000 1.34 215 16:43 11.06.2022
3167 Clear 25 1010 39 10000 1.34 184 16:18 11.06.2022
3168 Clear 21 1010 43 10000 2.75 208 14:44 11.06.2022
3169 Clouds 19 1009 49 10000 2.07 232 13:52 11.06.2022
3170 Clouds 19 1015 48 10000 0.73 237 12:19 11.06.2022
3171 Clouds 19 1015 48 10000 0.73 237 12:19 11.06.2022
3172 Clouds 21 1012 46 10000 2.45 228 10:31 11.06.2022
3173 Clouds 21 1009 46 10000 0.89 223 09:41 11.06.2022
3174 Clouds 22 1011 46 10000 6.69 190 08:38 11.06.2022
3175 Clouds 24 1009 39 10000 0.89 184 06:33 11.06.2022
3176 Clouds 25 1008 37 10000 0.45 172 05:44 11.06.2022
3177 Clouds 31 1008 23 10000 0.89 126 03:18 11.06.2022
3178 Clouds 33 1008 22 10000 1.34 167 01:51 11.06.2022
3179 Clouds 33 1009 22 10000 1.79 141 01:25 11.06.2022
3180 Clouds 32 1009 23 10000 2.68 44 23:26 10.06.2022
3181 Clouds 32 1009 24 10000 1.79 329 22:20 10.06.2022
3182 Clouds 31 1009 25 10000 1.79 24 21:27 10.06.2022
3183 Clouds 31 1010 25 10000 1.79 27 20:38 10.06.2022
3184 Clouds 30 1010 26 10000 1.79 352 20:19 10.06.2022
3185 Clouds 30 1010 26 10000 1.79 352 20:19 10.06.2022
3186 Clouds 29 1011 33 10000 0.89 138 19:19 10.06.2022
3187 Clouds 27 1011 37 10000 0.45 113 18:30 10.06.2022
3188 Clouds 25 1012 41 10000 0.89 67 17:43 10.06.2022
3189 Clouds 24 1012 45 10000 0.89 145 17:21 10.06.2022
3190 Clouds 21 1013 53 10000 0.89 117 16:25 10.06.2022
3191 Clouds 19 1014 57 10000 0.45 322 15:38 10.06.2022
3192 Clouds 14 1017 69 10000 3.6 180 13:58 10.06.2022
3193 Clouds 14 1016 71 10000 0.64 58 12:51 10.06.2022
3194 Clouds 15 1015 69 10000 0.89 23 11:53 10.06.2022
3195 Clouds 16 1014 66 10000 1.37 0 10:45 10.06.2022
3196 Clear 17 1013 62 10000 0.45 295 09:54 10.06.2022
3197 Clear 19 1013 55 10000 0.89 326 08:44 10.06.2022
3198 Clouds 19 1014 46 10000 1.79 281 07:30 10.06.2022
3199 Clouds 20 1011 44 10000 0.45 19 06:45 10.06.2022
3200 Clouds 20 1011 44 10000 2.19 166 06:26 10.06.2022
3201 Clouds 27 1008 26 10000 2.68 61 03:56 10.06.2022
3202 Clouds 29 1008 24 10000 0.89 267 01:42 10.06.2022
3203 Clouds 30 1008 23 10000 0.45 121 00:32 10.06.2022
3204 Clouds 31 1008 23 10000 1.34 139 23:47 09.06.2022
3205 Clouds 31 1008 21 10000 1.34 188 22:18 09.06.2022
3206 Clouds 30 1009 22 10000 0.89 186 21:33 09.06.2022
3207 Clouds 29 1009 25 10000 1.79 61 20:54 09.06.2022
3208 Clouds 28 1009 30 10000 1.34 106 20:21 09.06.2022
3209 Clouds 26 1018 40 10000 2.57 190 19:21 09.06.2022
3210 Clouds 23 1009 50 10000 1.03 20 18:28 09.06.2022
3211 Clouds 18 1010 32 10000 0.57 345 16:51 09.06.2022
3212 Clouds 18 1010 47 10000 1.84 195 15:48 09.06.2022
3213 Clouds 16 1018 62 10000 1.18 196 14:35 09.06.2022
3214 Clouds 15 1011 62 10000 0.45 277 13:54 09.06.2022
3215 Clouds 15 1010 63 10000 0.45 357 13:28 09.06.2022
3216 Clouds 16 1010 62 10000 0.89 311 11:54 09.06.2022
3217 Clouds 16 1010 62 10000 0.45 199 11:18 09.06.2022
3218 Clouds 16 1011 59 10000 0.89 50 09:44 09.06.2022
3219 Clear 17 1011 58 10000 1.34 186 09:24 09.06.2022
3220 Clear 17 1012 53 10000 1.34 193 07:52 09.06.2022
3221 Clouds 19 1013 47 10000 5.14 170 06:33 09.06.2022
3222 Clear 25 1010 31 10000 2.68 328 02:52 09.06.2022
3223 Clear 27 1012 28 10000 1.79 3 23:48 08.06.2022
3224 Clouds 26 1013 28 10000 4.12 80 22:58 08.06.2022
3225 Clear 26 1013 29 10000 1.34 346 22:27 08.06.2022
3226 Clear 25 1013 30 10000 1.34 85 21:55 08.06.2022
3227 Clear 25 1014 31 10000 1.79 360 21:21 08.06.2022
3228 Clouds 23 1015 34 10000 1.79 111 20:21 08.06.2022
3229 Clouds 22 1015 37 10000 2.24 180 19:38 08.06.2022
3230 Clouds 20 1016 40 10000 1.79 169 18:45 08.06.2022
3231 Clouds 17 1017 44 10000 1.79 193 17:18 08.06.2022
3232 Clouds 14 1019 57 10000 2.06 130 15:44 08.06.2022
3233 Clouds 12 1018 69 10000 0.86 51 13:51 08.06.2022
3234 Clouds 13 1018 63 10000 0.45 296 12:20 08.06.2022
3235 Clouds 13 1018 62 10000 1.34 85 11:33 08.06.2022
3236 Clouds 14 1018 62 10000 1.34 69 09:59 08.06.2022
3237 Clouds 14 1018 64 10000 1.79 47 09:21 08.06.2022
3238 Clouds 14 1018 65 10000 2.57 10 08:26 08.06.2022
3239 Clouds 17 1015 58 10000 3.58 24 05:55 08.06.2022
3240 Clouds 24 1009 35 10000 2.24 69 03:55 08.06.2022
3241 Clouds 27 1007 35 10000 1.79 5 00:38 08.06.2022
3242 Clouds 26 1009 40 10000 5.14 20 23:28 07.06.2022
3243 Clouds 26 1009 43 10000 2.68 313 22:45 07.06.2022
3244 Clouds 25 1010 45 10000 3.6 30 22:23 07.06.2022
3245 Clouds 24 1010 46 10000 0.89 69 21:33 07.06.2022
3246 Clouds 23 1010 49 10000 2.57 80 20:58 07.06.2022
3247 Clouds 22 1010 51 10000 1.34 355 20:32 07.06.2022
3248 Clouds 21 1011 53 10000 1.34 21 19:38 07.06.2022
3249 Clouds 19 1012 60 10000 1.34 296 18:22 07.06.2022
3250 Clouds 17 1013 66 10000 1.34 122 17:25 07.06.2022
3251 Clouds 16 1013 71 10000 0.89 102 16:42 07.06.2022
3252 Clouds 14 1014 77 10000 2.06 280 15:44 07.06.2022
3253 Clouds 14 1014 78 10000 2.06 280 15:24 07.06.2022
3254 Clouds 13 1014 80 10000 0.45 328 14:46 07.06.2022
3255 Clear 13 1013 80 10000 0.45 335 14:27 07.06.2022
3256 Clear 13 1013 79 10000 0.45 320 13:30 07.06.2022
3257 Clear 13 1013 79 10000 1.34 5 12:45 07.06.2022
3258 Clear 13 1012 80 10000 2.24 333 11:37 07.06.2022
3259 Clear 14 1012 71 10000 2.68 5 10:26 07.06.2022
3260 Clear 15 1010 64 10000 0.89 169 08:49 07.06.2022
3261 Clear 15 1010 64 10000 0.89 169 08:49 07.06.2022
3262 Clear 15 1010 64 10000 0.89 169 08:49 07.06.2022
3263 Clear 15 1010 64 10000 0.89 169 08:49 07.06.2022
3264 Clouds 16 1008 61 10000 2.82 174 07:32 07.06.2022
3265 Clouds 18 1009 54 10000 4.12 180 05:56 07.06.2022
3266 Clouds 19 1008 51 10000 3.6 170 03:22 07.06.2022
3267 Clouds 20 1004 61 10000 2.68 333 00:44 07.06.2022
3268 Clouds 24 1013 40 10000 0 0 23:35 06.06.2022
3269 Clouds 25 1006 38 10000 0.45 335 22:47 06.06.2022
3270 Clouds 25 1007 36 10000 0.89 90 21:49 06.06.2022
3271 Clouds 24 1008 43 10000 1.34 217 20:21 06.06.2022
3272 Clouds 22 1008 48 10000 0.89 185 19:23 06.06.2022
3273 Clouds 22 1007 49 10000 0.89 64 18:47 06.06.2022
3274 Clouds 21 1008 51 10000 1.79 20 17:55 06.06.2022
3275 Clear 19 1007 54 10000 0.45 33 16:48 06.06.2022
3276 Clear 17 1014 60 10000 0.45 329 15:44 06.06.2022
3277 Clouds 15 1010 65 10000 0.89 188 14:57 06.06.2022
3278 Clouds 13 1007 68 10000 0.45 193 13:40 06.06.2022
3279 Clouds 14 1008 69 10000 1.28 244 12:59 06.06.2022
3280 Clouds 14 1006 66 10000 3.09 180 12:27 06.06.2022
3281 Clouds 15 1005 65 10000 0.89 193 11:45 06.06.2022
3282 Clouds 16 1005 62 10000 0.45 193 09:46 06.06.2022
3283 Clouds 17 1005 61 10000 0.45 207 08:36 06.06.2022
3284 Clouds 18 1005 60 10000 1.84 189 07:43 06.06.2022
3285 Clouds 18 1006 58 10000 0.45 319 06:43 06.06.2022
3286 Clouds 20 1005 46 10000 0.89 356 04:36 06.06.2022
3287 Clouds 26 1001 27 10000 2.24 56 01:30 06.06.2022
3288 Clouds 26 1003 27 10000 4.12 310 00:55 06.06.2022
3289 Clouds 27 1002 25 10000 3.13 299 00:33 06.06.2022
3290 Clouds 28 1002 24 10000 2.57 290 22:58 05.06.2022
3291 Clouds 27 1002 25 10000 3.6 30 21:59 05.06.2022
3292 Clouds 26 1004 29 10000 1.34 189 20:23 05.06.2022
3293 Clouds 24 1004 35 10000 1.34 213 18:51 05.06.2022
3294 Clouds 22 1005 40 10000 0.89 84 17:59 05.06.2022
3295 Clouds 22 1003 41 10000 1.34 22 17:38 05.06.2022
3296 Clouds 21 1006 47 10000 0.45 173 17:19 05.06.2022
3297 Clouds 20 1005 48 10000 1.89 332 16:47 05.06.2022
3298 Clouds 17 1006 57 10000 0.45 103 15:22 05.06.2022
3299 Clouds 16 1007 60 10000 2.57 140 13:55 05.06.2022
3300 Clouds 16 1003 61 10000 2.55 211 11:58 05.06.2022
3301 Clouds 16 1004 62 10000 2.06 210 10:45 05.06.2022
3302 Clouds 16 1008 61 10000 2.38 234 10:24 05.06.2022
3303 Clouds 16 1008 61 10000 3.09 160 09:29 05.06.2022
3304 Clouds 16 1003 59 10000 0.45 271 08:22 05.06.2022
3305 Clouds 19 1005 50 10000 0.89 114 05:58 05.06.2022
3306 Clouds 19 1004 48 10000 0.89 122 05:19 05.06.2022
3307 Clouds 24 1001 32 10000 3.13 17 02:23 05.06.2022
3308 Clouds 28 1005 21 10000 2.24 292 01:23 05.06.2022
3309 Clouds 28 1004 20 10000 1.79 350 01:23 05.06.2022
3310 Clouds 29 1004 19 10000 2.24 26 22:49 04.06.2022
3311 Clouds 28 1005 19 10000 2.24 185 21:25 04.06.2022
3312 Clouds 26 1006 30 10000 2.06 220 19:26 04.06.2022
3313 Clouds 20 1013 46 10000 0.89 121 16:48 04.06.2022
3314 Clouds 17 1008 57 10000 0.89 237 16:20 04.06.2022
3315 Clouds 16 1007 56 10000 2.26 211 15:35 04.06.2022
3316 Clear 11 1013 77 10000 2.43 204 13:59 04.06.2022
3317 Clouds 12 1011 72 10000 3.6 190 11:38 04.06.2022
3318 Clouds 12 1008 72 10000 0.89 180 10:52 04.06.2022
3319 Clouds 13 1010 72 10000 3.09 200 09:47 04.06.2022
3320 Clear 13 1011 72 10000 0.82 332 08:59 04.06.2022
3321 Clear 13 1011 72 10000 0.45 155 08:37 04.06.2022
3322 Clouds 15 1008 63 10000 1.51 148 06:25 04.06.2022
3323 Clouds 20 1002 44 10000 0.45 27 03:52 04.06.2022
3324 Clouds 23 1008 41 10000 6.69 100 00:22 04.06.2022
3325 Clouds 22 1008 47 10000 2.24 345 22:56 03.06.2022
3326 Clouds 23 1007 47 10000 2.24 329 21:52 03.06.2022
3327 Clouds 23 1009 46 10000 1.34 231 20:40 03.06.2022
3328 Clouds 21 1009 50 10000 1.34 69 19:33 03.06.2022
3329 Clouds 17 1010 60 10000 0.89 10 16:56 03.06.2022
3330 Clear 15 1012 69 10000 0.45 182 15:52 03.06.2022
3331 Clouds 11 1014 82 10000 0 0 14:25 03.06.2022
3332 Clear 11 1013 80 10000 1.39 231 12:21 03.06.2022
3333 Clear 13 1013 73 10000 0.45 194 09:57 03.06.2022
3334 Clear 13 1013 72 10000 0.45 71 09:29 03.06.2022
3335 Clear 14 1013 67 10000 0.45 267 07:45 03.06.2022
3336 Clear 15 1012 63 10000 0.89 260 06:49 03.06.2022
3337 Clear 16 1013 62 10000 1.34 287 06:27 03.06.2022
3338 Clouds 19 1013 50 10000 4.12 80 03:39 03.06.2022
3339 Clouds 21 1013 45 10000 2.68 4 23:52 02.06.2022
3340 Clear 21 1014 47 10000 2.68 25 22:23 02.06.2022
3341 Clear 19 1015 53 10000 2.24 24 20:38 02.06.2022
3342 Clear 18 1015 55 10000 1.34 76 19:56 02.06.2022
3343 Clouds 18 1016 56 10000 2.06 40 19:38 02.06.2022
3344 Clear 16 1016 61 10000 1.34 98 18:41 02.06.2022
3345 Clear 12 1018 74 10000 0.89 40 16:28 02.06.2022
3346 Clear 11 1018 79 10000 0.89 44 15:47 02.06.2022
3347 Clouds 7 1018 88 10000 0.5 168 13:31 02.06.2022
3348 Clouds 7 1018 88 10000 2.57 190 12:49 02.06.2022
3349 Clouds 9 1018 85 10000 1.57 169 10:36 02.06.2022
3350 Clear 10 1019 82 10000 0.45 310 09:30 02.06.2022
3351 Clear 10 1019 80 10000 0.45 144 08:44 02.06.2022
3352 Clouds 10 1019 80 10000 0.21 157 08:23 02.06.2022
3353 Clouds 11 1020 76 10000 1.37 348 06:21 02.06.2022
3354 Clouds 12 1019 73 10000 1.34 22 03:50 02.06.2022
3355 Clouds 14 1019 67 10000 1.34 350 00:47 02.06.2022
3356 Clouds 13 1020 68 10000 0.89 314 22:57 01.06.2022
3357 Clouds 12 1022 72 10000 1.34 36 21:59 01.06.2022
3358 Clouds 11 1022 75 10000 0.45 103 21:24 01.06.2022
3359 Clouds 10 1023 79 10000 0.89 185 20:38 01.06.2022
3360 Clouds 9 1023 83 10000 0.89 198 19:51 01.06.2022
3361 Clouds 7 1024 89 10000 0.45 181 18:28 01.06.2022
3362 Clouds 5 1024 93 10000 1.12 111 16:56 01.06.2022
3363 Rain 5 1024 93 10000 2.57 150 15:42 01.06.2022
3364 Clouds 4 1024 93 10000 2.01 169 14:46 01.06.2022
3365 Rain 4 1024 93 10000 0.89 173 13:18 01.06.2022
3366 Rain 5 1023 92 10000 0.47 132 10:44 01.06.2022
3367 Rain 5 1023 92 3512 0.89 34 09:28 01.06.2022
3368 Rain 5 1024 92 10000 6.17 340 07:59 01.06.2022
3369 Rain 6 1023 91 7687 0.45 331 07:20 01.06.2022
3370 Rain 8 1020 89 5183 0.89 267 03:22 01.06.2022
3371 Clouds 11 1017 73 8159 1.79 335 23:47 31.05.2022
3372 Clouds 13 1016 62 10000 5.14 80 22:38 31.05.2022
3373 Clouds 13 1016 56 10000 2.24 319 22:19 31.05.2022
3374 Clouds 16 1014 40 10000 3.13 60 21:23 31.05.2022
3375 Clouds 16 1014 40 10000 2.68 47 20:42 31.05.2022
3376 Clouds 16 1014 43 10000 1.79 52 19:22 31.05.2022
3377 Clouds 14 1014 47 10000 2.24 88 18:19 31.05.2022
3378 Clouds 13 1015 48 10000 1.79 140 17:37 31.05.2022
3379 Clouds 10 1014 55 10000 0.89 109 15:42 31.05.2022
3380 Clouds 9 1014 58 10000 0.89 185 15:22 31.05.2022
3381 Clear 8 1011 56 10000 1.34 197 12:39 31.05.2022
3382 Clouds 8 1011 55 10000 0.89 130 12:18 31.05.2022
3383 Clear 7 1010 52 10000 0.45 192 09:53 31.05.2022
3384 Clouds 9 1007 45 10000 0.45 270 07:43 31.05.2022
3385 Clouds 12 1007 34 10000 0.45 254 05:38 31.05.2022
3386 Clouds 15 1006 26 10000 2.68 251 03:41 31.05.2022
3387 Clouds 19 1001 20 10000 3.58 282 23:39 30.05.2022
3388 Clouds 19 1001 20 10000 3.58 270 23:18 30.05.2022
3389 Clouds 18 1000 22 10000 7.2 300 22:32 30.05.2022
3390 Clouds 18 1000 23 10000 4.47 287 21:37 30.05.2022
3391 Clouds 17 1001 24 10000 4.02 287 20:41 30.05.2022
3392 Clouds 16 999 26 10000 4.02 291 19:38 30.05.2022
3393 Clouds 13 1003 37 10000 5.59 296 17:44 30.05.2022
3394 Clouds 12 999 40 10000 1.34 86 17:18 30.05.2022
3395 Clouds 11 999 52 10000 1.34 261 15:44 30.05.2022
3396 Clouds 8 997 77 10000 0.45 320 12:58 30.05.2022
3397 Clouds 10 998 76 10000 4.63 140 11:26 30.05.2022
3398 Clouds 11 997 72 10000 0.45 19 09:41 30.05.2022
3399 Clouds 11 997 80 10000 1.79 353 07:29 30.05.2022
3400 Clouds 11 997 75 10000 0.45 36 05:52 30.05.2022
3401 Rain 15 995 57 10000 2.68 320 03:18 30.05.2022
3402 Clouds 21 992 37 10000 6.69 60 23:32 29.05.2022
3403 Clouds 20 990 44 10000 1.34 39 22:40 29.05.2022
3404 Rain 21 991 31 10000 3.78 344 21:40 29.05.2022
3405 Clouds 23 993 32 10000 7.2 150 19:57 29.05.2022
3406 Clouds 22 993 33 10000 4.02 194 19:28 29.05.2022
3407 Clouds 20 995 38 10000 2.68 162 17:48 29.05.2022
3408 Clouds 16 997 47 10000 2.41 108 15:50 29.05.2022
3409 Clouds 15 1000 51 10000 0.45 173 15:32 29.05.2022
3410 Clouds 12 999 56 10000 0.54 171 14:31 29.05.2022
3411 Clouds 14 996 46 10000 0.45 296 11:55 29.05.2022
3412 Clouds 14 995 41 10000 0.45 80 10:44 29.05.2022
3413 Clouds 15 997 39 10000 0.45 350 09:52 29.05.2022
3414 Clouds 17 997 29 10000 4.12 220 07:28 29.05.2022
3415 Clouds 22 996 20 10000 1.34 288 04:50 29.05.2022
3416 Clouds 23 996 18 10000 0.45 355 04:31 29.05.2022
3417 Clouds 28 995 18 10000 1.79 5 00:35 29.05.2022
3418 Clouds 29 995 15 10000 8.75 200 23:42 28.05.2022
3419 Clouds 29 996 14 10000 0.89 30 22:56 28.05.2022
3420 Clouds 29 996 15 10000 1.79 124 21:45 28.05.2022
3421 Clouds 27 998 18 10000 7.72 190 20:30 28.05.2022
3422 Clouds 26 999 26 10000 1.34 153 19:18 28.05.2022
3423 Clouds 22 1000 29 10000 2.49 196 17:48 28.05.2022
3424 Clouds 20 1002 30 10000 2.12 207 16:53 28.05.2022
3425 Clouds 18 1003 30 10000 1.97 213 15:44 28.05.2022
3426 Clouds 16 1004 34 10000 2.08 222 15:19 28.05.2022
3427 Clouds 14 1010 42 10000 3.6 180 13:26 28.05.2022
3428 Clouds 14 1010 43 10000 2.38 220 12:41 28.05.2022
3429 Clear 15 1011 39 10000 1.52 253 11:27 28.05.2022
3430 Clear 15 1003 39 10000 0.45 264 10:32 28.05.2022
3431 Clear 15 1007 41 10000 0.45 155 09:39 28.05.2022
3432 Clouds 17 1007 38 10000 0.45 217 07:53 28.05.2022
3433 Clouds 19 1006 35 10000 0.89 236 06:32 28.05.2022
3434 Clouds 25 1005 24 10000 0.45 94 04:21 28.05.2022
3435 Clouds 29 1004 17 10000 3.58 316 00:50 28.05.2022
3436 Clouds 28 1004 19 10000 0.89 37 23:42 27.05.2022
3437 Clouds 29 1007 18 10000 0.89 41 22:24 27.05.2022
3438 Clouds 31 1007 15 10000 1.34 99 20:58 27.05.2022
3439 Clouds 31 1006 15 10000 1.34 175 20:31 27.05.2022
3440 Clouds 31 1007 16 10000 1.34 97 19:56 27.05.2022
3441 Clouds 30 1008 18 10000 1.34 126 19:34 27.05.2022
3442 Clouds 28 1009 24 10000 2.24 229 18:37 27.05.2022
3443 Clouds 22 1012 32 10000 0.89 217 16:42 27.05.2022
3444 Clouds 19 1014 39 10000 0.89 180 15:44 27.05.2022
3445 Clouds 16 1017 41 10000 0.45 200 14:45 27.05.2022
3446 Clouds 14 1011 46 10000 2.59 206 13:35 27.05.2022
3447 Clouds 15 1014 42 10000 2.42 212 11:43 27.05.2022
3448 Clouds 15 1012 41 10000 2.3 216 11:25 27.05.2022
3449 Clouds 16 1013 42 10000 2.3 216 10:35 27.05.2022
3450 Clouds 16 1012 41 10000 2.54 217 09:42 27.05.2022
3451 Clouds 17 1014 40 10000 0.45 198 08:24 27.05.2022
3452 Clouds 18 1013 37 10000 0.45 247 06:50 27.05.2022
3453 Clouds 27 1012 18 10000 1.34 8 02:56 27.05.2022
3454 Clouds 28 1012 16 10000 1.79 173 00:53 27.05.2022
3455 Clouds 27 1013 18 10000 1.79 128 22:50 26.05.2022
3456 Clouds 27 1014 19 10000 2.24 106 21:43 26.05.2022
3457 Clouds 26 1014 20 10000 1.79 51 20:59 26.05.2022
3458 Clear 24 1014 22 10000 1.79 179 19:27 26.05.2022
3459 Clear 22 1015 27 10000 1.34 163 18:21 26.05.2022
3460 Clear 18 1015 39 10000 1.34 205 16:58 26.05.2022
3461 Clear 14 1015 50 10000 0.45 155 15:49 26.05.2022
3462 Clear 11 1016 54 10000 1.91 219 14:48 26.05.2022
3463 Clear 9 1013 61 10000 1.65 225 13:23 26.05.2022
3464 Clear 9 1012 60 10000 1.64 223 11:36 26.05.2022
3465 Clear 10 1014 55 10000 1.87 264 10:24 26.05.2022
3466 Clear 11 1014 54 10000 0.89 309 09:35 26.05.2022
3467 Clear 11 1014 53 10000 0.45 341 08:37 26.05.2022
3468 Clouds 15 1013 42 10000 0 0 05:24 26.05.2022
3469 Clouds 21 1012 25 10000 4.63 330 01:24 26.05.2022
3470 Clear 21 1013 26 10000 1.79 274 23:40 25.05.2022
3471 Clear 19 1014 29 10000 2.68 319 22:29 25.05.2022
3472 Clear 18 1014 31 10000 2.68 329 21:33 25.05.2022
3473 Clear 17 1015 33 10000 3.13 322 20:38 25.05.2022
3474 Clear 16 1015 38 10000 1.79 340 19:31 25.05.2022
3475 Clear 13 1017 48 10000 1.79 352 17:46 25.05.2022
3476 Clear 11 1017 61 10000 0.89 346 16:40 25.05.2022
3477 Clear 9 1017 71 10000 0.45 315 15:57 25.05.2022
3478 Clear 6 1017 82 10000 0.75 314 14:55 25.05.2022
3479 Clouds 4 1016 86 10000 1.05 294 14:33 25.05.2022
3480 Clouds 4 1016 85 10000 2.06 260 13:58 25.05.2022
3481 Clouds 4 1015 86 10000 0.72 16 12:45 25.05.2022
3482 Clouds 5 1015 85 10000 0.9 342 10:54 25.05.2022
3483 Clouds 5 1015 85 10000 0.67 247 10:19 25.05.2022
3484 Clouds 6 1015 83 10000 2.24 277 08:41 25.05.2022
3485 Clouds 7 1015 82 10000 1.34 294 07:23 25.05.2022
3486 Clouds 9 1015 69 10000 3.09 50 04:23 25.05.2022
3487 Clouds 13 1012 52 10000 1.79 357 00:23 25.05.2022
3488 Clouds 13 1012 52 10000 1.79 47 23:47 24.05.2022
3489 Clouds 13 1012 52 10000 1.79 47 23:47 24.05.2022
3490 Clouds 12 1013 55 10000 1.79 58 22:33 24.05.2022
3491 Clouds 12 1013 60 10000 1.79 34 21:41 24.05.2022
3492 Clouds 11 1013 63 10000 1.79 75 21:21 24.05.2022
3493 Clouds 11 1014 67 10000 2.57 40 20:30 24.05.2022
3494 Clouds 9 1014 77 10000 1.79 60 18:56 24.05.2022
3495 Clouds 7 1014 86 10000 1.79 54 16:58 24.05.2022
3496 Clouds 7 1014 87 10000 0.89 24 16:28 24.05.2022
3497 Clouds 6 1014 89 10000 2.06 30 14:59 24.05.2022
3498 Clouds 6 1014 89 10000 0.45 71 14:25 24.05.2022
3499 Clouds 6 1014 87 10000 0.45 358 13:18 24.05.2022
3500 Clouds 7 1015 86 10000 2.06 30 11:40 24.05.2022
3501 Clouds 8 1015 83 10000 0.89 26 09:46 24.05.2022
3502 Clouds 8 1015 84 10000 0.89 15 08:50 24.05.2022
3503 Clouds 8 1015 83 10000 0.45 294 06:58 24.05.2022
3504 Clouds 10 1015 73 10000 6.17 50 04:59 24.05.2022
3505 Clouds 13 1013 46 10000 2.68 38 02:42 24.05.2022
3506 Clouds 14 1013 40 10000 4.63 30 01:42 24.05.2022
3507 Clouds 16 1012 41 10000 1.34 347 23:43 23.05.2022
3508 Clouds 15 1013 45 10000 2.68 40 21:59 23.05.2022
3509 Clouds 15 1012 46 10000 2.68 34 21:41 23.05.2022
3510 Clouds 14 1013 50 10000 2.68 42 20:42 23.05.2022
3511 Clouds 13 1014 57 10000 1.79 80 19:33 23.05.2022
3512 Clouds 12 1013 61 10000 2.24 17 18:59 23.05.2022
3513 Clouds 11 1013 65 10000 2.68 43 18:35 23.05.2022
3514 Clouds 11 1014 69 10000 2.24 22 17:55 23.05.2022
3515 Clouds 8 1013 72 10000 8.23 180 15:47 23.05.2022
3516 Clouds 6 1013 80 10000 0.45 173 13:44 23.05.2022
3517 Clouds 7 1014 75 10000 0.45 197 11:36 23.05.2022
3518 Clouds 8 1015 70 10000 7.2 160 10:43 23.05.2022
3519 Clouds 9 1016 68 10000 1.79 86 09:40 23.05.2022
3520 Clouds 8 1016 70 10000 2.68 131 08:38 23.05.2022
3521 Clouds 9 1017 69 10000 2.24 160 06:47 23.05.2022
3522 Clouds 9 1018 67 10000 1.79 188 06:23 23.05.2022
3523 Clouds 13 1016 52 10000 2.24 186 02:35 23.05.2022
3524 Clouds 13 1016 50 10000 6.69 180 01:46 23.05.2022
3525 Clouds 13 1016 49 10000 2.24 196 00:44 23.05.2022
3526 Clouds 14 1017 47 10000 2.24 132 22:47 22.05.2022
3527 Clouds 14 1017 47 10000 1.34 123 22:18 22.05.2022
3528 Clouds 13 1018 48 10000 11.32 180 21:49 22.05.2022
3529 Clouds 12 1020 50 10000 1.79 196 20:40 22.05.2022
3530 Clouds 12 1020 51 10000 1.34 304 20:19 22.05.2022
3531 Clouds 10 1022 54 10000 2.24 130 18:58 22.05.2022
3532 Clouds 9 1022 57 10000 2.68 191 18:31 22.05.2022
3533 Clouds 8 1023 58 10000 3.58 189 17:51 22.05.2022
3534 Clouds 7 1024 58 10000 1.79 136 16:51 22.05.2022
3535 Clouds 4 1024 70 10000 0.89 116 14:56 22.05.2022
3536 Clouds 4 1025 70 10000 0.45 161 14:35 22.05.2022
3537 Clouds 4 1024 70 10000 1.34 182 12:54 22.05.2022
3538 Clouds 4 1024 71 10000 1.79 145 11:53 22.05.2022
3539 Clouds 4 1025 75 10000 0.89 109 10:29 22.05.2022
3540 Clouds 4 1026 75 10000 0.45 117 09:19 22.05.2022
3541 Clouds 4 1026 76 10000 0.89 188 07:34 22.05.2022
3542 Clouds 4 1026 74 10000 0.89 207 06:40 22.05.2022
3543 Clouds 6 1025 59 10000 2.24 180 03:25 22.05.2022
3544 Clouds 7 1023 59 10000 0.89 237 00:48 22.05.2022
3545 Clouds 7 1025 62 10000 1.34 122 23:56 21.05.2022
3546 Clouds 6 1025 63 10000 1.34 200 23:22 21.05.2022
3547 Clouds 5 1025 69 10000 0.89 166 21:59 21.05.2022
3548 Clouds 5 1025 71 10000 0.89 181 21:30 21.05.2022
3549 Clouds 4 1025 78 10000 1.34 208 20:29 21.05.2022
3550 Clouds 4 1025 80 10000 1.34 222 19:43 21.05.2022
3551 Clouds 3 1025 83 9787 1.34 0 18:45 21.05.2022
3552 Rain 2 1025 92 4421 0.45 344 16:57 21.05.2022
3553 Mist 0 1023 94 4023 0 0 14:39 21.05.2022
3554 Snow 0 1022 94 609 1.98 348 13:55 21.05.2022
3555 Mist 0 1022 94 2414 0.89 20 13:19 21.05.2022
3556 Snow 0 1022 94 722 2.22 354 12:38 21.05.2022
3557 Snow 0 1021 94 321 2.98 342 11:20 21.05.2022
3558 Snow 0 1021 94 119 0.45 306 09:57 21.05.2022
3559 Snow 1 1020 94 113 0.45 290 08:59 21.05.2022
3560 Snow 1 1020 94 176 2.73 311 08:37 21.05.2022
3561 Snow 1 1019 94 136 3.13 319 05:52 21.05.2022
3562 Snow 1 1014 93 36 0.45 11 01:33 21.05.2022
3563 Snow 2 1011 92 131 2.24 57 23:30 20.05.2022
3564 Snow 2 1009 92 78 2.68 5 22:29 20.05.2022
3565 Rain 2 1009 91 78 3.58 23 21:55 20.05.2022
3566 Rain 2 1009 91 78 3.58 23 21:55 20.05.2022
3567 Rain 3 1008 91 3003 3.13 40 21:18 20.05.2022
3568 Rain 3 1007 90 3003 1.34 156 20:44 20.05.2022
3569 Rain 4 1006 90 5990 1.34 144 19:45 20.05.2022
3570 Rain 4 1005 89 6385 1.79 169 18:49 20.05.2022
3571 Rain 4 1005 89 2438 0.89 172 17:48 20.05.2022
3572 Clouds 4 1003 89 5760 1.34 124 16:22 20.05.2022
3573 Clouds 4 1003 90 5926 1.79 136 15:53 20.05.2022
3574 Clouds 3 1002 89 10000 1.34 128 14:32 20.05.2022
3575 Clouds 3 1002 89 2518 0.89 102 13:56 20.05.2022
3576 Clouds 5 999 72 10000 1.79 72 11:51 20.05.2022
3577 Clouds 5 999 67 10000 0.89 30 10:34 20.05.2022
3578 Clouds 6 999 66 10000 2.24 53 08:59 20.05.2022
3579 Clouds 7 996 62 10000 1.79 113 07:42 20.05.2022
3580 Clouds 9 999 59 10000 1.79 64 06:39 20.05.2022
3581 Clouds 10 995 53 10000 2.68 35 05:39 20.05.2022
3582 Clouds 30 989 13 10000 4.47 311 01:18 20.05.2022
3583 Clouds 31 990 12 10000 1.79 215 23:31 19.05.2022
3584 Clouds 31 992 12 10000 1.79 165 22:34 19.05.2022
3585 Clouds 30 993 12 10000 2.68 293 21:49 19.05.2022
3586 Clouds 30 992 12 10000 2.24 227 21:49 19.05.2022
3587 Clouds 30 992 13 10000 1.79 186 21:23 19.05.2022
3588 Clouds 29 994 14 10000 2.68 134 20:43 19.05.2022
3589 Clouds 28 996 16 10000 1.34 53 19:54 19.05.2022
3590 Clouds 26 997 19 10000 1.34 109 18:58 19.05.2022
3591 Clouds 23 1000 26 10000 1.34 159 17:35 19.05.2022
3592 Clouds 23 1000 27 10000 5.14 200 17:35 19.05.2022
3593 Clouds 16 1000 41 10000 0.45 222 15:33 19.05.2022
3594 Clouds 15 1003 41 10000 0.89 279 14:30 19.05.2022
3595 Clouds 15 1003 42 10000 0.45 134 13:59 19.05.2022
3596 Clouds 15 1005 42 10000 0.45 188 11:52 19.05.2022
3597 Clouds 16 1004 43 10000 0.45 188 10:25 19.05.2022
3598 Clouds 17 1006 42 10000 0.89 211 08:31 19.05.2022
3599 Clouds 18 1007 43 10000 2.56 221 06:39 19.05.2022
3600 Clouds 25 1006 26 10000 2.24 100 02:59 19.05.2022
3601 Clouds 27 1014 18 10000 1.79 327 00:56 19.05.2022
3602 Clouds 28 1009 22 10000 2.68 31 23:00 18.05.2022
3603 Clouds 28 1009 22 10000 2.68 47 22:40 18.05.2022
3604 Clear 27 1010 24 10000 2.24 34 21:32 18.05.2022
3605 Clear 26 1011 25 10000 1.79 344 20:55 18.05.2022
3606 Clouds 26 1012 27 10000 1.79 39 20:19 18.05.2022
3607 Clouds 23 1013 30 10000 1.79 133 18:46 18.05.2022
3608 Clouds 22 1013 34 10000 1.34 25 17:41 18.05.2022
3609 Clouds 21 1013 37 10000 0.89 28 17:23 18.05.2022
3610 Clouds 18 1014 43 10000 0.45 184 16:36 18.05.2022
3611 Clouds 16 1015 50 10000 0.45 211 15:42 18.05.2022
3612 Clouds 14 1015 54 10000 0.45 177 15:19 18.05.2022
3613 Clouds 13 1016 58 10000 0.89 188 13:48 18.05.2022
3614 Clouds 13 1016 56 10000 4.63 160 12:53 18.05.2022
3615 Clouds 13 1014 53 10000 0.45 128 11:41 18.05.2022
3616 Clouds 13 1016 53 10000 0.45 182 11:23 18.05.2022
3617 Clouds 14 1013 51 10000 2.57 177 09:57 18.05.2022
3618 Clouds 15 1012 52 10000 0.45 271 07:55 18.05.2022
3619 Clouds 16 1013 48 10000 0.45 19 06:50 18.05.2022
3620 Clouds 23 1009 28 10000 7.2 20 02:44 18.05.2022
3621 Clouds 26 999 23 10000 1.79 251 00:26 18.05.2022
3622 Clouds 28 1007 17 10000 2.24 23 22:47 17.05.2022
3623 Clouds 29 1007 18 10000 2.68 72 21:20 17.05.2022
3624 Clouds 28 1007 19 10000 2.68 29 20:30 17.05.2022
3625 Clouds 28 1007 18 10000 2.68 49 19:29 17.05.2022
3626 Clouds 25 1007 23 10000 0.89 102 17:53 17.05.2022
3627 Clouds 23 1007 26 10000 0.89 109 17:22 17.05.2022
3628 Clear 19 1008 33 10000 1.34 190 16:34 17.05.2022
3629 Clouds 16 1011 40 10000 2.57 200 15:32 17.05.2022
3630 Clear 14 1013 41 10000 1.77 219 14:31 17.05.2022
3631 Clouds 13 1006 41 10000 4.12 200 13:38 17.05.2022
3632 Clouds 14 1007 41 10000 1.21 211 12:23 17.05.2022
3633 Clouds 15 1008 39 10000 3.09 200 09:53 17.05.2022
3634 Clouds 16 1005 41 10000 0.89 21 08:43 17.05.2022
3635 Clouds 17 1009 39 10000 2.57 215 07:18 17.05.2022
3636 Clouds 21 1007 31 10000 2.46 244 04:28 17.05.2022
3637 Clouds 24 1001 24 10000 3.13 143 00:47 17.05.2022
3638 Clouds 27 1008 17 10000 4.02 286 22:44 16.05.2022
3639 Clouds 28 1007 17 10000 1.34 213 22:18 16.05.2022
3640 Clouds 28 1009 19 10000 1.54 120 20:49 16.05.2022
3641 Clouds 27 1009 22 10000 1.34 128 19:57 16.05.2022
3642 Clouds 23 1011 33 10000 0.89 137 18:21 16.05.2022
3643 Clouds 17 1013 45 10000 0.45 165 16:28 16.05.2022
3644 Clouds 13 1018 52 10000 0.66 156 14:42 16.05.2022
3645 Clouds 12 1012 51 10000 1.79 301 13:25 16.05.2022
3646 Clouds 13 1012 49 10000 0.77 148 11:34 16.05.2022
3647 Clear 13 1014 50 10000 0.53 134 10:24 16.05.2022
3648 Clear 16 1015 43 10000 1.91 262 07:34 16.05.2022
3649 Clouds 19 1014 32 10000 2.24 33 05:23 16.05.2022
3650 Clouds 25 1014 25 10000 2.24 27 23:59 15.05.2022
3651 Clouds 24 1015 27 10000 1.34 153 22:36 15.05.2022
3652 Clouds 23 1015 28 10000 2.24 205 21:48 15.05.2022
3653 Clouds 23 1016 30 10000 2.24 56 21:19 15.05.2022
3654 Clouds 22 1017 31 10000 1.79 56 20:34 15.05.2022
3655 Clouds 19 1018 39 10000 3.13 42 17:55 15.05.2022
3656 Clouds 19 1017 33 10000 3.13 33 16:36 15.05.2022
3657 Clouds 12 1017 46 10000 0.45 271 14:18 15.05.2022
3658 Clouds 12 1017 43 10000 0.89 191 13:27 15.05.2022
3659 Clouds 14 1016 39 10000 3.6 280 11:55 15.05.2022
3660 Clouds 14 1015 38 10000 1.34 296 10:35 15.05.2022
3661 Clouds 15 1012 35 10000 0.45 284 08:52 15.05.2022
3662 Clouds 18 1013 28 10000 0.45 36 06:59 15.05.2022
3663 Clouds 18 1013 27 10000 0.45 339 06:38 15.05.2022
3664 Clouds 26 1010 14 10000 2.68 51 02:24 15.05.2022
3665 Clouds 27 1010 13 10000 1.34 164 23:56 14.05.2022
3666 Clouds 27 1010 13 10000 2.24 56 23:34 14.05.2022
3667 Clear 26 1011 14 10000 1.34 15 21:45 14.05.2022
3668 Clear 25 1012 15 10000 2.24 143 21:19 14.05.2022
3669 Clouds 23 1013 16 10000 2.24 96 19:40 14.05.2022
3670 Clouds 23 1013 16 10000 2.24 96 19:40 14.05.2022
3671 Clouds 23 1014 16 10000 1.79 185 19:20 14.05.2022
3672 Clouds 22 1015 17 10000 1.34 194 18:47 14.05.2022
3673 Clouds 21 1015 18 10000 2.24 164 17:36 14.05.2022
3674 Clouds 15 1015 26 10000 0.89 109 15:47 14.05.2022
3675 Clouds 12 1017 30 10000 1.54 120 14:37 14.05.2022
3676 Clouds 11 1014 31 10000 0.89 176 12:51 14.05.2022
3677 Clouds 12 1014 27 10000 0.89 204 11:37 14.05.2022
3678 Clouds 13 1013 25 10000 0.45 271 10:24 14.05.2022
3679 Clouds 13 1013 25 10000 0.89 214 09:56 14.05.2022
3680 Clouds 14 1013 25 10000 2.68 243 08:59 14.05.2022
3681 Clouds 15 1012 22 10000 3.09 190 07:21 14.05.2022
3682 Clouds 21 1008 10 10000 3.58 243 03:41 14.05.2022
3683 Clouds 25 1010 11 10000 3.13 271 23:48 13.05.2022
3684 Clouds 25 1010 11 10000 4.02 282 23:22 13.05.2022
3685 Clouds 24 1010 12 10000 4.47 280 22:52 13.05.2022
3686 Clear 24 1011 13 10000 3.58 316 22:20 13.05.2022
3687 Clear 22 1011 12 10000 4.92 326 20:56 13.05.2022
3688 Clouds 22 1012 13 10000 4.47 296 20:28 13.05.2022
3689 Clouds 21 1013 15 10000 3.13 213 19:40 13.05.2022
3690 Clouds 19 1013 18 10000 1.34 97 18:41 13.05.2022
3691 Clouds 17 1014 20 10000 8.75 190 17:29 13.05.2022
3692 Clouds 14 1014 26 10000 1.34 171 16:23 13.05.2022
3693 Clouds 12 1014 29 10000 0.89 134 15:43 13.05.2022
3694 Clouds 8 1018 35 10000 0.46 188 13:57 13.05.2022
3695 Clouds 8 1013 34 10000 0.45 243 12:33 13.05.2022
3696 Clouds 9 1012 30 10000 0.89 337 11:29 13.05.2022
3697 Clouds 10 1010 28 10000 1.34 111 09:43 13.05.2022
3698 Clear 11 1011 28 10000 2.06 100 09:43 13.05.2022
3699 Clouds 12 1012 25 10000 3.09 100 08:50 13.05.2022
3700 Clear 12 1010 22 10000 0.89 257 07:49 13.05.2022
3701 Clear 13 1010 20 10000 0.45 245 06:35 13.05.2022
3702 Clouds 18 1009 12 10000 7.72 270 04:22 13.05.2022
3703 Clear 22 1006 12 10000 4.47 294 00:40 13.05.2022
3704 Clouds 22 1007 8 10000 13.38 250 22:46 12.05.2022
3705 Clear 21 1006 10 10000 4.92 265 21:58 12.05.2022
3706 Clouds 21 1006 10 10000 14.4 230 20:38 12.05.2022
3707 Clear 20 1004 17 10000 4.92 225 19:23 12.05.2022
3708 Clouds 19 1002 50 10000 3.09 280 17:27 12.05.2022
3709 Clear 16 1001 69 10000 1.34 42 16:27 12.05.2022
3710 Clear 12 1001 75 10000 0.6 67 14:47 12.05.2022
3711 Clear 11 1004 81 10000 0.94 36 13:47 12.05.2022
3712 Clear 13 1003 75 10000 0.45 21 11:23 12.05.2022
3713 Clear 15 1004 68 10000 0.45 348 09:31 12.05.2022
3714 Clear 16 1004 64 10000 0.45 24 08:51 12.05.2022
3715 Clouds 18 1004 51 10000 2.68 360 07:41 12.05.2022
3716 Clouds 19 1004 44 10000 0.89 13 06:39 12.05.2022
3717 Clouds 29 1002 10 10000 10.29 180 02:59 12.05.2022
3718 Clouds 31 1002 9 10000 3.58 192 00:39 12.05.2022
3719 Clouds 30 1005 11 10000 9.26 180 22:39 11.05.2022
3720 Clouds 30 1005 11 10000 4.02 227 21:52 11.05.2022
3721 Clear 30 1005 11 10000 3.13 209 21:24 11.05.2022
3722 Clouds 26 1008 12 10000 3.58 156 18:58 11.05.2022
3723 Clear 20 1010 28 10000 0.89 84 16:59 11.05.2022
3724 Clear 16 1010 39 10000 0.16 240 15:50 11.05.2022
3725 Clear 12 1010 39 10000 0.3 341 14:39 11.05.2022
3726 Clouds 10 1011 47 10000 0.69 351 14:19 11.05.2022
3727 Clouds 10 1015 47 10000 3.6 160 11:54 11.05.2022
3728 Clouds 11 1015 46 10000 1.63 173 11:23 11.05.2022
3729 Clear 11 1012 47 10000 0.26 327 08:55 11.05.2022
3730 Clear 14 1011 38 10000 0.29 41 05:45 11.05.2022
3731 Clouds 22 1002 16 10000 2.94 348 01:23 11.05.2022
3732 Clouds 22 1015 20 10000 8.23 70 22:32 10.05.2022
3733 Clear 21 1005 23 10000 5.89 328 21:58 10.05.2022
3734 Clear 18 1007 21 10000 2.65 19 20:58 10.05.2022
3735 Clear 16 1013 26 10000 1.34 26 20:19 10.05.2022
3736 Clear 14 1012 30 10000 1.34 136 18:35 10.05.2022
3737 Clear 12 1016 33 10000 2.24 102 17:37 10.05.2022
3738 Clear 9 1015 48 10000 3.13 132 15:42 10.05.2022
3739 Clouds 6 1014 59 10000 0.45 32 12:48 10.05.2022
3740 Clouds 7 1013 56 10000 0.45 169 11:51 10.05.2022
3741 Clouds 8 1012 53 10000 0.45 170 11:21 10.05.2022
3742 Clouds 8 1012 52 10000 0.89 144 10:54 10.05.2022
3743 Clouds 10 1011 47 10000 1.34 138 09:27 10.05.2022
3744 Clouds 11 1010 42 10000 0.89 69 07:32 10.05.2022
3745 Clouds 18 1004 41 10000 2.24 55 04:34 10.05.2022
3746 Clear 23 993 31 10000 0.89 65 01:34 10.05.2022
3747 Clear 23 992 30 10000 3.58 32 23:37 09.05.2022
3748 Clear 22 991 32 10000 1.79 38 22:29 09.05.2022
3749 Clear 21 994 36 10000 8.75 239 21:21 09.05.2022
3750 Clear 19 994 20 10000 8.05 237 19:37 09.05.2022
3751 Clear 18 994 37 10000 6.01 235 17:59 09.05.2022
3752 Clear 14 994 19 10000 5.8 245 16:49 09.05.2022
3753 Clear 11 994 27 10000 7.55 246 15:53 09.05.2022
3754 Clear 9 994 36 10000 7.55 246 15:31 09.05.2022
3755 Clear 9 994 20 10000 9.06 244 14:32 09.05.2022
3756 Clear 8 993 23 10000 9.63 250 13:51 09.05.2022
3757 Clear 9 991 20 10000 8.27 239 12:30 09.05.2022
3758 Clear 9 991 20 10000 8.27 239 11:43 09.05.2022
3759 Clouds 9 997 87 10000 5.14 350 10:44 09.05.2022
3760 Clear 10 989 21 10000 8.14 243 09:39 09.05.2022
3761 Clouds 15 988 16 10000 9.54 241 07:56 09.05.2022
3762 Clouds 20 987 36 10000 7.2 200 04:33 09.05.2022
3763 Clouds 20 987 36 10000 7.2 200 04:33 09.05.2022
3764 Clouds 19 987 38 10000 1.34 312 04:33 09.05.2022
3765 Clouds 22 990 28 10000 12.86 180 00:21 09.05.2022
3766 Clouds 23 992 30 10000 3.58 312 22:57 08.05.2022
3767 Clouds 22 992 31 10000 4.02 323 22:22 08.05.2022
3768 Clouds 21 995 32 10000 1.34 205 20:37 08.05.2022
3769 Clouds 20 996 33 10000 3.58 110 19:53 08.05.2022
3770 Clouds 18 997 37 10000 2.24 170 18:59 08.05.2022
3771 Clouds 17 999 40 10000 8.75 150 18:24 08.05.2022
3772 Clouds 15 1000 45 10000 2.68 193 16:59 08.05.2022
3773 Clouds 12 1001 54 10000 1.34 164 15:41 08.05.2022
3774 Clouds 10 1002 59 10000 0.45 196 15:20 08.05.2022
3775 Clouds 10 1000 58 10000 1.79 119 12:41 08.05.2022
3776 Clouds 11 1000 55 10000 1.34 144 10:34 08.05.2022
3777 Clouds 12 999 53 10000 1.34 175 09:59 08.05.2022
3778 Clouds 12 1000 53 10000 5.66 100 09:33 08.05.2022
3779 Clouds 14 998 49 10000 2.24 88 07:33 08.05.2022
3780 Clear 17 993 15 10000 6.25 229 04:20 08.05.2022
3781 Clear 23 992 27 10000 8.2 240 03:19 08.05.2022
3782 Clouds 31 991 13 10000 4.92 203 00:28 08.05.2022
3783 Clouds 31 992 12 10000 3.58 248 23:53 07.05.2022
3784 Clouds 30 993 13 10000 3.58 248 22:51 07.05.2022
3785 Clouds 30 993 13 10000 4.92 152 22:33 07.05.2022
3786 Clouds 30 994 14 10000 6.26 208 21:34 07.05.2022
3787 Clouds 29 996 14 10000 4.47 261 20:55 07.05.2022
3788 Clouds 29 996 14 10000 3.58 244 19:58 07.05.2022
3789 Clouds 24 998 19 10000 2.24 200 17:43 07.05.2022
3790 Clouds 17 1001 30 10000 0.45 126 15:51 07.05.2022
3791 Clouds 13 1003 34 10000 3.15 212 14:20 07.05.2022
3792 Clouds 14 1004 41 10000 0.45 205 10:57 07.05.2022
3793 Clouds 15 1006 40 10000 2.57 130 09:22 07.05.2022
3794 Clouds 16 1006 37 10000 0.45 271 07:52 07.05.2022
3795 Clouds 19 1007 30 10000 1.84 203 06:43 07.05.2022
3796 Clouds 22 1006 22 10000 0.89 93 04:59 07.05.2022
3797 Clouds 27 1004 15 10000 3.58 309 02:21 07.05.2022
3798 Clouds 28 1005 14 10000 2.68 208 23:38 06.05.2022
3799 Clouds 27 1006 15 10000 2.24 179 22:31 06.05.2022
3800 Clouds 27 1006 15 10000 3.13 309 21:43 06.05.2022
3801 Clouds 26 1006 16 10000 2.24 145 20:35 06.05.2022
3802 Clouds 25 1006 17 10000 3.13 212 19:31 06.05.2022
3803 Clouds 24 1007 19 10000 2.24 259 19:00 06.05.2022
3804 Clouds 23 1007 22 10000 1.79 137 18:19 06.05.2022
3805 Clouds 18 1008 33 10000 3.6 170 16:44 06.05.2022
3806 Clouds 14 1007 40 10000 0.89 295 15:41 06.05.2022
3807 Clouds 11 1009 48 10000 0.89 199 14:50 06.05.2022
3808 Clouds 11 1009 49 10000 0.89 186 12:55 06.05.2022
3809 Clouds 11 1009 49 10000 0.89 0 12:36 06.05.2022
3810 Clouds 11 1009 51 10000 5.66 180 11:42 06.05.2022
3811 Clouds 11 1010 52 10000 0.45 206 10:29 06.05.2022
3812 Clouds 11 1010 51 10000 0.45 5 09:45 06.05.2022
3813 Clouds 12 1011 50 10000 0.45 5 08:27 06.05.2022
3814 Clouds 13 1009 46 10000 0.45 5 06:45 06.05.2022
3815 Clouds 16 1011 38 10000 0.45 288 04:53 06.05.2022
3816 Clear 21 1009 25 10000 2.68 0 02:45 06.05.2022
3817 Clear 20 1011 30 10000 1.79 354 23:45 05.05.2022
3818 Clear 18 1012 38 10000 2.68 25 21:53 05.05.2022
3819 Clear 18 1013 39 10000 3.58 40 21:19 05.05.2022
3820 Clouds 16 1014 43 10000 1.79 331 19:53 05.05.2022
3821 Clouds 13 1016 55 10000 1.34 163 18:26 05.05.2022
3822 Clouds 7 1016 82 10000 0.45 238 16:20 05.05.2022
3823 Clouds 5 1015 89 10000 0.45 222 14:43 05.05.2022
3824 Clouds 3 1014 90 10000 1.52 213 13:21 05.05.2022
3825 Clouds 4 1014 90 10000 1.96 203 12:24 05.05.2022
3826 Clouds 5 1015 89 10000 1.54 270 10:33 05.05.2022
3827 Clouds 5 1015 88 10000 0.45 236 09:39 05.05.2022
3828 Clouds 6 1016 84 9087 0.45 259 07:24 05.05.2022
3829 Clouds 8 1015 80 10000 3.13 38 03:00 05.05.2022
3830 Clouds 10 1014 69 10000 2.68 23 01:48 05.05.2022
3831 Clouds 10 1014 66 10000 1.34 45 01:22 05.05.2022
3832 Clouds 9 1014 69 10000 1.79 97 23:34 04.05.2022
3833 Clouds 8 1014 77 10000 1.34 5 22:25 04.05.2022
3834 Clouds 8 1014 83 10000 2.68 322 21:49 04.05.2022
3835 Clouds 7 1014 86 10000 2.68 346 21:26 04.05.2022
3836 Mist 7 1014 86 9656 5.66 320 21:26 04.05.2022
3837 Clouds 5 1014 90 10000 2.68 9 20:22 04.05.2022
3838 Mist 5 1014 90 8047 7.72 330 19:51 04.05.2022
3839 Clouds 5 1013 90 10000 2.24 331 18:49 04.05.2022
3840 Clouds 5 1013 89 2939 3.58 313 18:21 04.05.2022
3841 Clouds 6 1012 90 10000 2.68 323 17:29 04.05.2022
3842 Clouds 6 1011 91 2951 0.89 15 15:38 04.05.2022
3843 Clouds 6 1011 91 10000 1.34 32 14:59 04.05.2022
3844 Clouds 6 1011 91 10000 0.89 353 14:20 04.05.2022
3845 Clouds 6 1010 91 10000 1.34 30 13:18 04.05.2022
3846 Mist 6 1010 91 9656 3.09 70 12:29 04.05.2022
3847 Clouds 6 1010 91 10000 2.24 28 10:33 04.05.2022
3848 Clouds 6 1010 90 10000 4.12 80 09:38 04.05.2022
3849 Mist 7 1011 90 9656 7.72 10 08:33 04.05.2022
3850 Clouds 11 1008 68 10000 2.24 17 05:50 04.05.2022
3851 Clouds 12 999 56 10000 1.25 67 02:43 04.05.2022
3852 Clouds 15 1002 42 10000 4.96 339 23:31 03.05.2022
3853 Clouds 14 1008 51 10000 3.58 15 22:20 03.05.2022
3854 Clouds 14 1008 53 10000 2.24 24 21:33 03.05.2022
3855 Clouds 14 1008 51 10000 0.89 328 20:52 03.05.2022
3856 Clouds 13 1007 41 10000 2.4 26 19:44 03.05.2022
3857 Clouds 10 1010 62 10000 0.89 36 18:50 03.05.2022
3858 Clouds 8 1011 72 10000 1.79 16 17:38 03.05.2022
3859 Clouds 5 1012 85 10000 0.89 37 16:28 03.05.2022
3860 Clouds 2 1012 90 10000 2.13 358 14:43 03.05.2022
3861 Clouds 2 1013 90 10000 0.95 7 12:47 03.05.2022
3862 Clouds 2 1013 89 10000 0.47 57 12:22 03.05.2022
3863 Clouds 2 1013 87 10000 4.63 110 10:52 03.05.2022
3864 Clouds 3 1014 84 10000 0.89 24 08:38 03.05.2022
3865 Clouds 4 1014 79 10000 4.12 100 06:46 03.05.2022
3866 Clouds 6 1014 72 10000 2.57 70 03:34 03.05.2022
3867 Clouds 6 1014 75 10000 1.79 55 23:32 02.05.2022
3868 Clouds 5 1015 79 10000 2.24 69 22:34 02.05.2022
3869 Clouds 4 1015 81 10000 1.79 2 21:48 02.05.2022
3870 Clouds 4 1014 82 10000 2.68 16 20:48 02.05.2022
3871 Clouds 3 1013 91 29 3.13 5 18:28 02.05.2022
3872 Mist 3 1013 93 4828 6.69 360 17:44 02.05.2022
3873 Clouds 3 1012 93 28 3.13 360 16:50 02.05.2022
3874 Clouds 3 1011 92 135 2.68 35 15:56 02.05.2022
3875 Clouds 4 1010 91 10000 4.63 30 14:57 02.05.2022
3876 Rain 4 1009 91 223 2.24 360 13:47 02.05.2022
3877 Clouds 5 1012 90 10000 0.89 202 11:51 02.05.2022
3878 Clouds 6 1012 88 10000 2.06 320 10:20 02.05.2022
3879 Rain 7 1009 84 10000 2.24 0 08:46 02.05.2022
3880 Rain 9 1009 73 10000 2.68 20 07:30 02.05.2022
3881 Clouds 15 1006 31 10000 8.75 320 01:28 02.05.2022
3882 Clouds 16 1006 32 10000 4.92 318 00:23 02.05.2022
3883 Clouds 16 1006 32 10000 3.58 304 23:43 01.05.2022
3884 Clouds 17 1007 31 10000 2.24 10 21:46 01.05.2022
3885 Clouds 15 1009 33 10000 2.24 322 20:50 01.05.2022
3886 Clouds 14 1010 36 10000 2.24 336 19:46 01.05.2022
3887 Clouds 12 1011 39 10000 1.34 332 18:53 01.05.2022
3888 Clouds 10 1011 41 10000 0.89 36 17:57 01.05.2022
3889 Clouds 8 1012 48 10000 0.45 269 16:46 01.05.2022
3890 Clouds 8 1013 50 10000 0.89 215 16:23 01.05.2022
3891 Clouds 4 1014 57 10000 0.45 193 14:58 01.05.2022
3892 Clouds 4 1015 56 10000 7.72 150 13:23 01.05.2022
3893 Clouds 5 1014 48 10000 1.34 345 10:45 01.05.2022
3894 Clouds 7 1015 42 10000 0.89 28 08:50 01.05.2022
3895 Clear 10 1014 34 10000 0.89 69 06:51 01.05.2022
3896 Clear 17 1011 21 10000 2.24 113 02:51 01.05.2022
3897 Clear 18 1012 21 10000 2.68 60 22:52 30.04.2022
3898 Clear 16 1013 23 10000 2.68 143 21:34 30.04.2022
3899 Clear 15 1013 25 10000 2.24 74 20:24 30.04.2022
3900 Clear 14 1014 27 10000 1.34 28 19:31 30.04.2022
3901 Clear 11 1014 36 10000 1.79 131 17:37 30.04.2022
3902 Clouds 8 1014 44 10000 5.14 30 16:30 30.04.2022
3903 Clear 6 1013 47 10000 1.34 110 15:19 30.04.2022
3904 Clear 4 1013 45 10000 1.34 80 14:30 30.04.2022
3905 Clear 7 1012 35 10000 3.13 312 12:28 30.04.2022
3906 Clear 7 1012 34 10000 4.02 359 11:32 30.04.2022
3907 Clouds 7 1012 35 10000 4.02 292 10:30 30.04.2022
3908 Clear 8 1012 34 10000 3.13 296 08:26 30.04.2022
3909 Clear 10 1008 28 10000 8.49 280 04:58 30.04.2022
3910 Clouds 14 1004 21 10000 13.89 300 00:34 30.04.2022
3911 Clouds 14 1003 21 10000 13.38 320 22:58 29.04.2022
3912 Clouds 13 1002 23 10000 8.94 279 22:29 29.04.2022
3913 Clouds 14 1000 25 10000 8.94 331 21:26 29.04.2022
3914 Thunderstorm 14 1000 33 10000 11.32 310 20:24 29.04.2022
3915 Clouds 15 999 32 10000 8.94 318 19:33 29.04.2022
3916 Clouds 19 998 15 10000 5.14 270 17:38 29.04.2022
3917 Clouds 17 999 23 10000 3.09 210 16:43 29.04.2022
3918 Clouds 11 997 33 10000 2.05 246 14:38 29.04.2022
3919 Clouds 11 999 34 10000 3.09 230 14:38 29.04.2022
3920 Clouds 11 999 34 10000 3.09 230 14:38 29.04.2022
3921 Clouds 10 997 38 10000 1.79 311 13:59 29.04.2022
3922 Clouds 10 998 39 10000 1.39 245 12:41 29.04.2022
3923 Clouds 11 997 36 10000 0.89 183 10:56 29.04.2022
3924 Clouds 17 1000 27 10000 6.17 50 07:58 29.04.2022
3925 Clouds 18 998 25 10000 1.34 324 07:26 29.04.2022
3926 Clouds 19 1000 23 10000 1.79 213 06:33 29.04.2022
3927 Clouds 23 999 18 10000 0.89 298 02:50 29.04.2022
3928 Clouds 24 1001 18 10000 7.2 100 00:18 29.04.2022
3929 Clouds 24 1002 18 10000 3.58 135 23:26 28.04.2022
3930 Clouds 24 1003 19 10000 2.24 101 22:33 28.04.2022
3931 Clouds 23 1004 21 10000 2.68 54 21:43 28.04.2022
3932 Clouds 22 1006 23 10000 2.24 113 20:49 28.04.2022
3933 Clouds 21 1007 24 10000 1.79 48 19:57 28.04.2022
3934 Clouds 21 1007 24 10000 2.68 69 19:38 28.04.2022
3935 Clouds 21 1007 25 10000 2.24 35 19:19 28.04.2022
3936 Clouds 19 1008 26 10000 2.06 210 17:55 28.04.2022
3937 Clouds 16 1008 32 10000 1.34 156 16:58 28.04.2022
3938 Clouds 14 1008 35 10000 0.89 156 16:21 28.04.2022
3939 Clouds 12 1009 39 10000 1.34 233 15:49 28.04.2022
3940 Clouds 10 1009 46 10000 0.89 226 15:18 28.04.2022
3941 Clouds 9 1008 47 10000 1.34 282 13:42 28.04.2022
3942 Clouds 10 1008 45 10000 0.89 301 12:30 28.04.2022
3943 Clouds 10 1008 45 10000 0.89 301 12:30 28.04.2022
3944 Clouds 11 1008 42 10000 1.79 206 11:37 28.04.2022
3945 Clear 11 1007 40 10000 0.89 215 10:26 28.04.2022
3946 Clear 12 1007 41 10000 1.34 187 09:50 28.04.2022
3947 Clouds 12 1007 45 10000 0.89 215 07:42 28.04.2022
3948 Clouds 13 1008 47 10000 0.45 269 06:51 28.04.2022
3949 Clouds 14 1007 45 10000 1.34 200 05:53 28.04.2022
3950 Clouds 16 1007 41 10000 0.89 155 04:43 28.04.2022
3951 Clear 19 1006 35 10000 3.13 176 02:41 28.04.2022
3952 Clouds 19 1009 31 10000 8.75 300 23:32 27.04.2022
3953 Clouds 21 1008 20 10000 3.58 302 22:20 27.04.2022
3954 Clouds 22 1007 17 10000 1.79 27 21:43 27.04.2022
3955 Clouds 22 1008 17 10000 2.57 50 20:45 27.04.2022
3956 Clouds 21 1009 18 10000 2.24 39 19:55 27.04.2022
3957 Clouds 21 1009 19 10000 1.79 96 19:34 27.04.2022
3958 Clouds 19 1010 21 10000 1.34 18 18:39 27.04.2022
3959 Clouds 16 1011 25 10000 0.89 106 17:55 27.04.2022
3960 Clouds 12 1011 32 10000 0.89 287 15:57 27.04.2022
3961 Clouds 10 1010 31 10000 1.34 248 12:59 27.04.2022
3962 Clouds 11 1014 31 10000 0.89 207 11:24 27.04.2022
3963 Clouds 11 1011 30 10000 0.45 182 10:28 27.04.2022
3964 Clouds 12 1010 29 10000 2.32 209 08:22 27.04.2022
3965 Clouds 13 1011 26 10000 0.45 236 06:41 27.04.2022
3966 Clouds 23 1010 12 10000 2.24 39 02:26 27.04.2022
3967 Clouds 24 1009 11 10000 3.58 327 01:21 27.04.2022
3968 Clouds 24 1011 11 10000 2.24 220 00:27 27.04.2022
3969 Clouds 23 1012 12 10000 2.24 133 23:24 26.04.2022
3970 Clouds 23 1013 12 10000 1.79 182 22:45 26.04.2022
3971 Clouds 22 1014 12 10000 2.68 164 21:59 26.04.2022
3972 Clouds 22 1014 12 10000 2.68 102 21:19 26.04.2022
3973 Clouds 21 1015 14 10000 1.79 159 20:37 26.04.2022
3974 Clouds 19 1017 18 10000 2.24 121 19:45 26.04.2022
3975 Clouds 18 1018 20 10000 2.24 128 19:26 26.04.2022
3976 Clouds 15 1019 27 10000 3.6 190 18:31 26.04.2022
3977 Clouds 13 1019 35 10000 1.34 165 17:38 26.04.2022
3978 Clouds 4 1021 59 10000 6.69 200 14:59 26.04.2022
3979 Clouds 4 1020 60 10000 1.4 207 13:38 26.04.2022
3980 Clouds 4 1020 59 10000 1.47 203 12:35 26.04.2022
3981 Clouds 5 1021 60 10000 0.89 99 11:20 26.04.2022
3982 Clouds 5 1022 61 10000 1.34 126 10:29 26.04.2022
3983 Clouds 6 1024 58 10000 1.3 223 08:32 26.04.2022
3984 Clouds 9 1023 42 10000 0.45 316 04:39 26.04.2022
3985 Clouds 12 1023 34 10000 0.89 103 03:25 26.04.2022
3986 Clouds 13 1023 32 10000 2.68 5 00:39 26.04.2022
3987 Clouds 12 1023 35 10000 2.24 205 23:48 25.04.2022
3988 Clouds 13 1023 28 10000 1.79 286 21:49 25.04.2022
3989 Clouds 12 1024 31 10000 2.68 22 20:49 25.04.2022
3990 Clouds 10 1024 36 10000 2.24 158 19:39 25.04.2022
3991 Clouds 8 1025 41 10000 1.34 110 18:25 25.04.2022
3992 Clouds 7 1025 44 10000 0.89 104 17:39 25.04.2022
3993 Clouds 3 1025 59 10000 1.34 130 15:51 25.04.2022
3994 Clouds 2 1025 64 10000 2.57 170 15:18 25.04.2022
3995 Clouds 2 1025 63 10000 0.45 143 13:59 25.04.2022
3996 Clouds 2 1025 63 5037 0.45 167 12:22 25.04.2022
3997 Clouds 2 1025 67 10000 0.45 207 10:29 25.04.2022
3998 Clouds 2 1025 67 10000 0.45 215 09:23 25.04.2022
3999 Clouds 3 1024 66 10000 1.79 52 07:19 25.04.2022
4000 Clouds 4 1023 71 10000 2.68 355 05:32 25.04.2022
4001 Clouds 11 1018 33 10000 3.13 66 01:24 25.04.2022
4002 Clouds 11 1017 32 10000 1.34 343 23:53 24.04.2022
4003 Clouds 11 1017 33 10000 4.02 48 22:53 24.04.2022
4004 Clouds 11 1017 33 10000 2.68 52 22:32 24.04.2022
4005 Clouds 11 1017 33 10000 2.68 52 22:32 24.04.2022
4006 Clouds 11 1017 33 10000 3.13 302 21:54 24.04.2022
4007 Clouds 11 1017 33 10000 3.58 32 21:20 24.04.2022
4008 Clouds 11 1016 33 10000 2.68 31 20:38 24.04.2022
4009 Clouds 11 1017 35 10000 2.68 55 19:50 24.04.2022
4010 Clouds 9 1016 39 10000 2.24 17 18:28 24.04.2022
4011 Clouds 9 1016 41 10000 6.17 50 17:37 24.04.2022
4012 Clouds 8 1016 43 10000 2.24 181 17:19 24.04.2022
4013 Clouds 7 1015 46 10000 2.24 116 16:37 24.04.2022
4014 Clouds 5 1015 50 10000 1.79 122 15:56 24.04.2022
4015 Clouds 4 1015 54 10000 1.79 171 15:31 24.04.2022
4016 Clouds 4 1015 54 10000 1.79 171 15:31 24.04.2022
4017 Clouds 4 1015 55 10000 1.34 179 15:31 24.04.2022
4018 Clouds 2 1014 58 10000 3.17 127 14:19 24.04.2022
4019 Clouds 2 1013 57 10000 2.17 109 13:25 24.04.2022
4020 Clouds 3 1015 55 10000 0.45 95 12:32 24.04.2022
4021 Clouds 4 1013 53 10000 0.45 101 11:33 24.04.2022
4022 Clouds 5 1011 47 10000 2.24 88 10:27 24.04.2022
4023 Clouds 6 1011 40 10000 1.79 31 09:26 24.04.2022
4024 Clouds 8 1009 33 10000 2.24 270 06:45 24.04.2022
4025 Clouds 11 1006 27 10000 2.68 309 03:57 24.04.2022
4026 Clouds 14 1004 22 10000 4.47 332 01:38 24.04.2022
4027 Clouds 14 1003 22 10000 7.72 280 00:29 24.04.2022
4028 Clouds 14 1002 22 10000 7.6 295 23:44 23.04.2022
4029 Clouds 14 1002 22 10000 6.71 291 23:21 23.04.2022
4030 Clouds 15 1000 22 10000 4.92 328 21:51 23.04.2022
4031 Clouds 14 1000 22 10000 4.92 346 21:33 23.04.2022
4032 Clouds 14 999 22 10000 9.77 290 20:45 23.04.2022
4033 Clouds 14 999 22 10000 5.36 313 20:45 23.04.2022
4034 Clouds 13 997 25 10000 4.92 279 19:46 23.04.2022
4035 Clouds 13 997 24 10000 4.92 285 19:19 23.04.2022
4036 Clouds 13 996 24 10000 4.47 275 18:49 23.04.2022
4037 Clouds 12 995 26 10000 3.13 0 17:51 23.04.2022
4038 Clouds 12 995 29 10000 3.58 276 17:20 23.04.2022
4039 Clouds 11 995 32 10000 3.58 328 16:40 23.04.2022
4040 Clouds 9 993 35 10000 1.79 261 14:57 23.04.2022
4041 Clouds 10 993 33 10000 2.68 277 12:35 23.04.2022
4042 Clouds 10 992 29 10000 4.47 293 10:41 23.04.2022
4043 Clouds 10 992 26 10000 3.58 278 09:30 23.04.2022
4044 Clouds 14 990 24 10000 2.68 191 06:29 23.04.2022
4045 Clouds 18 989 27 10000 6.71 296 03:54 23.04.2022
4046 Clouds 27 985 10 10000 4.92 226 00:53 23.04.2022
4047 Clouds 30 987 6 10000 9.39 182 23:29 22.04.2022
4048 Clouds 29 990 7 10000 4.92 206 22:19 22.04.2022
4049 Clouds 29 991 8 10000 4.92 165 21:41 22.04.2022
4050 Clouds 28 993 11 10000 4.92 119 20:45 22.04.2022
4051 Clouds 28 994 9 10000 4.92 218 20:25 22.04.2022
4052 Clear 26 996 10 10000 6.26 146 19:18 22.04.2022
4053 Clouds 25 998 11 10000 9.77 190 18:35 22.04.2022
4054 Clear 24 998 14 10000 4.02 166 17:39 22.04.2022
4055 Clear 18 1000 21 10000 3.66 194 16:32 22.04.2022
4056 Clear 14 1003 30 10000 3.6 170 15:32 22.04.2022
4057 Clear 13 1001 30 10000 0.45 203 14:43 22.04.2022
4058 Clear 12 1002 31 10000 5.66 160 13:42 22.04.2022
4059 Clear 14 1002 29 10000 1.79 123 12:57 22.04.2022
4060 Clear 15 1002 27 10000 1.79 191 11:42 22.04.2022
4061 Clear 15 1003 28 10000 1.79 191 11:18 22.04.2022
4062 Clear 15 1003 28 10000 1.34 143 10:47 22.04.2022
4063 Clear 16 1003 26 10000 1.34 209 10:25 22.04.2022
4064 Clear 16 1002 28 10000 2.24 185 09:42 22.04.2022
4065 Clear 17 1004 26 10000 6.17 200 08:49 22.04.2022
4066 Clouds 18 1003 31 10000 3.58 175 06:54 22.04.2022
4067 Clouds 26 1002 20 10000 4.47 134 01:49 22.04.2022
4068 Clear 26 1003 22 10000 3.13 59 23:49 21.04.2022
4069 Clear 25 1004 25 10000 4.02 114 22:52 21.04.2022
4070 Clear 24 1005 27 10000 4.02 151 21:49 21.04.2022
4071 Clear 22 1005 30 10000 3.13 175 20:34 21.04.2022
4072 Clouds 20 1010 31 10000 5.66 180 19:36 21.04.2022
4073 Clouds 17 1011 36 10000 0.89 207 18:32 21.04.2022
4074 Clouds 16 1010 38 10000 0.89 5 17:46 21.04.2022
4075 Clouds 12 1011 43 10000 1.34 91 16:21 21.04.2022
4076 Clouds 9 1012 51 10000 0.45 246 15:19 21.04.2022
4077 Clouds 9 1010 49 10000 0.94 113 14:31 21.04.2022
4078 Clouds 8 1010 46 10000 1.12 109 13:22 21.04.2022
4079 Clouds 9 1011 44 10000 1.21 110 12:29 21.04.2022
4080 Clouds 11 1011 39 10000 0.89 346 10:19 21.04.2022
4081 Clouds 13 1010 37 10000 1.79 301 08:50 21.04.2022
4082 Clouds 15 1009 33 10000 1.34 134 06:46 21.04.2022
4083 Clouds 18 1006 27 10000 2.68 125 04:21 21.04.2022
4084 Clouds 20 1005 22 10000 3.13 107 03:23 21.04.2022
4085 Clouds 21 1004 21 10000 2.68 97 02:45 21.04.2022
4086 Clouds 21 1004 21 10000 2.68 97 02:45 21.04.2022
4087 Clouds 22 1003 21 10000 3.13 107 00:35 21.04.2022
4088 Clear 22 1003 21 10000 2.24 58 23:46 20.04.2022
4089 Clear 22 1003 22 10000 2.24 95 23:21 20.04.2022
4090 Clouds 21 1003 22 10000 4.63 100 22:41 20.04.2022
4091 Clear 21 1003 23 10000 3.13 99 21:57 20.04.2022
4092 Clear 19 1003 26 10000 3.58 111 20:50 20.04.2022
4093 Clear 18 1003 28 10000 3.13 61 20:22 20.04.2022
4094 Clear 17 1003 30 10000 3.13 107 19:47 20.04.2022
4095 Clear 16 1003 34 10000 2.24 123 18:52 20.04.2022
4096 Clear 13 1003 40 10000 2.24 115 17:53 20.04.2022
4097 Clear 11 1003 45 10000 1.79 84 16:39 20.04.2022
4098 Clear 9 1002 44 10000 3.13 78 15:39 20.04.2022
4099 Clouds 9 1001 40 10000 0.89 190 12:47 20.04.2022
4100 Clouds 11 1001 34 10000 1.34 157 11:43 20.04.2022
4101 Clouds 12 999 30 10000 2.68 14 10:53 20.04.2022
4102 Clouds 14 999 28 10000 5.36 42 09:45 20.04.2022
4103 Clouds 15 997 25 10000 3.13 23 08:54 20.04.2022
4104 Clouds 15 997 23 10000 3.13 278 08:20 20.04.2022
4105 Clouds 17 996 19 10000 4.12 270 06:49 20.04.2022
4106 Clouds 23 996 12 10000 1.79 236 03:33 20.04.2022
4107 Clouds 27 996 9 10000 3.58 271 00:22 20.04.2022
4108 Clouds 27 997 9 10000 2.06 290 23:31 19.04.2022
4109 Clouds 26 999 9 10000 4.12 290 22:24 19.04.2022
4110 Clouds 26 1000 10 10000 1.34 172 21:55 19.04.2022
4111 Clouds 25 1001 10 10000 2.24 93 21:18 19.04.2022
4112 Clouds 25 1001 10 10000 2.68 30 20:37 19.04.2022
4113 Clouds 25 1001 10 10000 1.79 158 20:37 19.04.2022
4114 Clouds 24 1002 11 10000 1.79 151 19:43 19.04.2022
4115 Clouds 22 1002 17 10000 2.24 236 18:46 19.04.2022
4116 Clouds 22 1002 17 10000 2.24 236 18:46 19.04.2022
4117 Clouds 15 1004 31 10000 0.89 194 17:27 19.04.2022
4118 Clouds 14 1004 31 10000 1.98 206 16:43 19.04.2022
4119 Clouds 11 1000 43 10000 0.45 161 16:21 19.04.2022
4120 Clouds 7 1007 44 10000 2.17 191 14:47 19.04.2022
4121 Clouds 5 1010 61 10000 1.32 177 13:34 19.04.2022
4122 Clouds 5 1007 61 10000 0.15 57 12:50 19.04.2022
4123 Clouds 5 1009 59 10000 0.89 319 11:39 19.04.2022
4124 Clouds 7 1009 55 10000 1.09 262 09:57 19.04.2022
4125 Clouds 8 1010 53 10000 1.45 212 08:43 19.04.2022
4126 Clouds 12 1015 37 10000 7.2 150 04:41 19.04.2022
4127 Clear 15 1014 29 10000 1.79 141 03:19 19.04.2022
4128 Clouds 16 1016 27 10000 4.63 320 00:24 19.04.2022
4129 Clear 16 1017 28 10000 2.24 291 23:25 18.04.2022
4130 Clear 13 1020 33 10000 2.24 235 21:29 18.04.2022
4131 Clear 12 1020 33 10000 1.34 300 20:53 18.04.2022
4132 Clear 11 1021 34 10000 2.57 330 20:27 18.04.2022
4133 Clear 9 1021 37 10000 1.79 284 19:42 18.04.2022
4134 Clear 8 1022 38 10000 1.79 11 18:53 18.04.2022
4135 Clear 6 1023 41 10000 1.34 96 17:53 18.04.2022
4136 Clear 5 1024 44 10000 0.89 14 17:28 18.04.2022
4137 Clouds 3 1024 47 10000 4.63 140 16:40 18.04.2022
4138 Clear 2 1024 51 10000 0.45 323 15:54 18.04.2022
4139 Clear -1 1024 57 10000 1.89 28 14:42 18.04.2022
4140 Clear -1 1024 57 10000 1.89 28 14:42 18.04.2022
4141 Clear -1 1026 54 10000 2.84 11 13:31 18.04.2022
4142 Clear 0 1025 52 10000 2.19 50 12:28 18.04.2022
4143 Clear 1 1024 47 10000 0.89 0 11:27 18.04.2022
4144 Clear 3 1022 44 10000 0.89 27 10:29 18.04.2022
4145 Clear 4 1025 42 10000 1.79 58 09:30 18.04.2022
4146 Clouds 8 1021 43 10000 3.6 40 07:35 18.04.2022
4147 Clouds 11 1017 44 10000 2.24 333 04:40 18.04.2022
4148 Clear 19 1014 23 10000 5.36 330 23:42 17.04.2022
4149 Clouds 19 1013 20 10000 6.71 312 22:40 17.04.2022
4150 Clear 19 1012 20 10000 4.92 271 21:42 17.04.2022
4151 Clear 19 1012 21 10000 4.92 234 21:21 17.04.2022
4152 Clouds 18 1014 23 10000 2.24 274 20:32 17.04.2022
4153 Clear 17 1014 29 10000 2.24 198 19:21 17.04.2022
4154 Clear 14 1009 36 10000 0.45 212 17:38 17.04.2022
4155 Clear 7 1013 39 10000 1.04 178 15:38 17.04.2022
4156 Clear 5 1012 62 10000 2.7 169 14:54 17.04.2022
4157 Clouds 2 1013 68 10000 2.44 170 13:45 17.04.2022
4158 Clouds 3 1013 69 10000 0.45 28 12:56 17.04.2022
4159 Clouds 3 1011 70 10000 2.24 243 11:53 17.04.2022
4160 Clouds 5 1010 68 10000 1.34 351 10:40 17.04.2022
4161 Clouds 5 1009 68 10000 0.89 202 10:19 17.04.2022
4162 Clouds 6 1009 66 10000 1.34 71 09:28 17.04.2022
4163 Rain 7 1012 54 10000 3.58 340 08:42 17.04.2022
4164 Clouds 8 1009 43 10000 1.34 215 06:59 17.04.2022
4165 Clouds 11 1008 34 10000 0.45 302 03:53 17.04.2022
4166 Clouds 12 1008 32 10000 2.68 336 00:55 17.04.2022
4167 Clouds 13 1008 30 10000 2.24 336 23:50 16.04.2022
4168 Clouds 13 1010 31 10000 1.79 345 22:27 16.04.2022
4169 Clouds 11 1012 34 10000 2.06 340 21:29 16.04.2022
4170 Clouds 8 1013 40 10000 1.34 19 19:54 16.04.2022
4171 Clouds 7 1017 39 10000 1.34 62 18:54 16.04.2022
4172 Clouds 4 1016 42 10000 0.45 97 17:40 16.04.2022
4173 Clouds 1 1016 59 10000 1.34 37 16:32 16.04.2022
4174 Clouds 0 1014 60 10000 4.04 332 15:26 16.04.2022
4175 Clouds -1 1019 61 10000 4.07 333 14:47 16.04.2022
4176 Clouds 0 1019 53 10000 0.45 58 13:56 16.04.2022
4177 Clouds 0 1018 52 10000 1.6 16 13:25 16.04.2022
4178 Clouds 1 1015 50 10000 0.45 359 11:58 16.04.2022
4179 Clear 2 1017 49 10000 1.79 320 10:37 16.04.2022
4180 Clear 2 1017 46 10000 0.89 4 09:39 16.04.2022
4181 Clear 3 1016 44 10000 1.34 13 08:56 16.04.2022
4182 Clouds 5 1017 39 10000 0.89 32 07:31 16.04.2022
4183 Clouds 6 1015 36 10000 1.79 43 06:22 16.04.2022
4184 Clear 16 1007 23 10000 3.13 54 01:53 16.04.2022
4185 Clear 18 1005 20 10000 2.68 49 00:19 16.04.2022
4186 Clear 18 1005 21 10000 2.68 65 22:52 15.04.2022
4187 Clear 17 1005 21 10000 4.47 121 22:31 15.04.2022
4188 Clear 17 1006 24 10000 2.24 65 21:35 15.04.2022
4189 Clouds 16 1005 25 10000 4.63 10 20:55 15.04.2022
4190 Clouds 15 1010 27 10000 5.14 20 19:52 15.04.2022
4191 Clear 15 1003 27 10000 5.45 276 19:33 15.04.2022
4192 Clear 15 1004 24 10000 5.13 274 18:45 15.04.2022
4193 Clear 13 1004 28 10000 1.79 51 18:23 15.04.2022
4194 Clear 12 1005 27 10000 4.47 6 17:29 15.04.2022
4195 Clear 10 1006 27 10000 1.62 164 16:25 15.04.2022
4196 Clear 10 1005 32 10000 1.34 186 15:54 15.04.2022
4197 Clouds 7 1004 32 10000 0.89 322 14:22 15.04.2022
4198 Clouds 7 1003 28 10000 1.34 189 12:53 15.04.2022
4199 Clouds 7 1004 28 10000 1.34 72 12:28 15.04.2022
4200 Clouds 6 1004 29 10000 0.45 13 11:54 15.04.2022
4201 Clouds 6 1005 30 10000 3 189 10:48 15.04.2022
4202 Clouds 6 1006 30 10000 2.93 174 10:21 15.04.2022
4203 Clouds 5 1006 30 10000 0.45 0 09:23 15.04.2022
4204 Clouds 6 1007 29 10000 5.14 170 08:57 15.04.2022
4205 Clouds 6 1009 30 10000 2.06 138 06:55 15.04.2022
4206 Clouds 6 1010 31 10000 0.45 257 05:56 15.04.2022
4207 Clouds 14 1008 14 10000 5.36 282 01:28 15.04.2022
4208 Clouds 14 1009 18 10000 5.81 265 23:29 14.04.2022
4209 Clouds 14 1009 18 10000 5.36 283 22:46 14.04.2022
4210 Clouds 14 1009 17 10000 8.75 270 22:27 14.04.2022
4211 Clouds 13 1009 18 10000 4.92 260 21:53 14.04.2022
4212 Clear 11 1010 22 10000 4.92 274 19:57 14.04.2022
4213 Clear 10 1011 22 10000 4.92 277 19:22 14.04.2022
4214 Clear 8 1012 24 10000 2.68 32 17:56 14.04.2022
4215 Clear 6 1013 26 10000 2.24 268 17:27 14.04.2022
4216 Clear 4 1013 33 10000 0.89 82 16:32 14.04.2022
4217 Clear -3 1014 50 10000 5 276 14:20 14.04.2022
4218 Clear -3 1013 52 10000 1.74 237 13:26 14.04.2022
4219 Clear -3 1015 53 10000 0.89 169 12:38 14.04.2022
4220 Clear -3 1015 54 10000 0.45 95 12:19 14.04.2022
4221 Clear -3 1015 54 10000 1.34 188 11:21 14.04.2022
4222 Clear -2 1015 52 10000 0.45 189 10:36 14.04.2022
4223 Clear -2 1016 51 10000 0.89 267 09:52 14.04.2022
4224 Clear -1 1015 47 10000 2.68 336 08:39 14.04.2022
4225 Clouds 0 1014 48 10000 2.68 300 06:26 14.04.2022
4226 Clouds 3 1011 29 10000 8.23 250 01:49 14.04.2022
4227 Clouds 3 1011 26 10000 6.26 320 22:45 13.04.2022
4228 Clouds 3 1010 25 10000 4.02 254 21:44 13.04.2022
4229 Clouds 3 1009 24 10000 8.75 260 20:48 13.04.2022
4230 Clouds 3 1009 22 10000 6.26 285 20:18 13.04.2022
4231 Clouds 2 1009 30 10000 5.36 328 18:50 13.04.2022
4232 Clouds 0 1008 38 10000 0.45 286 17:54 13.04.2022
4233 Clouds -1 1009 47 10000 1.34 204 17:23 13.04.2022
4234 Clouds -4 1011 54 10000 2.57 250 16:24 13.04.2022
4235 Clouds -5 1013 44 10000 3.02 30 15:31 13.04.2022
4236 Clouds -6 1013 59 10000 3.06 29 14:50 13.04.2022
4237 Clouds -5 1012 59 10000 3.02 24 13:57 13.04.2022
4238 Clouds -4 1007 53 10000 0.89 80 12:59 13.04.2022
4239 Clear -3 1007 49 10000 0.45 130 12:19 13.04.2022
4240 Clouds -2 1006 44 10000 4.12 70 10:44 13.04.2022
4241 Clear 0 1004 37 10000 2.24 323 08:50 13.04.2022
4242 Clouds 0 1004 35 10000 3.13 323 08:28 13.04.2022
4243 Clear 2 1004 27 10000 2.24 303 06:50 13.04.2022
4244 Clear 2 1003 26 10000 3.58 236 06:25 13.04.2022
4245 Clear 6 997 25 10000 4.02 76 03:31 13.04.2022
4246 Clouds 12 992 19 10000 3.13 41 00:20 13.04.2022
4247 Clouds 13 991 20 10000 4.47 44 22:46 12.04.2022
4248 Clouds 13 991 19 10000 4.02 309 21:57 12.04.2022
4249 Clear 12 991 20 10000 0.89 145 20:49 12.04.2022
4250 Clouds 11 992 24 10000 1.54 150 20:27 12.04.2022
4251 Clouds 11 995 26 10000 0.89 133 19:47 12.04.2022
4252 Clouds 10 989 28 10000 8.43 221 19:28 12.04.2022
4253 Clouds 9 989 42 10000 9.5 226 17:50 12.04.2022
4254 Clouds 9 992 37 10000 0.45 105 16:50 12.04.2022
4255 Clouds 11 986 36 10000 3.13 341 15:39 12.04.2022
4256 Clear 12 985 35 10000 3.13 189 15:21 12.04.2022
4257 Clear 13 983 32 10000 3.58 259 13:54 12.04.2022
4258 Clear 13 983 31 10000 3.58 185 13:27 12.04.2022
4259 Clear 14 984 30 10000 4.47 202 12:31 12.04.2022
4260 Clear 14 984 32 10000 3.58 189 11:40 12.04.2022
4261 Clouds 13 985 35 10000 12.35 210 10:29 12.04.2022
4262 Clear 13 986 34 10000 2.24 151 08:54 12.04.2022
4263 Clouds 14 987 31 10000 1.79 175 07:47 12.04.2022
4264 Clouds 14 990 27 10000 0.45 214 05:47 12.04.2022
4265 Clouds 17 992 19 10000 0.89 250 02:53 12.04.2022
4266 Clouds 17 994 19 10000 1.79 205 23:36 11.04.2022
4267 Clouds 16 996 20 10000 8.75 180 22:44 11.04.2022
4268 Clouds 15 997 21 10000 2.68 345 21:36 11.04.2022
4269 Clouds 15 998 22 10000 3.13 105 20:49 11.04.2022
4270 Clear 14 1000 22 10000 2.68 55 20:28 11.04.2022
4271 Clear 13 1002 23 10000 2.68 105 19:29 11.04.2022
4272 Clear 12 1002 24 10000 1.79 121 18:59 11.04.2022
4273 Clear 11 1003 25 10000 1.79 277 18:37 11.04.2022
4274 Clear 7 1004 27 10000 1.34 114 17:44 11.04.2022
4275 Clear 5 1005 30 10000 0.89 38 16:38 11.04.2022
4276 Clouds 1 1006 36 10000 0.45 16 15:24 11.04.2022
4277 Clouds 1 1005 37 10000 0.45 340 13:44 11.04.2022
4278 Clouds 1 1005 35 10000 0.89 288 12:41 11.04.2022
4279 Clouds 2 1005 34 10000 1.79 287 12:22 11.04.2022
4280 Clouds 3 1006 30 10000 4.12 130 10:56 11.04.2022
4281 Clouds 3 1006 28 10000 1.34 136 09:58 11.04.2022
4282 Clouds 4 1006 27 10000 2.24 131 08:23 11.04.2022
4283 Clouds 8 1004 17 10000 0.89 59 04:57 11.04.2022
4284 Clear 12 1002 11 10000 5.81 267 00:30 11.04.2022
4285 Clear 13 1001 12 10000 6.26 332 22:27 10.04.2022
4286 Clear 13 1001 12 10000 6.26 332 22:27 10.04.2022
4287 Clear 13 1000 12 10000 8.05 257 21:53 10.04.2022
4288 Clear 12 1000 21 10000 4.02 250 20:55 10.04.2022
4289 Clouds 12 999 24 10000 5.36 332 20:18 10.04.2022
4290 Clouds 11 1000 36 10000 2.68 65 19:36 10.04.2022
4291 Clouds 10 1000 52 10000 2.24 84 18:50 10.04.2022
4292 Clouds 9 1000 61 10000 2.24 51 18:26 10.04.2022
4293 Clouds 7 1000 67 10000 1.79 67 17:44 10.04.2022
4294 Clouds 6 1001 75 10000 0.89 150 16:57 10.04.2022
4295 Clouds 4 1000 84 10000 0.89 182 15:38 10.04.2022
4296 Clouds 3 1000 87 10000 0.89 136 14:41 10.04.2022
4297 Clouds 3 1002 88 10000 0.45 103 13:28 10.04.2022
4298 Rain 4 1000 86 10000 1.79 13 12:27 10.04.2022
4299 Clouds 5 1000 82 10000 3.6 50 11:36 10.04.2022
4300 Clouds 6 1000 82 10000 0.89 56 10:58 10.04.2022
4301 Clouds 6 999 79 10000 1.34 337 10:27 10.04.2022
4302 Rain 7 1000 74 10000 3.13 117 09:41 10.04.2022
4303 Clouds 9 1000 55 10000 7.72 10 08:26 10.04.2022
4304 Clouds 10 999 50 10000 8.23 30 07:53 10.04.2022
4305 Clouds 12 998 46 10000 4.92 29 06:48 10.04.2022
4306 Clouds 20 995 12 10000 5.66 80 03:36 10.04.2022
4307 Clouds 20 995 13 10000 0.89 207 03:36 10.04.2022
4308 Clouds 20 995 14 10000 0.89 207 03:36 10.04.2022
4309 Clouds 24 996 11 10000 4.92 261 01:30 10.04.2022
4310 Clouds 24 998 11 10000 4.02 285 23:53 09.04.2022
4311 Clouds 24 999 11 10000 2.68 209 22:52 09.04.2022
4312 Clouds 24 1000 11 10000 2.24 246 21:51 09.04.2022
4313 Clouds 23 1001 13 10000 2.24 123 20:58 09.04.2022
4314 Clouds 23 1002 14 10000 3.13 138 20:26 09.04.2022
4315 Clouds 21 1003 16 10000 3.13 222 19:43 09.04.2022
4316 Clouds 20 1003 17 10000 3.13 167 19:21 09.04.2022
4317 Clouds 18 1005 19 10000 6.17 190 18:22 09.04.2022
4318 Clouds 17 1005 20 10000 0.89 182 17:42 09.04.2022
4319 Clouds 14 1006 26 10000 0.45 175 16:55 09.04.2022
4320 Clouds 11 1007 32 10000 0.45 148 16:28 09.04.2022
4321 Clouds 11 1008 30 10000 0.89 185 15:48 09.04.2022
4322 Clouds 10 1007 31 10000 1.34 181 14:45 09.04.2022
4323 Clouds 10 1007 32 10000 1.34 199 14:24 09.04.2022
4324 Clouds 9 1008 33 10000 0.89 211 13:21 09.04.2022
4325 Clouds 9 1008 34 10000 0.89 195 12:52 09.04.2022
4326 Clouds 9 1010 34 10000 5.66 200 11:41 09.04.2022
4327 Clear 9 1010 33 10000 0.45 188 10:21 09.04.2022
4328 Clear 9 1011 33 10000 0.89 184 09:52 09.04.2022
4329 Clear 9 1012 33 10000 0.89 190 08:57 09.04.2022
4330 Clear 10 1013 31 10000 1.34 198 07:32 09.04.2022
4331 Clouds 18 1015 15 10000 2.68 294 02:58 09.04.2022
4332 Clouds 19 1016 13 10000 1.54 80 00:30 09.04.2022
4333 Clear 19 1018 15 10000 1.79 46 22:58 08.04.2022
4334 Clear 17 1020 16 10000 1.79 89 21:34 08.04.2022
4335 Clear 16 1021 18 10000 1.79 27 20:41 08.04.2022
4336 Clear 14 1022 19 10000 1.79 176 19:39 08.04.2022
4337 Clear 11 1024 22 10000 1.34 163 18:34 08.04.2022
4338 Clear 10 1024 25 10000 1.34 175 17:55 08.04.2022
4339 Clear 8 1024 29 10000 1.34 180 17:26 08.04.2022
4340 Clear 6 1024 33 10000 1.34 179 16:51 08.04.2022
4341 Clear 3 1025 38 10000 0.89 165 16:20 08.04.2022
4342 Clear 0 1026 43 10000 0.89 222 15:27 08.04.2022
4343 Clear -1 1026 42 10000 1.77 164 14:40 08.04.2022
4344 Clear -1 1025 42 10000 2.24 166 13:55 08.04.2022
4345 Clear -1 1026 43 10000 2.2 154 13:29 08.04.2022
4346 Clear 0 1024 42 10000 2.2 154 12:42 08.04.2022
4347 Clear 0 1026 38 10000 1.54 105 10:55 08.04.2022
4348 Clear 1 1028 38 10000 1.81 88 09:41 08.04.2022
4349 Clear 1 1028 37 10000 0.89 30 08:58 08.04.2022
4350 Clear 3 1028 34 10000 3.09 350 07:38 08.04.2022
4351 Clear 4 1027 31 10000 3.89 59 06:44 08.04.2022
4352 Clear 12 1024 18 10000 4.02 35 02:27 08.04.2022
4353 Clear 12 1024 18 10000 2.24 18 00:28 08.04.2022
4354 Clear 12 1025 19 10000 3.13 57 23:38 07.04.2022
4355 Clear 11 1025 20 10000 4.02 12 22:40 07.04.2022
4356 Clear 11 1026 21 10000 4.47 16 22:22 07.04.2022
4357 Clear 10 1026 21 10000 2.68 346 21:56 07.04.2022
4358 Clear 10 1026 22 10000 4.02 11 21:19 07.04.2022
4359 Clear 9 1027 23 10000 4.92 37 20:41 07.04.2022
4360 Clear 7 1028 26 10000 6.26 344 18:58 07.04.2022
4361 Clear 5 1028 30 10000 4.47 13 17:28 07.04.2022
4362 Clear 4 1028 31 10000 4.02 43 16:45 07.04.2022
4363 Clear 3 1028 33 10000 3.13 348 16:25 07.04.2022
4364 Clear 2 1026 33 10000 0.45 296 15:37 07.04.2022
4365 Clouds -1 1025 38 10000 0.45 270 13:51 07.04.2022
4366 Clouds -1 1026 38 10000 2.73 346 13:23 07.04.2022
4367 Clouds -1 1027 37 10000 1.77 7 11:49 07.04.2022
4368 Clouds 1 1026 33 10000 2.77 13 10:30 07.04.2022
4369 Clouds 1 1026 33 10000 4.62 316 08:40 07.04.2022
4370 Clouds 3 1025 29 10000 0.89 272 06:58 07.04.2022
4371 Clouds 5 1023 20 10000 2.68 320 03:59 07.04.2022
4372 Clouds 7 1022 14 10000 4.47 294 02:28 07.04.2022
4373 Clouds 8 1021 14 10000 6.26 322 00:42 07.04.2022
4374 Clouds 8 1021 16 10000 4.47 294 22:58 06.04.2022
4375 Clouds 8 1021 16 10000 4.02 326 22:39 06.04.2022
4376 Clouds 8 1020 16 10000 4.92 281 21:47 06.04.2022
4377 Clouds 7 1020 17 10000 6.17 300 20:41 06.04.2022
4378 Clear 6 1021 18 10000 5.81 282 19:59 06.04.2022
4379 Clear 5 1020 19 10000 5.81 11 18:53 06.04.2022
4380 Clear 5 1020 19 10000 5.81 292 18:34 06.04.2022
4381 Clear 3 1019 23 10000 8.94 270 17:35 06.04.2022
4382 Clear 2 1019 27 10000 4.92 301 16:39 06.04.2022
4383 Clear 1 1019 30 10000 6.71 274 15:49 06.04.2022
4384 Clear 0 1018 30 10000 4.92 305 15:30 06.04.2022
4385 Clouds 0 1016 31 10000 6.69 280 13:30 06.04.2022
4386 Clear 0 1015 31 10000 4.02 285 12:28 06.04.2022
4387 Clear 1 1015 32 10000 4.47 296 10:54 06.04.2022
4388 Clear 1 1014 32 10000 5.36 294 10:32 06.04.2022
4389 Clear 1 1014 33 10000 5.81 271 09:43 06.04.2022
4390 Clear 1 1013 36 10000 7.6 305 08:36 06.04.2022
4391 Clear 2 1013 37 10000 5.36 331 07:56 06.04.2022
4392 Clear 4 1007 33 10000 9.83 311 04:42 06.04.2022
4393 Clear 12 997 36 10000 5.36 359 23:57 05.04.2022
4394 Clear 13 997 39 10000 3.13 265 23:22 05.04.2022
4395 Clouds 12 995 46 10000 0.89 152 21:31 05.04.2022
4396 Clouds 12 997 44 10000 0.89 219 20:54 05.04.2022
4397 Clouds 12 996 46 10000 7.16 320 20:23 05.04.2022
4398 Clouds 11 997 51 10000 7.21 290 18:26 05.04.2022
4399 Clouds 16 994 32 10000 4.02 277 17:20 05.04.2022
4400 Clouds 16 994 30 10000 2.68 286 16:41 05.04.2022
4401 Clouds 14 992 31 10000 4.47 288 15:49 05.04.2022
4402 Clouds 14 991 31 10000 10.8 280 15:29 05.04.2022
4403 Clouds 14 994 29 10000 1.79 250 13:42 05.04.2022
4404 Clouds 13 993 28 10000 1.34 217 11:51 05.04.2022
4405 Clouds 13 993 28 10000 1.34 200 11:33 05.04.2022
4406 Clouds 13 993 28 10000 0.89 157 10:57 05.04.2022
4407 Clouds 13 996 27 10000 2.24 234 09:29 05.04.2022
4408 Clouds 14 996 27 10000 3.13 256 08:22 05.04.2022
4409 Clouds 17 997 16 10000 2.68 278 02:58 05.04.2022
4410 Clear 20 1000 15 10000 1.79 103 23:22 04.04.2022
4411 Clear 19 1002 16 10000 2.68 99 22:32 04.04.2022
4412 Clear 18 1003 16 10000 1.79 153 21:43 04.04.2022
4413 Clouds 18 1004 15 10000 3.6 90 21:18 04.04.2022
4414 Clear 17 1005 17 10000 2.24 127 20:46 04.04.2022
4415 Clouds 15 1007 28 10000 1.79 247 19:27 04.04.2022
4416 Clouds 13 1008 37 10000 0.89 128 18:39 04.04.2022
4417 Clouds 9 1009 54 10000 1.34 163 17:19 04.04.2022
4418 Clouds 7 1009 63 10000 0.89 176 16:27 04.04.2022
4419 Clouds 5 1010 71 10000 1.34 171 15:33 04.04.2022
4420 Clouds 4 1010 71 10000 0.89 197 14:46 04.04.2022
4421 Clouds 4 1010 67 10000 0.4 182 13:58 04.04.2022
4422 Clouds 4 1010 67 10000 0.82 330 12:58 04.04.2022
4423 Clouds 4 1011 66 10000 1.7 330 11:29 04.04.2022
4424 Clouds 5 1010 63 10000 2.22 329 09:53 04.04.2022
4425 Clouds 7 1013 47 10000 5.14 130 05:34 04.04.2022
4426 Clouds 10 1012 38 10000 2.24 109 02:51 04.04.2022
4427 Clouds 11 1013 37 10000 1.79 18 22:54 03.04.2022
4428 Clouds 10 1013 40 10000 1.79 63 21:59 03.04.2022
4429 Clouds 9 1013 40 10000 1.34 38 21:27 03.04.2022
4430 Clouds 8 1014 43 10000 1.79 113 20:30 03.04.2022
4431 Clouds 8 1014 46 10000 1.34 32 18:46 03.04.2022
4432 Clouds 7 1014 48 10000 1.79 59 17:55 03.04.2022
4433 Clouds 7 1014 48 10000 1.79 40 17:35 03.04.2022
4434 Clouds 7 1014 50 10000 1.79 30 16:49 03.04.2022
4435 Clouds 6 1013 51 10000 1.34 52 15:46 03.04.2022
4436 Clouds 7 1012 50 10000 0.89 128 14:20 03.04.2022
4437 Clouds 7 1011 49 10000 0.89 25 12:59 03.04.2022
4438 Clouds 8 1011 46 10000 0.89 16 11:39 03.04.2022
4439 Clouds 9 1008 41 10000 0.89 320 09:57 03.04.2022
4440 Clouds 9 1009 43 10000 0.45 243 08:57 03.04.2022
4441 Clouds 12 1010 36 10000 0.89 265 05:45 03.04.2022
4442 Clouds 18 1008 21 10000 0.89 63 02:55 03.04.2022
4443 Clouds 19 1010 24 10000 2.24 23 23:35 02.04.2022
4444 Clouds 18 1011 26 10000 2.24 356 22:43 02.04.2022
4445 Clear 16 1012 28 10000 4.12 50 21:55 02.04.2022
4446 Clouds 15 1012 30 10000 1.34 40 21:19 02.04.2022
4447 Clouds 14 1013 33 10000 1.34 30 20:36 02.04.2022
4448 Clouds 10 1015 45 10000 1.34 288 18:47 02.04.2022
4449 Clouds 8 1015 49 10000 0.89 40 18:19 02.04.2022
4450 Clouds 5 1015 58 10000 0.89 11 16:50 02.04.2022
4451 Clouds 2 1012 61 10000 0.45 253 15:42 02.04.2022
4452 Clouds 1 1012 66 10000 0.45 295 15:18 02.04.2022
4453 Clouds 1 1012 63 10000 0.89 282 14:26 02.04.2022
4454 Clouds 2 1011 61 10000 0.45 326 13:31 02.04.2022
4455 Clouds 3 1013 55 10000 0.45 325 12:21 02.04.2022
4456 Clouds 5 1009 48 10000 1.64 8 10:31 02.04.2022
4457 Clouds 6 1013 49 10000 0.45 265 07:52 02.04.2022
4458 Clear 10 1012 32 10000 1.34 344 04:34 02.04.2022
4459 Clear 13 1009 24 10000 5.36 329 02:37 02.04.2022
4460 Clear 15 1007 22 10000 3.13 311 23:54 01.04.2022
4461 Clouds 14 1008 22 10000 4.63 360 22:46 01.04.2022
4462 Clouds 13 1009 27 10000 6.17 40 21:22 01.04.2022
4463 Clouds 12 1009 32 10000 1.79 59 20:46 01.04.2022
4464 Clouds 10 1010 43 10000 6.17 10 19:45 01.04.2022
4465 Clouds 9 1009 46 10000 3.13 40 19:25 01.04.2022
4466 Clouds 8 1009 51 10000 2.68 93 18:37 01.04.2022
4467 Clouds 8 1008 49 10000 3.58 39 17:38 01.04.2022
4468 Clouds 6 1007 56 10000 0.89 58 15:46 01.04.2022
4469 Clouds 6 1006 55 10000 0.45 110 14:53 01.04.2022
4470 Clouds 6 1005 50 10000 1.68 60 13:39 01.04.2022
4471 Clouds 7 1004 44 10000 1.34 40 12:34 01.04.2022
4472 Clouds 7 1004 43 10000 3.13 11 11:47 01.04.2022
4473 Clouds 7 1003 44 10000 3.02 305 10:50 01.04.2022
4474 Clouds 7 1003 42 10000 0.45 248 09:39 01.04.2022
4475 Clouds 10 1003 35 10000 1.34 175 07:31 01.04.2022
4476 Clouds 12 1004 30 10000 7.2 180 04:59 01.04.2022
4477 Clouds 12 1003 30 10000 1.34 158 04:39 01.04.2022
4478 Clouds 15 1003 22 10000 1.79 137 02:37 01.04.2022
4479 Clouds 16 1004 20 10000 1.79 269 01:33 01.04.2022
4480 Clear 17 1006 17 10000 2.24 123 22:31 31.03.2022
4481 Clouds 16 1007 17 10000 3.09 70 21:39 31.03.2022
4482 Clouds 15 1007 17 10000 3.6 350 20:51 31.03.2022
4483 Clear 15 1008 18 10000 2.24 137 20:28 31.03.2022
4484 Clear 14 1009 22 10000 0.89 124 19:21 31.03.2022
4485 Clear 11 1009 30 10000 0.89 138 18:33 31.03.2022
4486 Clear 6 1010 47 10000 1.79 227 16:47 31.03.2022
4487 Clear 3 1008 54 10000 1.97 209 15:54 31.03.2022
4488 Clear 0 1010 59 10000 0.45 144 15:24 31.03.2022
4489 Clear 0 1007 61 10000 2.01 205 14:44 31.03.2022
4490 Clear 0 1006 61 10000 1.93 202 13:28 31.03.2022
4491 Clear -1 1006 63 10000 1.79 195 11:30 31.03.2022
4492 Clear 0 1010 66 10000 0.45 92 10:22 31.03.2022
4493 Clear 0 1010 66 10000 0.45 276 09:39 31.03.2022
4494 Clouds 1 1011 62 10000 1.01 144 07:48 31.03.2022
4495 Clouds 7 1007 29 10000 9.26 360 01:37 31.03.2022
4496 Clouds 7 1006 36 10000 3.13 339 23:23 30.03.2022
4497 Clouds 7 1007 44 10000 1.79 327 21:54 30.03.2022
4498 Clouds 6 1007 50 10000 1.79 89 21:27 30.03.2022
4499 Clouds 5 1008 55 10000 1.34 204 20:32 30.03.2022
4500 Clouds 4 1008 61 10000 1.34 68 19:47 30.03.2022
4501 Clouds 2 1009 69 10000 2.24 119 18:41 30.03.2022
4502 Clouds 1 1009 74 10000 1.79 202 17:50 30.03.2022
4503 Clouds -1 1009 79 10000 1.34 128 16:58 30.03.2022
4504 Clouds -1 1010 79 10000 0.89 127 16:39 30.03.2022
4505 Clouds -2 1010 80 10000 2.06 100 15:38 30.03.2022
4506 Clouds -2 1008 80 10000 1.34 100 14:18 30.03.2022
4507 Clouds -1 1008 80 10000 0.89 121 13:20 30.03.2022
4508 Clouds -1 1007 81 10000 2.57 30 11:55 30.03.2022
4509 Clouds 0 1008 82 10000 1.34 90 10:38 30.03.2022
4510 Clouds 1 1007 84 10000 1.79 61 09:28 30.03.2022
4511 Snow 2 1006 84 10000 0.89 30 07:59 30.03.2022
4512 Snow 3 1005 87 8047 8.75 20 05:41 30.03.2022
4513 Clouds 3 1004 87 2289 2.24 29 04:54 30.03.2022
4514 Clouds 7 995 84 5835 3.58 18 00:43 30.03.2022
4515 Rain 9 993 73 10000 3.13 20 22:35 29.03.2022
4516 Clouds 10 993 72 10000 3.58 55 21:46 29.03.2022
4517 Clouds 11 993 60 10000 3.58 11 20:55 29.03.2022
4518 Clouds 10 999 62 10000 5.14 360 20:24 29.03.2022
4519 Clouds 10 993 60 4907 1.34 188 18:57 29.03.2022
4520 Clouds 10 992 62 4907 2.24 208 18:36 29.03.2022
4521 Clouds 9 993 64 10000 0.45 206 17:37 29.03.2022
4522 Clouds 9 994 64 10000 4.12 200 16:58 29.03.2022
4523 Clouds 10 995 49 10000 0.89 32 15:58 29.03.2022
4524 Clouds 9 995 46 10000 0 0 14:53 29.03.2022
4525 Clouds 10 995 46 10000 2.26 165 14:22 29.03.2022
4526 Clouds 11 994 41 10000 0.45 316 12:55 29.03.2022
4527 Clouds 11 987 34 10000 1.63 156 11:44 29.03.2022
4528 Clouds 12 993 30 10000 3.09 230 10:55 29.03.2022
4529 Clouds 13 988 27 10000 0.45 178 09:49 29.03.2022
4530 Clouds 14 995 24 10000 0.45 169 08:20 29.03.2022
4531 Clouds 17 998 19 10000 1.34 343 05:35 29.03.2022
4532 Clouds 24 999 9 10000 1.79 67 00:50 29.03.2022
4533 Clouds 25 1002 9 10000 2.68 28 23:24 28.03.2022
4534 Clouds 25 1002 9 10000 1.79 44 22:54 28.03.2022
4535 Clouds 24 1002 10 10000 1.79 71 22:26 28.03.2022
4536 Clouds 23 1005 12 10000 0.89 169 20:58 28.03.2022
4537 Clouds 22 1005 12 10000 0.89 104 20:23 28.03.2022
4538 Clouds 22 1006 13 10000 0.89 129 19:45 28.03.2022
4539 Clouds 21 1007 15 10000 3.09 210 19:27 28.03.2022
4540 Clouds 19 1007 19 10000 1.34 133 18:40 28.03.2022
4541 Clouds 16 1007 26 10000 1.34 232 17:39 28.03.2022
4542 Clouds 12 1008 34 10000 0.89 196 16:21 28.03.2022
4543 Clouds 10 1006 35 10000 0.89 274 14:47 28.03.2022
4544 Clouds 11 1007 34 10000 2.11 214 14:21 28.03.2022
4545 Clouds 11 1007 35 10000 2.81 216 12:20 28.03.2022
4546 Clouds 10 1011 38 10000 4.12 180 11:24 28.03.2022
4547 Clouds 11 1007 43 10000 1.87 212 09:43 28.03.2022
4548 Clouds 11 1007 40 10000 1.73 213 09:19 28.03.2022
4549 Clouds 11 1007 44 10000 2.01 241 08:22 28.03.2022
4550 Clouds 11 1007 46 10000 1.6 222 07:28 28.03.2022
4551 Clouds 16 1007 38 10000 1.34 348 03:44 28.03.2022
4552 Clouds 21 1005 28 10000 0.89 352 23:30 27.03.2022
4553 Clouds 20 1014 33 10000 3.09 20 22:24 27.03.2022
4554 Clouds 20 1014 33 10000 3.09 20 22:24 27.03.2022
4555 Clouds 21 1007 30 10000 1.69 28 21:41 27.03.2022
4556 Clouds 20 1008 41 10000 1.39 37 20:54 27.03.2022
4557 Clouds 19 1008 41 10000 1.21 134 19:48 27.03.2022
4558 Clouds 17 1010 47 10000 1.39 157 19:20 27.03.2022
4559 Clouds 15 1011 45 10000 1.31 160 18:27 27.03.2022
4560 Clouds 12 1011 37 10000 1.31 160 17:39 27.03.2022
4561 Clouds 6 1013 56 10000 0.86 17 16:21 27.03.2022
4562 Clouds 4 1012 58 10000 1.31 35 15:18 27.03.2022
4563 Clouds 6 1012 57 10000 0.72 54 13:55 27.03.2022
4564 Clouds 7 1011 62 10000 0.57 199 12:24 27.03.2022
4565 Clouds 9 1010 59 10000 0.89 343 10:53 27.03.2022
4566 Clouds 11 1010 37 10000 0.45 310 08:43 27.03.2022
4567 Clouds 15 1010 31 10000 0.45 287 05:54 27.03.2022
4568 Clouds 23 1005 17 10000 3.58 326 00:48 27.03.2022
4569 Clouds 24 1007 15 10000 4.47 306 23:40 26.03.2022
4570 Clouds 24 1008 15 10000 4.92 285 22:36 26.03.2022
4571 Clouds 24 1009 15 10000 8.05 330 21:33 26.03.2022
4572 Clouds 24 1010 17 10000 5.81 313 20:20 26.03.2022
4573 Clouds 22 1011 20 10000 1.79 182 19:19 26.03.2022
4574 Clouds 20 1012 23 10000 1.79 325 17:51 26.03.2022
4575 Clouds 18 1010 28 10000 3 208 17:30 26.03.2022
4576 Clouds 15 1013 31 10000 2.85 206 16:25 26.03.2022
4577 Clouds 9 1015 45 10000 4.12 210 14:57 26.03.2022
4578 Clear 8 1013 45 10000 0.45 289 13:52 26.03.2022
4579 Clear 8 1014 44 10000 3.15 209 12:47 26.03.2022
4580 Clouds 7 1017 47 10000 3.09 210 11:29 26.03.2022
4581 Clear 8 1014 47 10000 2.47 220 10:18 26.03.2022
4582 Clouds 8 1014 50 10000 2.06 320 08:33 26.03.2022
4583 Clouds 9 1015 52 10000 0.89 303 05:54 26.03.2022
4584 Clouds 11 1016 43 10000 2.57 160 03:59 26.03.2022
4585 Clouds 17 1016 28 10000 3.6 300 23:39 25.03.2022
4586 Clear 15 1017 36 10000 2.24 6 21:35 25.03.2022
4587 Clear 14 1017 39 10000 1.34 30 20:46 25.03.2022
4588 Clear 11 1019 45 10000 1.79 86 19:28 25.03.2022
4589 Clear 10 1019 49 10000 2.24 88 18:47 25.03.2022
4590 Clouds 8 1021 54 10000 4.12 100 17:35 25.03.2022
4591 Clear 6 1021 57 10000 2.24 121 16:41 25.03.2022
4592 Clear 6 1021 57 10000 1.79 78 16:41 25.03.2022
4593 Clear 5 1022 62 10000 1.79 103 15:56 25.03.2022
4594 Clear 3 1022 69 10000 1.09 60 13:58 25.03.2022
4595 Clear 4 1021 69 10000 1.79 4 12:32 25.03.2022
4596 Clouds 7 1018 48 10000 2.57 360 09:52 25.03.2022
4597 Clear 7 1018 45 10000 0.89 15 09:23 25.03.2022
4598 Clear 8 1016 40 10000 4.12 190 07:51 25.03.2022
4599 Clear 8 1016 41 10000 1.34 189 07:23 25.03.2022
4600 Clear 11 1016 32 10000 0.89 302 04:47 25.03.2022
4601 Clouds 18 1014 19 10000 5.66 290 00:33 25.03.2022
4602 Clouds 19 1013 19 10000 4.47 272 22:30 24.03.2022
4603 Clouds 18 1014 21 10000 3.13 296 21:34 24.03.2022
4604 Clouds 17 1015 23 10000 4.92 315 19:50 24.03.2022
4605 Clouds 16 1015 24 10000 5.81 305 18:54 24.03.2022
4606 Clouds 15 1015 26 10000 5.36 304 17:39 24.03.2022
4607 Clouds 11 1016 35 10000 3.6 260 16:44 24.03.2022
4608 Clear 4 1015 51 10000 0.45 155 15:19 24.03.2022
4609 Clouds 3 1014 52 10000 4.12 190 14:41 24.03.2022
4610 Clouds 1 1013 53 10000 4.63 180 13:54 24.03.2022
4611 Clouds 1 1013 52 10000 3.6 180 12:39 24.03.2022
4612 Clear 1 1014 49 10000 2.3 213 11:31 24.03.2022
4613 Clear 2 1016 49 10000 0.45 233 09:36 24.03.2022
4614 Clear 2 1016 48 10000 0.89 226 08:40 24.03.2022
4615 Clear 3 1017 40 10000 2.25 215 06:19 24.03.2022
4616 Clear 12 1016 18 10000 5.36 48 01:28 24.03.2022
4617 Clear 12 1017 17 10000 5.36 359 22:29 23.03.2022
4618 Clear 12 1018 18 10000 5.81 333 21:25 23.03.2022
4619 Clear 11 1019 18 10000 7.6 15 20:47 23.03.2022
4620 Clear 10 1019 19 10000 7.6 329 19:40 23.03.2022
4621 Clear 9 1020 20 10000 8.49 24 18:22 23.03.2022
4622 Clear 8 1019 22 10000 7.15 340 17:31 23.03.2022
4623 Clear 4 1020 36 10000 2.24 334 16:18 23.03.2022
4624 Clear -1 1018 49 10000 1.92 265 14:49 23.03.2022
4625 Clear -2 1021 58 10000 1.95 244 13:34 23.03.2022
4626 Clouds -2 1021 56 10000 0.45 351 11:38 23.03.2022
4627 Clouds -1 1022 59 10000 1.34 272 08:51 23.03.2022
4628 Clouds -1 1021 70 10000 3.84 340 06:26 23.03.2022
4629 Clouds 1 1022 61 10000 1.79 30 03:52 23.03.2022
4630 Clouds 4 1021 48 10000 12.35 360 00:28 23.03.2022
4631 Clouds 6 1020 40 10000 11.83 10 21:56 22.03.2022
4632 Clouds 6 1020 41 10000 11.83 10 21:26 22.03.2022
4633 Clouds 5 1021 41 10000 5.36 315 20:30 22.03.2022
4634 Clouds 4 1021 40 10000 5.36 17 19:27 22.03.2022
4635 Clouds 4 1021 38 10000 4.02 58 18:50 22.03.2022
4636 Clouds 3 1021 39 10000 3.13 329 17:44 22.03.2022
4637 Clouds 3 1022 42 10000 3.58 315 17:18 22.03.2022
4638 Clouds 1 1021 47 10000 5.14 330 15:49 22.03.2022
4639 Clear 0 1021 50 10000 2.68 313 15:21 22.03.2022
4640 Clear -1 1021 55 10000 1.34 355 14:45 22.03.2022
4641 Clouds -1 1021 55 10000 5.66 330 14:24 22.03.2022
4642 Clouds -2 1020 61 10000 0.45 336 12:40 22.03.2022
4643 Clouds -2 1020 62 10000 1.79 336 11:26 22.03.2022
4644 Clouds -1 1019 58 10000 2.24 11 09:52 22.03.2022
4645 Clouds 0 1019 52 10000 4.02 328 07:44 22.03.2022
4646 Clouds 2 1017 50 10000 3.58 58 04:29 22.03.2022
4647 Clouds 4 1016 57 10000 0.89 84 02:52 22.03.2022
4648 Clouds 4 1013 59 10000 3.58 64 23:19 21.03.2022
4649 Clouds 3 1014 69 10000 2.24 38 21:39 21.03.2022
4650 Clouds 2 1014 72 10000 3.13 350 20:44 21.03.2022
4651 Rain 2 1014 75 10000 3.58 355 20:24 21.03.2022
4652 Snow 1 1014 77 10000 1.79 24 19:48 21.03.2022
4653 Mist 1 1015 79 6437 8.75 20 18:59 21.03.2022
4654 Snow 0 1015 85 224 1.79 20 17:36 21.03.2022
4655 Snow 0 1015 81 4828 9.77 20 16:59 21.03.2022
4656 Snow 0 1014 77 176 2.24 43 16:35 21.03.2022
4657 Clouds 0 1014 73 182 2.68 20 15:44 21.03.2022
4658 Clouds 0 1013 78 10000 5.66 30 14:45 21.03.2022
4659 Clouds 1 1012 77 10000 7.72 20 13:20 21.03.2022
4660 Clouds 5 1009 68 10000 3.58 97 11:59 21.03.2022
4661 Clouds 6 1008 60 10000 2.68 37 11:28 21.03.2022
4662 Clouds 6 1006 54 10000 1.34 69 09:53 21.03.2022
4663 Clouds 8 1004 45 10000 0.45 355 07:53 21.03.2022
4664 Clouds 9 1004 41 10000 0 0 06:29 21.03.2022
4665 Clouds 14 1001 25 10000 4.02 345 02:23 21.03.2022
4666 Clouds 18 1000 16 10000 3.58 210 22:57 20.03.2022
4667 Clouds 18 1001 16 10000 2.24 214 22:29 20.03.2022
4668 Clouds 18 1002 15 10000 2.68 136 21:40 20.03.2022
4669 Clouds 18 1003 16 10000 2.68 110 20:56 20.03.2022
4670 Clouds 17 1003 17 10000 2.24 124 20:36 20.03.2022
4671 Clouds 17 1004 16 10000 9.26 200 19:54 20.03.2022
4672 Clouds 16 1005 17 10000 2.24 183 19:24 20.03.2022
4673 Clouds 13 1006 24 10000 2.24 186 17:49 20.03.2022
4674 Clouds 12 1006 28 10000 1.79 185 17:27 20.03.2022
4675 Clouds 9 1007 31 10000 7.2 190 16:38 20.03.2022
4676 Clouds 5 1008 40 10000 1.79 205 14:50 20.03.2022
4677 Clouds 4 1009 42 10000 1.34 201 13:39 20.03.2022
4678 Clouds 4 1009 44 10000 2.38 211 12:20 20.03.2022
4679 Clouds 4 1009 47 10000 0.45 288 10:28 20.03.2022
4680 Clouds 6 1009 45 10000 0.45 281 08:26 20.03.2022
4681 Clouds 7 1011 44 10000 1.34 186 06:39 20.03.2022
4682 Clouds 9 1012 37 10000 0.89 136 03:25 20.03.2022
4683 Clouds 14 1013 23 10000 1.79 112 00:54 20.03.2022
4684 Clear 14 1013 23 10000 6.17 130 00:54 20.03.2022
4685 Clouds 15 1013 22 10000 2.24 167 00:34 20.03.2022
4686 Clouds 15 1014 21 10000 2.24 114 22:39 19.03.2022
4687 Clouds 14 1015 21 10000 1.79 123 21:26 19.03.2022
4688 Clouds 12 1017 26 10000 2.24 124 19:39 19.03.2022
4689 Clear 11 1018 30 10000 1.79 144 18:44 19.03.2022
4690 Clear 9 1019 33 10000 1.34 182 17:52 19.03.2022
4691 Clear 8 1019 36 10000 1.34 140 17:33 19.03.2022
4692 Clouds 3 1020 48 10000 5.14 180 15:40 19.03.2022
4693 Clear -1 1019 57 10000 0.89 190 14:19 19.03.2022
4694 Clouds -1 1018 55 10000 4.63 190 12:56 19.03.2022
4695 Clear -1 1018 58 10000 0.45 191 12:37 19.03.2022
4696 Clear 0 1018 57 10000 0.89 278 11:46 19.03.2022
4697 Clear 0 1019 58 10000 0.45 152 09:31 19.03.2022
4698 Clouds 3 1019 46 10000 0.45 218 05:44 19.03.2022
4699 Clouds 7 1017 30 10000 1.79 315 02:34 19.03.2022
4700 Clouds 10 1016 26 10000 4.47 308 00:32 19.03.2022
4701 Clouds 10 1016 31 10000 3.13 315 22:59 18.03.2022
4702 Clouds 10 1016 33 10000 0.89 273 22:22 18.03.2022
4703 Clouds 10 1016 33 10000 0.89 273 22:22 18.03.2022
4704 Clouds 8 1017 41 10000 1.79 136 20:31 18.03.2022
4705 Clear 7 1018 45 10000 1.34 165 19:45 18.03.2022
4706 Clear 6 1018 48 10000 1.34 134 19:18 18.03.2022
4707 Rain 1 1020 62 10000 1.34 127 16:59 18.03.2022
4708 Rain 1 1020 65 10000 0.89 222 16:34 18.03.2022
4709 Clear -5 1019 82 10000 0.89 192 14:29 18.03.2022
4710 Clear -5 1020 83 10000 0.45 180 13:41 18.03.2022
4711 Clouds -4 1019 84 10000 0.89 190 11:43 18.03.2022
4712 Clouds -4 1020 84 10000 0.89 217 10:27 18.03.2022
4713 Snow -2 1021 87 10000 1.54 210 08:50 18.03.2022
4714 Clouds -1 1022 87 10000 0.45 294 07:26 18.03.2022
4715 Clouds 0 1022 87 10000 0.45 252 05:20 18.03.2022
4716 Rain 1 1021 84 10000 0.45 275 01:51 18.03.2022
4717 Clouds 2 1020 83 10000 0.45 10 00:20 18.03.2022
4718 Rain 2 1020 86 10000 1.34 79 22:54 17.03.2022
4719 Snow 2 1020 88 10000 4.12 360 22:20 17.03.2022
4720 Snow 1 1020 89 10000 1.79 14 21:31 17.03.2022
4721 Snow 1 1021 89 10000 2.24 27 20:54 17.03.2022
4722 Snow 1 1021 90 5868 1.79 351 20:20 17.03.2022
4723 Snow 1 1021 91 5868 2.68 0 19:38 17.03.2022
4724 Snow 0 1021 92 4114 2.68 325 18:53 17.03.2022
4725 Snow 0 1020 93 1851 2.68 339 17:40 17.03.2022
4726 Snow 0 1019 93 258 2.24 335 16:20 17.03.2022
4727 Snow 0 1019 94 258 2.24 26 15:43 17.03.2022
4728 Snow 0 1018 94 87 2.68 44 14:59 17.03.2022
4729 Snow 0 1016 93 1207 7.2 10 13:47 17.03.2022
4730 Snow 0 1014 94 3160 1.79 4 12:47 17.03.2022
4731 Snow 1 1013 93 10000 2.68 17 11:36 17.03.2022
4732 Snow 1 1012 93 10000 0.89 356 10:44 17.03.2022
4733 Snow 1 1012 93 71 1.1 298 09:37 17.03.2022
4734 Snow 1 1012 92 33 0.28 323 08:19 17.03.2022
4735 Rain 1 1012 90 6437 4.12 350 05:51 17.03.2022
4736 Rain 3 1012 88 28 1.79 330 04:40 17.03.2022
4737 Rain 10 1009 54 10000 3.6 40 00:27 17.03.2022
4738 Clouds 12 1008 40 10000 1.79 107 22:56 16.03.2022
4739 Clouds 12 1008 40 10000 2.06 70 22:36 16.03.2022
4740 Clouds 12 1008 40 10000 2.24 103 21:56 16.03.2022
4741 Clouds 11 1009 42 10000 2.24 75 20:40 16.03.2022
4742 Clouds 11 1010 41 10000 3.13 112 19:23 16.03.2022
4743 Clouds 10 1011 41 10000 2.24 67 18:42 16.03.2022
4744 Clouds 9 1011 41 10000 2.24 37 17:49 16.03.2022
4745 Clouds 9 1011 41 10000 1.34 115 17:31 16.03.2022
4746 Clouds 8 1011 42 10000 0.45 101 16:21 16.03.2022
4747 Clouds 6 1011 44 10000 2.06 330 14:50 16.03.2022
4748 Clouds 6 1010 47 10000 0.45 148 13:36 16.03.2022
4749 Clouds 6 1010 44 10000 0.45 199 12:43 16.03.2022
4750 Clouds 7 1011 42 10000 1.34 99 11:23 16.03.2022
4751 Clouds 7 1010 40 10000 3.6 200 10:30 16.03.2022
4752 Clouds 7 1010 41 10000 1.34 119 09:56 16.03.2022
4753 Clouds 8 1012 36 10000 1.82 225 07:23 16.03.2022
4754 Clouds 14 1011 16 10000 0.45 241 02:44 16.03.2022
4755 Clear 20 1013 9 10000 2.24 36 22:55 15.03.2022
4756 Clear 20 1013 9 10000 2.24 331 22:35 15.03.2022
4757 Clear 19 1015 10 10000 1.34 13 20:55 15.03.2022
4758 Clouds 18 1017 10 10000 2.57 290 19:37 15.03.2022
4759 Clouds 13 1019 20 10000 1.34 241 17:42 15.03.2022
4760 Clouds 10 1019 29 10000 1.34 171 16:35 15.03.2022
4761 Clouds 4 1021 42 10000 1.34 194 15:28 15.03.2022
4762 Clouds 3 1020 46 10000 0.89 179 14:52 15.03.2022
4763 Clear 2 1020 46 10000 1.79 205 13:55 15.03.2022
4764 Clouds 2 1020 46 10000 0.45 184 13:21 15.03.2022
4765 Clouds 2 1021 50 10000 0.89 183 11:32 15.03.2022
4766 Clouds 2 1022 47 10000 6.17 180 10:22 15.03.2022
4767 Clear 2 1022 49 10000 0.89 153 08:53 15.03.2022
4768 Clear 3 1022 48 10000 0.45 151 07:53 15.03.2022
4769 Clear 3 1022 48 10000 0.89 183 07:35 15.03.2022
4770 Clear 4 1023 46 10000 0.45 190 05:45 15.03.2022
4771 Clouds 13 1020 25 10000 1.79 53 00:25 15.03.2022
4772 Clouds 13 1020 25 10000 1.54 360 23:26 14.03.2022
4773 Clouds 13 1020 26 10000 2.57 340 22:44 14.03.2022
4774 Clear 12 1020 28 10000 2.24 111 21:51 14.03.2022
4775 Clear 11 1020 30 10000 2.24 55 20:55 14.03.2022
4776 Clouds 10 1021 32 10000 4.12 360 20:24 14.03.2022
4777 Clouds 9 1021 35 10000 1.34 105 19:22 14.03.2022
4778 Clear 8 1020 41 10000 3.13 346 17:55 14.03.2022
4779 Clear 7 1020 44 10000 2.68 42 17:25 14.03.2022
4780 Clear 5 1019 49 10000 3.58 360 16:26 14.03.2022
4781 Clear 0 1018 61 10000 3.09 30 14:42 14.03.2022
4782 Clouds 1 1014 55 10000 0.45 73 12:55 14.03.2022
4783 Clouds 4 1012 50 10000 0.45 355 10:57 14.03.2022
4784 Clouds 5 1012 49 10000 0.45 261 09:56 14.03.2022
4785 Clouds 5 1012 48 10000 1.54 20 09:23 14.03.2022
4786 Clouds 5 1011 48 10000 1.34 21 08:57 14.03.2022
4787 Clouds 6 1010 47 10000 1.79 306 08:20 14.03.2022
4788 Clouds 7 1008 46 10000 1.79 18 05:46 14.03.2022
4789 Clouds 11 1005 29 10000 1.34 336 02:51 14.03.2022
4790 Clouds 13 1005 24 10000 7.72 330 01:33 14.03.2022
4791 Clouds 16 1003 22 10000 3.13 59 23:25 13.03.2022
4792 Clouds 17 1003 20 10000 0.45 343 21:40 13.03.2022
4793 Clear 16 1003 20 10000 1.32 23 21:19 13.03.2022
4794 Clear 16 1006 21 10000 0.45 72 20:43 13.03.2022
4795 Clear 16 1005 25 10000 0.89 97 20:20 13.03.2022
4796 Clear 15 1007 23 10000 0.89 217 19:40 13.03.2022
4797 Clear 14 1009 24 10000 0.89 94 19:19 13.03.2022
4798 Clear 13 1008 26 10000 1.34 128 18:40 13.03.2022
4799 Clear 12 1009 29 10000 0.89 49 17:47 13.03.2022
4800 Clear 10 1011 34 10000 0.89 94 17:22 13.03.2022
4801 Clear 9 1010 36 10000 0.89 98 16:43 13.03.2022
4802 Clear 7 1011 44 10000 0.45 0 16:20 13.03.2022
4803 Clear 4 1011 51 10000 1.34 218 15:33 13.03.2022
4804 Clouds 1 1011 58 10000 1.54 230 13:53 13.03.2022
4805 Clouds 1 1011 58 10000 1.54 230 13:19 13.03.2022
4806 Clouds 1 1011 55 10000 1.72 222 12:19 13.03.2022
4807 Clouds 2 1012 55 10000 5.14 200 11:36 13.03.2022
4808 Clouds 2 1012 55 10000 0.45 189 10:48 13.03.2022
4809 Clouds 2 1012 55 10000 0.45 189 10:48 13.03.2022
4810 Clouds 2 1013 55 10000 3.09 190 10:24 13.03.2022
4811 Clouds 2 1013 54 10000 0.89 200 09:41 13.03.2022
4812 Clouds 2 1013 55 10000 0.89 200 09:41 13.03.2022
4813 Clouds 3 1014 51 10000 0.45 256 08:47 13.03.2022
4814 Clouds 4 1014 52 10000 0.45 182 07:47 13.03.2022
4815 Clouds 5 1015 47 10000 0.45 127 05:42 13.03.2022
4816 Clear 9 1014 19 10000 4.03 283 02:43 13.03.2022
4817 Clear 12 1015 28 10000 5.81 294 00:20 13.03.2022
4818 Clear 13 1016 27 10000 5.81 329 22:37 12.03.2022
4819 Clouds 13 1018 27 10000 7.72 290 20:54 12.03.2022
4820 Clear 12 1018 26 10000 7.15 298 19:50 12.03.2022
4821 Clear 12 1020 27 10000 3.58 320 19:32 12.03.2022
4822 Clear 10 1018 46 10000 3.36 187 18:27 12.03.2022
4823 Clear 9 1018 30 10000 3.36 187 17:34 12.03.2022
4824 Clear 2 1024 54 10000 0.45 243 16:24 12.03.2022
4825 Clear -2 1022 57 10000 0.45 197 15:23 12.03.2022
4826 Clear -3 1021 57 10000 3.19 219 14:40 12.03.2022
4827 Clear -4 1024 61 10000 0.89 224 12:56 12.03.2022
4828 Clear -4 1024 60 10000 2.94 199 11:56 12.03.2022
4829 Clear -3 1024 59 10000 2.94 199 11:38 12.03.2022
4830 Clear -4 1026 56 10000 2.82 199 10:58 12.03.2022
4831 Clear -4 1026 56 10000 2.82 199 10:58 12.03.2022
4832 Clear -4 1022 56 10000 0.45 72 09:45 12.03.2022
4833 Clear -4 1021 55 10000 0.89 226 08:56 12.03.2022
4834 Clear -4 1023 58 10000 6.17 200 07:20 12.03.2022
4835 Clear -2 1025 45 10000 0.89 76 02:36 12.03.2022
4836 Clear 3 1024 33 10000 2.68 328 23:56 11.03.2022
4837 Clear 3 1024 33 10000 2.68 328 23:56 11.03.2022
4838 Clear 3 1024 33 10000 2.24 334 22:56 11.03.2022
4839 Clear 2 1024 31 10000 4.92 313 21:35 11.03.2022
4840 Rain 2 1024 31 10000 5.36 330 20:54 11.03.2022
4841 Rain 1 1024 31 10000 1.34 167 20:29 11.03.2022
4842 Clear 0 1026 32 10000 1.79 46 19:42 11.03.2022
4843 Clear -1 1027 33 10000 0.89 145 19:20 11.03.2022
4844 Clouds -5 1026 49 10000 2.57 220 17:29 11.03.2022
4845 Clear -8 1027 57 10000 1.34 125 16:27 11.03.2022
4846 Clear -10 1027 61 10000 5.14 180 15:53 11.03.2022
4847 Clear -14 1024 69 10000 4.12 180 14:19 11.03.2022
4848 Clear -13 1029 69 10000 0.74 244 12:44 11.03.2022
4849 Clear -13 1019 70 10000 4.63 180 12:20 11.03.2022
4850 Clear -13 1029 72 10000 1.11 229 11:43 11.03.2022
4851 Clear -14 1028 74 10000 2.01 209 09:39 11.03.2022
4852 Clear -13 1024 75 10000 4.63 140 08:40 11.03.2022
4853 Clear -13 1028 75 10000 2.31 206 07:49 11.03.2022
4854 Clouds -13 1030 76 10000 1.63 220 06:59 11.03.2022
4855 Clouds -12 1024 75 10000 0.45 244 05:42 11.03.2022
4856 Clouds -9 1023 65 10000 1.29 110 02:56 11.03.2022
4857 Snow -6 1021 58 10000 1.34 219 22:56 10.03.2022
4858 Snow -6 1021 59 10000 0.89 339 22:28 10.03.2022
4859 Snow -7 1021 61 10000 0.89 22 21:26 10.03.2022
4860 Snow -8 1022 61 10000 1.34 269 20:45 10.03.2022
4861 Snow -10 1022 67 10000 1.34 170 19:22 10.03.2022
4862 Clouds -11 1021 71 10000 2.06 320 18:30 10.03.2022
4863 Clouds -13 1022 77 10000 0.45 35 16:53 10.03.2022
4864 Clouds -15 1016 81 10000 0.45 113 15:36 10.03.2022
4865 Clear -16 1022 81 10000 0.45 35 14:19 10.03.2022
4866 Clouds -16 1021 82 10000 0.45 39 12:44 10.03.2022
4867 Clouds -16 1019 83 10000 0.45 112 11:33 10.03.2022
4868 Clouds -16 1021 81 10000 2.4 135 09:54 10.03.2022
4869 Clouds -15 1020 80 10000 0.45 32 08:40 10.03.2022
4870 Snow -13 1026 81 157 2.64 78 05:48 10.03.2022
4871 Snow -12 1024 82 196 3.37 52 03:22 10.03.2022
4872 Snow -10 1017 47 225 4.62 16 00:22 10.03.2022
4873 Snow -9 1017 69 1218 5.07 12 22:32 09.03.2022
4874 Mist -8 1012 68 4828 8.23 10 21:47 09.03.2022
4875 Snow -8 1018 67 10000 5.1 12 20:50 09.03.2022
4876 Clouds -7 1013 74 10000 4.02 359 18:58 09.03.2022
4877 Mist -8 1014 77 3219 6.17 320 17:28 09.03.2022
4878 Clouds -8 1014 78 1541 2.68 0 16:48 09.03.2022
4879 Snow -8 1013 81 2706 2.68 339 15:41 09.03.2022
4880 Clouds -7 1012 81 10000 4.63 330 14:24 09.03.2022
4881 Clouds -7 1012 82 10000 5.14 330 13:38 09.03.2022
4882 Clouds -6 1012 80 10000 2.24 0 12:20 09.03.2022
4883 Clouds -6 1012 81 10000 1.79 331 11:46 09.03.2022
4884 Clouds -6 1012 79 10000 1.79 341 10:54 09.03.2022
4885 Clouds -6 1012 71 10000 1.34 330 09:25 09.03.2022
4886 Clouds -5 1012 68 10000 1.34 296 08:43 09.03.2022
4887 Clouds -2 1013 51 10000 0.45 202 05:36 09.03.2022
4888 Clear 3 1012 29 10000 1.79 298 00:56 09.03.2022
4889 Clear 4 1014 27 10000 1.34 123 23:37 08.03.2022
4890 Clear 4 1014 28 10000 1.79 282 22:45 08.03.2022
4891 Clouds 3 1015 29 10000 2.24 355 21:43 08.03.2022
4892 Clear 3 1016 29 10000 2.24 15 21:18 08.03.2022
4893 Clear 2 1017 30 10000 1.34 27 19:59 08.03.2022
4894 Clear 1 1017 32 10000 1.34 80 18:53 08.03.2022
4895 Clear 0 1018 37 10000 1.79 86 17:51 08.03.2022
4896 Clear -3 1018 49 10000 0.89 121 16:35 08.03.2022
4897 Clear -9 1018 69 10000 0.89 30 14:23 08.03.2022
4898 Clouds -8 1018 70 10000 0.45 198 12:44 08.03.2022
4899 Clouds -8 1018 70 10000 1.34 278 11:53 08.03.2022
4900 Clouds -8 1018 69 10000 0.89 272 11:34 08.03.2022
4901 Clouds -7 1019 70 10000 0.89 189 10:22 08.03.2022
4902 Clouds -6 1020 76 10000 0.89 221 07:34 08.03.2022
4903 Clouds -5 1022 77 10000 1.54 210 05:47 08.03.2022
4904 Clouds -2 1021 56 10000 0.45 70 00:43 08.03.2022
4905 Snow -1 1022 49 10000 1.34 53 22:23 07.03.2022
4906 Snow -1 1023 49 10000 1.79 106 21:35 07.03.2022
4907 Snow -2 1023 50 10000 0.89 128 20:52 07.03.2022
4908 Snow -2 1024 52 10000 1.54 90 20:20 07.03.2022
4909 Snow -3 1025 54 10000 0.89 138 19:34 07.03.2022
4910 Snow -3 1026 58 10000 0.45 84 18:46 07.03.2022
4911 Snow -5 1026 64 10000 0.89 156 17:52 07.03.2022
4912 Clouds -7 1027 72 10000 1.34 175 16:56 07.03.2022
4913 Clouds -9 1026 77 10000 1.34 167 15:59 07.03.2022
4914 Clouds -10 1026 80 10000 0.45 104 13:52 07.03.2022
4915 Clouds -10 1026 79 10000 0.89 134 12:33 07.03.2022
4916 Clouds -9 1026 80 10000 0.45 56 10:39 07.03.2022
4917 Clouds -9 1027 81 10000 0.89 109 09:24 07.03.2022
4918 Clouds -8 1026 85 332 1.34 38 04:51 07.03.2022
4919 Clouds -6 1020 83 10000 2.24 0 00:23 07.03.2022
4920 Snow -5 1019 82 10000 2.24 23 23:35 06.03.2022
4921 Mist -5 1019 81 8047 4.12 20 22:52 06.03.2022
4922 Snow -5 1018 81 6958 2.24 358 21:58 06.03.2022
4923 Snow -5 1019 80 4308 2.68 34 20:49 06.03.2022
4924 Snow -4 1019 79 10000 2.68 30 20:22 06.03.2022
4925 Snow -5 1019 80 1713 2.24 31 19:21 06.03.2022
4926 Snow -5 1019 82 2183 2.24 0 18:23 06.03.2022
4927 Snow -5 1019 84 1041 2.24 24 17:21 06.03.2022
4928 Snow -6 1018 86 1041 1.34 28 16:42 06.03.2022
4929 Snow -6 1018 87 1493 1.34 30 15:52 06.03.2022
4930 Clouds -6 1017 87 4828 2.57 120 14:49 06.03.2022
4931 Clouds -6 1017 87 587 0.89 36 14:49 06.03.2022
4932 Clouds -6 1017 86 587 1.79 17 14:31 06.03.2022
4933 Clouds -6 1017 84 8567 0.89 37 13:29 06.03.2022
4934 Clouds -6 1017 84 5025 1.34 37 12:35 06.03.2022
4935 Clouds -6 1016 83 10000 3.6 90 10:59 06.03.2022
4936 Clouds -6 1017 83 775 1.34 107 10:22 06.03.2022
4937 Clouds -5 1016 84 10000 1.34 84 08:29 06.03.2022
4938 Clouds -5 1016 84 10000 1.34 84 08:29 06.03.2022
4939 Clouds -5 1016 84 10000 2.57 100 08:29 06.03.2022
4940 Clouds -5 1016 84 10000 2.57 100 08:29 06.03.2022
4941 Mist -5 1017 85 4828 3.6 110 07:34 06.03.2022
4942 Snow -3 1016 80 10000 1.79 138 05:32 06.03.2022
4943 Clouds -1 1012 67 10000 1.79 72 00:49 06.03.2022
4944 Clouds -1 1009 49 10000 4.6 28 00:29 06.03.2022
4945 Clouds -1 1009 52 10000 3.47 27 23:21 05.03.2022
4946 Clouds -1 1009 52 10000 3.47 27 22:43 05.03.2022
4947 Clouds -1 1009 63 10000 5.14 30 21:45 05.03.2022
4948 Clouds -1 1010 30 10000 3.49 35 21:20 05.03.2022
4949 Clouds -1 1009 87 10000 4.5 29 19:26 05.03.2022
4950 Clouds -1 1008 82 10000 4.33 26 18:53 05.03.2022
4951 Clouds 1 1007 84 4828 3.09 30 17:53 05.03.2022
4952 Clouds 2 1004 84 10000 3.13 28 16:32 05.03.2022
4953 Rain 1 1002 86 10000 0.45 34 15:31 05.03.2022
4954 Clouds 1 1002 86 10000 0.45 179 14:44 05.03.2022
4955 Clouds 1 1002 85 10000 0.89 178 14:26 05.03.2022
4956 Clouds 2 1002 84 10000 1.34 72 13:20 05.03.2022
4957 Clouds 3 1002 78 10000 1.34 46 11:46 05.03.2022
4958 Clouds 3 1002 75 10000 1.79 34 11:18 05.03.2022
4959 Clouds 4 1002 72 10000 1.34 10 09:58 05.03.2022
4960 Clouds 5 1002 67 10000 8.75 350 08:57 05.03.2022
4961 Clouds 8 1001 51 10000 3.58 355 07:37 05.03.2022
4962 Clouds 10 1000 47 10000 3.13 182 05:42 05.03.2022
4963 Clouds 16 1000 21 10000 1.79 210 01:30 05.03.2022
4964 Clouds 18 1000 20 10000 3.09 210 23:35 04.03.2022
4965 Clouds 18 1001 20 10000 6.69 210 22:41 04.03.2022
4966 Clouds 17 1002 20 10000 2.68 219 21:47 04.03.2022
4967 Clouds 16 1001 21 10000 2.24 237 20:49 04.03.2022
4968 Clouds 15 1005 22 10000 7.2 210 20:18 04.03.2022
4969 Clouds 14 1005 24 10000 1.79 188 19:35 04.03.2022
4970 Clouds 13 1005 27 10000 0.89 226 18:36 04.03.2022
4971 Clouds 12 1006 29 10000 1.34 206 17:30 04.03.2022
4972 Clouds 10 1007 32 10000 2.24 198 16:36 04.03.2022
4973 Clouds 7 1008 39 10000 1.34 234 15:28 04.03.2022
4974 Clouds 6 1005 42 10000 2.06 202 13:53 04.03.2022
4975 Clouds 6 1002 45 10000 1.91 200 12:54 04.03.2022
4976 Clouds 6 1009 48 10000 1.77 228 11:38 04.03.2022
4977 Clouds 5 1003 56 10000 0.45 278 10:42 04.03.2022
4978 Clouds 6 1004 57 10000 1.32 215 09:28 04.03.2022
4979 Clouds 7 1007 54 10000 1.32 215 08:31 04.03.2022
4980 Clouds 8 1010 47 10000 2.14 214 06:59 04.03.2022
4981 Clouds 14 1010 35 10000 3.09 260 03:28 04.03.2022
4982 Clouds 20 1009 22 10000 1.47 351 00:19 04.03.2022
4983 Clouds 21 1010 14 10000 1.44 332 22:19 03.03.2022
4984 Clouds 21 1015 15 10000 1.34 82 21:37 03.03.2022
4985 Clouds 20 1015 14 10000 1.79 15 20:59 03.03.2022
4986 Clouds 19 1018 17 10000 0.45 93 19:48 03.03.2022
4987 Clouds 17 1015 21 10000 0.89 40 18:49 03.03.2022
4988 Clouds 15 1017 25 10000 0.89 65 17:46 03.03.2022
4989 Clouds 13 1019 30 10000 0.89 184 17:26 03.03.2022
4990 Clouds 7 1017 42 10000 0.45 196 15:47 03.03.2022
4991 Clouds 5 1018 49 10000 0.45 190 14:52 03.03.2022
4992 Clouds 5 1018 48 10000 0.45 185 14:32 03.03.2022
4993 Clear 5 1017 48 10000 0.45 248 12:52 03.03.2022
4994 Clear 6 1017 50 10000 0.45 247 11:39 03.03.2022
4995 Clear 6 1017 51 10000 2.01 216 10:40 03.03.2022
4996 Clear 7 1018 52 10000 0.89 244 08:45 03.03.2022
4997 Clouds 8 1017 52 10000 0.45 194 06:58 03.03.2022
4998 Clear 8 1017 52 10000 0.89 203 06:33 03.03.2022
4999 Clouds 17 1016 30 10000 1.34 325 01:21 03.03.2022
5000 Clouds 19 1015 23 10000 2.09 334 23:28 02.03.2022
5001 Clouds 19 1014 24 10000 1.34 55 22:49 02.03.2022
5002 Clouds 19 1016 24 10000 1.38 319 21:25 02.03.2022
5003 Clouds 19 1016 24 10000 1.39 322 20:40 02.03.2022
5004 Clouds 18 1018 27 10000 0.33 295 19:56 02.03.2022
5005 Clouds 18 1018 26 10000 0.33 295 19:56 02.03.2022
5006 Clouds 17 1023 24 10000 2.06 180 19:33 02.03.2022
5007 Clouds 17 1017 23 10000 0.45 177 18:44 02.03.2022
5008 Clear 15 1018 27 10000 1.34 148 17:57 02.03.2022
5009 Clear 13 1020 34 10000 3.03 197 17:21 02.03.2022
5010 Clear 11 1019 34 10000 1.79 200 16:42 02.03.2022
5011 Clear 5 1019 48 10000 0.89 215 14:43 02.03.2022
5012 Clouds 5 1020 48 10000 4.12 180 13:24 02.03.2022
5013 Clouds 6 1019 46 10000 0.89 217 12:42 02.03.2022
5014 Clouds 6 1019 46 10000 0.89 217 11:40 02.03.2022
5015 Clouds 6 1019 47 10000 0.45 195 11:21 02.03.2022
5016 Clouds 6 1019 44 10000 0.89 208 09:41 02.03.2022
5017 Clear 7 1020 44 10000 0.45 184 08:52 02.03.2022
5018 Clear 8 1020 45 10000 0.45 100 07:28 02.03.2022
5019 Clear 8 1022 44 10000 0.45 189 06:40 02.03.2022
5020 Clear 18 1016 15 10000 1.86 353 00:58 02.03.2022
5021 Clouds 20 1018 13 10000 1.54 270 23:47 01.03.2022
5022 Clear 20 1016 15 10000 0.45 128 22:45 01.03.2022
5023 Clear 20 1017 16 10000 1.34 146 21:57 01.03.2022
5024 Clear 20 1017 17 10000 2.24 117 21:23 01.03.2022
5025 Clear 19 1017 21 10000 0.65 133 20:30 01.03.2022
5026 Clouds 17 1023 21 10000 2.57 140 19:28 01.03.2022
5027 Clouds 16 1021 22 10000 3.09 200 18:49 01.03.2022
5028 Clear 14 1020 25 10000 1.75 191 18:19 01.03.2022
5029 Clear 11 1021 32 10000 1.96 200 17:19 01.03.2022
5030 Clear 7 1022 39 10000 0.89 215 16:31 01.03.2022
5031 Clouds 6 1020 38 10000 3.6 190 15:38 01.03.2022
5032 Clear 3 1019 42 10000 0.89 171 14:34 01.03.2022
5033 Clear 3 1019 40 10000 0.89 173 13:52 01.03.2022
5034 Clear 3 1019 40 10000 0.89 207 13:24 01.03.2022
5035 Clear 3 1019 41 10000 0.89 178 12:30 01.03.2022
5036 Clear 4 1019 41 10000 5.14 200 10:34 01.03.2022
5037 Clear 4 1021 43 10000 0.45 202 08:41 01.03.2022
5038 Clear 3 1020 47 10000 0.89 193 07:44 01.03.2022
5039 Clear 4 1021 41 10000 2.57 190 05:49 01.03.2022
5040 Clear 14 1018 50 10000 1.87 248 01:48 01.03.2022
5041 Clear 15 1018 45 10000 1.42 240 00:34 01.03.2022
5042 Clear 16 1018 39 10000 1.5 2 23:29 28.02.2022
5043 Clear 16 1018 20 10000 1.07 354 21:59 28.02.2022
5044 Clear 16 1018 16 10000 1.55 157 21:25 28.02.2022
5045 Clear 15 1020 15 10000 1.99 181 19:55 28.02.2022
5046 Clear 14 1020 19 10000 1.99 181 19:33 28.02.2022
5047 Clouds 12 1023 21 10000 1.79 211 18:40 28.02.2022
5048 Clouds 8 1025 33 10000 1.63 205 17:30 28.02.2022
5049 Clouds 5 1024 38 10000 1.34 165 16:33 28.02.2022
5050 Clouds 1 1024 48 10000 0.89 186 15:23 28.02.2022
5051 Clouds 1 1024 50 10000 4.12 200 14:31 28.02.2022
5052 Clouds 1 1024 52 10000 0.89 187 13:47 28.02.2022
5053 Clouds 0 1024 53 10000 4.63 180 12:41 28.02.2022
5054 Clouds 0 1024 52 10000 0.89 192 11:55 28.02.2022
5055 Clouds 1 1024 53 10000 0.89 235 10:48 28.02.2022
5056 Clouds 1 1024 53 10000 0.89 192 10:20 28.02.2022
5057 Clouds 1 1024 55 10000 1.34 231 09:32 28.02.2022
5058 Clouds 1 1024 55 10000 0.45 209 08:29 28.02.2022
5059 Clouds 1 1024 56 10000 0.45 194 07:28 28.02.2022
5060 Clouds 2 1024 55 10000 0.45 278 04:55 28.02.2022
5061 Clouds 3 1024 53 10000 1.56 312 04:26 28.02.2022
5062 Clear 14 1020 54 10000 0.96 260 23:42 27.02.2022
5063 Clear 12 1020 53 10000 0.3 175 22:34 27.02.2022
5064 Clear 11 1021 50 10000 0.58 337 21:51 27.02.2022
5065 Clear 11 1022 22 10000 0.77 326 20:59 27.02.2022
5066 Clear 11 1025 22 10000 1.54 230 20:27 27.02.2022
5067 Clear 10 1023 20 10000 0.22 337 19:57 27.02.2022
5068 Clouds 8 1024 23 10000 0.75 185 19:27 27.02.2022
5069 Clouds 7 1029 25 10000 0.89 118 18:47 27.02.2022
5070 Clouds 5 1027 30 10000 1.79 245 17:56 27.02.2022
5071 Clouds 2 1028 33 10000 1.34 221 16:54 27.02.2022
5072 Clouds -2 1027 45 10000 1.34 171 16:21 27.02.2022
5073 Clear -6 1028 50 10000 2.48 205 13:25 27.02.2022
5074 Clear -6 1027 50 10000 0.89 184 12:32 27.02.2022
5075 Clear -6 1027 50 10000 0.45 194 10:59 27.02.2022
5076 Clear -5 1027 49 10000 0.45 194 10:20 27.02.2022
5077 Clear -6 1027 51 10000 0.89 228 09:50 27.02.2022
5078 Clear -6 1027 54 10000 1.34 182 09:20 27.02.2022
5079 Clear -6 1028 56 10000 1.34 195 08:20 27.02.2022
5080 Clear -5 1030 63 10000 0.45 219 05:38 27.02.2022
5081 Clear -5 1030 63 10000 0.45 219 05:38 27.02.2022
5082 Clear -1 1029 51 10000 0.89 323 02:21 27.02.2022
5083 Clear 3 1028 32 10000 1.34 30 23:30 26.02.2022
5084 Clear 3 1028 32 10000 1.34 30 23:30 26.02.2022
5085 Clear 3 1026 29 10000 1.79 34 22:31 26.02.2022
5086 Clear 2 1027 29 10000 1.79 75 21:18 26.02.2022
5087 Rain 2 1027 31 10000 0.89 113 20:27 26.02.2022
5088 Rain 1 1028 31 10000 1.34 44 19:50 26.02.2022
5089 Clouds 0 1025 32 10000 0.89 261 19:29 26.02.2022
5090 Clouds -2 1028 40 10000 4.12 210 17:52 26.02.2022
5091 Clouds -3 1028 46 10000 4.12 210 17:29 26.02.2022
5092 Clear -7 1029 61 10000 1.34 213 16:19 26.02.2022
5093 Clear -11 1028 70 10000 0.45 239 15:25 26.02.2022
5094 Clear -11 1027 69 10000 0.45 193 14:56 26.02.2022
5095 Clear -11 1027 69 10000 0.45 193 14:38 26.02.2022
5096 Clear -11 1027 70 10000 1.34 208 13:27 26.02.2022
5097 Clear -11 1027 72 10000 0.45 195 12:51 26.02.2022
5098 Clouds -11 1027 74 10000 1.34 247 11:29 26.02.2022
5099 Clear -10 1026 76 10000 2.57 210 10:55 26.02.2022
5100 Clouds -10 1028 77 10000 0.45 211 09:18 26.02.2022
5101 Clouds -10 1027 76 10000 0.45 223 07:57 26.02.2022
5102 Clouds -6 1028 64 10000 0.45 65 02:53 26.02.2022
5103 Clouds -2 1026 54 10000 1.79 28 23:31 25.02.2022
5104 Snow -2 1025 50 10000 2.06 40 21:49 25.02.2022
5105 Snow -2 1026 50 10000 1.34 10 21:29 25.02.2022
5106 Snow -3 1026 54 10000 1.54 360 20:33 25.02.2022
5107 Snow -4 1027 55 10000 1.34 96 19:41 25.02.2022
5108 Clouds -7 1029 64 10000 1.34 185 17:35 25.02.2022
5109 Clouds -9 1031 73 10000 0.89 169 16:45 25.02.2022
5110 Clear -12 1028 78 10000 3.09 230 15:48 25.02.2022
5111 Clouds -14 1029 81 10000 1.04 357 15:23 25.02.2022
5112 Clouds -14 1029 80 10000 1.04 357 14:45 25.02.2022
5113 Clouds -14 1028 80 10000 0.45 296 14:18 25.02.2022
5114 Clouds -14 1026 79 10000 0.45 330 13:20 25.02.2022
5115 Clouds -13 1024 79 10000 0.71 334 11:39 25.02.2022
5116 Clouds -13 1026 79 10000 0.19 242 11:18 25.02.2022
5117 Clouds -13 1025 78 10000 0.47 246 10:23 25.02.2022
5118 Clouds -13 1025 77 10000 0.47 246 09:36 25.02.2022
5119 Clouds -12 1026 76 10000 0.45 292 07:47 25.02.2022
5120 Clouds -11 1026 73 10000 0.45 350 06:45 25.02.2022
5121 Clouds -11 1025 72 10000 0.45 65 05:37 25.02.2022
5122 Snow -4 1020 54 10000 3.13 11 00:46 25.02.2022
5123 Snow -4 1018 52 10000 0.89 188 22:30 24.02.2022
5124 Snow -5 1018 53 10000 1.34 97 21:43 24.02.2022
5125 Snow -5 1018 56 10000 1.34 110 21:21 24.02.2022
5126 Snow -6 1019 59 10000 1.34 205 20:42 24.02.2022
5127 Snow -8 1020 64 10000 1.34 221 19:29 24.02.2022
5128 Clouds -11 1022 68 10000 1.34 345 18:20 24.02.2022
5129 Clouds -12 1021 71 10000 0.45 247 17:51 24.02.2022
5130 Clouds -13 1021 75 10000 0.89 325 17:18 24.02.2022
5131 Clouds -14 1021 77 10000 0.89 344 16:25 24.02.2022
5132 Clouds -15 1020 78 10000 0.45 347 15:41 24.02.2022
5133 Clouds -15 1019 79 10000 1.56 332 14:44 24.02.2022
5134 Clouds -15 1019 78 10000 0.45 319 13:51 24.02.2022
5135 Clouds -15 1019 78 3928 0.45 313 13:30 24.02.2022
5136 Clouds -14 1018 78 278 0.45 316 10:50 24.02.2022
5137 Clouds -14 1018 78 1240 0.89 0 10:31 24.02.2022
5138 Snow -14 1019 78 738 1.7 12 08:43 24.02.2022
5139 Snow -14 1019 78 738 1.7 12 08:43 24.02.2022
5140 Snow -14 1020 76 498 0.45 242 06:28 24.02.2022
5141 Clouds -14 1021 76 498 0.89 311 05:37 24.02.2022
5142 Clouds -11 1016 58 10000 4.63 340 00:30 24.02.2022
5143 Clouds -11 1016 58 10000 4.63 340 00:30 24.02.2022
5144 Snow -11 1020 56 10000 2.06 40 21:56 23.02.2022
5145 Clouds -12 1022 59 10000 1.34 359 20:33 23.02.2022
5146 Mist -12 1023 60 9656 1.79 320 19:56 23.02.2022
5147 Clouds -14 1024 62 10000 1.34 141 18:59 23.02.2022
5148 Clouds -15 1026 67 5039 0.89 26 17:47 23.02.2022
5149 Clouds -17 1028 75 4132 1.34 328 15:47 23.02.2022
5150 Clouds -18 1028 77 4564 0.89 338 13:34 23.02.2022
5151 Clouds -18 1028 77 1993 0.89 350 12:28 23.02.2022
5152 Clouds -17 1029 76 2202 1.34 29 10:55 23.02.2022
5153 Clouds -16 1029 75 3427 0.89 28 09:31 23.02.2022
5154 Mist -16 1029 76 6437 4.12 110 08:28 23.02.2022
5155 Snow -16 1030 76 1317 1.34 82 07:25 23.02.2022
5156 Clouds -14 1029 75 404 0.89 24 02:22 23.02.2022
5157 Clouds -13 1027 64 367 0.89 36 23:46 22.02.2022
5158 Clouds -13 1026 63 655 1.79 10 23:28 22.02.2022
5159 Clouds -13 1025 58 8639 2.24 305 22:28 22.02.2022
5160 Clouds -13 1023 60 8639 1.34 296 21:40 22.02.2022
5161 Mist -13 1023 60 8047 3.09 40 21:19 22.02.2022
5162 Clouds -14 1024 61 10000 1.34 21 20:31 22.02.2022
5163 Clouds -14 1024 61 10000 1.34 100 19:54 22.02.2022
5164 Clouds -15 1023 64 10000 1.34 42 19:33 22.02.2022
5165 Clouds -15 1023 64 10000 0.89 60 18:35 22.02.2022
5166 Clouds -16 1023 68 10000 0.89 240 17:27 22.02.2022
5167 Clouds -17 1018 70 10000 0.89 28 16:55 22.02.2022
5168 Clouds -17 1021 72 10000 2.24 286 16:19 22.02.2022
5169 Clouds -18 1016 75 10000 0.89 52 15:21 22.02.2022
5170 Clouds -18 1019 74 10000 2.24 302 14:19 22.02.2022
5171 Clouds -17 1023 76 5951 4.29 38 11:18 22.02.2022
5172 Snow -16 1023 77 7995 4.4 40 09:44 22.02.2022
5173 Clouds -14 1012 78 2843 1.34 334 07:29 22.02.2022
5174 Clouds -13 1013 76 1199 2.68 46 06:54 22.02.2022
5175 Clouds -9 1009 74 4513 1.34 355 02:49 22.02.2022
5176 Clouds -2 1003 49 10000 7.5 22 23:18 21.02.2022
5177 Clouds 4 999 44 10000 8.55 18 21:56 21.02.2022
5178 Clouds 10 996 8 10000 4.11 25 20:38 21.02.2022
5179 Clouds 11 997 24 10000 1.34 165 18:47 21.02.2022
5180 Clouds 10 998 28 10000 1.79 172 18:19 21.02.2022
5181 Clouds 4 1000 38 10000 0.89 265 15:49 21.02.2022
5182 Clouds 2 1000 40 10000 0.89 213 14:22 21.02.2022
5183 Clouds 2 1000 40 10000 0.89 226 13:31 21.02.2022
5184 Clouds 2 999 39 10000 0.89 217 12:41 21.02.2022
5185 Clouds 3 1000 37 10000 6.17 190 12:20 21.02.2022
5186 Clouds 3 1001 35 10000 1.34 194 10:27 21.02.2022
5187 Clouds 4 1004 39 10000 0.89 214 06:25 21.02.2022
5188 Clouds 15 1004 41 10000 1.32 320 00:35 21.02.2022
5189 Clouds 15 1004 36 10000 1.62 8 22:32 20.02.2022
5190 Clouds 15 1004 35 10000 0.71 25 21:43 20.02.2022
5191 Clouds 15 1006 37 10000 0.42 195 21:21 20.02.2022
5192 Clouds 14 1006 22 10000 0.42 195 20:43 20.02.2022
5193 Clouds 13 1008 19 10000 1.26 187 19:48 20.02.2022
5194 Clouds 11 1009 24 10000 0.45 245 18:55 20.02.2022
5195 Clouds 10 1010 28 10000 5.66 220 18:34 20.02.2022
5196 Clouds 9 1009 31 10000 0.45 196 17:55 20.02.2022
5197 Clouds 3 1010 38 10000 2.06 180 16:18 20.02.2022
5198 Clouds 1 1010 42 10000 0.89 265 14:53 20.02.2022
5199 Clouds 1 1010 41 10000 0.89 119 13:58 20.02.2022
5200 Clouds 1 1009 43 10000 0.89 0 12:42 20.02.2022
5201 Clear 1 1008 44 10000 0.89 19 10:52 20.02.2022
5202 Clear 1 1008 45 10000 0.89 114 10:20 20.02.2022
5203 Clouds 1 1009 48 10000 3.09 220 09:24 20.02.2022
5204 Clear 7 1011 32 10000 0.89 293 02:54 20.02.2022
5205 Clear 12 1009 34 10000 0.94 308 00:31 20.02.2022
5206 Clear 13 1009 20 10000 0.94 308 23:30 19.02.2022
5207 Clear 13 1011 24 10000 1.05 175 22:23 19.02.2022
5208 Clear 13 1011 22 10000 1.05 175 21:45 19.02.2022
5209 Clear 11 1016 26 10000 0.45 128 20:23 19.02.2022
5210 Clear 10 1018 27 10000 2.24 189 19:34 19.02.2022
5211 Clear 7 1020 35 10000 1.34 132 18:38 19.02.2022
5212 Clear 6 1020 39 10000 0.89 271 17:37 19.02.2022
5213 Clear 3 1021 45 10000 1.34 198 16:44 19.02.2022
5214 Clear -1 1021 56 10000 0.89 209 15:20 19.02.2022
5215 Clear -1 1021 55 10000 0.89 195 14:52 19.02.2022
5216 Clear -1 1021 57 10000 1.79 194 13:47 19.02.2022
5217 Clear -1 1022 59 10000 5.66 190 11:39 19.02.2022
5218 Clear -1 1023 58 10000 1.34 185 10:30 19.02.2022
5219 Clear -1 1024 60 10000 0.89 180 08:31 19.02.2022
5220 Clear 0 1025 57 10000 4.63 180 06:30 19.02.2022
5221 Clear 6 1022 42 10000 3.13 33 23:45 18.02.2022
5222 Clear 7 1021 41 10000 2.68 32 21:54 18.02.2022
5223 Clear 7 1020 40 10000 2.68 37 20:57 18.02.2022
5224 Clear 6 1022 38 10000 1.34 15 19:54 18.02.2022
5225 Clear 6 1022 40 10000 1.34 127 18:50 18.02.2022
5226 Clear 4 1021 43 10000 1.34 198 18:22 18.02.2022
5227 Clouds 4 1022 43 10000 3.09 210 17:55 18.02.2022
5228 Clear -4 1022 63 10000 0.89 192 15:22 18.02.2022
5229 Clear -4 1021 64 10000 0.89 198 13:55 18.02.2022
5230 Clouds -4 1021 67 10000 0.89 238 12:55 18.02.2022
5231 Clouds -4 1021 66 10000 2.75 228 12:36 18.02.2022
5232 Clouds -4 1021 67 10000 0.45 86 11:29 18.02.2022
5233 Clouds -4 1021 71 10000 0.45 282 10:23 18.02.2022
5234 Clear -5 1020 71 10000 0.45 189 06:57 18.02.2022
5235 Clouds -5 1019 70 10000 4.12 180 05:40 18.02.2022
5236 Rain 1 1019 46 10000 4.12 120 23:31 17.02.2022
5237 Rain 0 1021 54 10000 1.79 158 21:45 17.02.2022
5238 Rain 0 1021 57 10000 2.24 176 21:20 17.02.2022
5239 Snow -2 1022 64 10000 2.24 188 20:38 17.02.2022
5240 Snow -3 1023 67 10000 1.79 176 19:49 17.02.2022
5241 Snow -4 1024 72 10000 2.24 203 18:44 17.02.2022
5242 Snow -6 1025 78 10000 0.45 187 17:50 17.02.2022
5243 Clouds -9 1025 83 10000 0.45 289 16:29 17.02.2022
5244 Clouds -10 1024 86 10000 2.57 180 15:32 17.02.2022
5245 Clouds -10 1024 86 10000 0.45 206 14:26 17.02.2022
5246 Clouds -10 1022 87 10000 1.54 220 12:38 17.02.2022
5247 Clouds -8 1023 87 850 2.4 358 11:23 17.02.2022
5248 Clouds -8 1023 87 850 2.4 358 11:23 17.02.2022
5249 Snow -8 1023 87 621 0.89 20 08:52 17.02.2022
5250 Snow -3 1011 89 162 1.79 30 01:45 17.02.2022
5251 Snow -1 1007 83 1016 2.24 20 23:19 16.02.2022
5252 Clouds 0 1006 72 7120 3.47 12 21:31 16.02.2022
5253 Clouds 0 1007 77 10000 2.8 21 19:47 16.02.2022
5254 Clouds 1 1008 75 10000 3.38 25 18:38 16.02.2022
5255 Clear 0 1005 73 10000 2.24 31 17:53 16.02.2022
5256 Clouds -2 1005 83 10000 0 0 15:38 16.02.2022
5257 Clear -3 1004 82 10000 0.45 295 14:59 16.02.2022
5258 Clouds -2 1004 77 10000 0.45 62 12:35 16.02.2022
5259 Clouds -2 1005 75 10000 0.45 209 11:55 16.02.2022
5260 Clouds -1 1005 73 10000 0.89 25 11:24 16.02.2022
5261 Clouds 0 1005 68 10000 0.45 33 10:30 16.02.2022
5262 Clouds 4 1002 46 10000 1.17 217 06:57 16.02.2022
5263 Clouds 4 1003 47 10000 2.23 216 04:43 16.02.2022
5264 Clouds 12 1001 26 10000 1.79 44 23:44 15.02.2022
5265 Clouds 13 1001 24 10000 1.34 31 22:19 15.02.2022
5266 Clouds 13 1000 21 10000 1.79 284 21:45 15.02.2022
5267 Clouds 13 1001 21 10000 1.79 28 21:27 15.02.2022
5268 Clouds 12 1001 20 10000 2.24 313 20:55 15.02.2022
5269 Clouds 12 1003 21 10000 4.12 220 19:55 15.02.2022
5270 Clouds 10 1004 23 10000 4.63 200 18:52 15.02.2022
5271 Clouds 9 1004 26 10000 1.79 185 18:19 15.02.2022
5272 Clouds 8 1004 26 10000 0.89 182 17:48 15.02.2022
5273 Clouds 3 1005 36 10000 1.34 168 16:30 15.02.2022
5274 Clouds 2 1006 38 10000 0.45 136 15:22 15.02.2022
5275 Clouds 2 1006 39 10000 0.45 141 13:26 15.02.2022
5276 Clouds 1 1006 40 10000 0.45 189 11:57 15.02.2022
5277 Clouds 2 1007 39 10000 1.79 146 10:58 15.02.2022
5278 Clouds 2 1008 40 10000 0.45 137 09:28 15.02.2022
5279 Clouds 3 1010 49 10000 2.06 200 06:49 15.02.2022
5280 Clouds 9 1010 35 10000 1.34 308 00:48 15.02.2022
5281 Clear 12 1012 30 10000 1.79 38 22:20 14.02.2022
5282 Clear 11 1014 30 10000 1.79 250 21:27 14.02.2022
5283 Clouds 10 1017 29 10000 4.12 170 20:24 14.02.2022
5284 Clear 9 1018 29 10000 0.81 184 19:30 14.02.2022
5285 Clear 8 1017 30 10000 1.79 165 18:27 14.02.2022
5286 Clear 7 1018 31 10000 1.34 127 17:43 14.02.2022
5287 Clear 7 1018 31 10000 1.34 127 17:43 14.02.2022
5288 Clear 5 1019 36 10000 5.14 200 17:24 14.02.2022
5289 Clear 1 1020 43 10000 0.89 131 15:58 14.02.2022
5290 Clear 0 1020 42 10000 0.89 237 13:40 14.02.2022
5291 Clear 0 1020 43 10000 0.89 237 13:22 14.02.2022
5292 Clear 0 1020 45 10000 1.34 193 12:32 14.02.2022
5293 Clear 0 1020 44 10000 0.89 190 11:54 14.02.2022
5294 Clear 0 1021 47 10000 0.89 189 10:31 14.02.2022
5295 Clear 1 1022 49 10000 0.89 172 08:37 14.02.2022
5296 Clouds 1 1022 48 10000 4.63 180 07:27 14.02.2022
5297 Clear 11 1018 53 10000 0.95 269 23:41 13.02.2022
5298 Clear 12 1018 26 10000 0.74 247 22:42 13.02.2022
5299 Clear 13 1019 22 10000 0.97 209 22:23 13.02.2022
5300 Clear 12 1020 25 10000 1.22 206 21:28 13.02.2022
5301 Clear 11 1020 37 10000 5.81 305 20:32 13.02.2022
5302 Clear 9 1022 45 10000 1.34 155 19:24 13.02.2022
5303 Clear 8 1025 37 10000 1.34 182 18:42 13.02.2022
5304 Clear 5 1025 42 10000 1.34 209 17:54 13.02.2022
5305 Clear -1 1026 57 10000 0.45 233 15:54 13.02.2022
5306 Clear -2 1026 58 10000 0.45 198 15:54 13.02.2022
5307 Clear -3 1027 61 10000 2.2 221 14:58 13.02.2022
5308 Clouds -3 1026 61 10000 4.12 180 13:59 13.02.2022
5309 Clear -3 1025 61 10000 0.89 256 12:50 13.02.2022
5310 Clouds -3 1025 63 10000 5.66 180 11:26 13.02.2022
5311 Clear -3 1027 62 10000 0.89 179 10:30 13.02.2022
5312 Clear -3 1027 65 10000 0.45 185 09:41 13.02.2022
5313 Clear -3 1027 70 10000 0.89 221 07:19 13.02.2022
5314 Clouds 4 1023 55 10000 1.34 110 00:35 13.02.2022
5315 Clouds 5 1026 48 10000 0.45 103 23:39 12.02.2022
5316 Clouds 5 1025 43 10000 0.89 119 22:33 12.02.2022
5317 Clouds 4 1026 49 10000 2.24 165 21:19 12.02.2022
5318 Clouds 3 1027 53 10000 1.79 167 20:32 12.02.2022
5319 Rain 1 1028 57 10000 1.34 151 19:21 12.02.2022
5320 Snow 0 1028 60 10000 1.34 162 18:50 12.02.2022
5321 Snow -1 1029 63 10000 1.34 231 18:32 12.02.2022
5322 Clouds -5 1027 69 10000 2.87 205 16:55 12.02.2022
5323 Clouds -7 1031 78 10000 0.45 188 16:25 12.02.2022
5324 Clouds -7 1036 75 10000 2.41 206 15:50 12.02.2022
5325 Clear -9 1031 83 10000 0.89 189 14:31 12.02.2022
5326 Clouds -9 1030 86 10000 0.45 163 12:55 12.02.2022
5327 Clouds -8 1031 86 10000 1.19 215 10:36 12.02.2022
5328 Clouds -7 1031 87 10000 1.37 208 09:39 12.02.2022
5329 Clouds -6 1030 88 10000 0 0 08:50 12.02.2022
5330 Clouds -5 1030 89 6437 0 0 07:53 12.02.2022
5331 Snow -4 1029 90 10000 0.45 19 05:33 12.02.2022
5332 Snow -3 1026 90 1609 5.14 30 03:32 12.02.2022
5333 Snow -3 1024 90 162 0.45 45 02:18 12.02.2022
5334 Snow -1 1020 81 3086 1.34 44 22:28 11.02.2022
5335 Snow 0 1019 70 3086 3.13 45 21:47 11.02.2022
5336 Clouds 1 1018 58 10000 3.58 40 20:39 11.02.2022
5337 Clouds 2 1019 56 10000 3.13 48 19:35 11.02.2022
5338 Clouds 2 1018 56 10000 3.13 49 18:59 11.02.2022
5339 Clouds 2 1017 60 10000 1.79 64 17:41 11.02.2022
5340 Clouds 2 1017 63 10000 4.12 360 17:22 11.02.2022
5341 Clouds 0 1017 73 10000 0.45 188 15:56 11.02.2022
5342 Clouds 0 1016 75 10000 1.34 45 14:43 11.02.2022
5343 Clouds 0 1015 75 10000 2.68 59 14:20 11.02.2022
5344 Clouds 0 1014 73 10000 3.58 49 13:52 11.02.2022
5345 Clouds 1 1013 67 10000 4.92 23 13:34 11.02.2022
5346 Clouds 6 1011 45 10000 0.65 239 11:32 11.02.2022
5347 Clouds 5 1008 39 10000 2.58 220 09:45 11.02.2022
5348 Clouds 5 1009 42 10000 2.77 197 08:40 11.02.2022
5349 Clear 6 1009 45 10000 2.38 197 08:22 11.02.2022
5350 Clouds 6 1008 33 10000 4.12 260 06:33 11.02.2022
5351 Clear 9 1009 38 10000 2.68 234 02:26 11.02.2022
5352 Clouds 12 1010 49 10000 1.84 236 00:47 11.02.2022
5353 Clouds 13 1011 40 10000 1.86 168 22:45 10.02.2022
5354 Clouds 13 1012 27 10000 0.82 142 21:45 10.02.2022
5355 Clouds 12 1014 24 10000 0.32 110 20:54 10.02.2022
5356 Clouds 12 1015 27 10000 0.23 109 20:29 10.02.2022
5357 Clouds 10 1017 29 10000 3.09 230 19:25 10.02.2022
5358 Clouds 10 1016 30 10000 0.45 224 18:43 10.02.2022
5359 Clear 6 1017 49 10000 0.89 121 17:26 10.02.2022
5360 Clouds 4 1017 54 10000 5.66 190 16:47 10.02.2022
5361 Clouds 0 1018 67 10000 5.14 190 15:45 10.02.2022
5362 Clear 0 1018 69 10000 0.89 202 15:25 10.02.2022
5363 Clear 0 1019 72 10000 1.34 192 14:44 10.02.2022
5364 Clear 0 1019 72 10000 1.34 192 14:22 10.02.2022
5365 Clouds 0 1019 75 10000 0.89 180 13:20 10.02.2022
5366 Clouds 0 1020 77 10000 0.89 188 11:58 10.02.2022
5367 Clouds 1 1020 77 10000 1.79 162 11:32 10.02.2022
5368 Clouds 1 1021 78 10000 1.79 171 10:32 10.02.2022
5369 Clouds 1 1021 78 10000 1.79 185 09:46 10.02.2022
5370 Clouds 2 1022 75 10000 0.89 184 08:42 10.02.2022
5371 Clouds 2 1022 68 10000 5.14 60 06:42 10.02.2022
5372 Clouds 4 1020 51 10000 0.45 321 03:39 10.02.2022
5373 Clouds 6 1015 39 10000 2.24 340 01:18 10.02.2022
5374 Clouds 7 1016 51 10000 1.29 196 00:41 10.02.2022
5375 Clouds 8 1015 32 10000 0.76 141 00:23 10.02.2022
5376 Clouds 10 1015 30 10000 0.62 47 22:57 09.02.2022
5377 Clouds 11 1015 27 10000 0.63 78 22:33 09.02.2022
5378 Clouds 10 1015 27 10000 0.63 78 21:48 09.02.2022
5379 Clouds 11 1016 26 10000 1.6 151 21:28 09.02.2022
5380 Clouds 11 1016 28 10000 1.6 151 20:45 09.02.2022
5381 Clouds 10 1018 35 10000 1.71 147 20:23 09.02.2022
5382 Clouds 9 1018 31 10000 1.71 147 19:42 09.02.2022
5383 Clouds 8 1019 31 10000 2.24 118 18:50 09.02.2022
5384 Clouds 5 1019 37 10000 1.34 196 17:24 09.02.2022
5385 Clouds 2 1020 43 10000 0.89 110 16:20 09.02.2022
5386 Clouds 1 1020 46 10000 1.34 194 15:26 09.02.2022
5387 Clouds 0 1019 48 10000 0.45 119 12:54 09.02.2022
5388 Clouds 1 1018 44 10000 0.45 171 11:52 09.02.2022
5389 Clouds 1 1019 45 10000 0.45 275 10:35 09.02.2022
5390 Clear 1 1019 42 10000 2.55 205 09:53 09.02.2022
5391 Clouds 1 1019 43 10000 2.57 270 09:22 09.02.2022
5392 Clouds 1 1019 47 10000 3.09 210 08:46 09.02.2022
5393 Clouds 2 1019 45 10000 0.45 213 06:52 09.02.2022
5394 Clouds 3 1019 37 10000 0.45 250 04:30 09.02.2022
5395 Clouds 3 1020 38 10000 0.45 265 03:48 09.02.2022
5396 Clear 9 1020 40 10000 3.64 328 23:45 08.02.2022
5397 Clear 10 1021 27 10000 1.34 111 23:19 08.02.2022
5398 Clear 10 1021 27 10000 1.34 111 23:19 08.02.2022
5399 Clear 9 1020 24 10000 5.64 319 22:38 08.02.2022
5400 Clear 10 1020 24 10000 5.64 319 22:38 08.02.2022
5401 Clear 10 1020 24 10000 4.91 305 22:20 08.02.2022
5402 Clear 9 1022 26 10000 6.26 309 21:22 08.02.2022
5403 Clear 9 1021 28 10000 1.79 179 20:58 08.02.2022
5404 Clear 9 1022 29 10000 2.24 165 20:37 08.02.2022
5405 Clear 9 1022 29 10000 2.24 165 20:37 08.02.2022
5406 Clouds 8 1023 33 10000 0.45 115 19:27 08.02.2022
5407 Clouds 7 1022 33 10000 2.24 126 18:19 08.02.2022
5408 Clouds 5 1022 35 10000 2.57 80 16:56 08.02.2022
5409 Clouds 2 1019 43 10000 0.45 246 15:47 08.02.2022
5410 Clouds 1 1018 47 10000 5.14 290 14:58 08.02.2022
5411 Clouds 2 1017 46 10000 0.89 250 13:48 08.02.2022
5412 Clouds 2 1019 46 10000 2.24 299 12:24 08.02.2022
5413 Clouds 1 1018 50 10000 4.12 210 10:48 08.02.2022
5414 Clear 1 1018 49 10000 0.45 98 09:48 08.02.2022
5415 Clear 1 1018 49 10000 5.14 200 08:38 08.02.2022
5416 Clear 1 1020 51 10000 0.89 188 06:24 08.02.2022
5417 Clear 2 1021 49 10000 2.42 222 04:40 08.02.2022
5418 Clear 2 1021 48 10000 2.23 232 04:22 08.02.2022
5419 Clear 3 1021 47 10000 0.45 197 03:36 08.02.2022
5420 Clear 3 1021 48 10000 0.45 282 03:18 08.02.2022
5421 Clear 3 1021 43 10000 0.45 234 02:59 08.02.2022
5422 Clear 4 1020 41 10000 0.45 234 02:36 08.02.2022
5423 Clear 4 1020 43 10000 0.45 281 02:18 08.02.2022
5424 Clear 6 1022 46 10000 1.63 250 01:44 08.02.2022
5425 Clear 6 1021 45 10000 1.19 236 01:24 08.02.2022
5426 Clear 9 1021 62 10000 1.19 236 00:55 08.02.2022
5427 Clear 10 1020 59 10000 0.61 199 00:19 08.02.2022
5428 Clear 10 1020 59 10000 0.61 199 23:42 07.02.2022
5429 Clear 10 1021 56 10000 0.33 176 23:18 07.02.2022
5430 Clear 10 1021 56 10000 0.33 176 22:56 07.02.2022
5431 Clear 10 1021 56 10000 1 154 22:18 07.02.2022
5432 Clear 10 1021 28 10000 1 154 21:47 07.02.2022
5433 Clear 10 1023 32 10000 1.95 173 21:26 07.02.2022
5434 Clear 10 1023 28 10000 2.24 163 20:41 07.02.2022
5435 Clear 9 1025 30 10000 2.36 185 20:18 07.02.2022
5436 Clear 8 1025 30 10000 1.79 139 19:46 07.02.2022
5437 Clear 5 1029 34 10000 2.24 192 18:24 07.02.2022
5438 Clear 0 1029 43 10000 1.34 197 16:53 07.02.2022
5439 Clear -3 1029 49 10000 1.34 173 16:21 07.02.2022
5440 Clear -3 1029 50 10000 1.34 152 15:48 07.02.2022
5441 Clear -5 1028 53 10000 4.63 180 13:39 07.02.2022
5442 Clear -5 1028 54 10000 4.63 180 13:21 07.02.2022
5443 Clear -5 1028 54 10000 0.45 186 11:58 07.02.2022
5444 Clear -5 1028 54 10000 0.45 186 11:58 07.02.2022
5445 Clear -4 1028 54 10000 0.89 182 11:37 07.02.2022
5446 Clear -4 1028 54 10000 0.45 181 10:53 07.02.2022
5447 Clear -4 1028 56 10000 0.89 203 10:32 07.02.2022
5448 Clear -4 1028 56 10000 0.45 188 09:53 07.02.2022
5449 Clear -4 1028 59 10000 0.89 190 09:18 07.02.2022
5450 Clear -4 1028 60 10000 0.45 194 08:43 07.02.2022
5451 Clear -4 1028 61 10000 0.45 200 07:26 07.02.2022
5452 Clear -3 1028 60 10000 0.45 198 06:34 07.02.2022
5453 Clear -2 1027 56 10000 0.45 215 03:48 07.02.2022
5454 Clouds 2 1027 41 10000 0.45 55 00:47 07.02.2022
5455 Clouds 3 1026 37 10000 0.45 41 23:49 06.02.2022
5456 Clouds 3 1026 37 10000 0.89 65 22:55 06.02.2022
5457 Clouds 3 1026 38 10000 1.34 85 22:34 06.02.2022
5458 Clouds 3 1027 41 10000 0.45 76 21:36 06.02.2022
5459 Clouds 3 1027 43 10000 1.34 134 20:56 06.02.2022
5460 Clouds 3 1027 44 10000 1.79 92 20:36 06.02.2022
5461 Clouds 2 1029 47 10000 0.45 81 19:45 06.02.2022
5462 Clouds 2 1029 49 10000 0.89 26 18:48 06.02.2022
5463 Clouds 1 1029 52 10000 0.89 82 17:58 06.02.2022
5464 Clouds 0 1029 56 10000 0.89 55 17:21 06.02.2022
5465 Clouds -1 1028 64 10000 1.34 165 16:48 06.02.2022
5466 Clouds -3 1027 73 10000 0.45 239 15:50 06.02.2022
5467 Clouds -3 1027 72 10000 2.02 167 15:27 06.02.2022
5468 Clouds -3 1026 71 10000 2.02 167 14:47 06.02.2022
5469 Clouds -1 1025 69 10000 0.45 33 13:28 06.02.2022
5470 Clouds -1 1025 70 10000 0.45 33 12:59 06.02.2022
5471 Clouds -1 1024 70 10000 0.45 36 11:38 06.02.2022
5472 Clouds 0 1023 61 10000 0.45 21 10:31 06.02.2022
5473 Clouds 0 1023 61 10000 0.45 21 10:31 06.02.2022
5474 Clouds 0 1023 55 10000 0.89 17 09:25 06.02.2022
5475 Clouds 0 1022 53 10000 0.89 51 08:40 06.02.2022
5476 Clouds -1 1020 53 10000 0.45 81 05:36 06.02.2022
5477 Clear 2 1019 40 10000 4.84 316 03:18 06.02.2022
5478 Clear 2 1020 37 10000 5.07 325 02:24 06.02.2022
5479 Clouds 7 1016 30 10000 14.4 330 00:29 06.02.2022
5480 Clouds 8 1018 30 10000 5.36 333 23:18 05.02.2022
5481 Clouds 8 1017 28 10000 5.75 312 21:33 05.02.2022
5482 Clouds 8 1019 30 1919 3.11 312 20:25 05.02.2022
5483 Clouds 7 1019 31 1919 3.11 312 19:49 05.02.2022
5484 Clouds 7 1019 32 1980 2.2 302 19:18 05.02.2022
5485 Clouds 4 1021 43 10000 1.34 265 17:45 05.02.2022
5486 Clouds 2 1021 48 10000 0.45 222 17:27 05.02.2022
5487 Clouds -2 1021 55 10000 0.89 143 15:42 05.02.2022
5488 Clouds -4 1022 62 10000 0.45 236 15:21 05.02.2022
5489 Clouds -4 1021 64 10000 0.45 139 12:54 05.02.2022
5490 Clouds -4 1021 65 10000 0.45 81 12:31 05.02.2022
5491 Clear -5 1023 67 10000 0.45 292 10:52 05.02.2022
5492 Clear -5 1022 67 10000 0.45 185 10:22 05.02.2022
5493 Clear -5 1023 68 10000 0.45 204 09:44 05.02.2022
5494 Clear -5 1025 67 10000 0.45 113 07:54 05.02.2022
5495 Clear -5 1025 68 10000 0.45 0 06:57 05.02.2022
5496 Clear -4 1027 66 10000 0.45 140 04:30 05.02.2022
5497 Clouds 1 1028 53 10000 1.16 217 01:19 05.02.2022
5498 Clouds 2 1025 36 10000 3.6 150 00:53 05.02.2022
5499 Clouds 4 1027 39 1865 1.35 235 23:46 04.02.2022
5500 Clouds 5 1031 42 10000 0.45 123 23:28 04.02.2022
5501 Clear 4 1030 38 2791 1.34 127 21:54 04.02.2022
5502 Clear 4 1030 37 2791 1.34 135 21:36 04.02.2022
5503 Clear 3 1031 38 10000 1.34 149 21:18 04.02.2022
5504 Rain 2 1033 39 10000 0.89 290 19:59 04.02.2022
5505 Clear -3 1035 48 10000 1.79 242 17:43 04.02.2022
5506 Clear -11 1034 65 10000 0.45 187 15:42 04.02.2022
5507 Clear -12 1034 69 10000 0.45 190 14:55 04.02.2022
5508 Clear -12 1033 69 10000 0.45 188 13:33 04.02.2022
5509 Clear -13 1033 70 10000 2.25 208 12:43 04.02.2022
5510 Clear -13 1033 72 10000 0.45 309 11:42 04.02.2022
5511 Clear -13 1032 73 10000 0.89 180 10:36 04.02.2022
5512 Clear -13 1032 74 10000 0.45 113 08:36 04.02.2022
5513 Clear -13 1032 76 10000 0.45 88 06:47 04.02.2022
5514 Clear -12 1032 72 10000 0.45 25 02:46 04.02.2022
5515 Clear -11 1037 66 10000 0.51 237 01:52 04.02.2022
5516 Snow -5 1026 50 10000 1.34 19 23:29 03.02.2022
5517 Snow -5 1026 48 10000 0.45 97 22:33 03.02.2022
5518 Snow -5 1024 47 10000 0.89 104 21:49 03.02.2022
5519 Snow -6 1026 54 10000 0.45 287 20:38 03.02.2022
5520 Snow -6 1026 58 10000 0.89 175 20:18 03.02.2022
5521 Snow -8 1027 65 10000 0.45 249 19:30 03.02.2022
5522 Snow -10 1027 70 10000 0.45 266 18:35 03.02.2022
5523 Clear -14 1028 77 10000 0.45 117 17:32 03.02.2022
5524 Clear -18 1028 81 10000 0.45 69 16:25 03.02.2022
5525 Clouds -21 1027 79 10000 2.57 180 14:37 03.02.2022
5526 Clouds -20 1027 79 10000 1.05 200 12:51 03.02.2022
5527 Clouds -19 1019 79 10000 1.12 239 10:45 03.02.2022
5528 Clouds -18 1032 83 10000 1.32 241 08:35 03.02.2022
5529 Clouds -15 1027 81 182 1.79 27 04:27 03.02.2022
5530 Clouds -12 1024 78 192 0.89 284 00:31 03.02.2022
5531 Clouds -11 1022 76 287 0.45 5 23:36 02.02.2022
5532 Clouds -10 1021 76 305 0.45 292 21:54 02.02.2022
5533 Clouds -10 1022 77 376 0.45 26 21:30 02.02.2022
5534 Clouds -10 1022 78 376 0.45 336 20:38 02.02.2022
5535 Clouds -10 1022 78 348 0.45 23 19:55 02.02.2022
5536 Clouds -10 1022 79 249 0.45 303 19:26 02.02.2022
5537 Snow -10 1022 81 226 0.45 335 18:34 02.02.2022
5538 Clouds -11 1022 82 213 0.45 15 17:38 02.02.2022
5539 Clouds -11 1021 83 182 0.89 294 17:19 02.02.2022
5540 Clouds -12 1021 84 172 0.45 292 16:30 02.02.2022
5541 Snow -11 1018 85 116 0.89 279 12:54 02.02.2022
5542 Snow -11 1018 85 117 0.89 317 11:51 02.02.2022
5543 Snow -11 1018 85 117 1.34 292 11:31 02.02.2022
5544 Snow -9 1017 85 140 2.24 32 09:46 02.02.2022
5545 Snow -6 1016 87 140 0.45 74 06:18 02.02.2022
5546 Clouds -2 1012 63 6963 1.79 42 22:44 01.02.2022
5547 Clouds -1 1011 52 10000 2.24 29 21:30 01.02.2022
5548 Clouds 0 1012 43 10000 0.89 57 19:56 01.02.2022
5549 Clouds -2 1014 51 10000 0.89 65 17:38 01.02.2022
5550 Clouds -3 1014 54 10000 0.45 105 16:31 01.02.2022
5551 Clouds -3 1013 49 10000 0.45 181 13:28 01.02.2022
5552 Clouds -2 1012 46 10000 1.34 139 12:28 01.02.2022
5553 Clouds -3 1012 46 10000 1.34 80 12:28 01.02.2022
5554 Clouds -1 1011 54 10000 0.89 216 10:42 01.02.2022
5555 Clear 5 1007 36 10000 2.15 170 02:24 01.02.2022
5556 Clouds 12 1003 51 10000 0.13 251 23:39 31.01.2022
5557 Clouds 13 1002 49 10000 1.89 344 22:42 31.01.2022
5558 Clouds 14 1003 16 10000 5.14 170 21:36 31.01.2022
5559 Clouds 12 1002 24 10000 2.13 190 20:35 31.01.2022
5560 Clouds 11 1006 25 10000 1.34 114 19:59 31.01.2022
5561 Clouds 8 1007 24 10000 0.89 86 18:47 31.01.2022
5562 Clouds 6 1009 29 10000 0.45 286 18:18 31.01.2022
5563 Clouds 3 1009 32 10000 0.45 231 17:24 31.01.2022
5564 Clouds 1 1009 34 10000 0.89 175 16:25 31.01.2022
5565 Clouds 0 1012 28 10000 0.89 213 14:53 31.01.2022
5566 Clouds 0 1012 30 10000 2.26 202 13:35 31.01.2022
5567 Clear 0 1012 33 10000 0.89 198 12:38 31.01.2022
5568 Clear 0 1011 32 10000 1.34 227 11:26 31.01.2022
5569 Clear 0 1012 35 10000 0.45 232 10:48 31.01.2022
5570 Clear 0 1014 36 10000 2.5 213 09:38 31.01.2022
5571 Clear 0 1013 42 10000 0.89 216 08:56 31.01.2022
5572 Clear 0 1015 47 10000 2.87 205 08:20 31.01.2022
5573 Clear 0 1015 50 10000 2.87 205 07:43 31.01.2022
5574 Clear 1 1015 56 10000 0.45 220 05:33 31.01.2022
5575 Clear 8 1013 48 10000 1.25 211 00:36 31.01.2022
5576 Clear 9 1012 29 10000 0.35 347 22:33 30.01.2022
5577 Clear 9 1012 33 10000 0.08 38 21:46 30.01.2022
5578 Clear 9 1013 24 10000 0.26 279 21:26 30.01.2022
5579 Clear 9 1013 27 10000 0.13 41 20:54 30.01.2022
5580 Clouds 9 1016 19 10000 4.12 200 20:31 30.01.2022
5581 Clouds 10 1017 21 10000 1.34 232 19:56 30.01.2022
5582 Clear 8 1018 25 10000 0.89 179 18:52 30.01.2022
5583 Clear 6 1019 28 10000 0.89 200 18:22 30.01.2022
5584 Clear 2 1019 35 10000 0.45 182 17:31 30.01.2022
5585 Clear 2 1019 34 10000 0.45 182 17:31 30.01.2022
5586 Clear 2 1019 34 10000 0.45 182 17:31 30.01.2022
5587 Clear 1 1019 30 10000 1.55 210 16:44 30.01.2022
5588 Clear -1 1021 37 10000 0.45 197 16:23 30.01.2022
5589 Clear -2 1021 36 10000 1.8 211 15:55 30.01.2022
5590 Clouds -2 1018 38 10000 4.63 190 15:33 30.01.2022
5591 Clouds -3 1020 41 10000 4.63 180 14:48 30.01.2022
5592 Clear -2 1018 42 10000 0.45 0 13:49 30.01.2022
5593 Clear -2 1019 45 10000 0.45 188 12:46 30.01.2022
5594 Clear -2 1017 48 10000 1.79 211 11:23 30.01.2022
5595 Clear -2 1017 50 10000 1.22 212 10:26 30.01.2022
5596 Clear -1 1017 49 10000 1.34 323 09:23 30.01.2022
5597 Clear -1 1020 53 10000 0.45 186 08:00 30.01.2022
5598 Clear 2 1020 50 10000 0.35 301 02:55 30.01.2022
5599 Clear 3 1020 43 10000 0.89 79 01:54 30.01.2022
5600 Clear 7 1020 31 10000 1.79 5 23:49 29.01.2022
5601 Clear 9 1016 19 10000 1.05 202 22:57 29.01.2022
5602 Clouds 10 1020 20 10000 0 0 21:35 29.01.2022
5603 Clear 10 1017 28 10000 0.82 200 20:57 29.01.2022
5604 Clear 9 1019 23 10000 1.15 199 19:52 29.01.2022
5605 Clear 8 1021 26 10000 1.65 194 19:31 29.01.2022
5606 Clear 7 1022 26 10000 0.45 128 18:44 29.01.2022
5607 Clear 5 1023 30 10000 1.34 119 17:55 29.01.2022
5608 Clear 2 1023 32 10000 1.34 168 16:59 29.01.2022
5609 Clear -3 1023 40 10000 0.45 184 15:27 29.01.2022
5610 Clear -3 1023 40 10000 0.45 196 13:48 29.01.2022
5611 Clear -3 1024 42 10000 0.45 192 13:27 29.01.2022
5612 Clear -3 1023 42 10000 0.45 192 12:58 29.01.2022
5613 Clear -2 1024 42 10000 1.34 183 11:39 29.01.2022
5614 Clear -3 1024 44 10000 0.89 212 10:33 29.01.2022
5615 Clear -2 1025 46 10000 0.45 182 08:19 29.01.2022
5616 Clear 1 1028 45 10000 2.22 226 02:26 29.01.2022
5617 Clear 6 1026 40 2477 1.91 219 00:31 29.01.2022
5618 Clear 8 1028 73 6768 1.34 171 23:29 28.01.2022
5619 Clear 8 1028 51 6768 1.34 127 22:46 28.01.2022
5620 Clear 8 1028 46 10000 1.34 160 22:19 28.01.2022
5621 Clear 6 1033 37 10000 1.34 152 20:41 28.01.2022
5622 Clear 5 1033 40 10000 0.89 133 19:56 28.01.2022
5623 Clear 2 1034 42 10000 0.89 217 18:52 28.01.2022
5624 Clear 0 1034 46 10000 0.45 169 17:52 28.01.2022
5625 Clear -7 1035 59 10000 0.89 194 15:50 28.01.2022
5626 Clear -9 1033 64 10000 2.45 206 14:46 28.01.2022
5627 Clear -10 1031 67 10000 0.89 191 12:40 28.01.2022
5628 Clear -9 1032 68 10000 0.45 63 11:38 28.01.2022
5629 Clear -9 1032 67 10000 1.34 196 10:26 28.01.2022
5630 Clear -9 1032 70 10000 1.34 186 09:45 28.01.2022
5631 Clear -10 1032 77 10000 0.89 186 07:40 28.01.2022
5632 Clouds -9 1032 82 10000 0.89 155 05:30 28.01.2022
5633 Clouds -8 1032 81 10000 0.89 209 03:48 28.01.2022
5634 Clouds -6 1032 78 10000 1.66 189 02:23 28.01.2022
5635 Clouds -5 1032 74 10000 1.66 189 01:35 28.01.2022
5636 Snow -2 1032 71 10000 0.45 55 23:47 27.01.2022
5637 Clouds -2 1030 80 1880 0.45 350 21:54 27.01.2022
5638 Clouds -3 1030 83 1880 0.89 28 21:32 27.01.2022
5639 Snow -3 1030 84 1225 1.79 43 20:55 27.01.2022
5640 Snow -3 1030 85 378 0.45 299 19:35 27.01.2022
5641 Snow -4 1029 83 173 0.45 5 17:56 27.01.2022
5642 Clouds -3 1026 60 10000 0.89 42 15:31 27.01.2022
5643 Clouds -3 1024 63 10000 0.89 36 13:39 27.01.2022
5644 Clouds -3 1024 61 10000 0.45 296 12:46 27.01.2022
5645 Clouds -2 1023 56 10000 0.89 171 10:57 27.01.2022
5646 Clouds -2 1022 52 10000 0.45 180 09:20 27.01.2022
5647 Clouds -2 1022 54 10000 0.45 150 08:38 27.01.2022
5648 Clouds -2 1022 58 10000 0.45 123 07:22 27.01.2022
5649 Clouds -2 1021 70 10000 0.45 278 02:57 27.01.2022
5650 Clear 3 1018 50 10000 0.45 41 23:45 26.01.2022
5651 Clear 4 1017 44 10000 0.89 93 22:26 26.01.2022
5652 Clear 3 1018 46 10000 0.45 180 21:37 26.01.2022
5653 Clear 3 1018 51 10000 0.45 294 20:41 26.01.2022
5654 Clear 2 1018 52 10000 0.45 123 20:23 26.01.2022
5655 Snow 1 1020 56 10000 0.45 302 19:23 26.01.2022
5656 Snow 0 1020 56 10000 0.45 9 18:45 26.01.2022
5657 Snow -2 1018 61 10000 0.45 294 17:51 26.01.2022
5658 Clear -5 1019 74 10000 0.45 280 17:23 26.01.2022
5659 Clear -6 1022 73 10000 2.4 199 16:35 26.01.2022
5660 Clear -9 1016 77 10000 2.57 290 15:49 26.01.2022
5661 Clear -9 1026 80 10000 1.49 220 14:20 26.01.2022
5662 Clear -9 1026 81 10000 1.74 209 11:54 26.01.2022
5663 Clear -9 1019 84 10000 2.29 194 10:28 26.01.2022
5664 Clear -9 1022 84 10000 0.45 188 09:48 26.01.2022
5665 Clear -9 1024 87 10000 0.89 101 07:45 26.01.2022
5666 Clouds -7 1025 87 10000 1.55 167 04:24 26.01.2022
5667 Snow -3 1024 80 10000 0.45 38 23:58 25.01.2022
5668 Snow -2 1024 82 10000 0.89 23 23:19 25.01.2022
5669 Snow -2 1023 83 10000 1.34 26 22:22 25.01.2022
5670 Snow -2 1023 84 10000 2.24 18 21:58 25.01.2022
5671 Snow -2 1023 86 4449 2.24 290 20:59 25.01.2022
5672 Snow -2 1023 87 4449 2.24 355 20:40 25.01.2022
5673 Snow -2 1023 88 315 1.34 53 19:53 25.01.2022
5674 Snow -2 1023 90 226 0.89 49 18:38 25.01.2022
5675 Snow -2 1021 90 180 1.34 21 17:45 25.01.2022
5676 Snow -2 1020 90 126 1.34 355 16:45 25.01.2022
5677 Mist -2 1019 90 1207 0.89 337 16:21 25.01.2022
5678 Snow -2 1018 90 2414 1.34 289 15:38 25.01.2022
5679 Snow -2 1017 89 137 0.89 15 14:57 25.01.2022
5680 Clouds -2 1016 86 158 0.45 345 13:42 25.01.2022
5681 Clouds -1 1014 64 10000 1.34 19 10:51 25.01.2022
5682 Clouds 0 1014 57 10000 0.45 39 08:37 25.01.2022
5683 Clouds -1 1014 54 10000 0.89 320 07:29 25.01.2022
5684 Clouds 0 1014 53 10000 1.34 112 06:49 25.01.2022
5685 Clouds 0 1014 51 10000 1.34 23 05:22 25.01.2022
5686 Clouds 7 1011 31 10000 0.89 90 23:37 24.01.2022
5687 Clear 7 1011 31 10000 1.34 115 23:18 24.01.2022
5688 Clouds 7 1012 31 10000 1.34 105 22:59 24.01.2022
5689 Clouds 7 1011 31 10000 1.34 148 22:41 24.01.2022
5690 Clear 7 1012 31 10000 1.34 103 21:53 24.01.2022
5691 Clear 7 1012 31 10000 1.34 103 21:53 24.01.2022
5692 Clear 7 1012 32 10000 1.79 79 21:28 24.01.2022
5693 Clear 7 1013 32 10000 1.79 72 20:30 24.01.2022
5694 Clear 7 1014 32 10000 2.24 68 19:44 24.01.2022
5695 Clear 7 1014 33 10000 1.34 69 19:24 24.01.2022
5696 Clear 5 1015 39 10000 1.34 48 17:59 24.01.2022
5697 Clear 3 1015 45 10000 0.89 103 17:23 24.01.2022
5698 Clear 1 1014 51 10000 0.45 101 16:41 24.01.2022
5699 Clear 0 1014 57 10000 0.45 96 16:18 24.01.2022
5700 Clouds -1 1012 58 10000 0.89 47 14:35 24.01.2022
5701 Clouds 0 1012 57 10000 0.45 219 12:40 24.01.2022
5702 Clouds 0 1011 57 10000 3.6 190 12:22 24.01.2022
5703 Clear 0 1012 62 10000 0.89 36 10:25 24.01.2022
5704 Clear 0 1012 60 10000 1.87 226 09:47 24.01.2022
5705 Clear 0 1013 61 10000 2.46 222 08:30 24.01.2022
5706 Clear 2 1014 54 10000 0.45 0 04:50 24.01.2022
5707 Clear 7 1014 33 10000 1.59 219 01:30 24.01.2022
5708 Clear 10 1014 27 10000 0.45 190 00:35 24.01.2022
5709 Clear 10 1014 27 10000 0.45 213 23:49 23.01.2022
5710 Clear 11 1016 28 10000 2.68 156 22:28 23.01.2022
5711 Clouds 10 1016 28 10000 0.89 250 21:44 23.01.2022
5712 Clear 10 1017 29 10000 1.34 195 21:24 23.01.2022
5713 Clear 9 1019 32 10000 0.45 251 20:30 23.01.2022
5714 Clouds 7 1021 37 10000 0.89 213 19:21 23.01.2022
5715 Clouds 6 1022 41 10000 0.45 200 18:44 23.01.2022
5716 Clouds 2 1022 51 10000 0.89 219 17:28 23.01.2022
5717 Clouds 1 1024 55 10000 2.6 201 16:45 23.01.2022
5718 Clouds -2 1026 65 10000 2.56 213 14:59 23.01.2022
5719 Clouds -2 1026 65 10000 1.16 251 14:21 23.01.2022
5720 Clouds -2 1022 64 10000 4.63 180 12:51 23.01.2022
5721 Clear -2 1023 64 10000 0.45 182 12:22 23.01.2022
5722 Clear -2 1023 64 10000 0.89 192 11:51 23.01.2022
5723 Clear -2 1024 66 10000 0.45 190 11:18 23.01.2022
5724 Clear -2 1024 66 10000 0.89 184 10:27 23.01.2022
5725 Clear -2 1024 65 10000 0.45 189 09:40 23.01.2022
5726 Clouds -2 1023 69 10000 1.23 254 08:51 23.01.2022
5727 Clouds -1 1025 71 10000 0.45 163 05:55 23.01.2022
5728 Clear 2 1024 54 10000 1.15 236 01:46 23.01.2022
5729 Clear 3 1023 51 10000 0.45 86 01:25 23.01.2022
5730 Clouds 6 1023 45 10000 0.45 30 00:23 23.01.2022
5731 Clouds 6 1024 46 10000 1.34 5 23:35 22.01.2022
5732 Clear 6 1026 47 10000 2.68 34 22:34 22.01.2022
5733 Clear 6 1023 52 10000 0.45 109 21:19 22.01.2022
5734 Clear 4 1024 60 10000 0.45 181 19:49 22.01.2022
5735 Rain 2 1025 69 10000 0.45 226 18:49 22.01.2022
5736 Snow 0 1025 73 10000 0.89 306 17:56 22.01.2022
5737 Clear -1 1025 78 10000 0.45 220 17:35 22.01.2022
5738 Clear -2 1025 80 10000 0.89 278 16:55 22.01.2022
5739 Clear -4 1024 85 10000 0.69 222 15:49 22.01.2022
5740 Clouds -5 1025 87 10000 1.83 198 14:57 22.01.2022
5741 Clouds -4 1026 89 10000 0.45 72 13:39 22.01.2022
5742 Clouds -4 1027 89 10000 0.45 207 12:48 22.01.2022
5743 Clouds -4 1027 90 10000 0.45 142 12:28 22.01.2022
5744 Clouds -3 1028 89 10000 0.45 207 10:56 22.01.2022
5745 Clouds -2 1029 89 10000 0.44 212 10:29 22.01.2022
5746 Clouds -2 1029 89 10000 0.44 212 09:58 22.01.2022
5747 Clouds -2 1029 89 10000 0.64 265 08:51 22.01.2022
5748 Clouds -2 1029 89 10000 0.99 281 07:34 22.01.2022
5749 Clouds 0 1028 88 10000 1.79 279 04:52 22.01.2022
5750 Clouds 0 1028 88 10000 1.79 279 04:52 22.01.2022
5751 Clouds 1 1026 91 3256 0.89 287 01:34 22.01.2022
5752 Snow 1 1024 89 1186 0.45 218 23:35 21.01.2022
5753 Clouds 1 1023 88 4949 0.45 217 22:27 21.01.2022
5754 Snow 1 1023 82 6179 0.45 276 20:20 21.01.2022
5755 Clouds 1 1021 77 4739 0.28 143 18:39 21.01.2022
5756 Clouds 1 1019 80 10000 0.45 0 17:28 21.01.2022
5757 Clouds -1 1018 79 10000 0.54 95 15:30 21.01.2022
5758 Clouds -1 1015 74 10000 0.45 247 13:29 21.01.2022
5759 Clouds -1 1017 71 10000 1.01 159 12:37 21.01.2022
5760 Clouds -1 1016 65 8711 0.11 103 11:27 21.01.2022
5761 Clouds -2 1013 60 10000 1.54 180 10:18 21.01.2022
5762 Clouds -2 1018 61 10000 1.44 214 08:23 21.01.2022
5763 Clear -4 1018 88 10000 0.45 186 04:49 21.01.2022
5764 Clear -4 1018 88 10000 0.45 186 04:49 21.01.2022
5765 Clouds 5 1020 56 10000 0.45 23 23:31 20.01.2022
5766 Clear 5 1022 51 10000 1.34 34 22:21 20.01.2022
5767 Clear 5 1023 49 10000 1.34 21 21:42 20.01.2022
5768 Clouds 4 1024 50 10000 0.45 203 20:40 20.01.2022
5769 Clear 2 1026 61 10000 1.34 140 19:19 20.01.2022
5770 Clear 2 1026 61 10000 1.34 140 19:19 20.01.2022
5771 Clear -1 1027 72 10000 0.89 203 18:23 20.01.2022
5772 Clear -5 1025 83 10000 0.45 198 16:53 20.01.2022
5773 Clear -7 1029 86 10000 0.45 192 15:41 20.01.2022
5774 Clear -7 1029 86 10000 1.22 170 14:41 20.01.2022
5775 Clouds -7 1028 86 10000 1.54 360 13:33 20.01.2022
5776 Clouds -7 1027 86 10000 1.02 131 12:32 20.01.2022
5777 Clouds -7 1028 86 10000 0.45 44 11:50 20.01.2022
5778 Clouds -6 1028 87 10000 2.57 250 10:38 20.01.2022
5779 Clouds -6 1029 87 10000 0.89 180 09:34 20.01.2022
5780 Clouds -6 1029 88 10000 0.45 29 07:50 20.01.2022
5781 Clouds -6 1024 86 10000 0.45 80 00:44 20.01.2022
5782 Clouds -5 1027 82 10000 2.45 56 22:54 19.01.2022
5783 Clouds -4 1027 86 10000 2.3 53 21:48 19.01.2022
5784 Clouds -5 1023 87 10000 0.89 30 21:23 19.01.2022
5785 Clouds -4 1023 88 10000 1.34 37 20:46 19.01.2022
5786 Clouds -4 1024 89 10000 0.45 59 19:42 19.01.2022
5787 Clouds -4 1023 90 1766 0.89 82 17:55 19.01.2022
5788 Clouds -4 1023 90 1766 0.45 52 17:35 19.01.2022
5789 Clouds -4 1022 89 2701 0.89 21 16:27 19.01.2022
5790 Clouds -3 1019 86 10000 0.45 78 13:42 19.01.2022
5791 Clouds -3 1018 84 5366 2.24 35 12:24 19.01.2022
5792 Clouds -3 1018 84 5366 0.89 339 11:39 19.01.2022
5793 Clouds -2 1017 77 10000 0.89 323 10:20 19.01.2022
5794 Clouds -1 1017 70 10000 2.24 308 09:33 19.01.2022
5795 Clouds 2 1014 49 10000 0.89 278 06:35 19.01.2022
5796 Clouds 6 1011 32 10000 1.34 38 01:55 19.01.2022
5797 Clouds 10 1008 23 10000 0.45 179 23:19 18.01.2022
5798 Clouds 11 1007 23 10000 0.89 128 22:18 18.01.2022
5799 Clouds 10 1008 27 10000 0.89 184 20:55 18.01.2022
5800 Clouds 9 1009 33 10000 0.45 208 19:54 18.01.2022
5801 Clouds 9 1010 31 10000 0.45 0 19:35 18.01.2022
5802 Clouds 7 1010 36 10000 0.45 68 18:36 18.01.2022
5803 Clouds 6 1010 39 10000 0.45 229 17:51 18.01.2022
5804 Clouds 4 1009 43 10000 1.81 231 16:35 18.01.2022
5805 Clouds 4 1009 45 10000 0.45 28 15:39 18.01.2022
5806 Clouds 3 1009 47 10000 0.45 180 15:19 18.01.2022
5807 Clouds 3 1008 46 10000 0.89 221 11:53 18.01.2022
5808 Clouds 3 1007 48 10000 0.89 223 10:43 18.01.2022
5809 Clouds 3 1008 49 10000 0.45 193 08:49 18.01.2022
5810 Clouds 3 1009 49 10000 1.55 214 07:46 18.01.2022
5811 Clouds 7 1011 40 10000 0.96 202 02:31 18.01.2022
5812 Clear 13 1011 29 10000 0.89 38 23:22 17.01.2022
5813 Clear 13 1012 26 10000 0.45 17 22:19 17.01.2022
5814 Clear 13 1008 23 10000 0.36 203 21:32 17.01.2022
5815 Clouds 13 1013 27 10000 0 0 19:51 17.01.2022
5816 Clear 9 1014 35 10000 0.89 114 18:28 17.01.2022
5817 Clear 5 1014 44 10000 1.34 122 17:24 17.01.2022
5818 Clouds 2 1014 46 10000 1.79 240 16:27 17.01.2022
5819 Clear 1 1014 45 10000 0.45 142 14:59 17.01.2022
5820 Clouds 1 1014 48 10000 0.45 191 14:33 17.01.2022
5821 Clouds 1 1014 47 10000 0.45 268 13:20 17.01.2022
5822 Clouds 1 1014 49 10000 0.45 255 12:54 17.01.2022
5823 Clouds 1 1013 48 10000 4.63 180 11:48 17.01.2022
5824 Clouds 0 1017 52 10000 1.94 209 10:21 17.01.2022
5825 Clouds 0 1014 55 10000 1.88 205 08:51 17.01.2022
5826 Clouds -1 1017 59 10000 2.08 197 07:22 17.01.2022
5827 Clouds -1 1017 59 10000 2.08 197 07:22 17.01.2022
5828 Clouds 3 1019 45 10000 1.2 50 02:23 17.01.2022
5829 Clouds 6 1019 34 10000 0.89 84 00:53 17.01.2022
5830 Clouds 12 1015 20 10000 1.98 24 21:26 16.01.2022
5831 Clouds 12 1015 25 10000 1.98 24 20:33 16.01.2022
5832 Clouds 9 1018 27 10000 0.45 281 18:50 16.01.2022
5833 Clouds 6 1018 33 10000 0.45 211 17:55 16.01.2022
5834 Clouds 3 1018 36 10000 0.89 205 16:56 16.01.2022
5835 Clouds 0 1018 41 10000 0.45 266 15:50 16.01.2022
5836 Clear -1 1017 47 10000 0.45 214 14:30 16.01.2022
5837 Clouds 0 1017 44 10000 0.89 245 13:33 16.01.2022
5838 Clouds 1 1017 41 10000 0.45 259 12:22 16.01.2022
5839 Clouds 2 1019 40 10000 0.89 16 11:29 16.01.2022
5840 Clouds 2 1019 39 10000 2.83 229 10:43 16.01.2022
5841 Clouds 1 1019 43 10000 3.11 225 09:58 16.01.2022
5842 Clouds 1 1020 47 10000 0.45 197 09:38 16.01.2022
5843 Clouds 1 1019 46 10000 0.45 209 09:19 16.01.2022
5844 Clouds 1 1020 54 10000 0.89 190 07:19 16.01.2022
5845 Clear 7 1019 46 10000 2.14 211 00:35 16.01.2022
5846 Clear 9 1021 43 10000 1.34 167 22:50 15.01.2022
5847 Clear 7 1025 41 10000 1.34 175 21:21 15.01.2022
5848 Clear 6 1026 41 10000 0.89 163 20:44 15.01.2022
5849 Clear 5 1026 44 10000 0.45 137 20:21 15.01.2022
5850 Clouds 3 1028 48 10000 1.34 238 19:26 15.01.2022
5851 Clear -1 1028 57 10000 0.89 215 17:58 15.01.2022
5852 Clear -4 1032 66 10000 2.88 174 16:49 15.01.2022
5853 Clear -7 1034 75 10000 2.9 174 14:36 15.01.2022
5854 Clouds -7 1030 77 10000 2.37 180 12:39 15.01.2022
5855 Clouds -7 1031 75 10000 0.81 221 11:20 15.01.2022
5856 Clouds -5 1031 72 10000 0.45 248 09:35 15.01.2022
5857 Snow 0 1025 77 10000 1.79 30 01:27 15.01.2022
5858 Snow 1 1022 75 3182 0.89 30 22:40 14.01.2022
5859 Clouds 3 1021 61 5564 1.34 47 20:54 14.01.2022
5860 Clouds 3 1021 66 10000 1.79 15 20:23 14.01.2022
5861 Clouds 3 1021 69 10000 2.24 325 19:49 14.01.2022
5862 Clouds 4 1021 59 10000 3.13 17 18:33 14.01.2022
5863 Clouds 5 1018 50 10000 0.89 341 16:56 14.01.2022
5864 Clouds 4 1018 52 10000 0.89 308 16:38 14.01.2022
5865 Clear 3 1015 51 10000 0.45 340 14:49 14.01.2022
5866 Clear 3 1013 52 10000 0.45 94 13:48 14.01.2022
5867 Clouds 3 1010 52 10000 0.45 138 12:34 14.01.2022
5868 Clouds 4 1011 50 10000 0.45 86 11:34 14.01.2022
5869 Clouds 4 1008 49 10000 0.89 277 10:22 14.01.2022
5870 Clouds 4 1010 54 10000 0.45 127 08:52 14.01.2022
5871 Clouds 4 1011 58 10000 0.45 107 07:27 14.01.2022
5872 Clouds 7 1014 65 10000 1.46 265 01:43 14.01.2022
5873 Clouds 12 1014 61 10000 1.58 320 23:36 13.01.2022
5874 Clouds 15 1015 53 10000 1.28 288 21:45 13.01.2022
5875 Clouds 15 1016 32 10000 1.16 224 21:27 13.01.2022
5876 Clouds 14 1018 33 10000 1.73 203 19:44 13.01.2022
5877 Clouds 12 1021 38 10000 2.03 196 19:22 13.01.2022
5878 Clouds 9 1023 41 10000 0.45 141 17:56 13.01.2022
5879 Clouds 4 1023 49 10000 0.89 192 16:43 13.01.2022
5880 Clouds 3 1023 53 10000 0.45 189 15:38 13.01.2022
5881 Clouds 3 1023 54 10000 0.45 190 14:50 13.01.2022
5882 Clouds 2 1023 58 10000 0.45 40 12:54 13.01.2022
5883 Clear 2 1024 58 10000 0.45 39 10:25 13.01.2022
5884 Clouds 3 1024 57 10000 0.45 61 09:20 13.01.2022
5885 Clouds 3 1024 56 10000 4.63 180 08:27 13.01.2022
5886 Clouds 3 1024 55 10000 0.45 267 07:24 13.01.2022
5887 Clouds 3 1024 54 10000 3.09 200 06:41 13.01.2022
5888 Clouds 4 1023 53 10000 0.45 197 05:20 13.01.2022
5889 Clouds 5 1023 50 10000 0.45 154 03:24 13.01.2022
5890 Clouds 10 1022 63 10000 2 225 00:56 13.01.2022
5891 Clouds 13 1021 59 10000 1.33 211 23:50 12.01.2022
5892 Clouds 13 1020 36 10000 1.01 258 23:29 12.01.2022
5893 Clouds 13 1020 26 10000 0.49 270 21:58 12.01.2022
5894 Clouds 13 1020 28 10000 0.89 158 21:23 12.01.2022
5895 Clouds 13 1020 28 10000 0.89 158 20:57 12.01.2022
5896 Clouds 12 1022 27 10000 1.39 184 19:57 12.01.2022
5897 Clouds 10 1026 31 10000 0.45 192 18:43 12.01.2022
5898 Clouds 7 1025 36 10000 0.45 115 17:50 12.01.2022
5899 Clouds 3 1024 44 10000 0.89 52 16:38 12.01.2022
5900 Clouds 0 1024 48 10000 0.45 325 14:49 12.01.2022
5901 Clouds 0 1022 45 10000 0.45 197 13:34 12.01.2022
5902 Clouds 0 1022 46 10000 0.45 198 12:34 12.01.2022
5903 Clear 0 1023 49 10000 0.45 191 08:50 12.01.2022
5904 Clear 1 1023 49 10000 0.89 115 07:52 12.01.2022
5905 Clouds 0 1023 48 10000 0.45 171 07:32 12.01.2022
5906 Clouds 4 1024 42 10000 1.56 272 01:26 12.01.2022
5907 Clouds 10 1023 12 10000 4.63 30 23:25 11.01.2022
5908 Clouds 11 1022 29 10000 1.87 39 22:24 11.01.2022
5909 Clouds 11 1023 30 10000 0.67 48 21:25 11.01.2022
5910 Clouds 11 1026 24 10000 3.09 340 20:33 11.01.2022
5911 Clouds 8 1027 32 10000 1.5 206 18:48 11.01.2022
5912 Clouds 6 1025 30 10000 0.45 254 17:46 11.01.2022
5913 Clouds 2 1025 32 10000 0.45 183 16:39 11.01.2022
5914 Clouds 0 1025 38 10000 0.45 168 15:59 11.01.2022
5915 Clouds 0 1025 36 10000 0.89 196 14:44 11.01.2022
5916 Clouds 0 1025 38 10000 1.34 192 13:58 11.01.2022
5917 Clouds 0 1024 39 10000 0.45 182 13:39 11.01.2022
5918 Clouds 0 1025 38 10000 0.45 198 13:21 11.01.2022
5919 Clouds 0 1024 39 10000 0.45 284 12:22 11.01.2022
5920 Clear 0 1025 40 10000 0.45 194 10:24 11.01.2022
5921 Clear 0 1026 46 10000 0.45 197 07:35 11.01.2022
5922 Clear 3 1028 40 10000 1.57 217 01:47 11.01.2022
5923 Clear 8 1027 56 10000 1.09 251 00:22 11.01.2022
5924 Clear 11 1027 56 10000 1.09 251 23:37 10.01.2022
5925 Clear 10 1028 60 10000 1.02 197 22:19 10.01.2022
5926 Clear 10 1028 23 10000 1.02 197 21:54 10.01.2022
5927 Clear 10 1028 24 10000 1.02 197 21:31 10.01.2022
5928 Clear 10 1029 24 10000 1.13 188 20:58 10.01.2022
5929 Clouds 10 1033 23 10000 3.09 170 20:58 10.01.2022
5930 Clouds 10 1033 26 10000 3.09 170 20:29 10.01.2022
5931 Clear 9 1036 27 10000 1.34 212 19:45 10.01.2022
5932 Clear 8 1036 29 10000 1.34 156 19:22 10.01.2022
5933 Clouds 7 1037 30 10000 0.45 193 18:54 10.01.2022
5934 Clouds 6 1037 31 10000 0.45 228 18:34 10.01.2022
5935 Clear 1 1037 41 10000 0.89 189 16:43 10.01.2022
5936 Clear -3 1036 48 10000 0.45 185 15:55 10.01.2022
5937 Clear -3 1035 51 10000 0.89 189 14:39 10.01.2022
5938 Clear -3 1036 53 10000 0.45 191 12:31 10.01.2022
5939 Clear -3 1035 53 10000 0.89 194 11:25 10.01.2022
5940 Clear -3 1034 57 10000 0.89 183 10:45 10.01.2022
5941 Clear -3 1034 64 10000 1.79 193 08:57 10.01.2022
5942 Clear -3 1036 76 10000 2.05 200 05:50 10.01.2022
5943 Clouds -1 1033 65 10000 0.45 29 01:33 10.01.2022
5944 Clouds 1 1032 58 10000 0.45 33 00:36 10.01.2022
5945 Clouds 3 1031 54 10000 0.45 169 23:54 09.01.2022
5946 Clouds 3 1030 56 10000 0.45 149 22:43 09.01.2022
5947 Clouds 2 1030 59 10000 0.89 20 21:47 09.01.2022
5948 Clouds 2 1030 61 10000 1.34 5 21:25 09.01.2022
5949 Clouds 2 1030 60 10000 0.89 33 21:25 09.01.2022
5950 Clouds 2 1030 61 10000 0.45 67 20:55 09.01.2022
5951 Clouds 1 1030 63 10000 0.89 276 20:37 09.01.2022
5952 Clear 1 1030 63 10000 0.89 25 20:18 09.01.2022
5953 Clear 0 1031 69 10000 0.89 28 19:37 09.01.2022
5954 Clear 0 1031 70 10000 0.45 324 19:18 09.01.2022
5955 Clouds 0 1030 68 10000 0.89 16 18:37 09.01.2022
5956 Clouds -2 1031 75 10000 0.45 212 17:48 09.01.2022
5957 Clouds -3 1029 82 10000 0.45 244 17:26 09.01.2022
5958 Clouds -4 1029 83 10000 1.18 171 16:38 09.01.2022
5959 Clouds -6 1028 85 10000 0.45 71 15:38 09.01.2022
5960 Clouds -6 1028 85 10000 0.45 36 14:41 09.01.2022
5961 Clouds -6 1028 84 10000 0.89 325 14:21 09.01.2022
5962 Clouds -6 1027 83 10000 0.45 328 13:41 09.01.2022
5963 Clouds -5 1026 83 10000 1.34 359 11:56 09.01.2022
5964 Clouds -5 1026 82 10000 0.89 298 11:24 09.01.2022
5965 Clouds -4 1026 79 10000 0.45 355 09:53 09.01.2022
5966 Clouds -3 1025 76 10000 0.89 32 08:54 09.01.2022
5967 Clouds 0 1023 65 10000 0.45 70 05:54 09.01.2022
5968 Clouds 4 1015 65 10000 0.45 284 01:26 09.01.2022
5969 Clouds 4 1014 67 10000 0.45 190 00:37 09.01.2022
5970 Clouds 5 1012 62 10000 0.89 194 23:30 08.01.2022
5971 Clouds 6 1010 58 10000 0.45 145 22:35 08.01.2022
5972 Clouds 6 1009 54 10000 0.45 170 21:27 08.01.2022
5973 Clouds 6 1009 53 10000 0.45 39 20:43 08.01.2022
5974 Clouds 6 1008 53 10000 0.45 92 20:21 08.01.2022
5975 Clouds 5 1008 54 10000 0.45 46 18:46 08.01.2022
5976 Clouds 3 1006 56 10000 0.45 20 17:24 08.01.2022
5977 Clouds 3 1005 55 10000 0.45 166 16:42 08.01.2022
5978 Clouds 1 1003 61 10000 0.45 23 14:52 08.01.2022
5979 Clear 1 1003 59 10000 0.45 155 13:56 08.01.2022
5980 Clouds 1 1001 59 10000 0.45 126 11:30 08.01.2022
5981 Clouds 1 1001 60 10000 0.45 187 10:33 08.01.2022
5982 Clouds 1 1001 61 10000 0.45 284 09:57 08.01.2022
5983 Clouds 2 1001 60 10000 2 216 09:30 08.01.2022
5984 Clouds 3 1002 61 10000 0.45 94 04:25 08.01.2022
5985 Clouds 4 1002 87 10000 3.26 211 00:59 08.01.2022
5986 Clouds 11 1001 92 2744 2.71 211 23:30 07.01.2022
5987 Clouds 8 1001 95 2490 1.96 225 21:46 07.01.2022
5988 Clouds 7 1003 97 2544 2.17 209 20:23 07.01.2022
5989 Clouds 5 1006 53 10000 2.55 208 19:26 07.01.2022
5990 Clouds 6 1008 68 10000 0.89 116 18:45 07.01.2022
5991 Clouds 5 1010 70 10000 0.45 152 17:58 07.01.2022
5992 Clouds 2 1010 73 10000 0.89 254 17:22 07.01.2022
5993 Clouds -2 1009 80 10000 0.45 193 14:50 07.01.2022
5994 Clouds -2 1009 81 10000 0.45 178 13:50 07.01.2022
5995 Clouds -1 1008 79 10000 0.45 148 12:50 07.01.2022
5996 Clouds -1 1009 76 10000 0.89 111 10:18 07.01.2022
5997 Clouds -10 1009 68 10000 0.45 200 02:59 07.01.2022
5998 Clouds -9 1009 69 10000 0.89 170 02:21 07.01.2022
5999 Clouds -9 1014 71 10000 0.45 87 01:45 07.01.2022
6000 Clouds -7 1019 71 10000 0.45 181 01:23 07.01.2022
6001 Clouds -4 1013 66 10000 0.34 6 00:28 07.01.2022
6002 Snow -1 1013 58 10000 1.34 26 21:56 06.01.2022
6003 Snow -7 1017 64 10000 0.89 130 20:37 06.01.2022
6004 Snow -7 1013 58 10000 0.89 168 19:54 06.01.2022
6005 Snow -10 1020 69 10000 0.89 242 19:29 06.01.2022
6006 Clouds -13 1023 75 10000 0.45 351 17:51 06.01.2022
6007 Clouds -14 1023 78 10000 0.45 89 17:19 06.01.2022
6008 Clouds -15 1023 80 10000 0.45 90 16:22 06.01.2022
6009 Clouds -16 1024 81 10000 0.45 186 15:41 06.01.2022
6010 Clouds -16 1024 80 10000 0.45 32 15:20 06.01.2022
6011 Clouds -16 1023 80 10000 0.45 83 14:19 06.01.2022
6012 Clouds -16 1023 80 10000 0.45 30 12:59 06.01.2022
6013 Clouds -16 1022 80 7365 1.34 32 11:58 06.01.2022
6014 Clouds -16 1022 80 10000 0.45 26 11:29 06.01.2022
6015 Snow -16 1022 81 1760 0.45 30 09:50 06.01.2022
6016 Snow -15 1020 79 155 0.45 87 05:55 06.01.2022
6017 Snow -7 1016 72 266 9.01 13 23:56 05.01.2022
6018 Clouds 1 1007 63 10000 6.16 17 23:21 05.01.2022
6019 Clouds 3 1006 59 10000 0.89 40 22:41 05.01.2022
6020 Clouds 5 1004 51 10000 3.13 32 21:59 05.01.2022
6021 Clouds 5 1000 46 10000 6.46 312 21:22 05.01.2022
6022 Clouds 7 1003 49 10000 0.45 147 20:30 05.01.2022
6023 Clouds 4 1004 56 10000 0.89 119 19:29 05.01.2022
6024 Clouds 1 1006 62 10000 0.45 175 18:20 05.01.2022
6025 Clouds -2 1008 71 10000 0.45 216 16:56 05.01.2022
6026 Clear -4 1014 75 10000 0.48 180 16:18 05.01.2022
6027 Clear -5 1015 72 10000 1.04 77 14:54 05.01.2022
6028 Clear -5 1015 69 10000 0.98 145 13:33 05.01.2022
6029 Clear -6 1016 79 10000 2.18 159 12:20 05.01.2022
6030 Clear -5 1016 76 10000 0.45 278 08:29 05.01.2022
6031 Clouds -2 1016 68 10000 0.89 76 06:37 05.01.2022
6032 Clear -2 1016 69 10000 1.34 72 06:37 05.01.2022
6033 Clear -2 1016 69 10000 1.34 72 06:37 05.01.2022
6034 Clouds 4 1011 40 10000 0.89 22 01:24 05.01.2022
6035 Clouds 7 1010 29 10000 2.24 327 23:42 04.01.2022
6036 Clouds 7 1010 26 10000 1.79 340 23:19 04.01.2022
6037 Clouds 9 1008 23 10000 2.24 286 21:36 04.01.2022
6038 Clouds 9 1010 23 10000 3.13 266 20:41 04.01.2022
6039 Clear 8 1010 24 10000 2.68 309 18:35 04.01.2022
6040 Clear 4 1009 37 10000 1.34 10 17:19 04.01.2022
6041 Clouds 0 1009 48 10000 0.89 271 16:31 04.01.2022
6042 Clear -1 1009 55 10000 0.45 325 14:58 04.01.2022
6043 Clear -1 1008 54 10000 0.89 306 14:37 04.01.2022
6044 Clear -1 1007 51 10000 1.34 0 13:55 04.01.2022
6045 Clouds -1 1006 51 10000 0.45 263 12:20 04.01.2022
6046 Clouds -1 1007 54 10000 1.34 268 10:21 04.01.2022
6047 Clouds -1 1008 59 10000 0.45 313 08:49 04.01.2022
6048 Clouds -1 1011 61 10000 0.45 76 06:28 04.01.2022
6049 Clouds 5 1016 92 2590 1.08 252 00:42 04.01.2022
6050 Clouds 5 1015 94 2529 0.64 267 23:54 03.01.2022
6051 Clouds 8 1014 25 2730 0.76 193 22:22 03.01.2022
6052 Clouds 8 1014 25 2730 0.76 193 21:38 03.01.2022
6053 Clouds 8 1015 31 10000 1.19 196 20:40 03.01.2022
6054 Clouds 5 1020 43 10000 0.45 190 18:55 03.01.2022
6055 Clouds 3 1020 47 10000 0.45 139 18:30 03.01.2022
6056 Clouds 0 1020 53 10000 0.45 263 17:20 03.01.2022
6057 Clouds -2 1020 57 10000 0.45 184 16:31 03.01.2022
6058 Clouds -4 1020 61 10000 0.45 256 14:31 03.01.2022
6059 Clouds -4 1021 60 10000 0.89 196 12:52 03.01.2022
6060 Clouds -5 1021 63 10000 0.45 184 11:50 03.01.2022
6061 Clouds -5 1022 64 10000 0.89 186 10:38 03.01.2022
6062 Clouds -4 1022 62 10000 0.45 186 09:28 03.01.2022
6063 Clouds -4 1023 63 10000 0.45 184 07:53 03.01.2022
6064 Clouds -2 1026 60 10000 1.79 211 02:56 03.01.2022
6065 Clouds 6 1023 53 1937 1.34 172 23:23 02.01.2022
6066 Clouds 6 1023 55 1937 0.89 154 22:56 02.01.2022
6067 Clouds 6 1023 45 10000 1.34 162 21:52 02.01.2022
6068 Clouds 5 1025 49 10000 0.45 129 20:50 02.01.2022
6069 Clear 4 1026 51 7889 0.89 144 20:29 02.01.2022
6070 Clear 3 1026 52 7889 0.89 170 19:31 02.01.2022
6071 Rain 1 1028 52 10000 1.34 153 18:56 02.01.2022
6072 Snow -1 1027 55 10000 0.45 221 17:56 02.01.2022
6073 Clear -2 1027 54 10000 0.45 221 17:38 02.01.2022
6074 Clear -4 1027 64 10000 0.45 221 17:20 02.01.2022
6075 Clear -10 1026 72 10000 1.34 184 16:27 02.01.2022
6076 Clear -11 1024 70 10000 0.89 191 14:41 02.01.2022
6077 Clear -13 1024 71 10000 1.34 188 13:25 02.01.2022
6078 Clear -13 1023 71 10000 1.34 190 12:31 02.01.2022
6079 Clear -14 1022 71 10000 1.34 186 11:41 02.01.2022
6080 Clear -14 1023 72 10000 0.45 220 10:53 02.01.2022
6081 Clear -14 1022 72 10000 0.45 136 09:55 02.01.2022
6082 Clouds -15 1022 77 10000 0.45 186 07:29 02.01.2022
6083 Clouds -15 1020 80 10000 0.45 0 02:20 02.01.2022
6084 Clouds -10 1018 74 10000 0.45 211 23:41 01.01.2022
6085 Clouds -10 1018 75 10000 0.45 213 23:23 01.01.2022
6086 Clouds -10 1017 75 10000 0.45 61 22:24 01.01.2022
6087 Clouds -11 1016 76 10000 0.45 28 21:44 01.01.2022
6088 Clouds -11 1016 78 10000 0.45 35 20:56 01.01.2022
6089 Snow -11 1016 79 865 0.45 90 20:19 01.01.2022
6090 Snow -12 1016 80 253 0.45 20 19:32 01.01.2022
6091 Snow -13 1017 81 171 0.45 37 18:29 01.01.2022
6092 Snow -14 1014 82 170 0.45 30 16:51 01.01.2022
6093 Snow -14 1013 82 145 0.89 38 16:29 01.01.2022
6094 Snow -14 1012 82 143 0.45 32 15:31 01.01.2022
6095 Snow -14 1010 83 275 1.79 27 14:22 01.01.2022
6096 Snow -13 1008 83 265 0.45 37 12:50 01.01.2022
6097 Snow -12 1006 82 261 0.45 23 11:59 01.01.2022
6098 Snow -12 1015 83 209 2.52 55 11:24 01.01.2022
6099 Mist -12 1006 83 6437 0.45 117 10:42 01.01.2022
6100 Snow -11 1007 84 376 0.89 74 09:47 01.01.2022
6101 Snow -10 1006 85 161 0.45 15 08:27 01.01.2022
6102 Snow -9 1006 86 161 0.89 16 07:56 01.01.2022
6103 Snow -9 1006 86 161 0.45 27 07:37 01.01.2022
6104 Snow -8 1006 86 213 0.45 51 06:42 01.01.2022
6105 Snow -8 1005 86 611 0.45 25 04:38 01.01.2022
6106 Snow -7 1005 86 157 0.89 32 03:38 01.01.2022
6107 Snow -1 998 82 798 1.79 78 23:52 31.12.2021
6108 Clouds 2 997 51 10000 1.79 115 21:54 31.12.2021
6109 Clouds 2 998 46 10000 1.79 132 20:41 31.12.2021
6110 Clouds 2 1000 53 10000 1.34 100 19:31 31.12.2021
6111 Clouds 1 1005 59 10000 1.08 69 18:44 31.12.2021
6112 Clouds 0 1000 62 10000 0.45 216 17:45 31.12.2021
6113 Clouds 0 1000 62 10000 0.45 105 17:19 31.12.2021
6114 Clouds -1 999 62 10000 0.45 279 16:44 31.12.2021
6115 Clear -1 998 63 10000 0.89 57 15:58 31.12.2021
6116 Clear -1 998 59 10000 0.45 59 15:31 31.12.2021
6117 Clear -1 997 54 10000 2.24 46 14:57 31.12.2021
6118 Clouds 0 997 53 10000 2.24 46 14:57 31.12.2021
6119 Clear 1 996 49 10000 0.89 360 14:31 31.12.2021
6120 Clear 1 995 49 10000 0.89 186 13:42 31.12.2021
6121 Clouds 1 995 47 10000 1.79 184 12:49 31.12.2021
6122 Clear 1 995 45 10000 0.89 191 11:52 31.12.2021
6123 Clear 1 995 44 10000 1.34 184 11:33 31.12.2021
6124 Clouds 1 996 41 10000 0.45 0 10:38 31.12.2021
6125 Clear 2 996 40 10000 0.45 214 10:20 31.12.2021
6126 Clear 2 996 40 10000 0.45 231 09:33 31.12.2021
6127 Clear 2 995 38 10000 0.45 81 08:49 31.12.2021
6128 Clear 3 996 36 10000 0.45 157 07:49 31.12.2021
6129 Clear 7 998 23 10000 1.34 213 00:47 31.12.2021
6130 Clear 8 998 20 10000 3.13 313 22:50 30.12.2021
6131 Clear 9 998 20 10000 3.13 303 22:26 30.12.2021
6132 Clear 9 998 19 10000 2.68 292 21:37 30.12.2021
6133 Clear 9 998 19 10000 2.68 292 21:37 30.12.2021
6134 Clear 8 999 19 10000 1.79 321 20:49 30.12.2021
6135 Clear 8 1000 20 10000 2.68 266 20:28 30.12.2021
6136 Clear 8 1001 21 10000 3.13 271 19:48 30.12.2021
6137 Clouds 7 1001 21 10000 2.24 269 19:18 30.12.2021
6138 Clear 6 1002 25 10000 2.24 269 18:20 30.12.2021
6139 Clear 2 1002 39 10000 1.34 152 16:37 30.12.2021
6140 Clear 0 1004 47 10000 0.45 214 15:52 30.12.2021
6141 Clear -1 1006 48 10000 0.45 188 14:49 30.12.2021
6142 Clear -1 1006 47 10000 0.89 187 14:30 30.12.2021
6143 Clear -2 1006 46 10000 0.89 32 13:23 30.12.2021
6144 Clear -1 1005 44 10000 0.89 189 11:35 30.12.2021
6145 Clear -1 1002 42 10000 2.68 176 10:27 30.12.2021
6146 Clear -2 1006 43 10000 2.53 209 09:27 30.12.2021
6147 Clear -3 1007 52 10000 2.02 178 06:55 30.12.2021
6148 Clouds -5 1007 48 10000 3.09 70 04:25 30.12.2021
6149 Clear -5 1008 46 10000 0.89 91 03:40 30.12.2021
6150 Clouds -1 1006 36 10000 0.45 98 00:42 30.12.2021
6151 Clouds 1 1005 34 10000 1.34 88 23:36 29.12.2021
6152 Clouds 1 1005 34 10000 0.45 80 22:32 29.12.2021
6153 Clouds 1 1004 34 10000 0.45 192 21:54 29.12.2021
6154 Clouds 0 1005 36 10000 1.34 93 20:56 29.12.2021
6155 Clouds -1 1005 38 10000 0.45 203 20:25 29.12.2021
6156 Clouds -2 1006 40 10000 0.45 75 19:31 29.12.2021
6157 Clouds -3 1008 44 10000 0.89 174 18:30 29.12.2021
6158 Clouds -5 1006 49 10000 0.45 189 17:30 29.12.2021
6159 Clouds -5 1004 49 10000 0.45 104 16:58 29.12.2021
6160 Clouds -7 1008 52 10000 2.5 16 16:19 29.12.2021
6161 Clear -6 1007 33 10000 2.41 13 14:59 29.12.2021
6162 Clear -7 1005 58 10000 1.67 13 12:57 29.12.2021
6163 Clear -8 1006 58 10000 1.8 13 12:30 29.12.2021
6164 Clear -8 1005 54 10000 1.62 3 10:53 29.12.2021
6165 Clear -7 1004 52 10000 1.8 4 09:24 29.12.2021
6166 Clouds -6 1001 47 10000 0.89 285 06:59 29.12.2021
6167 Clouds -6 1001 45 10000 0.89 271 06:30 29.12.2021
6168 Clouds -6 1001 46 10000 2.9 338 05:52 29.12.2021
6169 Clouds -4 1001 40 10000 1.34 146 03:48 29.12.2021
6170 Clouds 0 1000 32 10000 1.34 54 00:32 29.12.2021
6171 Clouds 1 1000 31 10000 1.79 52 23:57 28.12.2021
6172 Clouds 1 999 31 10000 1.34 118 22:56 28.12.2021
6173 Clouds 1 999 31 10000 2.24 107 22:24 28.12.2021
6174 Clouds 1 999 32 10000 2.24 78 21:54 28.12.2021
6175 Clear 1 998 33 10000 1.79 61 21:28 28.12.2021
6176 Clear 0 999 36 10000 1.79 54 19:52 28.12.2021
6177 Clear -1 1000 40 10000 1.34 76 18:53 28.12.2021
6178 Clear -1 1000 44 10000 1.34 61 18:25 28.12.2021
6179 Clear -3 999 50 10000 0.89 132 17:29 28.12.2021
6180 Clear -5 999 60 10000 0.89 159 15:53 28.12.2021
6181 Clear -5 998 61 10000 0.45 117 15:29 28.12.2021
6182 Clear -4 998 60 10000 0.45 126 14:55 28.12.2021
6183 Clear -4 997 59 10000 0.89 86 14:22 28.12.2021
6184 Clear -3 997 58 10000 0.89 41 13:58 28.12.2021
6185 Clouds -3 997 59 10000 0.89 62 13:34 28.12.2021
6186 Clouds -2 996 59 10000 0.45 85 12:55 28.12.2021
6187 Clouds -1 994 60 10000 1.34 77 12:19 28.12.2021
6188 Clear -1 993 53 10000 0.45 148 09:32 28.12.2021
6189 Clear 0 994 52 10000 0.45 273 07:33 28.12.2021
6190 Clouds 2 994 45 10000 5.66 200 03:31 28.12.2021
6191 Clouds 5 997 33 10000 0.89 9 23:37 27.12.2021
6192 Clouds 7 997 28 10000 1.79 256 22:20 27.12.2021
6193 Clear 8 998 27 10000 1.34 157 21:30 27.12.2021
6194 Clear 7 1000 29 10000 1.34 140 20:32 27.12.2021
6195 Clear 6 1002 32 10000 0.89 112 19:47 27.12.2021
6196 Clear 5 1004 35 10000 0.45 171 18:57 27.12.2021
6197 Clear 2 1006 45 10000 0.89 141 17:51 27.12.2021
6198 Clear 0 1005 50 10000 0.45 36 17:28 27.12.2021
6199 Clear -3 1010 38 10000 1.96 183 15:54 27.12.2021
6200 Clear -5 1011 61 10000 1.15 186 14:57 27.12.2021
6201 Clear -5 1011 60 10000 0.38 209 14:21 27.12.2021
6202 Clear -5 1010 58 10000 2.07 109 12:49 27.12.2021
6203 Clouds -3 1007 62 10000 4.63 110 10:37 27.12.2021
6204 Clear -2 1009 34 10000 1.13 151 10:18 27.12.2021
6205 Clear -1 1008 52 10000 0.89 78 08:42 27.12.2021
6206 Clouds -1 1006 50 10000 3.6 60 08:42 27.12.2021
6207 Clouds 1 1003 44 10000 0.45 319 07:34 27.12.2021
6208 Clouds 4 1001 44 10000 2.24 355 02:29 27.12.2021
6209 Clouds 5 998 43 10000 1.34 313 00:57 27.12.2021
6210 Clouds 8 995 26 10000 1.34 211 23:43 26.12.2021
6211 Clear 9 995 24 10000 2.68 277 23:18 26.12.2021
6212 Clouds 11 993 22 10000 0.45 272 21:33 26.12.2021
6213 Clear 10 994 29 10000 1.34 37 19:54 26.12.2021
6214 Clouds 9 996 33 10000 0.89 44 18:39 26.12.2021
6215 Clouds 8 996 34 10000 0.89 17 18:19 26.12.2021
6216 Clear 3 997 50 10000 0.45 117 15:35 26.12.2021
6217 Clouds 2 999 45 10000 1.79 245 13:43 26.12.2021
6218 Clouds 3 998 44 10000 1.34 213 13:21 26.12.2021
6219 Clouds 2 999 42 10000 1.79 180 12:35 26.12.2021
6220 Clouds 2 1001 40 10000 0.45 210 11:18 26.12.2021
6221 Clouds 2 1003 40 10000 0.45 114 09:30 26.12.2021
6222 Clouds 2 1004 42 10000 0.89 114 08:45 26.12.2021
6223 Clouds 2 1006 41 10000 1.34 178 08:23 26.12.2021
6224 Clear 6 1009 33 10000 0.89 25 01:50 26.12.2021
6225 Clear 9 1008 23 10000 0.45 210 00:39 26.12.2021
6226 Clear 11 1007 20 10000 0.89 250 23:35 25.12.2021
6227 Clouds 12 1007 20 10000 1.34 217 22:29 25.12.2021
6228 Clear 12 1007 20 10000 1.34 215 21:30 25.12.2021
6229 Clear 11 1008 24 10000 1.79 248 20:18 25.12.2021
6230 Clear 10 1009 29 10000 1.79 202 19:18 25.12.2021
6231 Clouds 9 1009 35 10000 1.79 219 18:29 25.12.2021
6232 Clear 5 1008 49 10000 0.89 189 16:49 25.12.2021
6233 Clear 2 1006 58 10000 0.45 190 15:30 25.12.2021
6234 Clouds 2 1005 60 10000 0.89 198 14:22 25.12.2021
6235 Clear 2 1003 62 10000 0.89 225 12:21 25.12.2021
6236 Clear 3 1002 63 10000 0.89 308 10:38 25.12.2021
6237 Clear 3 1001 64 10000 0.45 179 09:48 25.12.2021
6238 Clouds 3 999 69 10000 0.45 186 07:27 25.12.2021
6239 Clouds 3 998 84 10000 1.54 194 01:36 25.12.2021
6240 Clouds 5 998 82 10000 0.45 165 00:19 25.12.2021
6241 Clouds 7 996 66 10000 1.34 280 21:51 24.12.2021
6242 Clouds 8 996 55 10000 0.45 46 19:27 24.12.2021
6243 Clouds 8 996 55 10000 0.45 256 18:41 24.12.2021
6244 Clouds 5 997 66 10000 0.45 96 16:44 24.12.2021
6245 Clouds 4 997 72 10000 0.89 84 15:50 24.12.2021
6246 Clouds 4 997 72 10000 0.89 76 15:20 24.12.2021
6247 Clouds 5 996 69 10000 0.89 61 14:33 24.12.2021
6248 Clouds 7 995 61 10000 0.45 242 13:50 24.12.2021
6249 Clouds 8 994 59 10000 0.45 194 13:32 24.12.2021
6250 Clear 8 994 58 10000 0.45 194 12:39 24.12.2021
6251 Clear 9 994 57 10000 0.45 194 11:42 24.12.2021
6252 Clouds 9 994 56 10000 0.45 244 11:24 24.12.2021
6253 Clear 9 994 54 10000 3.62 206 10:34 24.12.2021
6254 Clouds 10 995 48 10000 0.89 331 08:48 24.12.2021
6255 Clear 10 995 46 10000 1.34 222 07:58 24.12.2021
6256 Clouds 10 995 48 10000 0.89 178 06:59 24.12.2021
6257 Clouds 15 1002 28 10000 0.89 272 00:22 24.12.2021
6258 Clouds 15 1002 27 10000 0.45 110 23:49 23.12.2021
6259 Clouds 17 1001 24 10000 1.34 188 22:53 23.12.2021
6260 Clouds 17 1001 23 10000 0.45 188 22:24 23.12.2021
6261 Clouds 17 1001 23 10000 0.89 131 21:41 23.12.2021
6262 Clouds 16 1003 24 10000 0.89 76 20:30 23.12.2021
6263 Clouds 14 1005 25 10000 1.34 84 19:30 23.12.2021
6264 Clouds 12 1008 30 10000 0.89 30 18:18 23.12.2021
6265 Clouds 10 1008 31 10000 0.45 19 17:45 23.12.2021
6266 Clouds 5 1006 36 10000 0.89 188 16:27 23.12.2021
6267 Clouds 6 1006 34 10000 1.79 196 15:40 23.12.2021
6268 Clouds 5 1008 36 10000 0.89 198 15:22 23.12.2021
6269 Clouds 5 1004 35 10000 0.45 268 14:40 23.12.2021
6270 Clouds 5 1007 34 10000 0.45 193 13:31 23.12.2021
6271 Clouds 5 1003 31 10000 0.45 280 11:49 23.12.2021
6272 Clouds 5 1008 30 10000 0.45 301 09:53 23.12.2021
6273 Clouds 5 1008 30 10000 0.45 301 09:53 23.12.2021
6274 Clouds 5 1007 29 10000 0.45 153 09:34 23.12.2021
6275 Clouds 6 1007 28 10000 0.45 325 08:28 23.12.2021
6276 Clouds 7 1009 23 10000 0.45 288 05:39 23.12.2021
6277 Clouds 11 1008 11 10000 0.45 64 01:31 23.12.2021
6278 Clouds 16 1007 14 10000 0.25 245 22:53 22.12.2021
6279 Clouds 16 1007 14 10000 0.23 200 22:19 22.12.2021
6280 Clouds 16 1007 15 10000 0.23 200 21:36 22.12.2021
6281 Clouds 16 1008 15 10000 0.52 147 21:18 22.12.2021
6282 Clouds 16 1007 12 10000 0.45 70 20:40 22.12.2021
6283 Clouds 14 1009 15 10000 0.89 74 19:54 22.12.2021
6284 Clouds 12 1011 18 10000 0.45 159 18:55 22.12.2021
6285 Clouds 9 1012 20 10000 0.89 280 17:38 22.12.2021
6286 Clouds 5 1012 21 10000 0.89 144 16:22 22.12.2021
6287 Clear 3 1011 19 10000 1.34 103 14:28 22.12.2021
6288 Clouds 3 1013 21 10000 0.89 123 12:53 22.12.2021
6289 Clear 3 1012 19 10000 0.45 216 11:42 22.12.2021
6290 Clouds 3 1012 21 10000 0.45 160 09:52 22.12.2021
6291 Clear 4 1013 22 10000 1.34 279 07:57 22.12.2021
6292 Clear 5 1013 20 10000 0.45 128 05:54 22.12.2021
6293 Clear 5 1013 20 10000 1.34 56 05:34 22.12.2021
6294 Clear 6 1013 19 10000 0.45 178 04:57 22.12.2021
6295 Clear 6 1013 18 10000 2.68 228 04:37 22.12.2021
6296 Clear 6 1013 18 10000 2.68 228 04:37 22.12.2021
6297 Clear 7 1012 17 10000 0.89 224 03:49 22.12.2021
6298 Clear 7 1013 17 10000 1.79 224 03:31 22.12.2021
6299 Clear 13 1012 13 10000 2.68 326 23:48 21.12.2021
6300 Clear 15 1011 13 10000 5.36 306 22:41 21.12.2021
6301 Clouds 15 1012 13 10000 3.13 269 21:56 21.12.2021
6302 Clear 16 1011 14 10000 0.66 194 21:32 21.12.2021
6303 Clear 15 1012 16 10000 0.8 171 20:24 21.12.2021
6304 Clear 15 1012 16 10000 0.8 171 19:55 21.12.2021
6305 Clouds 14 1014 18 10000 1.2 197 19:33 21.12.2021
6306 Clouds 11 1014 21 10000 0.89 215 18:23 21.12.2021
6307 Clouds 10 1014 20 10000 0.45 117 17:58 21.12.2021
6308 Clouds 7 1013 24 10000 0.45 215 17:29 21.12.2021
6309 Clouds 4 1015 27 10000 1.34 202 15:34 21.12.2021
6310 Clouds 4 1015 29 10000 0.45 180 14:20 21.12.2021
6311 Clouds 4 1014 28 10000 1.34 91 13:41 21.12.2021
6312 Clouds 5 1012 26 10000 0.45 193 12:25 21.12.2021
6313 Clouds 4 1012 31 10000 0.45 0 10:38 21.12.2021
6314 Clouds 4 1014 30 10000 0.45 72 09:42 21.12.2021
6315 Clouds 4 1012 34 10000 0.89 113 08:55 21.12.2021
6316 Clear 4 1014 33 10000 2.94 197 07:43 21.12.2021
6317 Clear 4 1015 37 10000 2.86 203 07:20 21.12.2021
6318 Clear 6 1016 33 10000 0.45 34 03:24 21.12.2021
6319 Clear 10 1016 24 10000 0.89 66 01:20 21.12.2021
6320 Clear 13 1016 20 10000 0.45 24 23:54 20.12.2021
6321 Clear 16 1015 18 10000 0.45 204 22:35 20.12.2021
6322 Clouds 16 1016 17 10000 0.45 299 21:51 20.12.2021
6323 Clear 16 1016 18 10000 1.85 160 21:24 20.12.2021
6324 Clear 15 1016 18 10000 0.89 232 20:51 20.12.2021
6325 Clear 15 1018 19 10000 0.89 214 20:19 20.12.2021
6326 Clear 14 1017 20 10000 0.45 103 19:36 20.12.2021
6327 Clouds 13 1018 20 10000 0.45 103 19:18 20.12.2021
6328 Clouds 10 1018 23 10000 0.89 228 18:30 20.12.2021
6329 Clouds 9 1019 23 10000 0.89 195 17:49 20.12.2021
6330 Clouds 5 1018 26 10000 0.45 210 16:45 20.12.2021
6331 Clouds 2 1020 29 10000 2.69 193 15:55 20.12.2021
6332 Clouds 2 1020 30 10000 2.69 193 15:31 20.12.2021
6333 Clouds 2 1019 29 10000 2.45 199 13:31 20.12.2021
6334 Clear 2 1017 29 10000 0.45 219 11:47 20.12.2021
6335 Clouds 2 1017 30 10000 3.09 190 10:35 20.12.2021
6336 Clouds 2 1016 28 10000 5.14 180 09:38 20.12.2021
6337 Clear 2 1016 28 10000 2.28 209 08:44 20.12.2021
6338 Clear 3 1016 27 10000 2.36 211 08:00 20.12.2021
6339 Clear 3 1016 26 10000 2.36 211 07:31 20.12.2021
6340 Clouds 4 1015 25 10000 0.89 344 06:32 20.12.2021
6341 Clouds 4 1015 25 10000 0.89 344 06:32 20.12.2021
6342 Clouds 11 1016 15 10000 0.89 6 00:19 20.12.2021
6343 Clouds 14 1011 12 10000 0.75 115 22:56 19.12.2021
6344 Clouds 15 1011 18 10000 0.58 77 21:58 19.12.2021
6345 Clouds 15 1011 18 10000 0.58 77 21:32 19.12.2021
6346 Clouds 14 1011 16 10000 0.98 125 20:35 19.12.2021
6347 Clouds 13 1016 18 10000 1.34 109 19:53 19.12.2021
6348 Clouds 13 1018 20 10000 0.45 146 19:32 19.12.2021
6349 Clouds 9 1017 25 10000 0.89 128 18:30 19.12.2021
6350 Clouds 8 1018 24 10000 0.45 187 17:53 19.12.2021
6351 Clouds 4 1018 27 10000 0.89 172 17:21 19.12.2021
6352 Clouds 1 1018 32 10000 0.45 182 16:27 19.12.2021
6353 Clear 1 1019 32 10000 0.89 189 15:50 19.12.2021
6354 Clear 0 1018 32 10000 0.45 183 15:23 19.12.2021
6355 Clear 0 1018 32 10000 0.45 207 14:44 19.12.2021
6356 Clouds 0 1017 31 10000 0.89 188 13:26 19.12.2021
6357 Clear 0 1017 30 10000 0.89 186 12:47 19.12.2021
6358 Clear 0 1017 30 10000 0.45 211 12:28 19.12.2021
6359 Clouds 0 1018 29 10000 1.34 182 11:26 19.12.2021
6360 Clear 0 1024 29 10000 0.89 54 10:28 19.12.2021
6361 Clear 0 1024 28 10000 0.89 40 09:53 19.12.2021
6362 Clear 0 1017 29 10000 0.45 246 08:45 19.12.2021
6363 Clear -1 1019 35 10000 0.45 260 04:45 19.12.2021
6364 Clear 0 1021 33 10000 1.44 206 01:34 19.12.2021
6365 Clear 2 1021 28 10000 0.89 214 00:53 19.12.2021
6366 Clear 6 1022 23 10000 1.34 23 22:42 18.12.2021
6367 Clear 6 1022 23 10000 0.89 25 22:20 18.12.2021
6368 Clear 6 1022 22 10000 0.89 288 21:41 18.12.2021
6369 Clear 6 1022 22 10000 0.89 360 21:22 18.12.2021
6370 Clear 4 1023 24 10000 1.34 18 20:19 18.12.2021
6371 Clear 3 1024 30 10000 0.45 296 19:25 18.12.2021
6372 Clear 0 1025 38 10000 0.89 265 18:22 18.12.2021
6373 Clear -1 1026 44 10000 1.65 165 17:48 18.12.2021
6374 Clear -6 1028 61 10000 1.14 163 16:26 18.12.2021
6375 Clear -8 1028 52 10000 0.98 162 15:27 18.12.2021
6376 Clear -8 1028 47 10000 0.98 162 14:48 18.12.2021
6377 Clear -8 1022 74 10000 2.57 160 13:28 18.12.2021
6378 Clear -8 1023 80 10000 4.12 170 11:22 18.12.2021
6379 Clear -8 1028 71 10000 2.63 120 09:40 18.12.2021
6380 Clear -8 1024 71 10000 3.19 83 08:47 18.12.2021
6381 Clear -8 1026 64 10000 3.41 72 08:24 18.12.2021
6382 Clouds -1 1021 35 10000 0.45 288 03:58 18.12.2021
6383 Clear 3 1016 26 10000 0.89 325 00:29 18.12.2021
6384 Clear 4 1015 25 10000 0.89 31 23:44 17.12.2021
6385 Clear 6 1013 23 10000 0.89 25 21:58 17.12.2021
6386 Clear 6 1013 23 10000 1.79 277 21:19 17.12.2021
6387 Clear 6 1013 25 10000 0.89 63 20:40 17.12.2021
6388 Clear 5 1013 32 10000 0.45 12 19:24 17.12.2021
6389 Clear 4 1014 38 10000 0.89 126 18:38 17.12.2021
6390 Clouds 1 1014 46 10000 0.45 243 17:31 17.12.2021
6391 Clear 0 1013 47 10000 0.89 202 16:49 17.12.2021
6392 Clear -2 1016 51 10000 0.31 219 16:22 17.12.2021
6393 Clear -2 1015 49 10000 1.6 198 15:25 17.12.2021
6394 Clear -3 1015 50 10000 1.6 198 14:40 17.12.2021
6395 Clouds -3 1011 52 10000 3.6 180 12:47 17.12.2021
6396 Clear -2 1014 49 10000 1.06 171 11:46 17.12.2021
6397 Clear -2 1007 48 10000 1.48 165 10:37 17.12.2021
6398 Clear -2 1010 47 10000 0.45 203 09:31 17.12.2021
6399 Clear -2 1010 45 10000 0.45 226 08:30 17.12.2021
6400 Clear 0 1008 41 10000 0.45 275 05:58 17.12.2021
6401 Clear 2 1008 34 10000 0.45 295 02:53 17.12.2021
6402 Clear 10 1006 20 10000 1.34 43 23:25 16.12.2021
6403 Clouds 11 1007 19 10000 1.34 74 22:24 16.12.2021
6404 Clear 11 1007 20 10000 1.34 74 22:24 16.12.2021
6405 Clear 11 1007 19 10000 0.89 24 21:50 16.12.2021
6406 Clear 11 1008 19 10000 0.89 19 21:25 16.12.2021
6407 Clear 10 1009 19 10000 1.34 17 20:30 16.12.2021
6408 Clear 9 1010 21 10000 0.45 37 19:42 16.12.2021
6409 Clear 7 1012 24 10000 0.45 218 18:38 16.12.2021
6410 Clear 6 1012 26 10000 0.89 165 17:56 16.12.2021
6411 Clear 4 1012 31 10000 0.45 123 17:30 16.12.2021
6412 Clear 0 1012 39 10000 2.3 185 16:21 16.12.2021
6413 Clear -1 1012 39 10000 0.45 328 14:50 16.12.2021
6414 Clear -2 1012 42 10000 0.45 172 13:25 16.12.2021
6415 Clear -2 1012 41 10000 0.45 115 11:20 16.12.2021
6416 Clear -2 1012 42 10000 1.21 161 10:58 16.12.2021
6417 Clear -2 1011 39 10000 0.45 93 10:20 16.12.2021
6418 Clear 1 1009 32 10000 0.45 245 07:31 16.12.2021
6419 Clear 1 1009 31 10000 0.89 183 06:19 16.12.2021
6420 Clouds 5 1002 26 10000 2.68 265 00:54 16.12.2021
6421 Clouds 7 999 22 10000 2.68 209 23:25 15.12.2021
6422 Clouds 8 997 22 10000 2.68 261 22:41 15.12.2021
6423 Clouds 8 994 23 10000 2.24 282 21:52 15.12.2021
6424 Clouds 8 992 23 10000 3.58 312 21:26 15.12.2021
6425 Clouds 7 990 25 10000 4.47 261 19:55 15.12.2021
6426 Clouds 7 989 26 10000 4.92 304 19:36 15.12.2021
6427 Clouds 6 989 35 10000 1.34 306 18:36 15.12.2021
6428 Clouds 5 989 58 10000 0.45 32 17:51 15.12.2021
6429 Clouds 5 993 61 8047 0.45 211 17:32 15.12.2021
6430 Rain 7 987 62 10000 2.24 93 16:27 15.12.2021
6431 Clouds 7 987 55 10000 1.79 174 15:46 15.12.2021
6432 Clouds 7 987 56 10000 0.45 205 15:27 15.12.2021
6433 Clear 7 991 50 10000 0.45 135 14:18 15.12.2021
6434 Clear 9 993 40 10000 2.24 179 12:32 15.12.2021
6435 Clear 10 999 36 10000 1.79 179 10:25 15.12.2021
6436 Clear 10 999 36 10000 2.68 168 08:54 15.12.2021
6437 Clear 8 1001 36 10000 1.34 131 06:45 15.12.2021
6438 Clouds 12 1005 26 10000 0.45 345 00:52 15.12.2021
6439 Clouds 16 1005 21 10000 0.89 33 23:41 14.12.2021
6440 Clouds 17 1006 19 10000 0.89 311 22:48 14.12.2021
6441 Clouds 17 1006 19 10000 1.47 213 21:51 14.12.2021
6442 Clouds 15 1005 20 10000 1.74 208 20:27 14.12.2021
6443 Clouds 15 1008 22 10000 0.89 222 19:40 14.12.2021
6444 Clouds 13 1010 24 10000 1.34 158 18:44 14.12.2021
6445 Clouds 11 1011 28 10000 1.79 228 17:58 14.12.2021
6446 Clouds 11 1011 29 10000 1.79 228 17:58 14.12.2021
6447 Clouds 8 1011 31 10000 0.89 198 17:27 14.12.2021
6448 Clouds 9 1010 29 10000 0.45 32 16:38 14.12.2021
6449 Clouds 7 1014 30 10000 1.34 201 15:26 14.12.2021
6450 Clouds 6 1014 27 10000 4.12 190 13:31 14.12.2021
6451 Clouds 6 1012 29 10000 2.33 212 11:58 14.12.2021
6452 Clouds 6 1012 28 10000 2.45 208 11:23 14.12.2021
6453 Clouds 6 1015 28 10000 5.66 190 09:57 14.12.2021
6454 Clouds 6 1013 28 10000 2.43 203 09:35 14.12.2021
6455 Clouds 6 1013 27 10000 2.13 208 08:23 14.12.2021
6456 Clouds 5 1013 29 10000 2.13 208 07:43 14.12.2021
6457 Clouds 6 1015 32 10000 0.89 247 02:25 14.12.2021
6458 Clouds 13 1012 20 10000 0.45 26 22:50 13.12.2021
6459 Clouds 13 1012 20 10000 1.34 355 21:52 13.12.2021
6460 Clouds 12 1012 21 10000 0.89 29 20:59 13.12.2021
6461 Clouds 12 1012 21 10000 0.89 317 20:34 13.12.2021
6462 Clouds 11 1013 22 10000 0.89 19 19:52 13.12.2021
6463 Clouds 9 1015 26 10000 0.45 266 17:56 13.12.2021
6464 Clouds 6 1016 31 10000 0.45 116 17:24 13.12.2021
6465 Clouds 2 1016 35 10000 1.35 193 15:50 13.12.2021
6466 Clouds 1 1016 37 10000 1.08 187 15:19 13.12.2021
6467 Clouds 1 1016 39 10000 0.79 200 13:38 13.12.2021
6468 Clouds 1 1013 41 10000 0.89 308 12:42 13.12.2021
6469 Clouds 2 1012 39 10000 0.45 306 11:54 13.12.2021
6470 Clouds 2 1014 37 10000 0.89 319 11:35 13.12.2021
6471 Clouds 3 1013 35 10000 0.79 304 10:43 13.12.2021
6472 Clouds 3 1011 35 10000 0.45 244 08:57 13.12.2021
6473 Clouds 4 1013 34 10000 0.45 274 07:38 13.12.2021
6474 Clouds 5 1013 35 10000 0.45 186 05:34 13.12.2021
6475 Clouds 13 1008 23 10000 2.32 215 00:43 13.12.2021
6476 Clouds 17 1005 18 10000 0.46 27 21:59 12.12.2021
6477 Clouds 17 1010 17 10000 3.6 360 21:35 12.12.2021
6478 Clouds 15 1008 22 10000 0.45 29 19:40 12.12.2021
6479 Clouds 11 1009 31 10000 0.45 194 18:35 12.12.2021
6480 Clouds 6 1010 45 10000 1.34 54 16:58 12.12.2021
6481 Clouds 2 1010 52 10000 0.45 159 16:27 12.12.2021
6482 Clouds 1 1010 54 10000 0.45 162 15:41 12.12.2021
6483 Clouds 1 1010 55 10000 0.45 167 15:21 12.12.2021
6484 Clouds 1 1010 54 10000 0.45 53 14:30 12.12.2021
6485 Clouds 1 1010 54 10000 0.45 274 13:22 12.12.2021
6486 Clouds 1 1010 55 10000 0.45 164 12:27 12.12.2021
6487 Clouds 1 1011 55 10000 0.89 188 11:44 12.12.2021
6488 Clouds 1 1011 54 10000 0.45 190 11:20 12.12.2021
6489 Clouds 2 1011 53 10000 0.45 182 10:22 12.12.2021
6490 Clouds 2 1012 52 10000 2.96 201 08:54 12.12.2021
6491 Clouds 1 1013 49 10000 1.34 251 07:31 12.12.2021
6492 Clouds 2 1013 43 10000 0.45 112 05:56 12.12.2021
6493 Clouds 2 1013 38 10000 0.89 219 04:55 12.12.2021
6494 Clouds 3 1014 35 10000 1.92 208 02:58 12.12.2021
6495 Clouds 8 1013 23 10000 1.54 350 23:31 11.12.2021
6496 Clouds 8 1013 22 10000 0.45 281 22:22 11.12.2021
6497 Clear 8 1013 24 10000 0.45 49 21:51 11.12.2021
6498 Clear 6 1015 26 10000 1.34 199 20:24 11.12.2021
6499 Clear 3 1017 29 10000 0.45 201 19:21 11.12.2021
6500 Clouds 3 1017 30 10000 0.45 217 18:51 11.12.2021
6501 Clear 1 1018 32 10000 0.45 173 18:19 11.12.2021
6502 Clear -3 1018 38 10000 0.45 214 16:59 11.12.2021
6503 Clear -7 1016 42 10000 0.45 0 15:48 11.12.2021
6504 Clear -7 1016 42 10000 0.89 212 14:54 11.12.2021
6505 Clear -7 1015 40 10000 0.45 215 12:49 11.12.2021
6506 Clear -7 1016 39 10000 0.89 238 11:24 11.12.2021
6507 Clear -7 1016 44 10000 0.45 215 09:45 11.12.2021
6508 Clear -6 1016 41 10000 0.89 262 07:32 11.12.2021
6509 Clouds -3 1011 35 10000 2.24 247 00:51 11.12.2021
6510 Snow -1 1009 32 10000 1.79 285 23:49 10.12.2021
6511 Clouds 0 1007 30 10000 1.34 346 23:18 10.12.2021
6512 Rain 1 1004 43 10000 2.68 17 21:52 10.12.2021
6513 Rain 1 1002 58 10000 1.34 44 20:57 10.12.2021
6514 Snow -1 1002 75 10000 0.89 355 19:21 10.12.2021
6515 Snow -1 1002 82 5690 0.89 345 17:54 10.12.2021
6516 Snow -1 1001 88 1806 1.34 26 16:55 10.12.2021
6517 Snow -1 1000 89 295 0.89 26 15:51 10.12.2021
6518 Snow -1 1000 88 189 0.89 20 15:29 10.12.2021
6519 Snow -1 1000 87 189 1.79 345 14:59 10.12.2021
6520 Snow -1 999 84 512 0.45 1 13:51 10.12.2021
6521 Clouds -1 999 82 10000 0.45 38 13:25 10.12.2021
6522 Clouds -1 998 77 10000 1.79 330 12:23 10.12.2021
6523 Clouds -1 998 75 10000 0.45 300 11:28 10.12.2021
6524 Clouds 0 995 68 10000 1.34 306 09:54 10.12.2021
6525 Clouds 0 995 67 10000 0.45 265 08:30 10.12.2021
6526 Clouds 2 997 61 10000 1.94 33 05:56 10.12.2021
6527 Clouds 4 1000 52 10000 0.89 289 02:47 10.12.2021
6528 Clouds 9 999 39 10000 0.89 213 23:44 09.12.2021
6529 Clouds 10 999 36 10000 0.89 30 22:59 09.12.2021
6530 Clouds 10 1000 36 10000 1.79 37 22:24 09.12.2021
6531 Clouds 10 1000 36 10000 0.45 294 21:48 09.12.2021
6532 Clouds 11 1000 33 10000 1.34 290 20:40 09.12.2021
6533 Clouds 11 1001 34 10000 0.45 302 19:46 09.12.2021
6534 Clouds 11 1002 34 10000 0.89 12 19:21 09.12.2021
6535 Clouds 10 1003 37 10000 0.45 350 18:25 09.12.2021
6536 Clouds 9 1002 40 10000 0.45 305 17:51 09.12.2021
6537 Clouds 7 1003 45 10000 0.89 191 17:25 09.12.2021
6538 Clouds 7 1003 45 10000 0.89 191 17:25 09.12.2021
6539 Clouds 6 1003 46 10000 0.45 210 16:50 09.12.2021
6540 Clouds 4 1002 55 10000 0.45 55 15:31 09.12.2021
6541 Clouds 4 1002 53 10000 0.89 55 14:43 09.12.2021
6542 Clouds 4 1001 50 10000 0.45 181 13:18 09.12.2021
6543 Clouds 4 1001 50 10000 2.52 193 12:31 09.12.2021
6544 Clouds 5 1002 50 10000 0.45 148 10:47 09.12.2021
6545 Clouds 5 1001 48 10000 0.45 229 08:20 09.12.2021
6546 Clouds 8 999 39 10000 0.89 42 05:54 09.12.2021
6547 Clouds 9 999 31 10000 1.34 288 01:52 09.12.2021
6548 Clouds 11 1000 25 10000 0.89 22 23:40 08.12.2021
6549 Clouds 12 1001 23 10000 2.06 360 23:20 08.12.2021
6550 Clouds 12 1001 23 10000 1.54 280 22:43 08.12.2021
6551 Clouds 12 1001 23 10000 0.45 211 21:39 08.12.2021
6552 Clouds 11 1002 23 10000 0.45 355 20:58 08.12.2021
6553 Clouds 11 1005 23 10000 0.89 5 19:57 08.12.2021
6554 Clouds 11 1005 24 10000 0.45 169 19:29 08.12.2021
6555 Clouds 9 1007 27 10000 0.45 186 18:28 08.12.2021
6556 Clouds 6 1009 33 10000 0.45 218 17:24 08.12.2021
6557 Clear 2 1009 36 10000 1.34 169 15:45 08.12.2021
6558 Clear 1 1009 38 10000 0.45 248 15:23 08.12.2021
6559 Clear 2 1009 38 10000 1.34 187 13:40 08.12.2021
6560 Clouds 3 1011 38 10000 0.45 194 10:45 08.12.2021
6561 Clear 3 1011 38 10000 0.45 178 10:23 08.12.2021
6562 Clear 3 1010 37 10000 0.45 0 08:54 08.12.2021
6563 Clear 3 1012 39 10000 0.45 198 06:36 08.12.2021
6564 Clear 9 1009 29 10000 0.89 236 01:20 08.12.2021
6565 Clear 12 1008 25 10000 1.79 282 23:29 07.12.2021
6566 Clear 10 1010 31 10000 0.45 217 21:26 07.12.2021
6567 Clouds 8 1011 36 10000 0.45 182 20:26 07.12.2021
6568 Clouds 8 1011 36 10000 0.45 234 20:26 07.12.2021
6569 Clouds 6 1013 40 10000 0.45 352 19:23 07.12.2021
6570 Clouds 5 1013 41 10000 0.45 250 18:32 07.12.2021
6571 Clouds 2 1014 48 10000 0.45 71 17:27 07.12.2021
6572 Clouds 2 1013 49 10000 0.45 41 16:56 07.12.2021
6573 Clouds 1 1014 49 10000 1.34 24 16:26 07.12.2021
6574 Clouds 2 1010 47 10000 0.89 24 14:38 07.12.2021
6575 Clouds 3 1010 46 10000 0.45 229 13:41 07.12.2021
6576 Clouds 4 1009 44 10000 0.45 68 12:27 07.12.2021
6577 Clouds 5 1009 42 10000 0.45 188 11:23 07.12.2021
6578 Clouds 4 1008 41 10000 0.45 250 09:40 07.12.2021
6579 Clouds 3 1011 43 10000 0.89 167 07:50 07.12.2021
6580 Clouds 3 1009 39 10000 1.79 242 05:52 07.12.2021
6581 Clouds 3 1011 39 10000 0.89 153 05:26 07.12.2021
6582 Clouds 3 1011 39 10000 0.89 119 05:26 07.12.2021
6583 Clouds 1 1014 39 10000 0.45 212 23:38 06.12.2021
6584 Clouds 1 1015 40 10000 0.45 282 22:41 06.12.2021
6585 Clouds 1 1015 40 10000 0.45 65 21:59 06.12.2021
6586 Clouds 0 1016 43 10000 0.45 13 21:31 06.12.2021
6587 Clouds -1 1017 45 10000 0.89 281 20:32 06.12.2021
6588 Clouds -2 1020 48 10000 0.89 91 19:24 06.12.2021
6589 Clouds -2 1020 46 10000 0.45 227 18:42 06.12.2021
6590 Clouds -4 1020 49 10000 0.45 149 17:54 06.12.2021
6591 Clouds -5 1021 52 10000 0.45 165 17:33 06.12.2021
6592 Clouds -7 1022 54 10000 0.84 147 15:52 06.12.2021
6593 Clouds -8 1021 53 10000 0.89 115 14:40 06.12.2021
6594 Clouds -7 1022 54 10000 0.45 130 13:28 06.12.2021
6595 Clouds -7 1022 55 10000 1.34 115 12:37 06.12.2021
6596 Clouds -6 1023 54 10000 0.45 130 10:28 06.12.2021
6597 Snow -6 1023 57 10000 0.45 121 07:41 06.12.2021
6598 Clouds -3 1020 61 10000 0.45 97 02:28 06.12.2021
6599 Clouds 17 1005 13 10000 0.45 355 22:26 05.12.2021
6600 Clouds 17 1005 11 10000 0.89 302 21:25 05.12.2021
6601 Clouds 17 1005 11 10000 0.45 355 20:54 05.12.2021
6602 Clouds 17 1004 11 10000 1.34 286 20:18 05.12.2021
6603 Clouds 16 1005 13 10000 1.34 256 19:26 05.12.2021
6604 Clouds 16 1005 14 10000 0.89 311 18:31 05.12.2021
6605 Clouds 15 1005 16 10000 0.45 222 17:52 05.12.2021
6606 Clouds 15 1004 16 10000 1.79 174 17:34 05.12.2021
6607 Clouds 13 1005 20 10000 0.45 287 16:36 05.12.2021
6608 Clouds 11 1004 23 10000 0.45 31 16:18 05.12.2021
6609 Clouds 9 1004 23 10000 1.32 196 14:48 05.12.2021
6610 Clouds 10 1004 25 10000 1.32 196 14:30 05.12.2021
6611 Clouds 10 1007 27 10000 0.45 222 13:35 05.12.2021
6612 Clouds 10 1006 26 10000 0.45 211 12:45 05.12.2021
6613 Clouds 10 1007 27 10000 0.45 211 12:26 05.12.2021
6614 Clouds 9 1008 28 10000 0.89 241 11:44 05.12.2021
6615 Clouds 8 1008 31 10000 0.89 254 10:43 05.12.2021
6616 Clouds 9 1008 30 10000 0.89 107 09:47 05.12.2021
6617 Clouds 9 1011 34 10000 0.45 236 06:30 05.12.2021
6618 Clear 12 1011 28 10000 0.45 275 01:29 05.12.2021
6619 Clear 19 1012 19 10000 0.45 100 23:22 04.12.2021
6620 Clouds 19 1013 22 10000 0.89 99 21:51 04.12.2021
6621 Clear 18 1013 25 10000 0.45 319 20:47 04.12.2021
6622 Clear 16 1014 27 10000 0.89 340 19:54 04.12.2021
6623 Clear 15 1015 30 10000 1.34 329 19:30 04.12.2021
6624 Clouds 12 1017 39 10000 0.45 97 17:53 04.12.2021
6625 Clouds 9 1017 44 10000 0.45 168 17:35 04.12.2021
6626 Clouds 9 1017 47 10000 1.45 191 16:47 04.12.2021
6627 Clouds 6 1015 55 10000 1.56 191 16:28 04.12.2021
6628 Clouds 4 1018 63 10000 2.17 187 13:39 04.12.2021
6629 Clear 4 1018 61 10000 0.64 56 11:44 04.12.2021
6630 Clear 4 1018 61 10000 0.93 26 11:19 04.12.2021
6631 Clear 3 1018 66 10000 0.77 159 10:24 04.12.2021
6632 Clear 3 1018 65 10000 0.55 77 08:42 04.12.2021
6633 Clear 5 1018 56 10000 0.45 272 05:30 04.12.2021
6634 Clear 6 1019 56 10000 0.45 271 04:40 04.12.2021
6635 Clouds 15 1016 33 10000 0.89 34 23:49 03.12.2021
6636 Clouds 16 1015 30 10000 1.79 11 22:55 03.12.2021
6637 Clouds 16 1015 30 10000 0.89 102 21:58 03.12.2021
6638 Clouds 16 1016 32 10000 1.79 71 21:24 03.12.2021
6639 Clouds 15 1016 35 10000 1.34 82 20:43 03.12.2021
6640 Clouds 12 1018 41 10000<